# Wetter Temperatur Luftdruck Luftfeuchtigkeit Sichtweite Windgeschwindigkeit Windrichtung Zeit
1 Clouds 26 1015 81 10000 1.34 1 11:30 14.08.2022
2 Clouds 24 1015 90 10000 1.89 357 09:34 14.08.2022
3 Clear 25 1016 88 10000 1.51 1 06:53 14.08.2022
4 Clouds 26 1016 83 10000 0 0 05:45 14.08.2022
5 Clouds 29 1015 72 10000 2.57 150 01:43 14.08.2022
6 Clouds 31 1014 65 10000 2.57 180 23:22 13.08.2022
7 Clouds 32 1014 66 10000 2.57 180 22:28 13.08.2022
8 Clouds 32 1015 64 10000 2.57 90 20:51 13.08.2022
9 Clouds 32 1016 67 10000 1.79 139 19:49 13.08.2022
10 Clouds 32 1017 66 10000 1.79 148 19:18 13.08.2022
11 Clouds 31 1017 69 10000 1.79 120 17:21 13.08.2022
12 Clouds 27 1017 83 10000 1.34 52 14:51 13.08.2022
13 Clouds 26 1017 85 10000 1.79 41 14:24 13.08.2022
14 Clouds 25 1016 91 10000 0 0 13:34 13.08.2022
15 Clouds 24 1016 94 10000 1.85 344 11:33 13.08.2022
16 Clear 23 1015 92 10000 1.36 341 09:26 13.08.2022
17 Clouds 25 1015 91 10000 1.26 350 07:43 13.08.2022
18 Clouds 26 1014 83 10000 0 0 01:52 13.08.2022
19 Clouds 28 1014 75 10000 4.12 160 23:32 12.08.2022
20 Clouds 29 1015 75 10000 4.12 90 21:39 12.08.2022
21 Clouds 29 1016 73 10000 3.09 30 19:49 12.08.2022
22 Clouds 29 1016 70 10000 3.09 30 19:23 12.08.2022
23 Clouds 30 1016 73 10000 1.79 70 18:26 12.08.2022
24 Clouds 28 1017 77 9867 1.34 90 16:27 12.08.2022
25 Clouds 27 1016 80 10000 3.09 360 15:21 12.08.2022
26 Clouds 25 1016 87 10000 2.24 21 13:47 12.08.2022
27 Clouds 26 1015 84 10000 1.34 13 12:32 12.08.2022
28 Clouds 26 1015 83 10000 1.34 324 08:57 12.08.2022
29 Clouds 24 1015 93 10000 2.26 335 07:46 12.08.2022
30 Clouds 26 1016 84 10000 1.34 339 06:23 12.08.2022
31 Clouds 28 1014 81 10000 5.14 90 00:32 12.08.2022
32 Clouds 29 1014 77 10000 5.14 90 23:58 11.08.2022
33 Clouds 30 1014 72 10000 5.14 90 23:22 11.08.2022
34 Clouds 32 1014 64 10000 4.12 30 21:53 11.08.2022
35 Clouds 32 1014 62 10000 4.12 30 21:28 11.08.2022
36 Clouds 33 1014 58 10000 1.34 147 20:31 11.08.2022
37 Clouds 32 1015 62 10000 1.79 153 19:33 11.08.2022
38 Clouds 32 1016 64 10000 1.34 144 18:56 11.08.2022
39 Clouds 30 1016 70 10000 3.6 60 16:47 11.08.2022
40 Clouds 28 1016 76 10000 2.57 360 15:43 11.08.2022
41 Clouds 27 1016 82 10000 1.34 353 14:36 11.08.2022
42 Clouds 26 1015 84 10000 1.34 346 11:59 11.08.2022
43 Clouds 24 1015 93 10000 2.43 341 09:22 11.08.2022
44 Clouds 26 1016 87 10000 2.29 345 06:49 11.08.2022
45 Clouds 26 1017 85 10000 3.73 11 02:38 11.08.2022
46 Clouds 31 1015 65 10000 3.6 90 23:41 10.08.2022
47 Clouds 28 1016 80 10000 1.79 76 21:47 10.08.2022
48 Clouds 30 1016 63 10000 2.57 360 20:56 10.08.2022
49 Clouds 33 1016 55 10000 2.57 360 20:35 10.08.2022
50 Clouds 31 1017 66 10000 3.6 30 18:48 10.08.2022
51 Clouds 30 1018 70 10000 4.12 20 17:27 10.08.2022
52 Clouds 27 1018 80 10000 1.34 352 14:36 10.08.2022
53 Clouds 26 1017 83 10000 0.89 353 13:32 10.08.2022
54 Clear 26 1016 80 10000 1.79 2 10:47 10.08.2022
55 Clear 26 1016 81 10000 1.79 6 08:37 10.08.2022
56 Clouds 27 1017 81 10000 2.24 3 07:23 10.08.2022
57 Clouds 26 1017 82 10000 3.09 360 04:50 10.08.2022
58 Clouds 30 1015 69 10000 6.69 50 00:50 10.08.2022
59 Clouds 32 1015 62 10000 5.14 60 23:29 09.08.2022
60 Clouds 32 1015 65 10000 4.12 30 21:41 09.08.2022
61 Clouds 32 1015 66 10000 4.12 30 21:22 09.08.2022
62 Clouds 32 1016 64 10000 5.14 30 19:18 09.08.2022
63 Clouds 31 1018 68 10000 5.14 30 17:37 09.08.2022
64 Clouds 31 1018 69 10000 5.14 30 17:19 09.08.2022
65 Clouds 30 1018 73 10000 4.12 360 16:22 09.08.2022
66 Clouds 28 1018 77 10000 2.68 31 15:23 09.08.2022
67 Clouds 25 1017 92 10000 3.08 343 11:30 09.08.2022
68 Clouds 25 1016 94 10000 3.46 11 08:53 09.08.2022
69 Clouds 27 1015 82 10000 2.24 4 07:58 09.08.2022
70 Clouds 26 1016 87 10000 1.79 6 05:24 09.08.2022
71 Thunderstorm 28 1014 80 10000 2.24 14 00:59 09.08.2022
72 Clouds 27 1014 79 8000 1.79 338 23:24 08.08.2022
73 Thunderstorm 31 1014 75 10000 2.57 360 22:40 08.08.2022
74 Clouds 31 1014 75 8000 5.14 180 21:44 08.08.2022
75 Clouds 30 1014 78 8000 4.12 150 20:39 08.08.2022
76 Clouds 32 1015 71 10000 3.09 90 19:35 08.08.2022
77 Clouds 31 1015 67 10000 3.6 60 18:18 08.08.2022
78 Clouds 28 1016 81 10000 2.57 360 15:48 08.08.2022
79 Clouds 28 1016 83 10000 2.57 360 15:28 08.08.2022
80 Clouds 24 1016 93 10000 2.98 351 12:30 08.08.2022
81 Clouds 27 1013 85 10000 2.24 15 10:28 08.08.2022
82 Clouds 27 1014 84 10000 2.24 1 07:51 08.08.2022
83 Clouds 25 1015 88 10000 4.12 30 03:42 08.08.2022
84 Clouds 28 1014 79 10000 5.14 10 23:28 07.08.2022
85 Clouds 29 1014 74 10000 3.6 350 21:41 07.08.2022
86 Clouds 29 1015 74 10000 5.14 40 20:55 07.08.2022
87 Clouds 29 1015 73 10000 5.14 40 20:18 07.08.2022
88 Clouds 29 1016 73 10000 5.14 30 19:51 07.08.2022
89 Clouds 30 1017 70 10000 6.17 360 18:41 07.08.2022
90 Clouds 28 1017 76 10000 5.14 360 17:21 07.08.2022
91 Clouds 28 1017 77 10000 5.14 10 16:41 07.08.2022
92 Clouds 28 1017 80 10000 5.14 360 15:26 07.08.2022
93 Clouds 25 1016 89 8000 2.68 353 13:47 07.08.2022
94 Clouds 26 1016 85 10000 2.24 359 12:19 07.08.2022
95 Clouds 26 1015 85 10000 1.34 351 10:42 07.08.2022
96 Clouds 26 1015 85 10000 2.24 357 09:35 07.08.2022
97 Clouds 25 1017 89 10000 1.79 20 04:33 07.08.2022
98 Clouds 26 1015 88 8000 1.34 342 01:58 07.08.2022
99 Clouds 29 1015 77 8000 0 0 22:30 06.08.2022
100 Clouds 28 1015 81 8000 0.45 310 21:43 06.08.2022
101 Clouds 30 1016 71 8000 5.14 280 19:42 06.08.2022
102 Clouds 31 1016 69 10000 5.14 60 18:33 06.08.2022
103 Clouds 31 1017 66 10000 5.14 30 17:39 06.08.2022
104 Clouds 28 1017 79 10000 3.09 30 15:21 06.08.2022
105 Clouds 26 1016 88 10000 1.79 357 13:50 06.08.2022
106 Clouds 26 1015 85 10000 1.34 5 12:21 06.08.2022
107 Clouds 26 1015 84 10000 1.34 356 10:37 06.08.2022
108 Clouds 26 1015 83 10000 1.79 357 09:21 06.08.2022
109 Clouds 25 1016 87 10000 3.09 360 03:55 06.08.2022
110 Clouds 27 1014 84 10000 1.79 350 00:27 06.08.2022
111 Clouds 28 1014 82 10000 2.57 330 22:34 05.08.2022
112 Clouds 30 1015 74 8000 6.17 30 20:30 05.08.2022
113 Clouds 29 1015 73 10000 2.57 60 18:53 05.08.2022
114 Clouds 31 1016 66 10000 2.57 60 18:35 05.08.2022
115 Clouds 29 1016 72 10000 5.14 360 16:51 05.08.2022
116 Clouds 28 1016 79 10000 5.14 20 15:23 05.08.2022
117 Clouds 27 1016 84 10000 2.68 17 14:34 05.08.2022
118 Clouds 25 1015 89 10000 0 0 13:26 05.08.2022
119 Clouds 26 1015 85 10000 1.79 4 12:45 05.08.2022
120 Clouds 26 1015 86 10000 1.34 357 10:59 05.08.2022
121 Clouds 23 1015 95 10000 3.33 334 08:46 05.08.2022
122 Clouds 24 1015 95 10000 3.38 339 07:33 05.08.2022
123 Clouds 25 1016 92 8000 1.79 342 01:52 05.08.2022
124 Clouds 28 1015 77 10000 1.34 289 22:43 04.08.2022
125 Clouds 28 1015 79 8000 0.89 157 21:28 04.08.2022
126 Clouds 29 1016 72 10000 0.45 313 20:53 04.08.2022
127 Clouds 29 1016 71 10000 1.34 327 20:33 04.08.2022
128 Clouds 31 1016 71 10000 5.14 60 18:57 04.08.2022
129 Clouds 31 1017 65 10000 5.14 60 18:33 04.08.2022
130 Clouds 27 1017 85 10000 2.68 55 14:50 04.08.2022
131 Clouds 24 1016 91 10000 0 0 13:23 04.08.2022
132 Clouds 23 1015 91 10000 2.73 339 11:38 04.08.2022
133 Clouds 23 1015 91 10000 2.64 340 10:20 04.08.2022
134 Clouds 24 1015 91 10000 1.87 334 07:44 04.08.2022
135 Clouds 27 1016 77 10000 2.24 37 02:46 04.08.2022
136 Clouds 29 1014 69 10000 4.12 50 23:58 03.08.2022
137 Clouds 29 1014 68 10000 4.12 50 23:36 03.08.2022
138 Clouds 29 1015 68 8000 6.17 20 21:26 03.08.2022
139 Clouds 32 1015 63 10000 5.14 190 20:20 03.08.2022
140 Clouds 31 1016 66 10000 2.57 150 18:53 03.08.2022
141 Clouds 30 1016 68 10000 2.57 60 16:27 03.08.2022
142 Clouds 28 1016 77 10000 2.24 57 15:53 03.08.2022
143 Clouds 25 1015 88 10000 1.34 2 13:38 03.08.2022
144 Clouds 23 1014 92 10000 2.24 359 10:44 03.08.2022
145 Clouds 24 1015 93 10000 1.92 325 07:21 03.08.2022
146 Clouds 24 1015 91 10000 0 0 04:22 03.08.2022
147 Clouds 27 1015 80 10000 1.34 351 03:22 03.08.2022
148 Clouds 26 1014 80 10000 0 0 00:46 03.08.2022
149 Clouds 27 1015 83 8000 0 0 22:33 02.08.2022
150 Clouds 28 1015 78 7000 4.12 360 21:50 02.08.2022
151 Clouds 32 1015 62 10000 0 0 20:27 02.08.2022
152 Clouds 29 1017 72 10000 4.12 360 16:52 02.08.2022
153 Clouds 26 1017 86 10000 4.12 20 14:33 02.08.2022
154 Clouds 24 1016 79 10000 3.12 341 10:44 02.08.2022
155 Clouds 25 1016 80 10000 3.41 342 08:36 02.08.2022
156 Clouds 26 1016 80 10000 3.05 343 07:51 02.08.2022
157 Clouds 26 1017 87 10000 0 0 04:56 02.08.2022
158 Clear 28 1017 77 10000 4.01 16 02:30 02.08.2022
159 Clouds 33 1016 62 10000 5.14 30 23:26 01.08.2022
160 Clouds 32 1017 65 10000 3.09 20 21:48 01.08.2022
161 Clouds 34 1018 58 10000 3.6 360 20:27 01.08.2022
162 Clouds 31 1019 64 10000 5.14 360 18:56 01.08.2022
163 Clouds 29 1019 73 10000 5.14 10 16:59 01.08.2022
164 Clouds 29 1019 73 10000 5.14 10 16:39 01.08.2022
165 Clouds 28 1019 78 10000 2.57 330 15:45 01.08.2022
166 Clouds 26 1019 87 10000 5.14 360 14:57 01.08.2022
167 Clouds 25 1020 92 10000 2.57 360 13:32 01.08.2022
168 Clouds 25 1018 93 10000 3.07 352 11:18 01.08.2022
169 Clouds 25 1018 92 10000 3.22 353 08:55 01.08.2022
170 Clouds 25 1018 92 10000 3.46 355 07:37 01.08.2022
171 Clouds 25 1020 91 10000 0 0 04:37 01.08.2022
172 Clouds 25 1018 89 10000 0 0 01:33 01.08.2022
173 Clouds 32 1017 65 10000 5.14 180 22:47 31.07.2022
174 Clouds 32 1017 64 10000 5.14 180 22:29 31.07.2022
175 Clouds 33 1018 60 10000 4.12 90 20:39 31.07.2022
176 Clouds 32 1019 65 10000 4.12 40 18:40 31.07.2022
177 Clouds 30 1019 71 10000 3.09 60 16:55 31.07.2022
178 Clouds 27 1019 84 10000 3.09 10 14:38 31.07.2022
179 Clouds 23 1018 96 10000 2.47 352 12:59 31.07.2022
180 Clouds 23 1018 96 10000 2.61 349 11:39 31.07.2022
181 Clouds 25 1017 96 10000 2.8 344 08:47 31.07.2022
182 Clouds 25 1018 92 10000 0 0 05:38 31.07.2022
183 Clouds 25 1017 90 10000 0 0 01:21 31.07.2022
184 Clouds 25 1016 94 10000 2.63 38 22:49 30.07.2022
185 Thunderstorm 27 1016 85 10000 0 0 21:52 30.07.2022
186 Thunderstorm 27 1016 86 10000 0 0 21:33 30.07.2022
187 Clouds 28 1017 80 6000 3.09 30 20:33 30.07.2022
188 Clouds 30 1017 79 8000 5.14 360 19:50 30.07.2022
189 Clouds 31 1018 67 8000 5.14 350 18:19 30.07.2022
190 Clouds 30 1018 75 10000 4.88 31 16:38 30.07.2022
191 Clouds 28 1018 78 10000 6.17 60 15:33 30.07.2022
192 Clouds 25 1017 88 10000 2.57 360 13:23 30.07.2022
193 Clear 24 1017 93 10000 3.35 337 12:22 30.07.2022
194 Clear 24 1017 93 10000 3.35 337 11:51 30.07.2022
195 Clear 24 1016 94 10000 3.22 339 10:19 30.07.2022
196 Clear 24 1016 94 10000 3.25 338 08:54 30.07.2022
197 Clear 24 1018 94 10000 3.01 342 06:58 30.07.2022
198 Clear 27 1017 82 10000 3.48 18 02:33 30.07.2022
199 Clouds 27 1015 86 8000 2.57 270 23:57 29.07.2022
200 Clouds 29 1016 74 8000 0 0 21:37 29.07.2022
201 Clouds 32 1016 61 10000 5.14 20 20:50 29.07.2022
202 Clouds 31 1017 65 10000 5.66 30 19:46 29.07.2022
203 Clouds 31 1018 66 10000 2.57 60 17:25 29.07.2022
204 Clouds 26 1017 82 10000 0 0 14:48 29.07.2022
205 Clear 23 1017 86 10000 2.89 347 12:42 29.07.2022
206 Clear 23 1016 86 10000 2.83 343 08:52 29.07.2022
207 Clouds 23 1016 86 10000 2.65 343 08:23 29.07.2022
208 Clouds 25 1017 85 10000 2.24 2 05:19 29.07.2022
209 Clouds 27 1015 78 8000 3.09 360 23:59 28.07.2022
210 Clouds 30 1015 69 7000 5.14 80 21:39 28.07.2022
211 Clouds 30 1015 68 8000 5.14 160 20:54 28.07.2022
212 Clouds 30 1015 66 8000 5.14 160 20:18 28.07.2022
213 Clouds 30 1015 65 10000 5.14 90 19:40 28.07.2022
214 Clouds 30 1016 67 10000 3.09 90 18:19 28.07.2022
215 Clear 30 1016 68 10000 2.68 94 17:36 28.07.2022
216 Clouds 28 1016 73 10000 5.14 360 16:41 28.07.2022
217 Clouds 24 1016 86 10000 0 0 14:28 28.07.2022
218 Clouds 25 1015 83 10000 1.79 350 12:41 28.07.2022
219 Clouds 23 1015 92 10000 2.89 343 09:21 28.07.2022
220 Clouds 24 1017 88 10000 0 0 05:41 28.07.2022
221 Clouds 24 1017 88 10000 0 0 05:21 28.07.2022
222 Clouds 29 1015 70 10000 5.14 90 23:41 27.07.2022
223 Clouds 29 1015 67 10000 2.24 9 21:31 27.07.2022
224 Clouds 27 1017 74 7000 2.57 30 20:19 27.07.2022
225 Clouds 30 1016 62 10000 5.14 60 19:26 27.07.2022
226 Clear 29 1017 72 10000 1.79 59 16:32 27.07.2022
227 Clouds 28 1017 74 10000 5.14 360 15:51 27.07.2022
228 Clouds 27 1017 84 10000 2.68 26 14:42 27.07.2022
229 Clouds 25 1016 87 10000 2.24 6 13:45 27.07.2022
230 Clear 26 1016 84 10000 1.79 338 10:39 27.07.2022
231 Clouds 27 1017 82 10000 2.68 1 07:53 27.07.2022
232 Clouds 25 1018 90 10000 0 0 04:54 27.07.2022
233 Clouds 31 1015 69 10000 1.34 130 23:25 26.07.2022
234 Clouds 32 1015 66 10000 5.14 180 22:19 26.07.2022
235 Clouds 32 1016 65 10000 5.14 40 20:58 26.07.2022
236 Clouds 33 1017 58 10000 2.68 66 19:32 26.07.2022
237 Clouds 31 1017 62 10000 5.14 60 18:40 26.07.2022
238 Clouds 31 1018 64 10000 4.12 360 17:54 26.07.2022
239 Clouds 29 1018 77 10000 2.57 30 15:43 26.07.2022
240 Clouds 27 1017 83 10000 4.12 360 14:43 26.07.2022
241 Clouds 23 1018 93 10000 2.8 350 12:33 26.07.2022
242 Clouds 23 1017 96 10000 2.59 335 10:20 26.07.2022
243 Clouds 24 1017 97 10000 2.26 349 08:27 26.07.2022
244 Clouds 26 1016 87 10000 3.58 22 01:52 26.07.2022
245 Clouds 26 1016 87 10000 3.13 17 00:20 26.07.2022
246 Clouds 29 1015 78 10000 2.57 90 22:40 25.07.2022
247 Clouds 29 1015 78 10000 2.57 90 22:40 25.07.2022
248 Clouds 30 1015 75 10000 1.79 122 21:43 25.07.2022
249 Clouds 30 1015 75 8000 3.09 360 20:43 25.07.2022
250 Clouds 30 1015 73 8000 3.09 360 20:23 25.07.2022
251 Clouds 31 1016 68 8000 2.57 90 19:24 25.07.2022
252 Clouds 30 1016 71 10000 2.57 20 17:37 25.07.2022
253 Clouds 29 1016 75 10000 3.09 30 16:44 25.07.2022
254 Clouds 24 1016 89 10000 0.89 1 13:22 25.07.2022
255 Clear 25 1015 85 10000 0.89 325 10:48 25.07.2022
256 Clouds 26 1015 86 10000 1.79 44 07:32 25.07.2022
257 Clouds 25 1014 87 10000 4.12 360 00:57 25.07.2022
258 Clouds 26 1014 83 10000 2.57 30 23:45 24.07.2022
259 Clouds 27 1014 77 10000 1.79 5 22:44 24.07.2022
260 Clouds 27 1014 77 7000 2.57 330 21:41 24.07.2022
261 Clouds 28 1014 75 10000 5.14 30 20:58 24.07.2022
262 Clouds 28 1014 74 10000 5.14 30 20:37 24.07.2022
263 Clouds 29 1014 71 10000 3.6 300 19:18 24.07.2022
264 Clouds 29 1015 70 10000 3.6 60 17:56 24.07.2022
265 Clouds 28 1016 75 10000 2.68 7 15:54 24.07.2022
266 Clouds 27 1016 79 10000 2.24 22 14:41 24.07.2022
267 Clouds 26 1015 85 10000 2.24 4 13:47 24.07.2022
268 Clouds 26 1015 81 10000 1.34 336 12:27 24.07.2022
269 Clouds 26 1015 81 10000 1.79 336 11:30 24.07.2022
270 Clouds 24 1015 93 10000 3.16 335 09:44 24.07.2022
271 Clouds 24 1015 93 10000 3.23 346 07:53 24.07.2022
272 Clouds 24 1015 91 10000 3.31 349 07:26 24.07.2022
273 Clouds 28 1015 74 10000 3.09 30 02:57 24.07.2022
274 Clouds 31 1014 59 10000 4.02 44 22:52 23.07.2022
275 Clouds 32 1015 60 10000 6.17 30 20:47 23.07.2022
276 Clouds 30 1016 68 10000 4.92 65 19:25 23.07.2022
277 Clouds 31 1016 63 10000 5.14 60 18:18 23.07.2022
278 Clouds 30 1016 66 10000 6.69 60 17:27 23.07.2022
279 Clouds 30 1017 71 10000 5.14 20 16:22 23.07.2022
280 Clouds 29 1017 74 10000 5.14 360 15:21 23.07.2022
281 Clouds 27 1017 81 10000 2.57 360 14:52 23.07.2022
282 Clouds 27 1017 83 10000 2.57 360 14:21 23.07.2022
283 Clouds 24 1016 95 10000 2.9 341 11:56 23.07.2022
284 Clouds 24 1016 95 10000 2.97 345 10:41 23.07.2022
285 Clouds 24 1016 95 10000 3.04 351 09:38 23.07.2022
286 Clouds 26 1017 87 10000 2.9 355 07:18 23.07.2022
287 Clouds 25 1017 91 10000 0 0 03:37 23.07.2022
288 Clouds 28 1016 80 8000 0.89 331 00:34 23.07.2022
289 Clouds 31 1016 67 10000 5.14 180 21:33 22.07.2022
290 Clouds 31 1016 68 10000 5.14 180 20:31 22.07.2022
291 Clouds 31 1017 73 10000 3.13 117 18:42 22.07.2022
292 Clouds 31 1017 71 10000 2.24 118 17:40 22.07.2022
293 Clouds 28 1017 80 10000 1.79 96 15:48 22.07.2022
294 Clouds 25 1017 95 4618 1.79 8 12:47 22.07.2022
295 Clouds 26 1015 87 10000 1.34 1 10:22 22.07.2022
296 Clouds 26 1015 87 10000 1.34 5 09:21 22.07.2022
297 Clouds 26 1015 86 10000 1.34 355 07:57 22.07.2022
298 Clouds 24 1017 93 10000 1.34 18 04:23 22.07.2022
299 Clouds 26 1016 89 10000 2.57 330 23:43 21.07.2022
300 Clouds 26 1014 90 10000 2.28 56 21:51 21.07.2022
301 Clouds 28 1016 80 6000 5.14 120 19:45 21.07.2022
302 Clouds 32 1016 62 10000 5.14 50 18:36 21.07.2022
303 Clouds 31 1016 68 10000 2.57 60 17:22 21.07.2022
304 Clouds 30 1016 73 10000 5.14 30 16:23 21.07.2022
305 Clouds 27 1016 84 10000 2.24 18 14:46 21.07.2022
306 Clouds 26 1016 87 10000 2.24 5 13:53 21.07.2022
307 Clouds 24 1016 93 10000 2.74 341 11:54 21.07.2022
308 Clouds 24 1015 92 10000 2.47 346 10:20 21.07.2022
309 Clouds 25 1015 92 10000 2.6 344 08:53 21.07.2022
310 Clouds 25 1015 92 10000 2.6 344 08:53 21.07.2022
311 Clouds 27 1016 83 10000 1.79 340 07:50 21.07.2022
312 Clouds 27 1017 83 10000 1.79 15 06:27 21.07.2022
313 Clouds 27 1015 79 10000 3.6 360 02:49 21.07.2022
314 Clouds 31 1014 63 10000 5.14 180 22:47 20.07.2022
315 Clouds 32 1014 63 10000 5.14 180 22:19 20.07.2022
316 Clouds 31 1014 65 8000 2.57 150 20:46 20.07.2022
317 Clouds 32 1015 66 10000 3.6 360 19:46 20.07.2022
318 Clouds 32 1016 64 10000 1.34 171 18:54 20.07.2022
319 Clouds 32 1016 64 10000 1.79 119 18:31 20.07.2022
320 Clouds 31 1016 67 10000 2.57 90 17:25 20.07.2022
321 Clouds 28 1016 76 10000 2.57 360 15:33 20.07.2022
322 Clouds 26 1016 83 10000 2.68 15 14:36 20.07.2022
323 Clouds 26 1016 80 10000 1.34 11 12:54 20.07.2022
324 Clouds 27 1016 81 10000 1.34 31 10:57 20.07.2022
325 Clouds 26 1017 85 10000 1.79 2 06:21 20.07.2022
326 Clouds 27 1016 83 10000 1.34 351 01:40 20.07.2022
327 Clouds 28 1016 78 10000 2.06 30 00:41 20.07.2022
328 Clouds 28 1016 79 10000 2.57 360 22:36 19.07.2022
329 Clouds 30 1016 72 10000 3.6 30 21:54 19.07.2022
330 Clouds 32 1016 66 10000 1.34 135 20:49 19.07.2022
331 Clouds 31 1017 62 10000 1.79 151 19:22 19.07.2022
332 Clouds 31 1017 65 10000 1.34 156 18:41 19.07.2022
333 Clouds 31 1018 65 10000 3.6 60 17:53 19.07.2022
334 Clouds 28 1018 76 10000 2.24 74 15:27 19.07.2022
335 Clouds 25 1018 89 10000 1.79 12 13:37 19.07.2022
336 Clear 26 1017 83 10000 1.34 356 11:33 19.07.2022
337 Clear 26 1017 84 10000 1.34 357 09:52 19.07.2022
338 Clear 26 1017 84 10000 1.34 353 08:47 19.07.2022
339 Clouds 26 1017 83 10000 1.34 3 07:46 19.07.2022
340 Clouds 26 1017 83 10000 1.34 345 07:18 19.07.2022
341 Clouds 25 1017 87 10000 1.34 342 05:18 19.07.2022
342 Clouds 26 1017 82 10000 1.79 344 02:38 19.07.2022
343 Clouds 27 1016 85 7000 4.12 360 23:54 18.07.2022
344 Clouds 27 1016 85 7000 4.12 360 23:20 18.07.2022
345 Clouds 28 1016 79 6000 5.14 360 22:26 18.07.2022
346 Clouds 30 1015 62 10000 3.66 151 21:24 18.07.2022
347 Clouds 31 1017 66 8000 6.17 180 20:34 18.07.2022
348 Clouds 30 1017 69 10000 3.09 30 18:31 18.07.2022
349 Clouds 29 1018 73 10000 5.14 360 16:34 18.07.2022
350 Clouds 28 1018 78 10000 4.12 360 15:28 18.07.2022
351 Clouds 25 1018 87 10000 3.6 360 13:32 18.07.2022
352 Clouds 26 1017 81 10000 2.24 12 11:43 18.07.2022
353 Clouds 23 1017 89 10000 3.33 344 09:55 18.07.2022
354 Clear 27 1018 81 10000 2.68 6 07:58 18.07.2022
355 Clouds 25 1018 83 10000 0 0 05:25 18.07.2022
356 Clouds 32 1015 60 10000 5.14 60 22:57 17.07.2022
357 Clouds 32 1015 60 10000 5.14 60 22:31 17.07.2022
358 Clouds 32 1015 61 10000 3.13 112 21:39 17.07.2022
359 Clouds 32 1016 62 10000 5.14 40 20:46 17.07.2022
360 Clouds 31 1016 64 10000 5.14 30 19:50 17.07.2022
361 Clouds 31 1016 63 10000 5.14 30 19:21 17.07.2022
362 Clouds 31 1018 64 10000 5.14 30 17:43 17.07.2022
363 Clouds 31 1017 65 10000 5.14 30 17:25 17.07.2022
364 Clouds 30 1017 71 10000 5.14 360 16:32 17.07.2022
365 Clouds 28 1017 76 10000 5.14 20 15:49 17.07.2022
366 Clouds 26 1017 87 10000 2.57 300 13:51 17.07.2022
367 Clouds 25 1017 94 10000 2.63 346 12:42 17.07.2022
368 Clouds 25 1016 95 10000 2.62 344 10:19 17.07.2022
369 Clear 26 1017 93 10000 2.54 338 06:59 17.07.2022
370 Clouds 29 1016 75 10000 1.79 41 02:34 17.07.2022
371 Clouds 29 1016 75 10000 1.79 41 02:34 17.07.2022
372 Clouds 31 1014 65 10000 4.12 180 23:23 16.07.2022
373 Clouds 32 1014 63 10000 3.6 180 22:20 16.07.2022
374 Clouds 32 1015 64 10000 5.14 180 20:29 16.07.2022
375 Clouds 31 1016 67 10000 3.13 111 18:54 16.07.2022
376 Clouds 31 1017 67 10000 3.58 114 17:38 16.07.2022
377 Clouds 28 1016 80 10000 2.57 60 15:54 16.07.2022
378 Clouds 24 1016 95 10000 2.24 348 12:26 16.07.2022
379 Clouds 24 1015 94 10000 2.71 352 10:18 16.07.2022
380 Clouds 24 1015 94 10000 2.75 348 09:25 16.07.2022
381 Clouds 24 1015 94 10000 2.75 348 08:40 16.07.2022
382 Clouds 25 1017 95 10000 2.52 349 06:57 16.07.2022
383 Clouds 26 1016 86 10000 1.79 12 03:32 16.07.2022
384 Clouds 29 1014 72 10000 1.34 77 23:54 15.07.2022
385 Clouds 31 1014 67 10000 1.79 163 22:54 15.07.2022
386 Clouds 30 1015 71 10000 1.34 154 21:55 15.07.2022
387 Clouds 29 1015 72 10000 1.34 116 20:35 15.07.2022
388 Clouds 29 1017 75 10000 3.6 360 18:55 15.07.2022
389 Clouds 30 1017 72 10000 3.6 360 18:22 15.07.2022
390 Clouds 29 1017 74 10000 4.12 80 16:46 15.07.2022
391 Clouds 25 1017 88 10000 2.24 357 13:58 15.07.2022
392 Clouds 26 1016 81 10000 2.24 355 12:22 15.07.2022
393 Clouds 26 1016 80 10000 2.24 7 10:52 15.07.2022
394 Clouds 26 1016 81 10000 1.79 358 07:47 15.07.2022
395 Clouds 26 1017 83 10000 2.24 6 02:51 15.07.2022
396 Clouds 27 1016 83 10000 2.57 60 00:39 15.07.2022
397 Clouds 27 1016 83 10000 2.57 60 00:39 15.07.2022
398 Clouds 27 1016 78 10000 2.57 330 22:56 14.07.2022
399 Clouds 28 1016 75 10000 2.57 330 22:19 14.07.2022
400 Clouds 27 1017 85 10000 5.14 330 21:37 14.07.2022
401 Clouds 27 1017 83 10000 5.14 330 21:18 14.07.2022
402 Clouds 28 1017 76 10000 6.17 90 20:42 14.07.2022
403 Clouds 29 1017 74 10000 6.17 90 20:18 14.07.2022
404 Clouds 30 1018 70 10000 1.79 112 17:59 14.07.2022
405 Clouds 30 1018 71 10000 3.09 60 16:19 14.07.2022
406 Clouds 27 1017 81 10000 2.57 360 14:55 14.07.2022
407 Clouds 26 1017 85 10000 1.34 6 13:51 14.07.2022
408 Clouds 24 1018 91 10000 2 340 12:34 14.07.2022
409 Clouds 24 1017 92 10000 2.33 340 11:26 14.07.2022
410 Clouds 24 1017 92 10000 2.33 340 10:51 14.07.2022
411 Clouds 24 1016 92 10000 2.19 337 08:45 14.07.2022
412 Clouds 26 1018 78 10000 0 0 04:18 14.07.2022
413 Clouds 29 1016 71 10000 2.68 33 00:55 14.07.2022
414 Clouds 29 1016 69 10000 2.68 60 00:18 14.07.2022
415 Clouds 31 1017 55 10000 5.14 90 22:28 13.07.2022
416 Clouds 31 1016 63 10000 3.6 60 21:37 13.07.2022
417 Clouds 32 1016 61 10000 5.14 130 20:38 13.07.2022
418 Clouds 31 1018 60 10000 5.14 40 18:23 13.07.2022
419 Clouds 30 1018 65 10000 2.57 30 17:22 13.07.2022
420 Clouds 28 1019 74 10000 5.14 360 15:59 13.07.2022
421 Clouds 25 1018 86 10000 1.79 355 13:50 13.07.2022
422 Clear 23 1018 90 10000 2.15 342 11:30 13.07.2022
423 Clear 24 1018 89 10000 1.87 347 10:44 13.07.2022
424 Clear 27 1017 81 10000 1.34 335 09:29 13.07.2022
425 Clouds 27 1017 80 10000 2.24 6 08:23 13.07.2022
426 Clouds 26 1017 85 10000 0 0 04:50 13.07.2022
427 Clouds 29 1017 74 10000 3.09 180 00:47 13.07.2022
428 Clouds 31 1016 73 10000 5.14 180 22:47 12.07.2022
429 Clouds 32 1016 70 10000 4.12 70 21:49 12.07.2022
430 Clouds 32 1016 69 10000 5.14 30 20:53 12.07.2022
431 Clouds 31 1017 69 10000 4.12 30 19:54 12.07.2022
432 Clouds 31 1017 66 10000 1.34 145 18:43 12.07.2022
433 Clouds 29 1018 71 10000 5.14 30 16:36 12.07.2022
434 Clouds 26 1018 83 10000 1.34 1 14:32 12.07.2022
435 Clouds 25 1017 87 10000 1.34 3 13:43 12.07.2022
436 Clear 26 1017 84 10000 1.34 316 11:54 12.07.2022
437 Clear 27 1016 81 10000 0.89 330 10:27 12.07.2022
438 Clear 24 1016 85 10000 1.74 338 08:57 12.07.2022
439 Clouds 27 1017 79 10000 0.89 351 07:48 12.07.2022
440 Clouds 24 1018 89 10000 0 0 05:45 12.07.2022
441 Clouds 25 1017 89 10000 0 0 04:57 12.07.2022
442 Clouds 28 1015 79 10000 3.6 180 01:31 12.07.2022
443 Clouds 30 1015 75 10000 3.6 180 22:43 11.07.2022
444 Clouds 31 1016 71 10000 5.66 180 21:34 11.07.2022
445 Clouds 32 1016 67 10000 5.14 180 20:32 11.07.2022
446 Clouds 31 1016 67 10000 5.14 160 19:18 11.07.2022
447 Clouds 31 1017 69 10000 2.24 114 18:29 11.07.2022
448 Clouds 29 1017 77 10000 2.24 97 16:30 11.07.2022
449 Clouds 28 1016 80 10000 3.09 360 15:28 11.07.2022
450 Clouds 25 1016 89 10000 1.34 336 13:19 11.07.2022
451 Clouds 26 1015 84 10000 0.89 4 11:23 11.07.2022
452 Clouds 26 1015 82 10000 0.89 8 09:55 11.07.2022
453 Clouds 26 1015 83 10000 1.34 320 09:27 11.07.2022
454 Clouds 26 1015 82 10000 0.89 328 08:31 11.07.2022
455 Clouds 25 1016 87 10000 3.09 30 01:20 11.07.2022
456 Clouds 27 1016 84 7000 3.6 30 23:54 10.07.2022
457 Clouds 28 1015 80 6000 6.69 60 22:45 10.07.2022
458 Clouds 29 1016 75 6000 1.34 146 20:56 10.07.2022
459 Clouds 30 1016 73 6000 1.79 177 20:36 10.07.2022
460 Clouds 31 1017 66 8000 5.14 180 19:30 10.07.2022
461 Clouds 31 1017 66 8000 5.14 180 19:30 10.07.2022
462 Clouds 30 1018 75 10000 0.89 351 18:25 10.07.2022
463 Clouds 31 1018 57 10000 1.34 119 17:33 10.07.2022
464 Clouds 30 1018 70 10000 2.57 30 16:21 10.07.2022
465 Clouds 27 1018 86 10000 1.79 60 14:47 10.07.2022
466 Clouds 24 1018 96 10000 0 0 13:31 10.07.2022
467 Clouds 23 1017 88 10000 2.63 343 11:57 10.07.2022
468 Clouds 26 1017 85 10000 0.89 2 09:46 10.07.2022
469 Clouds 26 1017 84 10000 0.89 334 08:44 10.07.2022
470 Clouds 26 1018 84 10000 1.34 333 07:20 10.07.2022
471 Clouds 31 1017 68 10000 5.14 150 23:53 09.07.2022
472 Clouds 32 1017 67 10000 5.14 150 22:26 09.07.2022
473 Clouds 32 1018 67 10000 6.17 180 21:47 09.07.2022
474 Clouds 31 1019 66 10000 4.12 180 19:50 09.07.2022
475 Clouds 31 1020 67 10000 2.68 103 18:28 09.07.2022
476 Clouds 30 1020 72 10000 2.06 90 17:32 09.07.2022
477 Clouds 29 1020 76 10000 1.79 64 16:36 09.07.2022
478 Clouds 28 1020 79 10000 0.89 356 15:39 09.07.2022
479 Clouds 26 1020 85 10000 1.34 353 14:24 09.07.2022
480 Clouds 25 1020 84 10000 1.34 358 13:48 09.07.2022
481 Clouds 25 1019 85 10000 0.89 2 12:22 09.07.2022
482 Clouds 26 1019 84 10000 0.89 339 10:27 09.07.2022
483 Clouds 26 1019 84 10000 0.89 337 09:57 09.07.2022
484 Clouds 26 1019 85 10000 1.34 327 07:44 09.07.2022
485 Clouds 26 1020 82 10000 3.6 20 04:50 09.07.2022
486 Clouds 30 1017 67 10000 3.09 150 00:43 09.07.2022
487 Clouds 31 1017 62 10000 5.14 180 22:41 08.07.2022
488 Clouds 31 1017 64 10000 5.14 180 21:31 08.07.2022
489 Clouds 31 1017 64 10000 5.14 180 20:40 08.07.2022
490 Clouds 31 1018 64 10000 4.12 140 19:48 08.07.2022
491 Clouds 29 1019 69 10000 3.6 90 17:57 08.07.2022
492 Clouds 29 1019 73 10000 3.09 90 16:37 08.07.2022
493 Clouds 26 1018 83 10000 2.68 51 14:51 08.07.2022
494 Clear 24 1017 86 10000 1.34 6 12:42 08.07.2022
495 Clouds 24 1017 85 10000 0.89 337 11:25 08.07.2022
496 Clouds 25 1016 85 10000 0.45 354 10:26 08.07.2022
497 Clouds 25 1017 84 10000 0.89 324 08:24 08.07.2022
498 Clouds 25 1017 87 8228 0.89 332 06:47 08.07.2022
499 Clouds 24 1016 89 8000 1.79 350 01:19 08.07.2022
500 Clouds 26 1014 94 2000 5.14 90 22:57 07.07.2022
501 Clouds 26 1014 94 2000 5.14 90 22:57 07.07.2022
502 Clouds 32 1015 62 10000 5.14 180 21:57 07.07.2022
503 Clouds 31 1016 68 10000 5.14 120 19:47 07.07.2022
504 Clouds 30 1017 71 10000 3.09 160 17:56 07.07.2022
505 Clouds 28 1017 74 10000 1.79 98 16:43 07.07.2022
506 Clouds 25 1016 88 10000 0.45 300 14:32 07.07.2022
507 Clear 24 1016 88 10000 0.89 19 12:46 07.07.2022
508 Clouds 24 1015 89 10000 0.89 329 12:23 07.07.2022
509 Clouds 24 1015 89 10000 1.34 6 11:34 07.07.2022
510 Clouds 25 1015 83 10000 0.89 31 10:46 07.07.2022
511 Clouds 25 1015 83 10000 0.45 66 10:28 07.07.2022
512 Clouds 24 1015 88 10000 1.34 75 09:32 07.07.2022
513 Clouds 25 1016 89 10000 0.89 353 06:32 07.07.2022
514 Clear 29 1014 76 10000 1.34 115 00:31 07.07.2022
515 Clear 29 1014 74 10000 1.79 111 23:36 06.07.2022
516 Clear 29 1014 74 10000 1.79 137 23:18 06.07.2022
517 Clouds 30 1014 67 10000 5.14 150 22:52 06.07.2022
518 Clouds 30 1014 66 10000 5.14 150 22:33 06.07.2022
519 Clouds 31 1015 65 10000 5.14 180 20:23 06.07.2022
520 Clouds 30 1015 67 10000 5.14 160 19:22 06.07.2022
521 Clouds 30 1016 69 10000 1.79 81 17:21 06.07.2022
522 Clouds 28 1016 74 10000 3.09 90 15:57 06.07.2022
523 Clear 26 1015 84 10000 1.79 24 12:44 06.07.2022
524 Clear 26 1015 84 10000 1.79 346 11:52 06.07.2022
525 Clear 25 1014 84 10000 1.34 349 10:54 06.07.2022
526 Clear 26 1014 82 10000 1.34 334 09:25 06.07.2022
527 Clear 26 1015 82 10000 0.89 339 07:44 06.07.2022
528 Clear 25 1016 81 10000 1.79 358 06:44 06.07.2022
529 Clouds 27 1015 79 10000 5.14 360 00:24 06.07.2022
530 Clouds 30 1014 65 10000 3.6 360 22:43 05.07.2022
531 Clouds 31 1015 68 10000 5.14 330 20:49 05.07.2022
532 Clouds 31 1015 68 10000 5.14 330 20:21 05.07.2022
533 Clouds 32 1016 64 10000 5.14 60 19:37 05.07.2022
534 Clouds 30 1017 66 10000 6.17 20 17:50 05.07.2022
535 Clouds 30 1017 67 10000 6.17 20 17:19 05.07.2022
536 Clouds 29 1017 70 10000 3.6 30 16:18 05.07.2022
537 Clouds 27 1017 83 10000 1.79 22 14:54 05.07.2022
538 Clouds 25 1017 88 10000 1.34 346 12:59 05.07.2022
539 Clouds 25 1017 86 10000 1.34 342 12:22 05.07.2022
540 Clouds 26 1016 86 10000 0.89 359 10:45 05.07.2022
541 Clouds 26 1016 84 10000 1.34 12 09:52 05.07.2022
542 Clouds 26 1017 85 10000 0.89 353 08:21 05.07.2022
543 Clouds 26 1017 86 10000 1.34 6 06:48 05.07.2022
544 Clouds 25 1018 88 10000 2.24 19 04:30 05.07.2022
545 Clouds 27 1017 81 10000 3.09 40 01:25 05.07.2022
546 Clouds 28 1016 78 10000 0.89 159 23:37 04.07.2022
547 Clouds 28 1016 78 10000 0 0 22:55 04.07.2022
548 Clouds 27 1017 84 7000 5.14 180 21:56 04.07.2022
549 Clouds 26 1017 83 6000 2.57 270 20:55 04.07.2022
550 Clouds 27 1017 85 6000 2.57 270 20:35 04.07.2022
551 Clouds 31 1017 69 10000 5.14 360 19:56 04.07.2022
552 Clouds 30 1018 72 10000 5.14 360 19:37 04.07.2022
553 Clouds 30 1018 70 10000 4.12 40 18:34 04.07.2022
554 Clouds 28 1019 83 10000 5.14 30 16:42 04.07.2022
555 Clouds 26 1018 88 10000 3.09 30 15:34 04.07.2022
556 Clouds 24 1018 93 10000 0.89 325 13:41 04.07.2022
557 Clouds 25 1017 88 10000 1.79 358 12:38 04.07.2022
558 Clouds 25 1016 90 10000 0.89 16 10:39 04.07.2022
559 Clouds 25 1017 90 10000 0.45 329 10:18 04.07.2022
560 Clouds 24 1017 90 10000 0.89 344 08:31 04.07.2022
561 Clouds 24 1019 92 10000 0.89 334 05:34 04.07.2022
562 Clouds 24 1017 93 10000 2.68 295 00:43 04.07.2022
563 Clouds 24 1017 93 10000 1.34 281 23:27 03.07.2022
564 Clouds 24 1017 92 10000 1.34 157 21:58 03.07.2022
565 Clouds 25 1017 92 10000 3.09 330 20:41 03.07.2022
566 Clouds 26 1017 86 5361 1.34 61 19:42 03.07.2022
567 Clouds 26 1018 86 7529 1.79 63 19:23 03.07.2022
568 Clouds 25 1018 92 10000 1.34 323 17:45 03.07.2022
569 Clouds 24 1018 95 4616 0.89 298 16:58 03.07.2022
570 Clouds 24 1018 95 7000 0.89 30 15:25 03.07.2022
571 Clouds 24 1018 92 8000 2.57 60 14:37 03.07.2022
572 Clouds 24 1017 91 7000 4.12 60 13:49 03.07.2022
573 Clouds 25 1016 89 6365 2.68 69 12:41 03.07.2022
574 Clouds 24 1016 92 4532 1.79 60 11:39 03.07.2022
575 Clouds 25 1015 91 4468 1.79 51 10:39 03.07.2022
576 Clouds 24 1015 92 6234 1.79 95 09:59 03.07.2022
577 Clouds 25 1015 91 2486 1.79 32 07:37 03.07.2022
578 Clouds 24 1016 92 6000 0.89 60 05:22 03.07.2022
579 Clouds 28 1013 83 7000 6.17 360 00:24 03.07.2022
580 Clouds 29 1013 74 8000 5.14 360 22:36 02.07.2022
581 Clouds 32 1013 61 8000 5.14 30 21:38 02.07.2022
582 Clouds 32 1014 60 10000 5.14 60 19:53 02.07.2022
583 Clouds 32 1014 60 10000 5.14 60 19:31 02.07.2022
584 Clouds 31 1015 67 10000 3.58 49 17:58 02.07.2022
585 Clouds 31 1015 68 10000 3.09 60 17:36 02.07.2022
586 Clouds 28 1016 76 10000 2.68 16 15:28 02.07.2022
587 Clouds 25 1015 82 10000 1.79 2 12:22 02.07.2022
588 Clouds 26 1015 82 10000 2.24 2 11:27 02.07.2022
589 Clouds 26 1015 82 10000 1.79 353 10:46 02.07.2022
590 Clouds 26 1015 82 10000 1.79 355 09:37 02.07.2022
591 Clouds 26 1015 82 10000 1.79 7 08:36 02.07.2022
592 Clouds 26 1015 82 10000 1.79 356 08:18 02.07.2022
593 Clouds 27 1016 80 10000 3.36 13 02:52 02.07.2022
594 Clouds 29 1014 73 10000 1.79 76 00:27 02.07.2022
595 Clouds 28 1014 68 10000 5.14 150 22:59 01.07.2022
596 Clouds 31 1014 66 10000 2.06 210 21:56 01.07.2022
597 Clouds 31 1014 69 10000 2.06 210 21:37 01.07.2022
598 Clouds 31 1015 71 10000 6.17 60 20:56 01.07.2022
599 Clouds 30 1016 73 10000 6.17 360 19:47 01.07.2022
600 Clouds 31 1016 63 10000 5.14 360 17:58 01.07.2022
601 Clouds 30 1017 71 10000 3.6 20 16:24 01.07.2022
602 Clouds 25 1017 91 10000 2.24 17 13:55 01.07.2022
603 Clouds 25 1016 88 10000 0.89 345 12:59 01.07.2022
604 Clouds 26 1015 86 10000 1.34 358 10:46 01.07.2022
605 Clouds 26 1015 86 10000 1.34 354 10:18 01.07.2022
606 Clouds 23 1018 92 10000 1.34 336 05:27 01.07.2022
607 Clouds 25 1016 90 10000 0.45 41 01:27 01.07.2022
608 Clouds 25 1015 88 10000 2.57 330 23:26 30.06.2022
609 Thunderstorm 25 1015 91 10000 2.57 360 22:44 30.06.2022
610 Thunderstorm 24 1015 89 10000 2.57 360 22:26 30.06.2022
611 Clouds 25 1016 90 6000 5.14 90 21:48 30.06.2022
612 Clouds 26 1016 89 10000 0.89 18 20:30 30.06.2022
613 Clouds 26 1017 87 10000 0.89 258 19:55 30.06.2022
614 Clouds 26 1018 78 10000 0 0 19:26 30.06.2022
615 Clouds 29 1017 76 10000 6.17 20 18:42 30.06.2022
616 Clouds 28 1018 74 10000 3.13 90 17:44 30.06.2022
617 Clouds 30 1018 70 10000 3.13 36 16:55 30.06.2022
618 Clouds 28 1017 75 10000 4.12 10 15:44 30.06.2022
619 Clouds 27 1018 84 10000 3.26 355 13:49 30.06.2022
620 Clouds 25 1018 93 10000 2.77 344 12:36 30.06.2022
621 Clouds 25 1017 94 10000 2.9 345 11:55 30.06.2022
622 Clouds 25 1017 94 10000 2.58 344 09:55 30.06.2022
623 Clouds 25 1017 94 10000 2.58 344 09:35 30.06.2022
624 Clouds 25 1018 93 8127 2.79 359 08:19 30.06.2022
625 Clouds 25 1018 93 10000 2.67 357 07:23 30.06.2022
626 Clouds 30 1016 65 10000 4.47 56 01:47 30.06.2022
627 Clouds 32 1016 62 10000 1.34 77 23:35 29.06.2022
628 Clouds 32 1016 62 10000 3.09 180 22:41 29.06.2022
629 Clouds 31 1017 65 8000 4.12 150 21:43 29.06.2022
630 Clouds 33 1017 59 10000 3.6 60 20:34 29.06.2022
631 Clouds 32 1018 61 10000 5.14 60 19:48 29.06.2022
632 Clouds 32 1018 61 10000 5.14 90 17:54 29.06.2022
633 Clouds 30 1019 67 10000 4.12 60 16:51 29.06.2022
634 Clouds 29 1018 73 10000 2.68 51 15:32 29.06.2022
635 Clouds 24 1018 91 10000 0 0 13:20 29.06.2022
636 Clouds 23 1018 93 10000 2.59 339 11:57 29.06.2022
637 Clouds 23 1018 94 10000 2.67 346 09:35 29.06.2022
638 Clouds 25 1018 94 10000 2.84 344 08:46 29.06.2022
639 Clouds 26 1020 89 10000 2.06 30 05:42 29.06.2022
640 Clouds 29 1018 77 10000 1.34 116 02:21 29.06.2022
641 Clouds 31 1017 66 10000 3.09 180 00:38 29.06.2022
642 Clouds 31 1017 63 10000 5.14 150 23:55 28.06.2022
643 Clouds 32 1016 62 10000 5.14 150 22:48 28.06.2022
644 Clouds 32 1017 60 10000 2.57 180 21:55 28.06.2022
645 Clouds 32 1017 60 10000 2.57 180 21:33 28.06.2022
646 Clouds 32 1017 58 10000 3.6 150 20:55 28.06.2022
647 Clouds 32 1018 60 10000 1.79 131 19:48 28.06.2022
648 Clouds 32 1018 59 10000 1.79 148 19:24 28.06.2022
649 Clouds 31 1019 66 10000 5.14 70 17:49 28.06.2022
650 Clouds 30 1019 66 10000 3.09 60 16:29 28.06.2022
651 Clouds 29 1019 74 10000 2.68 84 15:53 28.06.2022
652 Clouds 27 1018 85 10000 1.79 14 14:22 28.06.2022
653 Clouds 26 1018 86 10000 1.79 6 13:55 28.06.2022
654 Clouds 25 1017 87 10000 1.79 15 13:26 28.06.2022
655 Clouds 26 1017 84 10000 1.34 357 11:37 28.06.2022
656 Clouds 26 1016 83 10000 0.89 349 09:41 28.06.2022
657 Clouds 26 1016 84 10000 1.34 348 08:45 28.06.2022
658 Clouds 26 1017 82 10000 0.89 341 07:58 28.06.2022
659 Clouds 26 1017 81 10000 1.34 340 07:19 28.06.2022
660 Clouds 28 1016 76 10000 0.45 149 01:36 28.06.2022
661 Clouds 30 1015 70 10000 5.14 180 23:45 27.06.2022
662 Clouds 31 1015 67 10000 5.14 150 22:55 27.06.2022
663 Clouds 31 1015 67 10000 5.14 150 21:38 27.06.2022
664 Clouds 31 1016 67 10000 6.17 180 20:54 27.06.2022
665 Clouds 31 1016 65 10000 2.24 113 19:40 27.06.2022
666 Clouds 31 1017 66 8000 3.09 330 18:33 27.06.2022
667 Clouds 30 1017 71 10000 1.79 83 16:44 27.06.2022
668 Clouds 28 1017 76 10000 3.09 30 15:42 27.06.2022
669 Clouds 25 1016 85 10000 1.79 358 13:39 27.06.2022
670 Clouds 26 1015 84 10000 1.79 333 12:57 27.06.2022
671 Clouds 23 1016 94 10000 1.52 339 10:41 27.06.2022
672 Clouds 23 1016 92 10000 1.1 345 09:23 27.06.2022
673 Clouds 23 1016 91 10000 1.11 360 08:32 27.06.2022
674 Clouds 24 1016 90 10000 0.92 4 07:38 27.06.2022
675 Clouds 27 1017 85 10000 1.79 116 04:21 27.06.2022
676 Clouds 28 1016 75 10000 4.12 150 01:18 27.06.2022
677 Clouds 31 1015 67 10000 6.17 150 22:27 26.06.2022
678 Clouds 31 1015 65 10000 5.14 180 20:53 26.06.2022
679 Clouds 31 1016 69 10000 5.14 180 19:44 26.06.2022
680 Clouds 31 1016 67 10000 5.14 150 18:32 26.06.2022
681 Clouds 31 1017 66 10000 4.12 170 17:22 26.06.2022
682 Clouds 29 1016 73 10000 2.24 80 15:31 26.06.2022
683 Clouds 26 1016 85 10000 1.34 4 13:55 26.06.2022
684 Clouds 25 1016 88 10000 1.79 31 13:23 26.06.2022
685 Clouds 27 1015 81 10000 0.89 336 11:27 26.06.2022
686 Clouds 23 1015 90 10000 0.86 355 10:28 26.06.2022
687 Clouds 25 1015 90 10000 0.86 355 09:39 26.06.2022
688 Clouds 25 1015 90 10000 1.2 340 07:45 26.06.2022
689 Clouds 28 1015 78 10000 1.34 115 02:52 26.06.2022
690 Clouds 30 1014 70 10000 5.14 180 00:21 26.06.2022
691 Clouds 30 1014 67 10000 5.14 180 23:51 25.06.2022
692 Clouds 31 1014 67 10000 5.14 180 23:24 25.06.2022
693 Clouds 31 1014 66 10000 6.69 180 22:27 25.06.2022
694 Clouds 32 1014 66 10000 5.14 180 21:46 25.06.2022
695 Clouds 32 1014 65 10000 5.14 180 21:20 25.06.2022
696 Clouds 32 1015 65 10000 5.14 180 20:28 25.06.2022
697 Clouds 31 1015 64 10000 5.14 180 19:42 25.06.2022
698 Clouds 31 1016 65 10000 2.57 170 18:19 25.06.2022
699 Clouds 31 1016 68 10000 2.57 180 17:24 25.06.2022
700 Clouds 28 1016 74 10000 2.57 360 15:36 25.06.2022
701 Clouds 25 1016 86 10000 1.79 40 13:41 25.06.2022
702 Clouds 26 1015 82 10000 0.89 7 12:38 25.06.2022
703 Clouds 23 1015 89 10000 2.13 344 10:45 25.06.2022
704 Clouds 23 1014 87 10000 1.63 342 09:20 25.06.2022
705 Clouds 24 1014 87 10000 1.63 342 08:37 25.06.2022
706 Clouds 24 1015 86 10000 1.35 348 08:18 25.06.2022
707 Clouds 28 1016 80 10000 1.34 120 03:34 25.06.2022
708 Clouds 30 1013 71 10000 5.14 150 00:38 25.06.2022
709 Clouds 31 1012 66 10000 5.14 180 22:55 24.06.2022
710 Clouds 32 1013 64 10000 5.14 150 21:42 24.06.2022
711 Clouds 32 1013 64 10000 6.17 180 20:48 24.06.2022
712 Clouds 32 1013 63 10000 6.17 180 20:19 24.06.2022
713 Clouds 31 1014 65 10000 6.17 180 19:21 24.06.2022
714 Clouds 31 1014 65 10000 3.6 50 18:49 24.06.2022
715 Clouds 31 1014 64 10000 3.6 50 18:30 24.06.2022
716 Clouds 31 1014 66 10000 3.09 30 17:20 24.06.2022
717 Clouds 29 1014 74 10000 1.79 119 15:29 24.06.2022
718 Clouds 27 1014 82 10000 1.34 36 14:27 24.06.2022
719 Clouds 26 1014 88 10000 1.34 44 13:55 24.06.2022
720 Clouds 23 1014 96 10000 1.56 353 11:44 24.06.2022
721 Clouds 24 1014 96 10000 1.62 350 10:55 24.06.2022
722 Clouds 24 1013 94 10000 1.18 0 09:49 24.06.2022
723 Clouds 27 1013 81 10000 0.45 81 09:28 24.06.2022
724 Clouds 27 1012 81 10000 0.89 103 08:51 24.06.2022
725 Clouds 25 1013 90 10000 0.55 22 06:48 24.06.2022
726 Clouds 25 1013 90 10000 0.55 22 06:30 24.06.2022
727 Clouds 24 1014 94 10000 0 0 05:52 24.06.2022
728 Clouds 28 1012 77 10000 1.34 160 01:21 24.06.2022
729 Clouds 31 1011 65 10000 2.57 180 22:44 23.06.2022
730 Clouds 31 1011 64 10000 5.14 170 21:52 23.06.2022
731 Clouds 32 1011 63 10000 5.14 180 20:53 23.06.2022
732 Clouds 32 1012 62 10000 5.14 180 20:31 23.06.2022
733 Clouds 31 1013 67 10000 1.79 128 18:43 23.06.2022
734 Clouds 31 1015 69 10000 2.24 122 17:44 23.06.2022
735 Clouds 30 1013 70 10000 2.57 90 16:34 23.06.2022
736 Clouds 29 1013 74 10000 2.57 30 15:27 23.06.2022
737 Clouds 27 1013 79 10000 1.34 109 14:51 23.06.2022
738 Clouds 27 1012 82 10000 0.89 58 11:54 23.06.2022
739 Clouds 27 1012 83 10000 0.89 66 10:56 23.06.2022
740 Clouds 27 1012 80 10000 0.89 52 09:20 23.06.2022
741 Clouds 26 1013 83 10000 0.45 90 05:48 23.06.2022
742 Clouds 28 1012 77 10000 0.89 165 01:21 23.06.2022
743 Clouds 29 1012 72 10000 5.14 180 00:18 23.06.2022
744 Clouds 30 1011 69 10000 5.14 180 23:22 22.06.2022
745 Clouds 31 1011 67 10000 1.79 162 21:44 22.06.2022
746 Clouds 31 1012 67 10000 4.12 180 20:52 22.06.2022
747 Clouds 31 1012 66 10000 4.12 180 20:20 22.06.2022
748 Clouds 31 1012 67 10000 5.14 180 19:43 22.06.2022
749 Clouds 30 1013 70 10000 4.12 80 17:40 22.06.2022
750 Clouds 29 1013 71 10000 4.12 80 16:43 22.06.2022
751 Clouds 28 1013 76 10000 1.79 86 15:29 22.06.2022
752 Clouds 27 1014 79 10000 2.24 122 14:51 22.06.2022
753 Clouds 26 1014 85 10000 0.89 6 13:48 22.06.2022
754 Clouds 24 1013 91 10000 0 0 13:24 22.06.2022
755 Clouds 26 1013 84 10000 1.34 9 12:31 22.06.2022
756 Clouds 26 1013 83 10000 0.89 354 11:45 22.06.2022
757 Clouds 26 1013 83 10000 0.89 354 11:45 22.06.2022
758 Clouds 23 1013 93 10000 1.41 2 10:47 22.06.2022
759 Clouds 23 1013 92 10000 1.43 19 09:40 22.06.2022
760 Clouds 26 1015 82 10000 1.79 36 06:55 22.06.2022
761 Clouds 27 1014 83 10000 1.79 48 02:39 22.06.2022
762 Clouds 29 1014 75 10000 2.57 150 00:57 22.06.2022
763 Clouds 29 1014 75 10000 2.57 150 00:57 22.06.2022
764 Clouds 30 1013 69 10000 5.14 180 22:53 21.06.2022
765 Clouds 31 1013 64 10000 5.14 180 20:58 21.06.2022
766 Clouds 31 1014 61 10000 3.09 180 19:30 21.06.2022
767 Clouds 31 1014 61 10000 3.09 180 19:30 21.06.2022
768 Clouds 30 1015 66 10000 1.79 137 17:56 21.06.2022
769 Clouds 30 1016 69 10000 2.57 60 16:47 21.06.2022
770 Clouds 24 1016 90 10000 2.62 342 11:59 21.06.2022
771 Clouds 26 1015 81 10000 1.79 2 10:46 21.06.2022
772 Clouds 26 1015 81 10000 1.34 2 09:24 21.06.2022
773 Clouds 23 1016 89 10000 3.04 344 07:49 21.06.2022
774 Clouds 27 1017 84 10000 2.68 48 04:57 21.06.2022
775 Clouds 30 1015 69 10000 2.57 360 00:23 21.06.2022
776 Clouds 31 1015 67 10000 5.14 160 22:21 20.06.2022
777 Clouds 31 1016 68 10000 2.24 116 21:37 20.06.2022
778 Clouds 32 1016 64 10000 3.6 150 20:29 20.06.2022
779 Clouds 32 1017 65 10000 3.6 60 19:36 20.06.2022
780 Clouds 31 1017 64 10000 2.57 90 18:26 20.06.2022
781 Clouds 31 1018 61 10000 3.09 90 17:49 20.06.2022
782 Clouds 30 1018 66 10000 4.12 60 16:36 20.06.2022
783 Clouds 28 1018 73 10000 2.68 57 15:30 20.06.2022
784 Clear 26 1017 82 10000 1.34 357 12:32 20.06.2022
785 Clear 26 1016 81 10000 1.34 350 10:21 20.06.2022
786 Clear 26 1016 81 10000 1.34 350 10:21 20.06.2022
787 Clear 23 1017 87 10000 3.53 343 08:56 20.06.2022
788 Clouds 27 1017 79 10000 2.24 13 07:52 20.06.2022
789 Clouds 26 1018 81 10000 1.79 52 05:21 20.06.2022
790 Clouds 29 1016 68 10000 3.09 180 01:33 20.06.2022
791 Clouds 30 1015 64 10000 5.14 180 23:57 19.06.2022
792 Clouds 31 1015 62 10000 5.14 180 22:43 19.06.2022
793 Clouds 31 1015 60 10000 5.14 180 21:45 19.06.2022
794 Clouds 31 1016 60 10000 5.14 180 21:26 19.06.2022
795 Clouds 32 1016 62 10000 3.09 130 20:30 19.06.2022
796 Clouds 31 1016 67 10000 2.24 142 19:46 19.06.2022
797 Clouds 31 1017 64 10000 4.12 90 18:43 19.06.2022
798 Clouds 30 1017 65 10000 3.09 60 17:48 19.06.2022
799 Clouds 30 1017 69 10000 3.09 60 17:21 19.06.2022
800 Clouds 30 1017 71 10000 3.09 100 16:34 19.06.2022
801 Clouds 28 1017 76 10000 1.79 46 15:38 19.06.2022
802 Clouds 26 1017 86 10000 1.34 340 14:55 19.06.2022
803 Clouds 24 1017 89 10000 1.34 334 13:58 19.06.2022
804 Clouds 25 1016 86 10000 0.89 343 12:56 19.06.2022
805 Clouds 26 1015 85 10000 0.89 325 10:54 19.06.2022
806 Clouds 26 1016 83 10000 0.89 323 09:40 19.06.2022
807 Clouds 27 1016 82 10000 0.89 328 08:47 19.06.2022
808 Clouds 23 1016 87 10000 0.86 329 07:47 19.06.2022
809 Clouds 25 1017 94 10000 0 0 04:41 19.06.2022
810 Clouds 29 1015 75 10000 2.57 180 01:28 19.06.2022
811 Clouds 29 1015 71 10000 2.57 180 00:24 19.06.2022
812 Clouds 30 1014 68 10000 5.66 180 23:35 18.06.2022
813 Clouds 31 1015 65 10000 6.17 180 22:36 18.06.2022
814 Clouds 32 1015 65 10000 5.14 160 20:55 18.06.2022
815 Clouds 31 1015 65 10000 5.14 160 20:26 18.06.2022
816 Clouds 32 1015 65 10000 5.14 150 19:25 18.06.2022
817 Clouds 31 1016 67 10000 5.14 150 18:44 18.06.2022
818 Clouds 31 1016 68 10000 5.14 180 17:30 18.06.2022
819 Clouds 30 1016 74 10000 5.14 180 16:23 18.06.2022
820 Clouds 28 1016 79 10000 1.34 143 15:18 18.06.2022
821 Clouds 27 1015 84 10000 1.34 145 14:42 18.06.2022
822 Clouds 26 1014 87 10000 0.45 43 12:51 18.06.2022
823 Clouds 27 1014 86 10000 0.89 16 11:33 18.06.2022
824 Clouds 27 1014 87 10000 0.45 116 10:26 18.06.2022
825 Clouds 27 1014 88 10000 1.19 202 09:19 18.06.2022
826 Clouds 27 1014 86 10000 0.89 117 08:18 18.06.2022
827 Clouds 27 1015 83 10000 0.45 103 06:26 18.06.2022
828 Clouds 27 1015 84 10000 0.89 105 03:24 18.06.2022
829 Clouds 28 1013 80 10000 1.79 122 01:24 18.06.2022
830 Clouds 29 1013 76 10000 4.12 180 00:42 18.06.2022
831 Clouds 29 1013 76 10000 5.14 160 23:45 17.06.2022
832 Clouds 30 1013 74 10000 5.14 160 22:56 17.06.2022
833 Clouds 30 1014 72 10000 3.09 120 20:42 17.06.2022
834 Clouds 30 1014 72 10000 1.34 148 19:29 17.06.2022
835 Clouds 30 1014 71 10000 3.09 360 18:25 17.06.2022
836 Clouds 29 1015 75 10000 4.12 30 17:34 17.06.2022
837 Clouds 28 1015 77 10000 4.12 30 16:38 17.06.2022
838 Clouds 27 1015 80 10000 1.34 7 15:42 17.06.2022
839 Clouds 26 1015 83 10000 1.34 341 14:46 17.06.2022
840 Clouds 25 1015 84 10000 1.34 332 14:19 17.06.2022
841 Clouds 24 1015 88 10000 0.89 9 13:42 17.06.2022
842 Clouds 24 1015 86 10000 1.34 323 12:42 17.06.2022
843 Clouds 24 1014 85 10000 1.34 344 11:56 17.06.2022
844 Clouds 25 1014 83 10000 0.89 334 11:35 17.06.2022
845 Clouds 26 1014 82 10000 0.45 326 09:59 17.06.2022
846 Clouds 25 1015 84 10000 0.89 328 08:27 17.06.2022
847 Clouds 24 1016 86 10000 0.89 334 06:57 17.06.2022
848 Clouds 23 1017 86 10000 0 0 04:52 17.06.2022
849 Clouds 23 1015 91 10000 3.09 330 02:41 17.06.2022
850 Clouds 24 1016 89 8000 1.79 294 00:33 17.06.2022
851 Clouds 25 1016 83 8000 4.12 60 22:43 16.06.2022
852 Thunderstorm 30 1015 74 10000 3.09 170 21:23 16.06.2022
853 Clouds 29 1015 74 10000 4.12 180 20:56 16.06.2022
854 Clouds 30 1015 71 10000 4.12 180 20:36 16.06.2022
855 Clouds 30 1015 71 10000 4.12 180 20:36 16.06.2022
856 Clouds 30 1015 69 10000 5.14 220 19:45 16.06.2022
857 Clouds 30 1017 69 10000 4.12 210 18:27 16.06.2022
858 Clouds 31 1017 70 10000 3.09 90 17:43 16.06.2022
859 Clouds 29 1016 71 10000 4.12 30 16:39 16.06.2022
860 Clouds 28 1016 78 10000 0 0 15:22 16.06.2022
861 Clouds 26 1016 78 10000 0 0 14:37 16.06.2022
862 Clouds 25 1015 85 10000 0.89 359 13:22 16.06.2022
863 Clouds 26 1015 79 10000 1.34 333 12:36 16.06.2022
864 Clouds 23 1015 86 10000 2.07 343 11:52 16.06.2022
865 Clouds 23 1015 86 10000 1.99 346 10:56 16.06.2022
866 Clouds 23 1015 86 10000 1.53 355 10:20 16.06.2022
867 Clouds 24 1015 85 10000 1.49 356 09:21 16.06.2022
868 Clouds 27 1016 76 10000 0.89 347 08:30 16.06.2022
869 Clouds 27 1016 76 10000 1.34 341 07:26 16.06.2022
870 Clouds 26 1018 81 10000 1.34 15 04:50 16.06.2022
871 Clouds 27 1016 75 10000 1.38 150 02:20 16.06.2022
872 Clouds 29 1016 71 10000 2.57 180 01:35 16.06.2022
873 Clouds 30 1015 69 10000 3.09 150 00:56 16.06.2022
874 Clouds 31 1014 63 10000 6.17 180 23:43 15.06.2022
875 Clouds 31 1015 62 10000 6.69 150 22:35 15.06.2022
876 Clouds 31 1015 60 10000 5.14 180 21:22 15.06.2022
877 Clouds 31 1015 59 10000 4.12 150 20:42 15.06.2022
878 Clouds 31 1015 60 10000 4.12 150 20:23 15.06.2022
879 Clouds 31 1015 61 10000 2.57 170 19:20 15.06.2022
880 Clouds 29 1015 75 10000 2.24 111 17:56 15.06.2022
881 Clouds 29 1015 73 10000 1.34 95 17:25 15.06.2022
882 Clouds 26 1016 85 10000 0.89 7 15:37 15.06.2022
883 Clouds 24 1016 95 10000 0.89 53 14:18 15.06.2022
884 Clouds 24 1015 90 10000 0.89 85 12:54 15.06.2022
885 Clouds 24 1016 89 10000 0.89 139 11:53 15.06.2022
886 Clouds 25 1015 83 10000 0.89 326 10:24 15.06.2022
887 Clouds 25 1015 83 10000 1.34 339 09:42 15.06.2022
888 Clouds 23 1015 90 10000 1.98 338 08:40 15.06.2022
889 Clouds 25 1016 88 10000 1.34 354 06:34 15.06.2022
890 Clouds 24 1016 85 10000 1.34 358 04:34 15.06.2022
891 Clouds 26 1015 79 10000 0.89 337 01:54 15.06.2022
892 Clouds 25 1015 80 10000 1.79 342 00:50 15.06.2022
893 Clouds 25 1015 80 8000 1.34 347 23:39 14.06.2022
894 Clouds 25 1015 79 8000 1.79 354 23:19 14.06.2022
895 Clouds 26 1015 77 10000 1.79 345 22:21 14.06.2022
896 Clouds 24 1015 80 10000 6.17 360 21:36 14.06.2022
897 Clouds 29 1015 69 10000 7.2 130 20:54 14.06.2022
898 Clouds 29 1014 72 10000 7.2 130 20:28 14.06.2022
899 Clouds 30 1015 66 10000 3.13 118 19:18 14.06.2022
900 Clouds 31 1015 62 10000 2.06 60 17:54 14.06.2022
901 Clouds 30 1016 67 10000 5.14 70 16:43 14.06.2022
902 Clouds 28 1016 72 10000 5.14 360 15:50 14.06.2022
903 Clouds 28 1016 73 10000 5.14 360 15:24 14.06.2022
904 Clouds 27 1016 78 10000 2.57 20 14:33 14.06.2022
905 Clouds 25 1016 85 10000 2.24 5 13:42 14.06.2022
906 Clouds 26 1016 79 10000 1.79 357 12:44 14.06.2022
907 Clouds 24 1016 91 10000 2.36 343 11:32 14.06.2022
908 Clouds 24 1016 91 10000 2.84 334 10:47 14.06.2022
909 Clouds 24 1016 92 10000 2.98 333 10:20 14.06.2022
910 Clouds 24 1016 93 10000 2.89 339 08:47 14.06.2022
911 Clouds 25 1016 95 10000 2.68 343 07:34 14.06.2022
912 Clouds 24 1018 90 10000 0 0 05:22 14.06.2022
913 Clouds 27 1017 78 10000 3.66 23 02:57 14.06.2022
914 Clouds 28 1016 71 10000 0.45 46 00:53 14.06.2022
915 Clouds 27 1016 74 7000 6.17 60 23:39 13.06.2022
916 Clouds 31 1016 65 10000 5.14 150 22:26 13.06.2022
917 Clouds 32 1016 62 10000 3.6 120 21:50 13.06.2022
918 Clouds 32 1016 59 10000 2.68 115 20:42 13.06.2022
919 Clouds 32 1017 60 10000 2.24 116 19:34 13.06.2022
920 Clouds 32 1018 61 10000 4.12 30 18:25 13.06.2022
921 Clouds 32 1018 61 10000 2.57 60 17:46 13.06.2022
922 Clouds 31 1018 62 10000 1.79 64 16:52 13.06.2022
923 Clouds 29 1018 72 10000 4.12 360 15:38 13.06.2022
924 Clouds 27 1018 78 10000 2.24 28 14:43 13.06.2022
925 Clouds 26 1018 82 10000 1.79 13 13:53 13.06.2022
926 Clouds 26 1018 79 10000 1.79 6 12:48 13.06.2022
927 Clouds 27 1017 78 10000 1.34 29 11:26 13.06.2022
928 Clouds 27 1017 78 10000 1.34 19 10:27 13.06.2022
929 Clouds 27 1017 78 10000 1.34 22 09:38 13.06.2022
930 Clouds 25 1018 88 10000 2.02 349 07:51 13.06.2022
931 Clouds 25 1018 84 10000 0 0 05:49 13.06.2022
932 Clouds 29 1019 84 10000 0.65 190 02:55 13.06.2022
933 Clouds 29 1016 73 10000 2.06 160 01:37 13.06.2022
934 Clouds 30 1017 68 10000 5.14 180 00:21 13.06.2022
935 Clouds 31 1016 68 10000 5.14 180 23:25 12.06.2022
936 Clouds 32 1016 65 10000 6.17 180 22:22 12.06.2022
937 Clouds 32 1017 65 10000 6.17 180 21:27 12.06.2022
938 Clouds 31 1018 66 10000 4.12 150 20:33 12.06.2022
939 Clouds 31 1018 66 10000 2.68 114 19:30 12.06.2022
940 Clouds 30 1018 68 10000 4.12 150 17:53 12.06.2022
941 Clouds 30 1019 72 10000 4.12 80 16:34 12.06.2022
942 Clouds 28 1019 77 10000 5.14 60 15:18 12.06.2022
943 Clouds 27 1018 80 10000 2.68 53 14:29 12.06.2022
944 Clouds 26 1018 88 10000 1.79 43 13:55 12.06.2022
945 Clouds 27 1017 82 10000 1.34 41 12:43 12.06.2022
946 Clouds 24 1017 90 10000 1.49 334 11:40 12.06.2022
947 Clouds 24 1017 89 10000 1.37 333 10:38 12.06.2022
948 Clouds 24 1017 88 10000 1.77 320 09:19 12.06.2022
949 Clouds 24 1017 88 10000 1.77 320 08:45 12.06.2022
950 Clouds 25 1017 91 10000 1.94 306 07:38 12.06.2022
951 Clouds 25 1016 82 10000 0 0 04:52 12.06.2022
952 Clouds 26 1016 82 10000 0 0 03:29 12.06.2022
953 Clouds 28 1014 74 10000 0 0 01:42 12.06.2022
954 Clouds 29 1014 71 10000 2.57 180 00:58 12.06.2022
955 Clouds 30 1014 71 10000 3.13 118 00:21 12.06.2022
956 Clouds 31 1014 68 10000 3.09 180 23:44 11.06.2022
957 Clouds 31 1013 68 10000 5.14 150 22:39 11.06.2022
958 Clouds 31 1013 69 10000 3.09 180 21:53 11.06.2022
959 Clouds 32 1014 64 10000 3.09 90 20:38 11.06.2022
960 Clouds 31 1014 66 10000 1.79 138 19:46 11.06.2022
961 Clouds 31 1015 67 10000 1.34 128 19:26 11.06.2022
962 Clouds 31 1016 67 10000 1.79 135 18:34 11.06.2022
963 Clouds 30 1016 67 10000 1.79 125 17:51 11.06.2022
964 Clouds 31 1016 66 10000 1.79 129 17:27 11.06.2022
965 Clouds 30 1016 58 10000 4.12 60 16:56 11.06.2022
966 Clouds 29 1017 60 10000 4.12 60 16:29 11.06.2022
967 Clouds 29 1016 74 10000 4.12 40 15:42 11.06.2022
968 Clouds 25 1016 87 10000 1.79 37 13:53 11.06.2022
969 Clouds 26 1016 80 10000 1.34 340 12:51 11.06.2022
970 Clouds 26 1015 80 10000 1.79 1 10:48 11.06.2022
971 Clouds 27 1016 80 10000 1.34 6 09:51 11.06.2022
972 Clear 27 1016 80 10000 1.79 3 09:18 11.06.2022
973 Clouds 23 1016 90 10000 2 333 07:40 11.06.2022
974 Clouds 26 1016 80 10000 1.92 343 06:30 11.06.2022
975 Clouds 27 1016 81 10000 1.79 98 04:30 11.06.2022
976 Clouds 29 1014 74 10000 2.57 180 01:53 11.06.2022
977 Clouds 29 1014 74 10000 2.57 180 01:32 11.06.2022
978 Clouds 30 1013 67 10000 5.14 120 23:49 10.06.2022
979 Clouds 31 1014 63 10000 5.14 180 22:31 10.06.2022
980 Clouds 31 1014 63 10000 5.14 190 21:50 10.06.2022
981 Clouds 31 1014 64 10000 3.09 180 20:40 10.06.2022
982 Clouds 31 1015 63 10000 3.09 180 20:21 10.06.2022
983 Clouds 31 1015 63 10000 3.09 180 20:21 10.06.2022
984 Clouds 32 1016 64 10000 5.14 180 19:19 10.06.2022
985 Clouds 31 1016 67 10000 4.12 110 18:55 10.06.2022
986 Clouds 31 1017 66 10000 3.09 60 17:55 10.06.2022
987 Clouds 30 1017 69 10000 3.13 111 17:33 10.06.2022
988 Clouds 30 1017 72 10000 1.34 122 16:47 10.06.2022
989 Clouds 28 1016 76 10000 2.57 60 15:40 10.06.2022
990 Clouds 27 1016 83 10000 1.79 70 14:34 10.06.2022
991 Clouds 25 1016 85 10000 1.79 62 13:26 10.06.2022
992 Clouds 23 1016 91 10000 1.37 331 11:59 10.06.2022
993 Clouds 23 1015 90 10000 1.12 356 11:25 10.06.2022
994 Clouds 24 1015 90 10000 1.12 356 10:35 10.06.2022
995 Clouds 24 1015 87 10000 1.52 351 09:21 10.06.2022
996 Clouds 25 1015 87 10000 1.38 17 07:51 10.06.2022
997 Clouds 26 1016 81 10000 1.61 37 06:47 10.06.2022
998 Clouds 27 1016 79 10000 1.34 42 06:28 10.06.2022
999 Clouds 27 1016 84 10000 1.79 88 04:55 10.06.2022
1000 Clouds 28 1015 78 10000 0.89 119 02:31 10.06.2022
1001 Clouds 29 1015 75 10000 3.09 150 01:37 10.06.2022
1002 Clouds 30 1014 69 10000 5.14 180 23:58 09.06.2022
1003 Clouds 31 1014 67 10000 5.14 150 22:43 09.06.2022
1004 Clouds 31 1014 63 10000 1.79 149 21:43 09.06.2022
1005 Clouds 31 1014 62 10000 1.79 133 21:24 09.06.2022
1006 Clouds 32 1015 62 10000 3.09 180 20:38 09.06.2022
1007 Clouds 31 1016 63 10000 1.79 118 19:43 09.06.2022
1008 Clouds 31 1017 65 10000 1.34 148 18:37 09.06.2022
1009 Clouds 31 1017 64 10000 1.79 142 17:31 09.06.2022
1010 Clouds 29 1017 72 10000 1.34 28 16:28 09.06.2022
1011 Clouds 26 1017 85 10000 1.34 47 14:52 09.06.2022
1012 Clouds 26 1017 85 10000 0.89 34 14:27 09.06.2022
1013 Clouds 23 1016 90 10000 0 0 13:30 09.06.2022
1014 Clouds 26 1016 81 10000 0.89 38 12:55 09.06.2022
1015 Clouds 23 1016 93 10000 1.27 355 11:33 09.06.2022
1016 Clouds 24 1015 93 10000 1.43 9 09:55 09.06.2022
1017 Clouds 24 1015 93 10000 1.43 9 09:55 09.06.2022
1018 Clouds 24 1015 93 10000 1.43 9 09:37 09.06.2022
1019 Clouds 25 1015 92 10000 1.45 5 08:33 09.06.2022
1020 Clouds 25 1016 93 10000 1.71 329 07:24 09.06.2022
1021 Clouds 25 1016 88 10000 0 0 03:31 09.06.2022
1022 Clouds 29 1014 74 10000 2.57 90 00:34 09.06.2022
1023 Clouds 31 1015 67 10000 1.79 128 23:18 08.06.2022
1024 Clouds 31 1015 68 10000 2.57 120 22:42 08.06.2022
1025 Clouds 31 1014 68 10000 2.57 120 22:23 08.06.2022
1026 Clouds 31 1014 67 10000 5.14 180 21:32 08.06.2022
1027 Clouds 32 1015 64 10000 5.14 160 20:25 08.06.2022
1028 Clouds 31 1016 66 10000 2.06 120 19:40 08.06.2022
1029 Clouds 31 1016 66 10000 2.57 90 18:48 08.06.2022
1030 Clouds 31 1017 66 10000 1.79 175 17:38 08.06.2022
1031 Clouds 28 1017 77 10000 1.34 61 15:53 08.06.2022
1032 Clouds 26 1016 85 10000 1.34 329 14:31 08.06.2022
1033 Clear 26 1016 82 10000 1.79 340 12:46 08.06.2022
1034 Clear 24 1015 90 10000 1.42 325 11:35 08.06.2022
1035 Clear 24 1015 90 10000 1.48 331 10:37 08.06.2022
1036 Clouds 24 1015 89 10000 1.44 336 09:28 08.06.2022
1037 Clouds 24 1015 89 10000 1.44 336 08:52 08.06.2022
1038 Clouds 25 1016 91 10000 1.22 321 06:43 08.06.2022
1039 Clouds 25 1016 88 10000 0 0 04:35 08.06.2022
1040 Clouds 29 1015 73 10000 4.12 180 00:57 08.06.2022
1041 Clouds 30 1015 72 10000 4.12 180 23:31 07.06.2022
1042 Clouds 30 1015 73 10000 5.14 180 22:50 07.06.2022
1043 Clouds 30 1015 72 10000 5.14 180 22:31 07.06.2022
1044 Clouds 32 1015 68 10000 5.14 180 21:37 07.06.2022
1045 Clouds 32 1015 68 10000 5.14 180 21:18 07.06.2022
1046 Clouds 32 1016 68 10000 5.14 180 20:37 07.06.2022
1047 Clouds 31 1016 69 10000 5.14 180 19:49 07.06.2022
1048 Clouds 31 1017 70 10000 6.17 180 18:25 07.06.2022
1049 Clouds 30 1017 74 10000 5.14 90 17:31 07.06.2022
1050 Clouds 29 1017 75 10000 3.09 90 16:43 07.06.2022
1051 Clouds 28 1017 79 10000 1.79 72 15:57 07.06.2022
1052 Clouds 27 1017 83 10000 0 0 15:27 07.06.2022
1053 Clouds 27 1016 83 10000 1.34 87 14:52 07.06.2022
1054 Clouds 26 1017 86 10000 0 0 14:34 07.06.2022
1055 Clouds 26 1016 90 10000 1.34 49 13:32 07.06.2022
1056 Clouds 26 1016 89 10000 0.59 31 12:52 07.06.2022
1057 Clouds 24 1016 91 10000 0.72 9 11:48 07.06.2022
1058 Clouds 24 1015 90 10000 1.29 309 10:27 07.06.2022
1059 Clouds 25 1015 90 10000 1.32 312 08:53 07.06.2022
1060 Clouds 25 1015 91 10000 1.24 308 07:35 07.06.2022
1061 Clouds 27 1016 83 10000 0.91 292 06:38 07.06.2022
1062 Clouds 27 1016 83 10000 0.91 292 06:38 07.06.2022
1063 Clouds 26 1016 85 10000 0 0 04:20 07.06.2022
1064 Clouds 29 1015 77 10000 1.34 131 01:27 07.06.2022
1065 Clouds 30 1015 68 10000 5.14 180 23:52 06.06.2022
1066 Clouds 31 1014 68 10000 5.14 160 22:54 06.06.2022
1067 Clouds 31 1014 68 10000 5.14 160 22:29 06.06.2022
1068 Clouds 31 1015 66 10000 5.14 180 20:43 06.06.2022
1069 Clouds 31 1016 68 10000 4.12 180 19:24 06.06.2022
1070 Clouds 31 1016 68 10000 5.14 180 18:48 06.06.2022
1071 Clouds 31 1016 71 10000 5.14 180 17:59 06.06.2022
1072 Clouds 30 1016 71 10000 2.57 180 16:57 06.06.2022
1073 Clouds 28 1016 76 10000 2.24 113 15:57 06.06.2022
1074 Clouds 27 1016 84 10000 1.34 86 14:59 06.06.2022
1075 Clouds 27 1016 85 10000 1.34 125 14:26 06.06.2022
1076 Clouds 26 1016 87 10000 1.34 106 13:20 06.06.2022
1077 Clouds 25 1015 90 10000 1.42 172 12:35 06.06.2022
1078 Clouds 27 1015 80 10000 1.34 117 11:49 06.06.2022
1079 Clouds 25 1014 90 10000 1.58 191 09:53 06.06.2022
1080 Clouds 25 1014 91 10000 1.59 178 09:18 06.06.2022
1081 Clouds 25 1014 91 10000 1.59 178 08:31 06.06.2022
1082 Clouds 28 1015 81 10000 0.89 122 07:20 06.06.2022
1083 Clouds 26 1016 89 10000 0 0 04:42 06.06.2022
1084 Clouds 29 1015 79 10000 0.89 140 02:19 06.06.2022
1085 Clouds 29 1014 77 10000 5.14 180 00:57 06.06.2022
1086 Clouds 29 1014 76 10000 5.14 180 00:34 06.06.2022
1087 Clouds 30 1014 73 10000 4.12 180 23:25 05.06.2022
1088 Clouds 31 1014 70 10000 6.17 180 22:26 05.06.2022
1089 Clouds 31 1015 69 10000 5.14 190 20:29 05.06.2022
1090 Clouds 31 1016 72 10000 1.79 184 19:26 05.06.2022
1091 Clouds 31 1016 69 10000 5.14 180 18:20 05.06.2022
1092 Clouds 30 1016 70 10000 7.2 180 17:39 05.06.2022
1093 Clouds 30 1016 71 10000 7.2 180 17:21 05.06.2022
1094 Clouds 30 1016 76 10000 7.72 180 16:47 05.06.2022
1095 Clouds 28 1016 83 8000 2.57 120 15:28 05.06.2022
1096 Clouds 28 1015 81 10000 0.89 172 14:21 05.06.2022
1097 Clouds 27 1014 86 10000 0.89 133 11:59 05.06.2022
1098 Clouds 27 1013 88 10000 0.89 151 10:45 05.06.2022
1099 Clouds 28 1013 87 10000 1.34 142 10:24 05.06.2022
1100 Clouds 28 1013 83 10000 0.89 173 09:42 05.06.2022
1101 Clouds 28 1014 84 10000 0.89 152 08:25 05.06.2022
1102 Clouds 28 1014 83 10000 1.34 134 06:47 05.06.2022
1103 Clouds 27 1015 87 10000 0.89 137 05:20 05.06.2022
1104 Clouds 28 1013 81 10000 0.45 168 02:57 05.06.2022
1105 Clouds 29 1013 78 10000 5.14 180 01:24 05.06.2022
1106 Clouds 29 1013 78 10000 5.14 180 01:24 05.06.2022
1107 Clouds 31 1012 69 10000 5.66 150 23:43 04.06.2022
1108 Clouds 31 1013 68 10000 6.17 180 21:31 04.06.2022
1109 Clouds 31 1014 67 10000 6.17 180 19:46 04.06.2022
1110 Clouds 30 1015 69 10000 5.14 180 17:28 04.06.2022
1111 Clouds 30 1015 70 10000 5.14 160 16:22 04.06.2022
1112 Clouds 29 1014 75 10000 4.12 170 15:51 04.06.2022
1113 Clouds 29 1014 76 10000 1.34 162 14:22 04.06.2022
1114 Clouds 27 1013 81 10000 0.89 134 11:45 04.06.2022
1115 Clouds 27 1014 80 10000 0.89 147 10:55 04.06.2022
1116 Clouds 27 1014 80 10000 0.89 148 10:19 04.06.2022
1117 Clouds 27 1014 80 10000 0.89 135 09:39 04.06.2022
1118 Clouds 24 1014 91 10000 1.61 167 08:39 04.06.2022
1119 Clouds 28 1015 80 10000 0.89 137 07:18 04.06.2022
1120 Clouds 27 1016 81 10000 1.34 134 04:33 04.06.2022
1121 Clouds 30 1013 72 10000 5.14 170 00:37 04.06.2022
1122 Clouds 31 1013 69 10000 5.14 180 23:28 03.06.2022
1123 Clouds 31 1013 66 10000 5.14 180 22:20 03.06.2022
1124 Clouds 31 1014 66 10000 4.12 180 20:42 03.06.2022
1125 Clouds 31 1014 66 10000 4.12 180 20:42 03.06.2022
1126 Clouds 31 1014 67 10000 5.14 180 19:58 03.06.2022
1127 Clouds 30 1015 72 10000 2.57 180 16:59 03.06.2022
1128 Clouds 30 1015 72 10000 2.57 180 16:30 03.06.2022
1129 Clouds 27 1015 77 10000 1.34 185 14:47 03.06.2022
1130 Clouds 27 1014 81 10000 0.89 189 12:28 03.06.2022
1131 Clouds 27 1014 82 10000 0.45 173 10:18 03.06.2022
1132 Clouds 27 1014 80 10000 0.45 178 09:29 03.06.2022
1133 Clouds 27 1014 80 10000 1.34 179 07:53 03.06.2022
1134 Clouds 24 1015 85 10000 1.48 200 07:19 03.06.2022
1135 Clouds 28 1015 81 10000 0.45 174 06:30 03.06.2022
1136 Clouds 26 1015 85 10000 0.45 171 04:35 03.06.2022
1137 Clouds 29 1013 76 10000 4.12 180 00:21 03.06.2022
1138 Clouds 30 1013 69 10000 5.14 180 22:34 02.06.2022
1139 Clouds 31 1013 69 10000 4.12 180 20:58 02.06.2022
1140 Clouds 30 1014 70 10000 4.12 180 19:59 02.06.2022
1141 Clouds 30 1014 70 10000 4.12 180 19:40 02.06.2022
1142 Clouds 30 1015 72 10000 3.09 270 18:59 02.06.2022
1143 Clouds 28 1015 78 10000 0.89 166 16:30 02.06.2022
1144 Clouds 27 1015 80 8000 1.79 104 15:47 02.06.2022
1145 Clouds 24 1014 91 10000 0.89 62 13:32 02.06.2022
1146 Clouds 26 1013 86 10000 1.34 67 12:51 02.06.2022
1147 Clouds 26 1013 84 10000 1.79 68 10:48 02.06.2022
1148 Clouds 26 1012 84 10000 1.34 65 09:45 02.06.2022
1149 Clouds 26 1012 85 10000 1.34 66 09:26 02.06.2022
1150 Clouds 24 1013 90 10000 0.68 100 08:23 02.06.2022
1151 Clouds 27 1013 82 10000 0.45 89 06:21 02.06.2022
1152 Clouds 27 1014 83 10000 0.89 160 03:51 02.06.2022
1153 Clouds 28 1013 80 10000 0.45 167 01:33 02.06.2022
1154 Clouds 29 1012 71 10000 5.14 180 23:22 01.06.2022
1155 Clouds 30 1012 69 10000 5.14 180 22:18 01.06.2022
1156 Clouds 30 1012 67 10000 4.12 180 21:24 01.06.2022
1157 Clouds 30 1012 66 10000 5.14 180 20:39 01.06.2022
1158 Clouds 30 1013 65 10000 3.6 180 19:52 01.06.2022
1159 Clouds 30 1013 69 10000 4.12 120 18:41 01.06.2022
1160 Clouds 29 1014 76 10000 2.57 120 16:58 01.06.2022
1161 Clouds 27 1015 78 10000 3.09 90 15:56 01.06.2022
1162 Clouds 26 1014 84 10000 2.24 62 14:50 01.06.2022
1163 Clouds 22 1014 91 10000 0 0 13:26 01.06.2022
1164 Clouds 26 1013 82 10000 1.34 3 11:23 01.06.2022
1165 Clouds 22 1013 93 10000 1.41 359 09:30 01.06.2022
1166 Clouds 22 1013 89 10000 1.08 351 08:19 01.06.2022
1167 Clouds 27 1014 81 10000 0.89 85 07:20 01.06.2022
1168 Clouds 26 1015 86 10000 0.45 126 04:41 01.06.2022
1169 Clouds 29 1013 69 10000 4.12 180 23:50 31.05.2022
1170 Clouds 30 1013 68 10000 5.14 160 22:43 31.05.2022
1171 Clouds 30 1013 68 10000 5.14 160 22:24 31.05.2022
1172 Clouds 30 1013 65 10000 6.17 180 21:44 31.05.2022
1173 Clouds 31 1014 64 10000 1.34 144 20:44 31.05.2022
1174 Clouds 31 1014 65 10000 2.06 140 19:46 31.05.2022
1175 Clouds 30 1015 66 10000 1.79 121 18:32 31.05.2022
1176 Clouds 29 1016 73 10000 3.6 30 17:38 31.05.2022
1177 Clouds 27 1016 82 10000 2.57 330 15:55 31.05.2022
1178 Clouds 27 1015 83 10000 2.57 330 15:34 31.05.2022
1179 Clouds 24 1015 91 10000 0.45 93 12:56 31.05.2022
1180 Clouds 24 1015 91 10000 1.79 56 12:18 31.05.2022
1181 Clouds 24 1015 89 10000 1.79 101 10:25 31.05.2022
1182 Clouds 26 1015 82 10000 1.79 18 08:26 31.05.2022
1183 Clouds 26 1016 82 10000 1.79 45 06:21 31.05.2022
1184 Clouds 27 1016 84 10000 2.24 58 04:31 31.05.2022
1185 Clouds 30 1014 72 10000 2.06 90 23:45 30.05.2022
1186 Clouds 30 1014 72 10000 2.24 114 23:24 30.05.2022
1187 Thunderstorm 30 1014 69 10000 2.57 150 22:37 30.05.2022
1188 Clouds 31 1014 69 10000 3.09 150 21:40 30.05.2022
1189 Clouds 31 1014 69 10000 3.09 150 20:52 30.05.2022
1190 Clouds 31 1015 66 10000 2.57 180 19:44 30.05.2022
1191 Clouds 30 1016 67 10000 3.09 60 18:18 30.05.2022
1192 Clouds 30 1016 71 10000 1.79 150 17:23 30.05.2022
1193 Clouds 30 1016 68 10000 3.09 90 16:22 30.05.2022
1194 Clouds 25 1015 87 10000 2.57 360 13:32 30.05.2022
1195 Clouds 23 1015 95 10000 2.37 354 11:40 30.05.2022
1196 Clouds 26 1014 81 10000 1.34 340 09:52 30.05.2022
1197 Clouds 26 1015 81 10000 1.34 353 07:51 30.05.2022
1198 Clouds 26 1016 82 10000 1.34 1 06:22 30.05.2022
1199 Clouds 25 1016 89 10000 0 0 04:46 30.05.2022
1200 Clouds 28 1014 76 10000 1.79 119 00:18 30.05.2022
1201 Clouds 30 1014 72 10000 1.34 152 22:40 29.05.2022
1202 Clouds 28 1014 74 10000 1.34 156 21:44 29.05.2022
1203 Clouds 28 1015 82 10000 1.34 150 20:23 29.05.2022
1204 Clouds 30 1016 70 10000 0.89 84 19:29 29.05.2022
1205 Clouds 28 1016 75 10000 1.34 125 17:56 29.05.2022
1206 Clouds 27 1017 80 10000 0.89 275 16:22 29.05.2022
1207 Clouds 26 1017 81 10000 2.24 83 15:43 29.05.2022
1208 Clouds 27 1016 79 10000 2.24 90 14:54 29.05.2022
1209 Clouds 24 1016 84 10000 2.21 350 12:33 29.05.2022
1210 Clouds 26 1015 81 10000 1.79 8 11:19 29.05.2022
1211 Clouds 26 1014 80 10000 1.34 5 09:54 29.05.2022
1212 Clouds 26 1015 81 10000 1.34 329 07:59 29.05.2022
1213 Clouds 26 1016 80 10000 1.66 334 04:58 29.05.2022
1214 Clouds 25 1016 83 10000 1.66 334 04:33 29.05.2022
1215 Clouds 28 1015 74 10000 0.89 130 01:23 29.05.2022
1216 Clouds 30 1014 67 10000 5.14 160 23:47 28.05.2022
1217 Clouds 30 1014 67 10000 5.14 160 23:19 28.05.2022
1218 Clouds 30 1014 70 10000 5.14 180 21:53 28.05.2022
1219 Clouds 30 1015 71 10000 5.14 150 20:53 28.05.2022
1220 Clouds 29 1016 71 10000 2.24 124 19:20 28.05.2022
1221 Clouds 30 1017 66 8000 5.14 180 18:24 28.05.2022
1222 Clouds 30 1017 71 10000 2.57 90 17:33 28.05.2022
1223 Clouds 28 1017 77 10000 1.79 103 15:50 28.05.2022
1224 Clouds 27 1017 78 10000 1.79 82 15:20 28.05.2022
1225 Clouds 25 1016 86 10000 0.89 354 13:36 28.05.2022
1226 Clouds 25 1015 82 10000 0.89 355 12:42 28.05.2022
1227 Clouds 25 1015 82 10000 1.34 12 11:37 28.05.2022
1228 Clouds 22 1015 93 10000 1.87 347 10:39 28.05.2022
1229 Clouds 22 1015 93 10000 1.71 349 09:54 28.05.2022
1230 Clouds 23 1016 93 10000 1.51 346 08:24 28.05.2022
1231 Clouds 24 1017 85 10000 1.72 347 06:34 28.05.2022
1232 Clouds 24 1017 86 10000 1.34 35 05:18 28.05.2022
1233 Clouds 26 1016 78 10000 1.34 351 02:26 28.05.2022
1234 Clouds 26 1016 79 8000 1.34 15 23:57 27.05.2022
1235 Clouds 27 1015 76 8000 3.09 40 22:38 27.05.2022
1236 Clouds 28 1015 73 8000 5.14 180 21:28 27.05.2022
1237 Clouds 30 1016 70 10000 7.2 70 20:44 27.05.2022
1238 Clouds 30 1016 69 10000 7.2 70 20:19 27.05.2022
1239 Clouds 30 1016 70 10000 1.79 152 19:38 27.05.2022
1240 Clouds 30 1017 69 10000 1.79 147 19:19 27.05.2022
1241 Clouds 30 1017 67 10000 3.09 30 17:19 27.05.2022
1242 Clouds 28 1018 73 10000 2.24 123 15:56 27.05.2022
1243 Clouds 26 1017 82 10000 2.24 68 14:53 27.05.2022
1244 Clouds 24 1016 87 10000 0.89 337 13:40 27.05.2022
1245 Clouds 21 1016 92 10000 1.94 340 12:20 27.05.2022
1246 Clouds 21 1016 92 10000 1.94 340 11:30 27.05.2022
1247 Clouds 21 1015 92 10000 2.1 343 10:41 27.05.2022
1248 Clouds 25 1015 81 10000 0.89 339 09:59 27.05.2022
1249 Clouds 22 1016 91 10000 2.01 358 09:29 27.05.2022
1250 Clouds 25 1017 79 10000 1.34 340 07:39 27.05.2022
1251 Clouds 24 1017 86 10000 2.24 335 03:59 27.05.2022
1252 Clouds 25 1016 81 10000 2.57 360 01:27 27.05.2022
1253 Clouds 27 1016 76 10000 4.12 60 23:23 26.05.2022
1254 Clouds 29 1016 67 10000 5.14 180 21:57 26.05.2022
1255 Clouds 29 1016 66 10000 5.14 180 21:27 26.05.2022
1256 Clouds 31 1017 65 10000 1.79 156 19:34 26.05.2022
1257 Clouds 31 1017 66 10000 3.6 30 18:46 26.05.2022
1258 Clouds 31 1018 66 10000 2.57 60 17:36 26.05.2022
1259 Clouds 29 1018 73 10000 2.57 60 16:18 26.05.2022
1260 Clouds 27 1018 78 10000 3.09 350 15:24 26.05.2022
1261 Clouds 25 1017 85 10000 0.89 343 13:58 26.05.2022
1262 Clouds 24 1016 83 10000 0.89 4 11:59 26.05.2022
1263 Clouds 25 1016 82 10000 1.34 3 11:18 26.05.2022
1264 Clouds 25 1016 82 10000 0.89 339 09:38 26.05.2022
1265 Clouds 25 1016 82 10000 1.79 4 08:40 26.05.2022
1266 Clouds 25 1016 82 10000 1.79 4 08:40 26.05.2022
1267 Clouds 24 1018 89 8000 1.34 3 05:30 26.05.2022
1268 Clouds 25 1015 79 10000 1.79 327 02:23 26.05.2022
1269 Clouds 24 1015 86 8000 1.79 358 23:53 25.05.2022
1270 Clouds 24 1015 81 8000 2.24 37 22:52 25.05.2022
1271 Clouds 28 1015 72 7000 7.72 90 21:42 25.05.2022
1272 Clouds 30 1015 68 10000 3.09 180 20:49 25.05.2022
1273 Clouds 31 1015 66 10000 5.14 180 19:42 25.05.2022
1274 Clouds 30 1016 69 10000 3.09 30 18:47 25.05.2022
1275 Clouds 29 1017 73 10000 2.57 90 16:58 25.05.2022
1276 Clouds 28 1017 73 10000 2.57 90 16:27 25.05.2022
1277 Clouds 27 1017 79 10000 4.12 30 15:36 25.05.2022
1278 Clouds 26 1017 83 10000 2.24 11 14:50 25.05.2022
1279 Clouds 25 1017 84 10000 1.79 27 14:31 25.05.2022
1280 Clouds 24 1016 89 10000 2.24 355 13:23 25.05.2022
1281 Clear 24 1016 83 10000 1.34 2 11:49 25.05.2022
1282 Clear 25 1015 83 10000 1.34 347 10:24 25.05.2022
1283 Clear 25 1016 83 10000 1.79 329 09:29 25.05.2022
1284 Clouds 26 1016 83 10000 1.79 357 07:26 25.05.2022
1285 Clouds 24 1016 86 8000 1.34 3 05:41 25.05.2022
1286 Clouds 26 1015 78 10000 0.89 32 01:51 25.05.2022
1287 Clouds 26 1015 79 8000 1.34 56 23:48 24.05.2022
1288 Clouds 26 1014 79 8000 5.14 30 22:58 24.05.2022
1289 Clouds 27 1014 75 8000 5.14 90 21:47 24.05.2022
1290 Clouds 27 1014 75 8000 5.14 90 21:23 24.05.2022
1291 Clouds 29 1015 71 10000 4.12 180 20:59 24.05.2022
1292 Clouds 28 1015 86 8000 5.14 90 19:20 24.05.2022
1293 Clouds 29 1016 70 10000 3.09 90 17:50 24.05.2022
1294 Clouds 29 1016 71 10000 1.79 102 16:36 24.05.2022
1295 Clouds 27 1016 79 10000 3.09 360 15:31 24.05.2022
1296 Clouds 26 1016 84 10000 1.34 59 14:37 24.05.2022
1297 Clouds 25 1016 87 10000 1.34 2 13:35 24.05.2022
1298 Clouds 25 1015 82 10000 1.34 313 12:19 24.05.2022
1299 Clouds 23 1015 92 10000 2.14 347 09:51 24.05.2022
1300 Clouds 23 1015 92 10000 2.19 347 08:51 24.05.2022
1301 Clouds 26 1016 81 10000 1.79 15 07:44 24.05.2022
1302 Clouds 26 1017 80 10000 1.34 352 06:34 24.05.2022
1303 Clouds 25 1017 84 10000 1.79 336 03:32 24.05.2022
1304 Clouds 25 1016 82 10000 1.79 18 01:46 24.05.2022
1305 Clouds 27 1015 78 10000 1.34 51 00:30 24.05.2022
1306 Clouds 29 1014 72 10000 5.14 180 22:24 23.05.2022
1307 Clouds 30 1014 70 10000 5.14 180 21:50 23.05.2022
1308 Clouds 31 1014 66 10000 3.09 210 20:46 23.05.2022
1309 Clouds 30 1016 67 10000 3.09 160 19:51 23.05.2022
1310 Clouds 30 1016 67 10000 3.09 160 19:22 23.05.2022
1311 Clouds 30 1017 68 10000 5.14 180 18:40 23.05.2022
1312 Clouds 30 1017 66 10000 3.09 60 17:56 23.05.2022
1313 Clouds 30 1018 70 10000 1.79 106 16:29 23.05.2022
1314 Clouds 26 1018 82 10000 1.79 53 14:18 23.05.2022
1315 Clouds 23 1017 93 10000 2.09 352 11:53 23.05.2022
1316 Clouds 26 1017 82 10000 0.89 353 10:49 23.05.2022
1317 Clouds 26 1017 81 10000 0.89 359 09:48 23.05.2022
1318 Clouds 26 1017 81 10000 0.89 338 08:46 23.05.2022
1319 Clouds 26 1017 81 10000 0.89 338 08:46 23.05.2022
1320 Clouds 26 1018 80 10000 0.89 13 07:31 23.05.2022
1321 Clouds 26 1019 80 10000 2.24 25 06:40 23.05.2022
1322 Clouds 25 1019 85 10000 2.24 13 03:41 23.05.2022
1323 Clouds 25 1019 84 10000 1.34 359 01:52 23.05.2022
1324 Clouds 25 1018 82 10000 1.79 355 01:29 23.05.2022
1325 Clouds 26 1018 82 10000 0.89 106 23:18 22.05.2022
1326 Clouds 27 1018 80 8000 2.24 115 22:27 22.05.2022
1327 Clouds 29 1018 70 10000 5.14 60 21:51 22.05.2022
1328 Clouds 31 1019 66 10000 5.14 180 20:43 22.05.2022
1329 Clouds 31 1019 64 10000 5.14 180 20:22 22.05.2022
1330 Clouds 31 1019 66 10000 3.6 180 19:34 22.05.2022
1331 Clouds 31 1020 68 10000 2.24 115 18:50 22.05.2022
1332 Clouds 30 1020 69 10000 2.24 112 18:21 22.05.2022
1333 Clouds 30 1020 68 10000 2.68 98 16:57 22.05.2022
1334 Clouds 28 1020 75 10000 1.34 78 15:34 22.05.2022
1335 Clouds 27 1020 80 10000 1.34 39 14:47 22.05.2022
1336 Clouds 26 1020 81 10000 1.34 28 12:55 22.05.2022
1337 Clouds 26 1019 82 10000 0.89 346 12:33 22.05.2022
1338 Clouds 26 1019 81 10000 1.79 26 10:55 22.05.2022
1339 Clouds 26 1019 81 10000 1.34 20 09:38 22.05.2022
1340 Clouds 26 1019 85 10000 2.33 354 07:52 22.05.2022
1341 Clouds 26 1020 83 10000 1.79 21 07:20 22.05.2022
1342 Clouds 26 1021 83 10000 2.24 12 04:49 22.05.2022
1343 Clouds 28 1020 74 10000 1.34 126 01:20 22.05.2022
1344 Clouds 29 1019 71 10000 5.14 180 23:57 21.05.2022
1345 Clouds 30 1019 70 10000 5.14 180 23:32 21.05.2022
1346 Clouds 30 1018 67 10000 3.09 180 22:22 21.05.2022
1347 Clouds 31 1019 67 10000 5.14 180 21:39 21.05.2022
1348 Clouds 31 1019 68 10000 5.14 180 20:48 21.05.2022
1349 Clouds 31 1020 68 10000 2.57 240 19:59 21.05.2022
1350 Clouds 31 1020 67 10000 2.57 240 19:21 21.05.2022
1351 Clouds 30 1020 70 10000 2.57 90 17:29 21.05.2022
1352 Clouds 27 1021 82 10000 1.79 49 14:58 21.05.2022
1353 Clouds 27 1020 85 10000 1.79 45 14:24 21.05.2022
1354 Clouds 26 1021 84 10000 3.26 356 13:34 21.05.2022
1355 Clouds 26 1020 87 10000 2.48 352 12:39 21.05.2022
1356 Clouds 23 1020 91 10000 2.1 351 11:45 21.05.2022
1357 Clouds 24 1019 90 10000 1.67 347 10:22 21.05.2022
1358 Clouds 26 1019 87 10000 1.62 351 09:18 21.05.2022
1359 Clouds 24 1019 89 10000 1.62 351 08:39 21.05.2022
1360 Clouds 24 1020 90 10000 1.58 355 06:21 21.05.2022
1361 Clouds 28 1019 78 10000 2.57 180 01:59 21.05.2022
1362 Clouds 30 1018 73 10000 3.6 180 23:36 20.05.2022
1363 Clouds 30 1017 70 10000 5.14 180 22:41 20.05.2022
1364 Clouds 31 1017 69 10000 5.14 180 22:18 20.05.2022
1365 Clouds 31 1017 70 10000 4.12 180 21:19 20.05.2022
1366 Clouds 31 1017 69 10000 4.12 170 20:47 20.05.2022
1367 Clouds 31 1018 70 10000 4.12 180 19:47 20.05.2022
1368 Clouds 30 1018 70 10000 5.14 180 18:53 20.05.2022
1369 Clouds 30 1019 70 10000 5.14 180 18:18 20.05.2022
1370 Clouds 29 1019 77 10000 3.09 90 16:23 20.05.2022
1371 Clouds 28 1019 80 10000 2.24 99 15:54 20.05.2022
1372 Clouds 27 1018 86 10000 1.34 97 14:44 20.05.2022
1373 Clouds 26 1018 87 10000 1.79 62 14:26 20.05.2022
1374 Clouds 26 1017 87 10000 1.34 58 12:37 20.05.2022
1375 Clouds 25 1017 90 10000 1.7 346 10:47 20.05.2022
1376 Clouds 26 1017 89 10000 1.03 13 09:27 20.05.2022
1377 Clouds 26 1017 88 10000 0.7 2 08:24 20.05.2022
1378 Clouds 27 1017 84 10000 1.34 106 06:42 20.05.2022
1379 Clouds 24 1019 94 10000 0 0 05:39 20.05.2022
1380 Clouds 28 1017 80 10000 3.09 180 01:29 20.05.2022
1381 Clouds 30 1016 72 10000 4.12 150 23:46 19.05.2022
1382 Clouds 31 1016 70 10000 5.14 170 22:35 19.05.2022
1383 Clouds 31 1016 71 10000 6.17 180 21:50 19.05.2022
1384 Clouds 31 1016 70 10000 6.17 180 21:23 19.05.2022
1385 Clouds 31 1016 71 10000 5.14 180 20:43 19.05.2022
1386 Clouds 30 1017 72 10000 5.14 180 19:54 19.05.2022
1387 Clouds 30 1017 72 10000 3.09 180 18:59 19.05.2022
1388 Clouds 30 1018 75 10000 5.14 190 17:36 19.05.2022
1389 Clouds 28 1018 79 10000 1.79 137 15:43 19.05.2022
1390 Clouds 27 1018 83 10000 1.34 170 14:39 19.05.2022
1391 Clouds 27 1017 83 10000 1.34 99 14:19 19.05.2022
1392 Clouds 26 1016 89 10000 0.89 328 11:54 19.05.2022
1393 Clouds 27 1016 86 10000 1.34 70 10:30 19.05.2022
1394 Clouds 27 1016 83 10000 0.89 113 08:39 19.05.2022
1395 Clouds 28 1017 84 10000 1.34 108 07:18 19.05.2022
1396 Clouds 27 1017 82 10000 0.89 149 03:26 19.05.2022
1397 Clouds 29 1015 79 10000 5.14 180 00:57 19.05.2022
1398 Clouds 30 1015 75 10000 4.12 180 23:35 18.05.2022
1399 Clouds 30 1015 74 10000 5.14 180 22:43 18.05.2022
1400 Clouds 30 1015 71 10000 3.6 180 21:42 18.05.2022
1401 Clouds 31 1016 71 10000 3.6 180 21:20 18.05.2022
1402 Clouds 31 1016 70 10000 5.14 180 20:19 18.05.2022
1403 Clouds 30 1017 72 10000 5.14 180 18:53 18.05.2022
1404 Clouds 30 1017 72 10000 5.14 180 18:53 18.05.2022
1405 Clouds 30 1018 73 10000 4.12 180 17:42 18.05.2022
1406 Clouds 29 1018 73 10000 4.12 180 17:24 18.05.2022
1407 Clouds 29 1018 75 10000 2.57 150 16:52 18.05.2022
1408 Clouds 28 1018 77 10000 1.34 107 15:45 18.05.2022
1409 Clouds 28 1018 78 10000 1.79 70 15:20 18.05.2022
1410 Clouds 26 1018 88 10000 1.34 84 13:59 18.05.2022
1411 Clouds 26 1017 84 10000 0.89 11 12:53 18.05.2022
1412 Clouds 26 1017 87 10000 1.07 344 11:48 18.05.2022
1413 Clouds 26 1017 87 10000 0.8 344 11:29 18.05.2022
1414 Clouds 26 1017 85 10000 0.89 42 10:36 18.05.2022
1415 Clouds 27 1017 84 10000 0.45 106 07:56 18.05.2022
1416 Clouds 27 1018 85 10000 1.33 330 06:52 18.05.2022
1417 Clouds 28 1017 83 10000 0.45 106 02:47 18.05.2022
1418 Clouds 29 1016 78 10000 3.09 180 00:41 18.05.2022
1419 Clouds 30 1015 73 10000 5.14 180 22:59 17.05.2022
1420 Clouds 30 1016 71 10000 5.14 180 21:21 17.05.2022
1421 Clouds 30 1016 71 10000 5.14 180 21:21 17.05.2022
1422 Clouds 31 1016 70 10000 6.17 180 20:38 17.05.2022
1423 Clouds 30 1017 75 10000 1.79 124 19:29 17.05.2022
1424 Clouds 30 1017 75 10000 6.17 180 18:22 17.05.2022
1425 Clouds 29 1018 76 10000 6.17 150 17:31 17.05.2022
1426 Clouds 29 1018 77 8000 7.2 180 16:53 17.05.2022
1427 Clouds 28 1018 82 8000 3.13 122 15:45 17.05.2022
1428 Clouds 26 1017 86 10000 1.79 100 14:48 17.05.2022
1429 Clouds 25 1017 87 10000 1.34 110 14:23 17.05.2022
1430 Clouds 26 1016 90 10000 1.34 96 12:36 17.05.2022
1431 Clouds 25 1015 91 10000 0.3 349 10:23 17.05.2022
1432 Clouds 26 1016 89 10000 0.15 266 08:45 17.05.2022
1433 Clouds 24 1016 90 10000 0.55 247 07:40 17.05.2022
1434 Clouds 26 1017 82 10000 0.89 137 04:33 17.05.2022
1435 Clouds 29 1014 72 10000 4.12 190 00:47 17.05.2022
1436 Clouds 30 1014 67 10000 5.14 180 22:45 16.05.2022
1437 Clouds 30 1014 68 10000 5.14 180 22:18 16.05.2022
1438 Clouds 30 1015 67 10000 6.17 180 20:50 16.05.2022
1439 Clouds 30 1015 70 10000 5.14 150 19:59 16.05.2022
1440 Clouds 29 1016 72 10000 5.14 180 18:39 16.05.2022
1441 Clouds 27 1016 81 10000 1.34 96 16:37 16.05.2022
1442 Clouds 24 1016 90 10000 1.79 57 14:46 16.05.2022
1443 Clouds 23 1016 91 10000 0 0 13:26 16.05.2022
1444 Clouds 23 1015 87 10000 1.47 335 11:42 16.05.2022
1445 Clouds 24 1015 85 10000 1.37 343 10:30 16.05.2022
1446 Clouds 26 1015 83 10000 0.89 72 07:45 16.05.2022
1447 Clouds 24 1016 88 10000 0 0 05:40 16.05.2022
1448 Clouds 29 1013 70 10000 6.17 180 23:59 15.05.2022
1449 Clouds 29 1013 68 10000 6.17 180 22:36 15.05.2022
1450 Clouds 29 1014 71 10000 2.24 132 21:48 15.05.2022
1451 Clouds 30 1014 71 10000 2.24 153 21:21 15.05.2022
1452 Clouds 30 1014 66 10000 5.66 160 20:34 15.05.2022
1453 Clouds 29 1016 72 10000 2.68 114 17:56 15.05.2022
1454 Clouds 28 1016 75 10000 2.57 90 16:36 15.05.2022
1455 Clouds 24 1016 87 10000 0.89 5 14:18 15.05.2022
1456 Clouds 23 1015 91 10000 0.89 337 13:35 15.05.2022
1457 Clouds 24 1015 87 10000 0.89 339 11:55 15.05.2022
1458 Clouds 24 1014 85 10000 1.79 9 10:40 15.05.2022
1459 Clouds 25 1014 80 10000 1.79 82 08:52 15.05.2022
1460 Clouds 26 1015 80 10000 1.79 68 06:59 15.05.2022
1461 Clouds 26 1015 80 10000 1.34 66 06:39 15.05.2022
1462 Clouds 27 1015 77 10000 1.79 119 02:24 15.05.2022
1463 Clouds 29 1014 71 10000 5.14 180 23:56 14.05.2022
1464 Clouds 29 1014 71 10000 5.14 180 23:34 14.05.2022
1465 Clouds 30 1014 69 10000 6.69 180 21:45 14.05.2022
1466 Clouds 30 1014 69 10000 6.69 180 21:19 14.05.2022
1467 Clouds 30 1015 67 10000 5.14 100 19:54 14.05.2022
1468 Clouds 30 1015 67 10000 5.14 100 19:20 14.05.2022
1469 Clouds 29 1016 71 10000 2.68 108 18:51 14.05.2022
1470 Clouds 29 1016 71 10000 2.68 108 18:51 14.05.2022
1471 Clouds 29 1016 72 10000 4.02 112 17:42 14.05.2022
1472 Clouds 28 1016 78 10000 5.14 90 15:55 14.05.2022
1473 Clouds 26 1016 85 10000 3.09 60 14:37 14.05.2022
1474 Clouds 25 1015 86 10000 2.24 69 12:51 14.05.2022
1475 Clouds 25 1014 87 10000 1.79 59 11:37 14.05.2022
1476 Clouds 26 1014 83 10000 1.34 59 10:24 14.05.2022
1477 Clouds 25 1014 85 10000 2.24 58 09:56 14.05.2022
1478 Clouds 25 1014 84 10000 2.24 64 08:59 14.05.2022
1479 Clouds 26 1015 84 10000 1.79 70 07:21 14.05.2022
1480 Clouds 25 1015 82 10000 0 0 03:45 14.05.2022
1481 Clouds 28 1014 72 10000 5.14 150 00:21 14.05.2022
1482 Clouds 29 1014 69 10000 2.57 150 23:23 13.05.2022
1483 Clouds 29 1014 68 10000 5.14 180 22:52 13.05.2022
1484 Clouds 29 1014 67 10000 5.14 180 22:20 13.05.2022
1485 Clouds 29 1014 65 10000 6.17 180 20:57 13.05.2022
1486 Clouds 29 1014 66 10000 6.17 180 20:30 13.05.2022
1487 Clouds 29 1015 66 10000 5.14 180 19:44 13.05.2022
1488 Clouds 29 1015 66 10000 5.14 140 18:44 13.05.2022
1489 Clouds 28 1015 70 10000 5.14 130 17:29 13.05.2022
1490 Clouds 27 1016 78 10000 2.68 85 16:23 13.05.2022
1491 Clouds 26 1016 81 10000 2.57 150 15:45 13.05.2022
1492 Clouds 25 1016 86 10000 1.79 77 14:24 13.05.2022
1493 Clouds 25 1014 91 10000 2.24 66 12:46 13.05.2022
1494 Clouds 25 1014 90 10000 1.34 46 11:36 13.05.2022
1495 Clouds 25 1013 91 10000 0.89 40 09:43 13.05.2022
1496 Clouds 25 1014 90 10000 0.89 359 08:51 13.05.2022
1497 Clouds 25 1014 90 10000 1.34 69 07:49 13.05.2022
1498 Clouds 25 1015 90 10000 0.89 29 06:44 13.05.2022
1499 Clouds 24 1015 91 6000 1.34 341 04:48 13.05.2022
1500 Clouds 26 1013 85 10000 1.34 104 00:42 13.05.2022
1501 Clouds 28 1013 77 10000 5.14 160 22:47 12.05.2022
1502 Clouds 28 1012 75 10000 5.14 160 22:29 12.05.2022
1503 Clouds 29 1013 75 8000 1.79 129 20:41 12.05.2022
1504 Clouds 28 1014 78 10000 5.14 180 19:24 12.05.2022
1505 Clouds 30 1014 73 10000 5.14 180 18:19 12.05.2022
1506 Clouds 28 1015 76 10000 3.09 180 16:34 12.05.2022
1507 Clouds 27 1014 84 10000 1.34 108 14:51 12.05.2022
1508 Clouds 25 1014 93 10000 0.89 15 13:48 12.05.2022
1509 Clouds 26 1012 87 10000 0.89 70 11:31 12.05.2022
1510 Clouds 26 1012 86 10000 0.45 39 10:22 12.05.2022
1511 Clouds 26 1012 87 10000 2.41 206 08:52 12.05.2022
1512 Clouds 26 1013 86 10000 0.89 5 07:58 12.05.2022
1513 Clouds 26 1013 86 10000 0.89 357 06:58 12.05.2022
1514 Clouds 25 1014 92 8000 0.45 196 03:46 12.05.2022
1515 Clouds 29 1012 76 10000 5.14 150 00:50 12.05.2022
1516 Clouds 29 1012 73 10000 6.17 150 22:53 11.05.2022
1517 Clouds 30 1012 72 10000 6.17 180 21:59 11.05.2022
1518 Clouds 30 1012 70 10000 6.17 180 21:24 11.05.2022
1519 Clouds 30 1012 70 10000 5.14 180 19:42 11.05.2022
1520 Clouds 29 1014 75 10000 2.57 180 17:24 11.05.2022
1521 Clouds 29 1014 77 10000 5.14 180 16:19 11.05.2022
1522 Clouds 26 1014 86 10000 1.34 133 14:45 11.05.2022
1523 Clouds 26 1013 87 10000 0.89 142 14:24 11.05.2022
1524 Clouds 26 1012 84 10000 0.86 173 12:23 11.05.2022
1525 Clouds 27 1012 84 10000 0.45 179 11:47 11.05.2022
1526 Clouds 27 1012 83 10000 0.89 172 09:29 11.05.2022
1527 Clouds 23 1014 90 10000 0.91 199 06:27 11.05.2022
1528 Clouds 28 1013 75 10000 2.57 180 01:29 11.05.2022
1529 Clouds 30 1012 69 10000 5.14 180 22:56 10.05.2022
1530 Clouds 30 1012 69 10000 5.14 180 22:20 10.05.2022
1531 Clouds 30 1013 67 10000 5.66 180 21:21 10.05.2022
1532 Clouds 31 1014 67 10000 5.14 180 20:21 10.05.2022
1533 Clouds 30 1014 70 10000 5.14 180 18:36 10.05.2022
1534 Clouds 29 1015 70 10000 5.14 180 17:37 10.05.2022
1535 Clouds 27 1015 79 10000 0.89 162 15:49 10.05.2022
1536 Clouds 26 1014 84 10000 0.45 335 12:48 10.05.2022
1537 Clouds 26 1013 84 10000 0.63 184 11:53 10.05.2022
1538 Clouds 25 1013 84 10000 0.89 336 11:28 10.05.2022
1539 Clouds 25 1013 84 10000 0.89 296 10:55 10.05.2022
1540 Clouds 26 1013 83 10000 0.45 249 09:27 10.05.2022
1541 Clear 23 1013 89 10000 1.11 272 07:51 10.05.2022
1542 Clouds 25 1015 86 10000 0.45 158 05:43 10.05.2022
1543 Clouds 27 1013 76 10000 5.14 180 01:37 10.05.2022
1544 Clouds 29 1012 68 10000 3.6 180 23:42 09.05.2022
1545 Clouds 29 1012 68 10000 3.6 180 23:42 09.05.2022
1546 Clouds 31 1012 65 10000 5.14 150 22:33 09.05.2022
1547 Clouds 31 1013 63 10000 5.14 180 21:36 09.05.2022
1548 Clouds 30 1014 68 10000 5.14 180 19:52 09.05.2022
1549 Clouds 30 1014 68 10000 5.14 180 19:52 09.05.2022
1550 Clouds 30 1014 69 10000 5.14 150 18:22 09.05.2022
1551 Clouds 29 1015 74 10000 1.79 125 16:55 09.05.2022
1552 Clouds 28 1015 77 10000 1.34 112 15:54 09.05.2022
1553 Clouds 28 1015 77 10000 1.79 119 15:35 09.05.2022
1554 Clouds 25 1015 83 10000 1.34 344 14:33 09.05.2022
1555 Clouds 24 1015 85 10000 1.34 338 13:51 09.05.2022
1556 Clouds 25 1014 78 10000 1.34 359 12:51 09.05.2022
1557 Clouds 24 1014 81 10000 1.36 338 11:52 09.05.2022
1558 Clouds 24 1013 87 10000 1.13 335 10:46 09.05.2022
1559 Clear 22 1013 85 10000 1.6 319 09:59 09.05.2022
1560 Clouds 26 1013 80 10000 0.89 291 07:56 09.05.2022
1561 Clouds 25 1015 83 10000 0 0 04:33 09.05.2022
1562 Clouds 25 1015 83 10000 0 0 04:33 09.05.2022
1563 Clouds 29 1012 66 10000 3.6 180 00:22 09.05.2022
1564 Clouds 30 1013 64 10000 5.14 150 22:58 08.05.2022
1565 Clouds 30 1013 64 10000 5.14 150 22:27 08.05.2022
1566 Clouds 30 1013 64 10000 5.14 190 20:41 08.05.2022
1567 Clouds 30 1014 63 10000 5.14 190 20:18 08.05.2022
1568 Clouds 30 1014 63 10000 5.14 180 19:27 08.05.2022
1569 Clouds 30 1014 63 10000 5.14 180 19:27 08.05.2022
1570 Clouds 29 1015 67 10000 3.6 180 18:25 08.05.2022
1571 Clouds 29 1016 70 10000 5.14 160 17:21 08.05.2022
1572 Clouds 27 1015 76 10000 1.34 112 15:43 08.05.2022
1573 Clouds 27 1015 76 10000 0.89 184 15:20 08.05.2022
1574 Clouds 24 1015 86 10000 0.45 213 12:45 08.05.2022
1575 Clouds 25 1014 85 10000 0.45 249 10:46 08.05.2022
1576 Clouds 25 1014 84 10000 0.89 204 10:21 08.05.2022
1577 Clouds 24 1014 89 10000 1.52 211 09:46 08.05.2022
1578 Clouds 26 1015 82 10000 0.45 164 07:33 08.05.2022
1579 Clouds 26 1016 83 10000 0.45 175 04:24 08.05.2022
1580 Clouds 26 1015 81 10000 0.89 155 03:20 08.05.2022
1581 Clouds 28 1014 74 10000 5.14 180 00:29 08.05.2022
1582 Clouds 29 1013 72 10000 7.2 180 23:53 07.05.2022
1583 Clouds 29 1013 72 10000 7.72 180 22:57 07.05.2022
1584 Clouds 29 1013 72 10000 7.72 180 22:33 07.05.2022
1585 Clouds 30 1014 69 10000 7.72 180 21:43 07.05.2022
1586 Clouds 30 1014 69 10000 7.2 180 20:55 07.05.2022
1587 Clouds 30 1015 69 10000 7.72 170 19:58 07.05.2022
1588 Clouds 29 1016 74 10000 5.14 180 17:51 07.05.2022
1589 Clouds 27 1017 81 10000 1.34 125 15:53 07.05.2022
1590 Clouds 26 1016 87 10000 1.79 107 14:20 07.05.2022
1591 Clouds 25 1015 88 10000 0.89 79 10:57 07.05.2022
1592 Clouds 24 1015 89 10000 1.11 206 09:22 07.05.2022
1593 Clouds 26 1015 85 10000 0.45 165 07:52 07.05.2022
1594 Clouds 26 1016 83 10000 0.89 147 06:43 07.05.2022
1595 Clouds 25 1017 87 10000 0.45 142 05:22 07.05.2022
1596 Clear 27 1016 81 10000 0.89 172 02:21 07.05.2022
1597 Clouds 29 1014 73 10000 3.6 180 23:38 06.05.2022
1598 Clouds 29 1014 72 10000 6.17 180 22:31 06.05.2022
1599 Clouds 30 1014 70 10000 6.17 180 21:43 06.05.2022
1600 Clouds 30 1015 70 10000 6.69 150 20:35 06.05.2022
1601 Clouds 30 1015 68 10000 5.14 180 19:31 06.05.2022
1602 Clouds 29 1016 76 10000 1.79 148 19:00 06.05.2022
1603 Clouds 29 1016 72 10000 3.09 150 18:19 06.05.2022
1604 Clouds 29 1017 75 10000 2.06 90 16:53 06.05.2022
1605 Clouds 27 1017 82 10000 2.57 110 15:42 06.05.2022
1606 Clouds 25 1017 85 10000 1.79 117 14:53 06.05.2022
1607 Clouds 25 1016 86 10000 0.89 68 12:56 06.05.2022
1608 Clouds 25 1016 86 10000 1.34 68 12:37 06.05.2022
1609 Clouds 25 1016 86 10000 1.34 68 11:42 06.05.2022
1610 Clouds 25 1015 87 10000 0.89 99 10:30 06.05.2022
1611 Clear 25 1015 87 10000 0.89 70 09:45 06.05.2022
1612 Clear 25 1016 87 10000 1.34 80 08:33 06.05.2022
1613 Clouds 25 1016 85 10000 1.34 100 06:48 06.05.2022
1614 Clouds 25 1017 86 10000 1.34 83 05:23 06.05.2022
1615 Clear 27 1016 79 10000 0.89 90 02:47 06.05.2022
1616 Clouds 28 1015 74 10000 5.14 170 00:19 06.05.2022
1617 Clouds 30 1014 67 10000 5.14 180 21:56 05.05.2022
1618 Clouds 30 1014 67 10000 5.14 180 21:19 05.05.2022
1619 Clouds 29 1016 71 10000 2.06 180 19:54 05.05.2022
1620 Clouds 29 1017 71 10000 2.57 90 18:31 05.05.2022
1621 Clouds 28 1017 71 10000 2.06 90 16:20 05.05.2022
1622 Clouds 26 1017 81 10000 1.79 52 14:49 05.05.2022
1623 Clouds 24 1016 86 10000 0.89 40 13:22 05.05.2022
1624 Clouds 25 1016 82 10000 0.89 358 12:25 05.05.2022
1625 Clouds 25 1015 83 10000 0.89 343 10:48 05.05.2022
1626 Clouds 24 1015 85 10000 1.34 6 09:39 05.05.2022
1627 Clouds 25 1016 83 10000 1.34 10 07:35 05.05.2022
1628 Clouds 25 1017 81 10000 3.09 60 04:28 05.05.2022
1629 Clouds 27 1015 76 10000 2.57 180 01:53 05.05.2022
1630 Clouds 27 1015 76 10000 2.57 180 01:24 05.05.2022
1631 Clouds 29 1015 67 10000 5.14 180 23:47 04.05.2022
1632 Clouds 30 1014 65 10000 4.12 150 22:30 04.05.2022
1633 Clouds 30 1015 65 10000 5.14 150 21:49 04.05.2022
1634 Clouds 29 1015 67 10000 5.14 150 21:26 04.05.2022
1635 Clouds 30 1015 65 10000 2.57 150 20:23 04.05.2022
1636 Clouds 29 1016 66 10000 2.57 150 19:53 04.05.2022
1637 Clouds 29 1016 67 10000 3.09 90 18:54 04.05.2022
1638 Clouds 29 1016 69 10000 3.09 90 18:22 04.05.2022
1639 Clouds 28 1017 72 10000 1.79 151 17:30 04.05.2022
1640 Clouds 27 1017 75 10000 3.13 101 15:38 04.05.2022
1641 Clouds 26 1017 77 10000 2.57 60 15:20 04.05.2022
1642 Clouds 25 1017 83 10000 2.68 57 14:20 04.05.2022
1643 Clouds 24 1017 89 10000 1.79 25 13:20 04.05.2022
1644 Clear 24 1016 86 10000 1.79 1 12:29 04.05.2022
1645 Clear 24 1016 87 10000 1.34 337 10:40 04.05.2022
1646 Clear 25 1016 87 10000 1.34 356 09:40 04.05.2022
1647 Clear 25 1017 87 10000 1.34 349 08:34 04.05.2022
1648 Clouds 25 1018 87 10000 1.79 66 05:53 04.05.2022
1649 Clear 27 1017 83 10000 0.89 130 02:49 04.05.2022
1650 Clouds 28 1016 74 10000 5.14 180 23:58 03.05.2022
1651 Clouds 29 1016 73 10000 5.14 180 22:30 03.05.2022
1652 Clouds 30 1016 69 10000 5.14 90 21:36 03.05.2022
1653 Clouds 30 1016 69 10000 4.12 180 20:53 03.05.2022
1654 Clouds 30 1017 68 10000 3.09 160 19:45 03.05.2022
1655 Clouds 30 1017 70 10000 1.79 142 18:50 03.05.2022
1656 Clouds 30 1017 70 10000 1.79 142 18:50 03.05.2022
1657 Clouds 29 1018 69 10000 1.79 92 17:45 03.05.2022
1658 Clouds 28 1018 73 10000 2.24 109 16:37 03.05.2022
1659 Clouds 27 1018 78 10000 2.24 114 15:32 03.05.2022
1660 Clouds 25 1017 87 10000 0.89 45 12:47 03.05.2022
1661 Clouds 25 1017 88 10000 0.89 30 12:27 03.05.2022
1662 Clouds 25 1016 86 10000 1.34 15 10:57 03.05.2022
1663 Clouds 25 1016 86 10000 0.89 358 09:21 03.05.2022
1664 Clouds 26 1017 85 10000 0.89 34 06:46 03.05.2022
1665 Clouds 25 1018 86 10000 1.34 63 05:56 03.05.2022
1666 Clouds 28 1016 77 10000 1.34 101 00:19 03.05.2022
1667 Clouds 29 1016 72 10000 5.14 180 22:36 02.05.2022
1668 Clouds 29 1016 71 10000 3.6 180 21:51 02.05.2022
1669 Clouds 30 1016 73 10000 5.14 180 20:51 02.05.2022
1670 Clouds 28 1017 79 10000 1.34 88 18:37 02.05.2022
1671 Clouds 29 1018 75 10000 0.89 100 17:53 02.05.2022
1672 Clouds 28 1018 75 10000 1.34 134 17:33 02.05.2022
1673 Clouds 26 1018 82 10000 1.34 14 16:20 02.05.2022
1674 Clouds 24 1017 87 10000 0.89 336 15:19 02.05.2022
1675 Clouds 22 1016 89 10000 0.89 352 13:48 02.05.2022
1676 Clouds 22 1015 89 10000 0.45 335 12:18 02.05.2022
1677 Clouds 23 1014 88 10000 0.89 354 10:25 02.05.2022
1678 Clouds 23 1015 87 10000 0.89 6 08:46 02.05.2022
1679 Clouds 23 1015 90 10000 1.79 350 07:39 02.05.2022
1680 Clouds 23 1016 90 8000 1.34 234 01:58 02.05.2022
1681 Clouds 23 1015 94 8000 2.24 178 00:23 02.05.2022
1682 Clouds 23 1016 96 8000 1.34 230 23:47 01.05.2022
1683 Clouds 23 1015 96 8000 0.45 271 22:20 01.05.2022
1684 Clouds 23 1015 96 7000 0.45 133 20:58 01.05.2022
1685 Clouds 23 1015 94 8000 0.89 127 19:49 01.05.2022
1686 Clouds 24 1016 92 8000 3.09 60 18:55 01.05.2022
1687 Clouds 24 1016 91 8000 3.09 60 18:18 01.05.2022
1688 Clouds 23 1016 93 7000 3.09 360 16:55 01.05.2022
1689 Clouds 23 1016 94 7000 3.09 360 16:23 01.05.2022
1690 Clouds 23 1016 94 7000 2.57 360 15:22 01.05.2022
1691 Clouds 22 1015 93 10000 2.24 350 13:42 01.05.2022
1692 Clouds 22 1013 93 7009 2.24 358 10:50 01.05.2022
1693 Rain 22 1014 93 10000 2.68 350 08:51 01.05.2022
1694 Clouds 23 1015 93 10000 1.79 353 07:42 01.05.2022
1695 Clouds 23 1015 90 10000 3.13 3 02:51 01.05.2022
1696 Clouds 26 1012 74 10000 2.57 330 22:58 30.04.2022
1697 Clouds 26 1013 73 10000 3.09 330 21:35 30.04.2022
1698 Clouds 26 1013 73 10000 3.09 330 21:35 30.04.2022
1699 Clouds 26 1014 78 8000 4.12 360 20:35 30.04.2022
1700 Clouds 27 1014 72 9794 1.79 343 19:36 30.04.2022
1701 Clouds 28 1015 66 10000 2.57 360 17:40 30.04.2022
1702 Clouds 27 1016 70 10000 4.12 360 16:34 30.04.2022
1703 Clouds 25 1016 72 10000 4.12 360 15:19 30.04.2022
1704 Clouds 24 1015 78 10000 2.57 20 14:33 30.04.2022
1705 Clouds 23 1014 78 10000 1.34 351 12:36 30.04.2022
1706 Clouds 23 1014 78 10000 1.34 351 12:36 30.04.2022
1707 Clouds 23 1014 78 10000 1.79 359 11:32 30.04.2022
1708 Clouds 23 1014 78 10000 1.79 11 10:31 30.04.2022
1709 Clouds 20 1014 81 10000 2.81 343 08:34 30.04.2022
1710 Clouds 24 1016 81 10000 1.79 35 05:19 30.04.2022
1711 Clouds 28 1013 69 10000 3.6 30 00:35 30.04.2022
1712 Clouds 29 1012 64 10000 2.57 60 23:36 29.04.2022
1713 Clouds 30 1012 57 10000 4.12 30 22:30 29.04.2022
1714 Clouds 29 1012 58 10000 2.57 30 21:27 29.04.2022
1715 Clouds 29 1013 58 10000 1.34 131 20:38 29.04.2022
1716 Clouds 29 1014 55 10000 3.09 360 19:36 29.04.2022
1717 Clouds 28 1016 55 10000 2.24 35 17:48 29.04.2022
1718 Clouds 27 1016 65 10000 3.09 60 16:43 29.04.2022
1719 Clouds 24 1016 75 10000 2.24 46 14:38 29.04.2022
1720 Clouds 22 1015 83 10000 0 0 14:19 29.04.2022
1721 Clouds 21 1016 82 10000 2.43 350 12:41 29.04.2022
1722 Clouds 19 1014 80 10000 2.3 355 10:57 29.04.2022
1723 Clouds 23 1015 71 10000 2.18 1 08:18 29.04.2022
1724 Clouds 24 1015 69 10000 0.89 19 07:27 29.04.2022
1725 Clouds 24 1015 67 10000 1.34 40 06:34 29.04.2022
1726 Clouds 24 1014 80 10000 2.24 43 03:28 29.04.2022
1727 Clouds 27 1012 66 10000 3.09 150 00:18 29.04.2022
1728 Clouds 28 1012 62 10000 4.12 160 23:26 28.04.2022
1729 Clouds 28 1012 59 10000 4.12 160 22:37 28.04.2022
1730 Clouds 29 1012 57 10000 1.79 156 21:45 28.04.2022
1731 Clouds 29 1013 60 10000 4.12 60 20:49 28.04.2022
1732 Clouds 28 1014 63 10000 3.09 360 19:57 28.04.2022
1733 Clouds 28 1014 64 10000 3.09 360 19:39 28.04.2022
1734 Clouds 28 1014 64 10000 3.09 360 19:19 28.04.2022
1735 Clouds 28 1015 61 10000 4.12 30 17:56 28.04.2022
1736 Clouds 26 1016 64 10000 5.14 60 16:58 28.04.2022
1737 Clouds 26 1016 67 10000 5.14 60 16:21 28.04.2022
1738 Clouds 25 1016 69 10000 5.14 60 15:52 28.04.2022
1739 Clouds 25 1016 70 10000 5.14 60 15:21 28.04.2022
1740 Clouds 22 1015 81 10000 1.34 23 13:43 28.04.2022
1741 Clouds 18 1015 80 10000 2.42 347 12:32 28.04.2022
1742 Clouds 19 1014 83 10000 2.7 349 11:50 28.04.2022
1743 Clouds 20 1014 81 10000 2.85 358 10:28 28.04.2022
1744 Clouds 20 1014 81 10000 2.85 358 09:50 28.04.2022
1745 Clouds 21 1015 81 10000 2.82 357 07:44 28.04.2022
1746 Clouds 21 1016 82 10000 2.82 352 06:53 28.04.2022
1747 Clouds 23 1015 94 10000 0 0 05:53 28.04.2022
1748 Clouds 24 1015 88 10000 0 0 04:43 28.04.2022
1749 Clouds 25 1014 75 10000 2.24 7 02:45 28.04.2022
1750 Clouds 27 1013 72 10000 5.14 360 23:36 27.04.2022
1751 Clouds 27 1012 64 10000 2.68 16 22:22 27.04.2022
1752 Clouds 26 1012 69 10000 2.68 11 21:46 27.04.2022
1753 Clouds 28 1015 69 10000 6.17 30 20:46 27.04.2022
1754 Clouds 30 1015 58 10000 5.14 30 19:57 27.04.2022
1755 Clouds 30 1015 58 10000 5.14 30 19:36 27.04.2022
1756 Clouds 29 1015 61 10000 6.17 30 18:41 27.04.2022
1757 Clouds 28 1015 61 10000 6.17 30 18:20 27.04.2022
1758 Clouds 27 1015 69 10000 2.68 16 16:18 27.04.2022
1759 Clouds 21 1014 86 10000 1.34 355 13:21 27.04.2022
1760 Clear 23 1014 78 10000 2.24 4 11:26 27.04.2022
1761 Clear 23 1014 78 10000 1.79 5 10:50 27.04.2022
1762 Clear 23 1015 78 10000 2.24 12 08:28 27.04.2022
1763 Clear 21 1015 87 10000 3.53 352 06:41 27.04.2022
1764 Clear 26 1015 72 10000 3.13 39 02:31 27.04.2022
1765 Clouds 27 1014 67 10000 5.14 20 01:23 27.04.2022
1766 Clouds 29 1013 63 10000 4.12 360 00:27 27.04.2022
1767 Clouds 30 1012 56 10000 5.14 360 23:24 26.04.2022
1768 Clouds 30 1012 56 10000 5.14 30 22:45 26.04.2022
1769 Clouds 30 1012 57 10000 5.14 30 22:19 26.04.2022
1770 Clouds 30 1013 58 10000 5.14 360 21:19 26.04.2022
1771 Clouds 30 1013 58 10000 2.68 9 20:37 26.04.2022
1772 Clouds 29 1014 59 10000 5.14 360 19:45 26.04.2022
1773 Clouds 29 1015 59 10000 5.14 360 19:26 26.04.2022
1774 Clouds 29 1015 61 10000 5.14 40 18:31 26.04.2022
1775 Clouds 28 1016 63 10000 5.14 70 17:39 26.04.2022
1776 Clouds 25 1017 75 10000 3.6 360 15:32 26.04.2022
1777 Clouds 23 1016 87 10000 2.24 5 13:40 26.04.2022
1778 Clouds 23 1015 83 10000 2.24 4 12:47 26.04.2022
1779 Clouds 23 1015 82 10000 1.79 353 11:20 26.04.2022
1780 Clouds 23 1014 82 10000 1.34 349 10:30 26.04.2022
1781 Clouds 23 1015 81 10000 1.34 343 08:32 26.04.2022
1782 Clouds 24 1016 76 10000 2.68 26 04:39 26.04.2022
1783 Clouds 24 1015 81 10000 1.79 22 03:59 26.04.2022
1784 Clouds 27 1014 76 10000 2.24 90 00:46 26.04.2022
1785 Clouds 27 1013 73 10000 2.57 150 23:48 25.04.2022
1786 Clouds 29 1014 66 10000 2.57 360 21:49 25.04.2022
1787 Clouds 29 1014 64 10000 2.57 360 21:23 25.04.2022
1788 Clouds 29 1014 67 10000 5.66 20 19:39 25.04.2022
1789 Clouds 29 1015 64 10000 1.34 144 18:25 25.04.2022
1790 Clouds 28 1016 67 10000 3.09 90 17:39 25.04.2022
1791 Clouds 27 1016 70 10000 2.57 360 16:30 25.04.2022
1792 Clouds 25 1016 75 10000 3.09 360 15:19 25.04.2022
1793 Clouds 23 1016 85 10000 2.57 330 14:22 25.04.2022
1794 Clouds 23 1015 83 10000 1.79 348 12:40 25.04.2022
1795 Clear 23 1014 82 10000 1.79 359 10:29 25.04.2022
1796 Clear 23 1014 82 10000 2.24 357 09:36 25.04.2022
1797 Clouds 23 1015 81 10000 1.79 4 07:34 25.04.2022
1798 Clouds 24 1016 87 10000 1.79 358 05:53 25.04.2022
1799 Clouds 25 1014 84 10000 0.45 216 01:24 25.04.2022
1800 Clouds 26 1013 76 10000 3.6 150 23:54 24.04.2022
1801 Clouds 29 1013 66 10000 4.12 140 22:53 24.04.2022
1802 Clouds 29 1013 66 10000 4.12 140 22:32 24.04.2022
1803 Clouds 28 1013 68 10000 2.24 116 21:54 24.04.2022
1804 Clouds 28 1013 69 10000 2.24 113 21:20 24.04.2022
1805 Clouds 29 1014 66 10000 3.6 60 20:38 24.04.2022
1806 Clouds 29 1014 64 10000 2.57 80 19:51 24.04.2022
1807 Clouds 28 1015 64 10000 5.14 60 18:28 24.04.2022
1808 Clouds 27 1016 66 10000 2.57 360 17:40 24.04.2022
1809 Clouds 27 1016 67 10000 3.13 46 17:19 24.04.2022
1810 Clouds 26 1016 70 10000 3.09 20 16:48 24.04.2022
1811 Clouds 26 1016 70 10000 3.13 50 16:20 24.04.2022
1812 Clouds 25 1016 72 10000 3.09 360 15:31 24.04.2022
1813 Clouds 25 1016 72 10000 3.09 360 15:31 24.04.2022
1814 Clouds 23 1016 79 10000 2.57 360 14:19 24.04.2022
1815 Clouds 22 1015 83 10000 2.24 12 13:26 24.04.2022
1816 Clouds 22 1015 83 10000 2.24 12 13:26 24.04.2022
1817 Clouds 23 1015 81 10000 1.79 11 12:35 24.04.2022
1818 Clouds 23 1014 82 10000 1.79 9 11:34 24.04.2022
1819 Clouds 23 1014 82 10000 1.34 339 10:30 24.04.2022
1820 Clouds 23 1014 81 10000 1.79 1 09:29 24.04.2022
1821 Clouds 23 1016 81 10000 2.24 8 06:46 24.04.2022
1822 Clouds 24 1016 82 10000 1.79 25 03:57 24.04.2022
1823 Clouds 25 1014 76 10000 2.68 50 01:38 24.04.2022
1824 Clouds 25 1014 76 10000 2.68 50 01:38 24.04.2022
1825 Clouds 26 1013 76 8000 4.12 360 00:29 24.04.2022
1826 Clouds 28 1013 64 10000 2.24 40 23:44 23.04.2022
1827 Clouds 28 1013 63 10000 3.13 60 23:21 23.04.2022
1828 Clouds 29 1013 71 10000 5.14 360 21:51 23.04.2022
1829 Clouds 28 1013 70 10000 5.14 360 21:33 23.04.2022
1830 Clouds 29 1013 65 10000 6.17 360 20:45 23.04.2022
1831 Clouds 30 1014 62 10000 5.14 360 19:47 23.04.2022
1832 Clouds 29 1015 62 10000 5.14 360 19:19 23.04.2022
1833 Clouds 29 1015 68 10000 7.2 360 18:52 23.04.2022
1834 Clouds 28 1015 70 10000 4.12 360 17:51 23.04.2022
1835 Clouds 27 1016 71 10000 4.12 360 17:20 23.04.2022
1836 Clouds 26 1016 73 10000 5.14 360 16:40 23.04.2022
1837 Clouds 26 1015 74 10000 2.24 25 15:20 23.04.2022
1838 Clouds 22 1015 85 10000 1.79 8 12:44 23.04.2022
1839 Clouds 23 1014 84 10000 1.79 3 10:43 23.04.2022
1840 Clouds 23 1014 86 10000 1.79 358 09:30 23.04.2022
1841 Clouds 23 1016 87 10000 1.79 359 06:29 23.04.2022
1842 Clouds 22 1016 94 10000 1.34 346 03:54 23.04.2022
1843 Clouds 23 1014 95 8000 2.57 120 00:57 23.04.2022
1844 Clouds 23 1014 100 8000 3.09 90 23:29 22.04.2022
1845 Clouds 25 1014 94 10000 2.57 360 22:20 22.04.2022
1846 Clouds 26 1014 83 5000 6.17 90 21:42 22.04.2022
1847 Clouds 27 1014 80 10000 1.34 257 20:46 22.04.2022
1848 Clouds 27 1015 79 10000 1.34 289 20:26 22.04.2022
1849 Clouds 28 1015 73 8000 3.09 360 19:18 22.04.2022
1850 Clouds 29 1015 72 10000 2.57 360 18:36 22.04.2022
1851 Clouds 28 1016 72 10000 2.24 44 17:39 22.04.2022
1852 Clouds 27 1016 72 10000 3.6 360 16:32 22.04.2022
1853 Clouds 26 1016 79 10000 5.14 360 15:32 22.04.2022
1854 Clouds 24 1016 86 10000 1.79 13 14:44 22.04.2022
1855 Clouds 23 1016 88 10000 2.24 352 13:43 22.04.2022
1856 Clouds 23 1015 84 10000 1.79 14 12:57 22.04.2022
1857 Clouds 23 1015 84 10000 1.79 18 11:43 22.04.2022
1858 Clouds 23 1014 84 10000 1.79 356 11:20 22.04.2022
1859 Clouds 23 1014 86 10000 1.34 347 10:47 22.04.2022
1860 Clouds 23 1014 86 10000 1.34 14 10:27 22.04.2022
1861 Clouds 23 1014 85 10000 1.79 351 09:42 22.04.2022
1862 Clouds 23 1015 85 10000 1.34 1 08:49 22.04.2022
1863 Clouds 23 1016 86 10000 0.89 346 06:56 22.04.2022
1864 Clouds 23 1015 89 10000 1.34 291 01:49 22.04.2022
1865 Clouds 26 1014 76 10000 3.09 60 23:49 21.04.2022
1866 Clouds 24 1014 94 7000 0 0 22:59 21.04.2022
1867 Clouds 27 1015 83 10000 3.09 180 21:56 21.04.2022
1868 Clouds 27 1015 74 10000 0.89 125 20:34 21.04.2022
1869 Clouds 27 1016 80 10000 0.89 139 19:51 21.04.2022
1870 Clouds 26 1017 81 10000 1.34 80 18:34 21.04.2022
1871 Clouds 25 1017 85 10000 1.79 104 17:47 21.04.2022
1872 Clouds 23 1017 89 8000 4.12 360 16:24 21.04.2022
1873 Clouds 23 1017 90 10000 4.12 360 15:19 21.04.2022
1874 Clouds 23 1016 92 10000 2.57 30 14:31 21.04.2022
1875 Clouds 23 1015 89 10000 2.68 60 13:23 21.04.2022
1876 Clouds 23 1015 90 10000 1.79 59 12:36 21.04.2022
1877 Clouds 23 1014 90 10000 0.89 1 10:20 21.04.2022
1878 Clouds 23 1014 91 10000 1.34 3 08:53 21.04.2022
1879 Clouds 23 1015 91 10000 1.79 51 06:55 21.04.2022
1880 Clouds 23 1015 92 8000 1.34 74 04:34 21.04.2022
1881 Clouds 24 1015 88 8000 1.34 65 03:24 21.04.2022
1882 Clouds 24 1015 88 10000 1.79 65 02:45 21.04.2022
1883 Clouds 24 1015 88 10000 1.79 65 02:45 21.04.2022
1884 Clouds 26 1014 85 10000 3.6 120 00:35 21.04.2022
1885 Clouds 26 1014 84 10000 2.57 150 23:46 20.04.2022
1886 Clouds 26 1013 84 10000 2.57 150 23:21 20.04.2022
1887 Clouds 26 1013 84 10000 2.68 107 22:45 20.04.2022
1888 Clouds 27 1013 82 10000 3.13 114 21:57 20.04.2022
1889 Clouds 27 1014 81 10000 3.6 100 20:50 20.04.2022
1890 Clouds 27 1014 80 10000 3.6 100 20:22 20.04.2022
1891 Clouds 26 1014 84 10000 2.06 180 19:47 20.04.2022
1892 Clouds 26 1015 85 10000 0.89 123 18:52 20.04.2022
1893 Clouds 26 1015 82 10000 3.09 30 17:52 20.04.2022
1894 Clouds 25 1016 87 10000 1.34 65 16:39 20.04.2022
1895 Clouds 23 1015 93 10000 1.79 12 15:33 20.04.2022
1896 Clouds 22 1014 92 10000 1.34 43 12:46 20.04.2022
1897 Clouds 22 1014 92 10000 0.89 20 11:42 20.04.2022
1898 Clouds 22 1013 92 10000 1.79 358 10:44 20.04.2022
1899 Clouds 22 1013 93 10000 1.34 340 09:31 20.04.2022
1900 Clouds 23 1014 92 9583 0.89 4 08:40 20.04.2022
1901 Clouds 23 1014 92 10000 1.34 6 08:18 20.04.2022
1902 Clouds 23 1015 93 10000 0.52 330 06:23 20.04.2022
1903 Clouds 24 1014 87 10000 5.14 90 02:34 20.04.2022
1904 Clouds 26 1013 78 10000 0.89 215 00:22 20.04.2022
1905 Clouds 28 1012 70 10000 5.14 180 22:59 19.04.2022
1906 Clouds 28 1012 70 10000 5.14 180 22:59 19.04.2022
1907 Clouds 28 1012 69 10000 5.14 180 22:23 19.04.2022
1908 Clouds 27 1012 79 10000 4.63 270 21:53 19.04.2022
1909 Clouds 28 1013 76 10000 4.12 240 20:59 19.04.2022
1910 Clouds 27 1013 78 10000 4.12 240 20:37 19.04.2022
1911 Clear 26 1014 85 10000 0.89 130 19:41 19.04.2022
1912 Clouds 25 1015 82 7000 3.09 240 18:31 19.04.2022
1913 Clouds 26 1015 78 10000 3.6 270 16:55 19.04.2022
1914 Clouds 25 1015 87 10000 3.6 270 16:33 19.04.2022
1915 Clouds 25 1015 88 10000 1.34 357 15:59 19.04.2022
1916 Clouds 23 1014 93 7000 1.34 37 14:46 19.04.2022
1917 Clouds 23 1014 93 7000 1.34 37 14:46 19.04.2022
1918 Clouds 23 1013 92 10000 1.34 358 12:58 19.04.2022
1919 Clouds 23 1013 92 10000 1.34 9 12:36 19.04.2022
1920 Clouds 23 1013 92 10000 1.34 358 11:35 19.04.2022
1921 Clouds 24 1012 92 10000 0.89 342 09:51 19.04.2022
1922 Clouds 24 1013 92 10000 0.45 339 07:49 19.04.2022
1923 Clouds 23 1014 91 10000 0 0 04:26 19.04.2022
1924 Clouds 25 1014 89 10000 0.89 112 02:39 19.04.2022
1925 Clouds 24 1012 90 10000 3.09 30 23:51 18.04.2022
1926 Clouds 25 1013 89 5000 0.45 163 22:53 18.04.2022
1927 Clouds 24 1014 90 5000 4.12 240 21:26 18.04.2022
1928 Clouds 25 1014 86 8000 3.09 240 20:40 18.04.2022
1929 Clouds 25 1014 86 8000 3.09 240 20:22 18.04.2022
1930 Clouds 27 1016 92 10000 0.76 257 19:40 18.04.2022
1931 Clouds 25 1015 88 8000 0 0 18:49 18.04.2022
1932 Clouds 24 1016 92 7123 0.89 306 17:49 18.04.2022
1933 Clouds 24 1016 92 6808 0.89 297 17:19 18.04.2022
1934 Rain 24 1016 92 7000 2.44 200 16:39 18.04.2022
1935 Clouds 23 1016 93 6492 1.34 123 15:41 18.04.2022
1936 Clouds 23 1015 95 10000 1.34 109 14:27 18.04.2022
1937 Clouds 22 1015 96 8000 0.89 108 13:24 18.04.2022
1938 Clouds 23 1014 93 10000 0.89 64 12:27 18.04.2022
1939 Clouds 22 1013 92 6944 1.34 112 10:58 18.04.2022
1940 Clouds 23 1013 93 4705 0.89 339 09:53 18.04.2022
1941 Clouds 23 1013 92 9617 0.45 49 09:27 18.04.2022
1942 Clouds 22 1014 91 10000 0.89 301 07:25 18.04.2022
1943 Clouds 22 1015 91 6836 0.89 344 02:46 18.04.2022
1944 Clouds 25 1012 89 10000 2.24 123 23:30 17.04.2022
1945 Clouds 26 1013 87 10000 3.6 270 22:37 17.04.2022
1946 Clouds 26 1013 85 8000 0.89 131 21:34 17.04.2022
1947 Clouds 25 1013 85 10000 1.79 124 20:53 17.04.2022
1948 Clouds 26 1014 85 10000 2.24 119 20:19 17.04.2022
1949 Clouds 24 1016 89 8000 2.57 300 18:58 17.04.2022
1950 Thunderstorm 23 1016 100 10000 0 0 17:31 17.04.2022
1951 Clouds 23 1015 91 6000 0.89 1 15:37 17.04.2022
1952 Clouds 23 1015 91 8000 0.89 83 14:46 17.04.2022
1953 Clouds 23 1014 92 10000 2.24 64 13:37 17.04.2022
1954 Clouds 24 1014 85 10000 1.34 10 12:49 17.04.2022
1955 Clouds 23 1014 87 10000 1.59 336 10:59 17.04.2022
1956 Clouds 23 1014 87 10000 1.63 329 10:29 17.04.2022
1957 Clouds 23 1014 86 10000 1.63 329 09:55 17.04.2022
1958 Clouds 24 1014 86 10000 1.41 330 09:21 17.04.2022
1959 Clouds 24 1014 86 10000 1.41 330 08:41 17.04.2022
1960 Clouds 24 1016 83 10000 1.39 329 06:29 17.04.2022
1961 Clouds 26 1014 83 10000 0 0 02:31 17.04.2022
1962 Clouds 28 1012 74 10000 3.09 180 00:42 17.04.2022
1963 Clouds 28 1013 73 10000 4.12 150 23:38 16.04.2022
1964 Clouds 30 1013 67 10000 4.12 150 21:49 16.04.2022
1965 Clouds 29 1013 68 10000 6.17 150 20:54 16.04.2022
1966 Clouds 29 1014 71 10000 2.57 210 19:28 16.04.2022
1967 Clouds 29 1015 69 10000 2.57 80 18:43 16.04.2022
1968 Clouds 29 1016 71 10000 3.09 30 17:20 16.04.2022
1969 Clouds 27 1016 72 10000 2.68 116 15:51 16.04.2022
1970 Clouds 25 1015 84 10000 2.24 64 14:58 16.04.2022
1971 Clouds 25 1015 85 10000 1.79 65 14:40 16.04.2022
1972 Clouds 24 1015 87 10000 1.79 44 13:50 16.04.2022
1973 Clouds 23 1015 88 10000 1.34 46 13:18 16.04.2022
1974 Clouds 23 1015 88 10000 2.02 339 11:43 16.04.2022
1975 Clouds 24 1014 84 10000 1.79 55 10:33 16.04.2022
1976 Clouds 24 1014 83 10000 1.79 54 09:37 16.04.2022
1977 Clouds 24 1014 82 10000 2.24 27 08:51 16.04.2022
1978 Clouds 24 1015 82 10000 1.34 49 07:21 16.04.2022
1979 Clouds 24 1016 86 10000 1.34 355 05:38 16.04.2022
1980 Clouds 27 1014 75 10000 1.79 114 01:47 16.04.2022
1981 Clouds 28 1013 71 10000 2.24 119 23:52 15.04.2022
1982 Clouds 28 1013 70 10000 5.14 150 22:48 15.04.2022
1983 Clouds 29 1013 69 10000 5.14 150 22:28 15.04.2022
1984 Clouds 30 1013 63 10000 5.14 180 21:21 15.04.2022
1985 Clouds 30 1014 66 10000 5.14 90 20:38 15.04.2022
1986 Clouds 30 1015 65 10000 3.09 120 19:44 15.04.2022
1987 Clouds 29 1015 65 10000 3.6 60 18:59 15.04.2022
1988 Clouds 29 1016 64 10000 3.6 60 18:41 15.04.2022
1989 Clouds 29 1016 64 10000 3.6 60 18:21 15.04.2022
1990 Clouds 28 1016 69 10000 2.57 360 17:26 15.04.2022
1991 Clouds 27 1017 72 10000 2.24 67 16:25 15.04.2022
1992 Clouds 26 1017 78 10000 5.14 60 15:45 15.04.2022
1993 Clouds 23 1016 85 10000 1.79 24 13:55 15.04.2022
1994 Clouds 23 1015 87 10000 1.79 8 12:52 15.04.2022
1995 Clouds 23 1015 86 10000 1.34 6 12:24 15.04.2022
1996 Clouds 23 1015 86 10000 1.34 18 11:50 15.04.2022
1997 Clouds 23 1015 86 10000 1.34 39 10:46 15.04.2022
1998 Clouds 24 1015 85 10000 1.34 18 09:59 15.04.2022
1999 Clouds 24 1015 85 10000 1.79 26 09:22 15.04.2022
2000 Clouds 24 1015 85 10000 1.79 40 08:39 15.04.2022
2001 Clouds 24 1016 86 10000 1.79 9 06:50 15.04.2022
2002 Clouds 23 1016 89 7000 1.34 20 04:43 15.04.2022
2003 Clouds 24 1014 83 10000 2.57 90 00:46 15.04.2022
2004 Clouds 27 1014 73 10000 1.79 83 23:26 14.04.2022
2005 Clouds 28 1013 69 10000 3.6 360 22:46 14.04.2022
2006 Clouds 29 1013 69 10000 1.34 152 22:27 14.04.2022
2007 Clouds 28 1014 68 7000 1.79 145 21:50 14.04.2022
2008 Clouds 29 1015 65 10000 4.12 200 19:41 14.04.2022
2009 Clouds 29 1016 65 10000 4.12 200 19:20 14.04.2022
2010 Clouds 27 1017 66 10000 3.13 117 17:45 14.04.2022
2011 Clouds 27 1017 69 10000 5.14 60 16:51 14.04.2022
2012 Clouds 25 1017 74 10000 3.09 90 15:52 14.04.2022
2013 Clouds 22 1016 88 10000 1.34 8 13:53 14.04.2022
2014 Clouds 22 1015 90 10000 1.34 357 13:21 14.04.2022
2015 Clouds 22 1015 90 10000 1.34 45 12:32 14.04.2022
2016 Clouds 22 1014 92 10000 1.34 329 11:43 14.04.2022
2017 Clouds 22 1014 92 10000 1.34 332 11:18 14.04.2022
2018 Clouds 22 1014 91 10000 1.34 355 10:31 14.04.2022
2019 Clear 22 1014 90 10000 2.24 67 09:30 14.04.2022
2020 Clouds 24 1015 84 10000 1.79 1 08:24 14.04.2022
2021 Clouds 23 1016 89 7000 1.34 30 05:57 14.04.2022
2022 Clouds 25 1014 86 10000 1.79 23 00:59 14.04.2022
2023 Clouds 26 1014 82 8000 3.09 360 22:38 13.04.2022
2024 Clouds 27 1014 76 6000 3.09 360 21:43 13.04.2022
2025 Clouds 26 1014 78 4000 1.79 114 20:41 13.04.2022
2026 Clouds 28 1015 72 10000 5.14 180 19:49 13.04.2022
2027 Clouds 28 1016 76 10000 4.12 120 18:39 13.04.2022
2028 Clouds 27 1017 75 10000 4.12 90 17:41 13.04.2022
2029 Clouds 27 1017 75 10000 4.12 90 17:23 13.04.2022
2030 Clouds 27 1017 75 10000 2.68 79 16:18 13.04.2022
2031 Clouds 25 1017 81 10000 2.24 58 15:29 13.04.2022
2032 Clouds 24 1017 87 10000 1.79 11 14:40 13.04.2022
2033 Clouds 23 1016 88 10000 1.34 5 13:43 13.04.2022
2034 Clouds 23 1016 88 10000 1.34 357 12:52 13.04.2022
2035 Clouds 23 1015 89 10000 1.34 333 11:58 13.04.2022
2036 Clouds 23 1014 88 10000 1.79 350 10:34 13.04.2022
2037 Clouds 24 1015 87 10000 1.34 7 08:49 13.04.2022
2038 Clouds 24 1015 88 10000 1.34 12 08:23 13.04.2022
2039 Clouds 24 1016 88 10000 1.34 343 06:49 13.04.2022
2040 Clouds 24 1017 88 10000 1.79 12 06:24 13.04.2022
2041 Clouds 23 1016 92 8000 2.57 180 02:24 13.04.2022
2042 Clouds 25 1015 91 8000 2.57 120 00:20 13.04.2022
2043 Clouds 26 1015 83 10000 2.57 30 22:33 12.04.2022
2044 Clouds 28 1015 74 8000 2.57 360 21:54 12.04.2022
2045 Clouds 29 1015 68 10000 6.69 100 20:48 12.04.2022
2046 Clouds 29 1015 68 10000 6.69 100 20:20 12.04.2022
2047 Clouds 28 1016 75 10000 3.58 102 19:40 12.04.2022
2048 Clouds 30 1016 61 10000 1.79 71 18:56 12.04.2022
2049 Clouds 29 1017 65 10000 5.14 40 17:39 12.04.2022
2050 Clouds 28 1017 69 10000 3.6 60 16:47 12.04.2022
2051 Clouds 27 1018 76 10000 3.13 49 15:34 12.04.2022
2052 Clouds 25 1017 82 10000 2.57 360 14:53 12.04.2022
2053 Clouds 24 1017 82 10000 2.24 32 13:50 12.04.2022
2054 Clouds 23 1016 87 10000 0 0 13:25 12.04.2022
2055 Clouds 23 1016 87 10000 3.08 346 12:18 12.04.2022
2056 Clouds 23 1016 86 10000 3.08 346 11:35 12.04.2022
2057 Clouds 24 1015 84 10000 3.02 340 09:47 12.04.2022
2058 Clouds 24 1015 83 10000 2.87 343 08:49 12.04.2022
2059 Clouds 25 1016 78 10000 1.79 1 06:47 12.04.2022
2060 Clouds 25 1017 77 10000 2.68 20 05:40 12.04.2022
2061 Clouds 27 1016 69 10000 4.11 21 02:37 12.04.2022
2062 Clouds 29 1013 66 10000 4.12 150 23:20 11.04.2022
2063 Clouds 29 1013 66 10000 4.12 150 22:32 11.04.2022
2064 Clouds 30 1013 66 10000 3.09 90 21:22 11.04.2022
2065 Clouds 30 1014 64 10000 3.6 40 20:34 11.04.2022
2066 Clouds 29 1015 68 10000 3.6 360 19:59 11.04.2022
2067 Clouds 30 1015 65 10000 3.6 360 19:26 11.04.2022
2068 Clouds 29 1016 68 10000 1.79 146 18:53 11.04.2022
2069 Clouds 30 1016 61 10000 4.12 60 17:58 11.04.2022
2070 Clouds 30 1017 62 10000 4.12 60 17:33 11.04.2022
2071 Clouds 28 1017 70 10000 4.12 360 16:26 11.04.2022
2072 Clouds 25 1017 83 10000 1.79 20 14:42 11.04.2022
2073 Clouds 23 1016 90 10000 1.34 350 13:34 11.04.2022
2074 Clouds 24 1015 87 10000 1.79 9 12:38 11.04.2022
2075 Clouds 24 1015 85 10000 1.34 2 11:54 11.04.2022
2076 Clouds 24 1014 86 10000 0.89 321 10:35 11.04.2022
2077 Clouds 23 1014 86 10000 1.82 15 09:34 11.04.2022
2078 Clouds 23 1016 86 10000 1.77 10 07:24 11.04.2022
2079 Clouds 26 1015 84 10000 0.89 108 02:36 11.04.2022
2080 Clouds 29 1012 70 10000 4.12 190 23:22 10.04.2022
2081 Clouds 29 1013 68 10000 3.09 180 22:26 10.04.2022
2082 Clouds 30 1013 67 10000 5.14 180 21:35 10.04.2022
2083 Clouds 29 1014 68 10000 2.24 169 20:39 10.04.2022
2084 Clouds 29 1015 69 10000 1.79 130 19:46 10.04.2022
2085 Clouds 29 1015 70 10000 2.24 137 19:25 10.04.2022
2086 Clouds 29 1015 72 10000 2.57 180 18:46 10.04.2022
2087 Clouds 28 1016 75 10000 3.09 180 17:56 10.04.2022
2088 Clouds 28 1016 75 10000 3.09 180 17:56 10.04.2022
2089 Clouds 29 1016 74 10000 3.09 180 17:37 10.04.2022
2090 Clouds 28 1016 76 10000 2.57 90 16:44 10.04.2022
2091 Clouds 25 1016 79 10000 2.24 94 15:37 10.04.2022
2092 Clouds 24 1016 86 10000 0.45 17 14:25 10.04.2022
2093 Clouds 24 1015 85 10000 0.89 322 12:35 10.04.2022
2094 Clouds 24 1015 84 10000 0.89 347 11:56 10.04.2022
2095 Clouds 24 1015 83 10000 0.45 21 11:29 10.04.2022
2096 Clouds 24 1014 83 10000 0.89 17 10:56 10.04.2022
2097 Clouds 25 1014 82 10000 0.89 1 09:59 10.04.2022
2098 Clouds 25 1014 82 10000 0.89 37 09:38 10.04.2022
2099 Clouds 26 1014 81 10000 0.89 44 08:23 10.04.2022
2100 Clouds 22 1015 85 10000 0.89 1 07:35 10.04.2022
2101 Clouds 22 1016 94 10000 0 0 05:50 10.04.2022
2102 Clear 27 1015 78 10000 0.45 121 02:34 10.04.2022
2103 Clouds 28 1014 74 10000 1.34 140 00:29 10.04.2022
2104 Clouds 28 1014 72 10000 5.14 180 23:49 09.04.2022
2105 Clouds 29 1014 69 10000 5.14 180 22:48 09.04.2022
2106 Clouds 29 1015 67 10000 4.12 160 21:35 09.04.2022
2107 Clouds 29 1015 68 10000 5.14 180 20:49 09.04.2022
2108 Clouds 29 1015 68 10000 5.14 180 20:26 09.04.2022
2109 Clouds 29 1016 71 10000 3.09 180 19:42 09.04.2022
2110 Clouds 29 1017 71 10000 5.14 180 18:58 09.04.2022
2111 Clouds 28 1017 71 10000 5.14 180 18:20 09.04.2022
2112 Clouds 28 1017 72 10000 3.09 90 17:39 09.04.2022
2113 Clouds 28 1017 72 10000 3.09 90 17:39 09.04.2022
2114 Clouds 26 1018 75 10000 3.09 30 16:50 09.04.2022
2115 Clouds 25 1018 84 10000 2.68 102 15:55 09.04.2022
2116 Clouds 25 1017 82 10000 1.79 65 15:29 09.04.2022
2117 Clouds 23 1017 88 10000 0.89 351 14:27 09.04.2022
2118 Clouds 22 1017 88 10000 0.45 346 13:54 09.04.2022
2119 Clouds 24 1017 84 10000 0.89 36 12:59 09.04.2022
2120 Clouds 24 1016 83 10000 0.89 25 12:34 09.04.2022
2121 Clouds 24 1016 83 10000 0.89 32 11:21 09.04.2022
2122 Clouds 22 1015 92 10000 1.77 351 10:20 09.04.2022
2123 Clouds 22 1015 92 10000 1.77 351 09:37 09.04.2022
2124 Clouds 23 1015 91 10000 1.72 352 08:51 09.04.2022
2125 Clouds 25 1016 88 10000 1.17 11 06:48 09.04.2022
2126 Clouds 28 1014 71 10000 3.6 150 01:31 09.04.2022
2127 Clouds 29 1014 68 10000 5.14 160 23:25 08.04.2022
2128 Clouds 29 1013 69 10000 5.14 180 21:58 08.04.2022
2129 Clouds 29 1014 67 10000 5.14 170 20:47 08.04.2022
2130 Clouds 29 1015 68 10000 2.57 100 19:58 08.04.2022
2131 Clouds 29 1015 70 10000 2.57 100 19:18 08.04.2022
2132 Clouds 29 1016 68 10000 2.24 123 18:25 08.04.2022
2133 Clouds 29 1017 68 10000 1.34 135 17:38 08.04.2022
2134 Clouds 28 1017 68 10000 1.79 126 17:19 08.04.2022
2135 Clouds 28 1017 71 10000 1.34 68 16:35 08.04.2022
2136 Clouds 26 1017 80 10000 1.79 2 15:39 08.04.2022
2137 Clouds 23 1016 87 10000 0.45 344 14:52 08.04.2022
2138 Clouds 23 1016 91 10000 0.45 280 14:21 08.04.2022
2139 Clouds 22 1016 92 10000 1.79 150 13:41 08.04.2022
2140 Clouds 23 1016 92 10000 2.24 111 13:22 08.04.2022
2141 Clear 24 1015 80 10000 1.34 42 11:51 08.04.2022
2142 Clear 22 1014 86 10000 2.27 335 10:31 08.04.2022
2143 Clear 22 1015 86 10000 2.56 340 09:25 08.04.2022
2144 Clear 22 1015 85 10000 2.48 343 08:25 08.04.2022
2145 Clear 22 1016 87 10000 1.61 337 06:47 08.04.2022
2146 Clouds 24 1015 88 10000 0 0 04:32 08.04.2022
2147 Clouds 28 1013 70 10000 3.6 180 00:32 08.04.2022
2148 Clouds 29 1012 68 10000 4.12 180 23:59 07.04.2022
2149 Clouds 29 1013 65 10000 5.14 210 22:57 07.04.2022
2150 Clouds 29 1013 65 10000 5.14 210 22:37 07.04.2022
2151 Clouds 29 1013 66 10000 5.14 210 22:19 07.04.2022
2152 Clouds 29 1014 65 10000 5.14 200 21:47 07.04.2022
2153 Clouds 30 1014 64 10000 5.14 180 20:57 07.04.2022
2154 Clouds 30 1014 65 10000 5.14 180 20:28 07.04.2022
2155 Clouds 29 1016 70 10000 3.09 30 17:51 07.04.2022
2156 Clouds 28 1016 72 10000 3.09 30 17:24 07.04.2022
2157 Clouds 27 1016 76 10000 1.79 115 16:42 07.04.2022
2158 Clouds 25 1017 83 10000 2.24 104 15:58 07.04.2022
2159 Clear 25 1016 80 10000 1.34 19 14:28 07.04.2022
2160 Clouds 22 1015 91 10000 1.34 39 13:41 07.04.2022
2161 Clear 24 1014 84 10000 1.34 14 12:28 07.04.2022
2162 Clear 23 1014 88 10000 1.85 345 10:57 07.04.2022
2163 Clear 24 1013 83 10000 1.34 15 09:36 07.04.2022
2164 Clear 23 1014 85 10000 1.77 337 08:35 07.04.2022
2165 Clear 24 1016 84 10000 1.22 353 06:29 07.04.2022
2166 Clear 27 1015 78 10000 1.79 123 02:40 07.04.2022
2167 Clouds 27 1014 77 10000 2.57 150 01:27 07.04.2022
2168 Clouds 29 1013 71 10000 5.14 180 23:53 06.04.2022
2169 Clouds 29 1013 69 10000 5.14 180 22:45 06.04.2022
2170 Clouds 29 1014 69 10000 5.14 180 22:24 06.04.2022
2171 Clouds 29 1014 66 10000 6.17 180 21:18 06.04.2022
2172 Clouds 30 1014 67 10000 5.14 180 20:27 06.04.2022
2173 Clouds 29 1014 70 10000 5.14 120 19:52 06.04.2022
2174 Clouds 29 1015 68 10000 2.24 115 18:50 06.04.2022
2175 Clouds 29 1016 73 10000 2.06 50 17:51 06.04.2022
2176 Clouds 29 1016 73 10000 2.06 50 17:21 06.04.2022
2177 Clouds 28 1017 71 10000 2.57 60 16:34 06.04.2022
2178 Clouds 26 1016 79 10000 2.68 116 15:46 06.04.2022
2179 Clouds 24 1016 84 10000 1.79 35 14:20 06.04.2022
2180 Clear 23 1015 84 10000 0.89 356 12:37 06.04.2022
2181 Clear 24 1014 83 10000 1.34 9 11:48 06.04.2022
2182 Clear 23 1014 84 10000 2 349 10:42 06.04.2022
2183 Clear 23 1014 84 10000 1.95 353 10:18 06.04.2022
2184 Clear 24 1014 83 10000 1.71 352 09:26 06.04.2022
2185 Clouds 21 1015 89 10000 1.68 353 08:26 06.04.2022
2186 Clouds 22 1015 91 10000 1.69 350 07:37 06.04.2022
2187 Clouds 27 1014 75 10000 1.79 120 02:19 06.04.2022
2188 Clouds 29 1013 69 10000 5.14 180 23:50 05.04.2022
2189 Clouds 29 1014 67 10000 7.72 190 22:20 05.04.2022
2190 Clouds 30 1014 66 10000 5.14 140 21:18 05.04.2022
2191 Clouds 30 1014 66 10000 5.14 140 21:18 05.04.2022
2192 Clouds 30 1014 66 10000 5.14 140 21:18 05.04.2022
2193 Clouds 30 1014 66 10000 5.14 140 21:18 05.04.2022
2194 Clouds 30 1014 68 10000 3.09 120 20:25 05.04.2022
2195 Clouds 29 1016 72 10000 3.09 20 18:56 05.04.2022
2196 Clouds 29 1017 73 10000 2.24 132 17:31 05.04.2022
2197 Clouds 28 1016 76 10000 2.57 150 16:47 05.04.2022
2198 Clouds 27 1016 79 10000 1.79 104 15:52 05.04.2022
2199 Clouds 27 1016 80 10000 1.79 112 15:33 05.04.2022
2200 Clouds 24 1016 87 10000 1.34 30 14:18 05.04.2022
2201 Clouds 23 1015 87 10000 0.89 3 12:55 05.04.2022
2202 Clouds 24 1015 87 10000 0.89 343 11:49 05.04.2022
2203 Clouds 24 1014 88 10000 0.89 336 11:31 05.04.2022
2204 Clear 23 1014 88 10000 1.61 357 09:41 05.04.2022
2205 Clear 24 1014 86 10000 1.6 346 08:52 05.04.2022
2206 Clouds 24 1015 85 10000 1.34 102 05:28 05.04.2022
2207 Clouds 28 1012 73 10000 6.17 180 23:51 04.04.2022
2208 Clouds 29 1013 71 10000 5.14 180 22:41 04.04.2022
2209 Clouds 29 1013 69 10000 5.14 180 21:52 04.04.2022
2210 Clouds 30 1013 68 10000 5.14 180 21:21 04.04.2022
2211 Clouds 29 1013 69 10000 5.14 180 20:48 04.04.2022
2212 Clouds 29 1015 70 10000 5.14 180 19:39 04.04.2022
2213 Clouds 29 1015 71 10000 3.09 180 18:59 04.04.2022
2214 Clouds 28 1016 75 10000 3.09 180 17:54 04.04.2022
2215 Clouds 27 1016 76 10000 3.09 180 16:36 04.04.2022
2216 Clouds 26 1015 81 10000 1.34 76 15:34 04.04.2022
2217 Clouds 25 1015 85 10000 0.89 32 14:58 04.04.2022
2218 Clouds 25 1015 86 10000 0.45 352 14:40 04.04.2022
2219 Clouds 22 1014 88 10000 0.89 347 13:21 04.04.2022
2220 Clouds 24 1013 86 10000 0.89 15 11:48 04.04.2022
2221 Clouds 24 1013 85 10000 0.89 45 11:27 04.04.2022
2222 Clouds 26 1013 80 10000 0.89 132 07:46 04.04.2022
2223 Clouds 26 1013 83 10000 1.34 122 03:52 04.04.2022
2224 Clouds 28 1013 73 10000 5.14 180 00:25 04.04.2022
2225 Clouds 28 1013 69 10000 3.6 150 22:33 03.04.2022
2226 Clouds 28 1013 71 10000 5.14 180 21:38 03.04.2022
2227 Clouds 28 1014 73 10000 6.17 150 20:41 03.04.2022
2228 Clouds 28 1015 70 10000 1.79 146 19:45 03.04.2022
2229 Clouds 28 1015 72 10000 5.14 150 18:31 03.04.2022
2230 Clouds 27 1015 74 10000 2.24 121 17:44 03.04.2022
2231 Clouds 26 1016 78 10000 2.57 90 16:50 03.04.2022
2232 Clouds 26 1016 78 10000 2.57 90 16:31 03.04.2022
2233 Clouds 24 1016 85 10000 1.34 14 14:32 03.04.2022
2234 Clouds 23 1015 89 10000 1.34 3 13:45 03.04.2022
2235 Clear 24 1015 84 10000 1.34 338 12:21 03.04.2022
2236 Clear 24 1014 84 10000 0.89 329 10:58 03.04.2022
2237 Clear 24 1014 83 10000 0.89 327 09:36 03.04.2022
2238 Clear 24 1015 84 10000 1.63 333 07:37 03.04.2022
2239 Clouds 25 1015 85 10000 0.45 132 04:19 03.04.2022
2240 Clouds 28 1014 73 10000 5.14 150 00:41 03.04.2022
2241 Clouds 29 1013 66 10000 3.6 180 22:57 02.04.2022
2242 Clouds 29 1014 68 10000 5.14 180 21:57 02.04.2022
2243 Clouds 30 1014 68 10000 5.14 180 21:36 02.04.2022
2244 Clouds 30 1014 67 10000 4.12 180 20:52 02.04.2022
2245 Clouds 29 1016 65 10000 2.57 60 19:32 02.04.2022
2246 Clouds 29 1017 74 10000 1.79 159 18:21 02.04.2022
2247 Clouds 28 1018 75 10000 3.6 60 17:52 02.04.2022
2248 Clouds 27 1018 76 10000 2.57 80 16:23 02.04.2022
2249 Clouds 24 1018 85 10000 1.79 35 15:21 02.04.2022
2250 Clouds 23 1018 88 10000 1.79 57 14:47 02.04.2022
2251 Clouds 22 1017 89 10000 0.89 6 13:35 02.04.2022
2252 Clear 24 1017 82 10000 0.89 349 12:37 02.04.2022
2253 Clear 24 1016 82 10000 1.34 4 10:58 02.04.2022
2254 Clear 24 1016 81 10000 0.89 49 08:50 02.04.2022
2255 Clouds 24 1018 81 10000 1.85 4 06:50 02.04.2022
2256 Clouds 24 1017 94 10000 0 0 03:45 02.04.2022
2257 Clouds 27 1015 76 10000 4.12 150 23:56 01.04.2022
2258 Clouds 27 1015 75 10000 4.12 150 23:18 01.04.2022
2259 Clouds 29 1016 70 10000 7.2 180 21:33 01.04.2022
2260 Clouds 29 1016 66 10000 3.13 117 20:51 01.04.2022
2261 Clouds 29 1017 68 10000 3.09 140 19:57 01.04.2022
2262 Clouds 29 1017 69 10000 3.09 140 19:31 01.04.2022
2263 Clouds 29 1017 68 10000 2.68 112 18:45 01.04.2022
2264 Clouds 29 1018 69 10000 5.14 10 17:46 01.04.2022
2265 Clouds 27 1018 75 10000 3.09 60 16:48 01.04.2022
2266 Clouds 25 1018 81 10000 1.79 74 15:36 01.04.2022
2267 Clouds 23 1018 91 10000 1.34 359 14:20 01.04.2022
2268 Clouds 22 1017 92 10000 1.34 4 13:33 01.04.2022
2269 Clouds 22 1016 91 10000 1.34 316 12:32 01.04.2022
2270 Clouds 22 1016 92 10000 1.34 336 11:37 01.04.2022
2271 Clouds 22 1016 92 10000 0.89 48 10:18 01.04.2022
2272 Clouds 23 1016 83 10000 2.85 337 08:30 01.04.2022
2273 Clouds 23 1017 83 10000 2.94 339 06:54 01.04.2022
2274 Clouds 24 1017 85 10000 2.57 360 04:49 01.04.2022
2275 Clouds 24 1017 84 10000 2.57 360 04:30 01.04.2022
2276 Clouds 26 1015 75 10000 3.09 160 01:56 01.04.2022
2277 Clouds 29 1014 66 10000 5.14 180 22:58 31.03.2022
2278 Clouds 29 1014 64 10000 5.14 150 21:50 31.03.2022
2279 Clouds 30 1014 65 10000 5.14 150 21:31 31.03.2022
2280 Clouds 29 1015 68 10000 2.57 180 20:29 31.03.2022
2281 Clouds 29 1016 66 10000 3.09 10 19:48 31.03.2022
2282 Clouds 29 1017 70 10000 4.12 60 18:43 31.03.2022
2283 Clouds 29 1017 66 10000 3.6 60 17:49 31.03.2022
2284 Clouds 27 1018 73 10000 3.13 60 16:37 31.03.2022
2285 Clouds 25 1018 78 10000 5.14 360 15:37 31.03.2022
2286 Clouds 24 1018 79 10000 5.14 360 15:19 31.03.2022
2287 Clouds 23 1017 86 10000 1.79 10 14:34 31.03.2022
2288 Clear 22 1015 89 10000 1.34 351 11:43 31.03.2022
2289 Clear 22 1015 89 10000 1.79 347 10:55 31.03.2022
2290 Clear 22 1015 88 10000 1.34 3 09:44 31.03.2022
2291 Clear 22 1016 90 10000 1.34 2 07:53 31.03.2022
2292 Clouds 22 1017 92 10000 1.34 348 04:46 31.03.2022
2293 Clouds 26 1015 78 10000 2.57 360 23:37 30.03.2022
2294 Clouds 26 1015 74 10000 2.57 350 22:27 30.03.2022
2295 Clouds 26 1015 72 10000 5.14 130 21:37 30.03.2022
2296 Clouds 26 1015 75 10000 5.14 60 20:44 30.03.2022
2297 Clouds 25 1016 79 10000 6.17 50 19:59 30.03.2022
2298 Clouds 25 1017 81 10000 5.14 360 18:50 30.03.2022
2299 Clouds 27 1017 70 10000 2.57 360 17:53 30.03.2022
2300 Clouds 27 1017 72 10000 2.68 65 17:34 30.03.2022
2301 Clouds 25 1017 79 10000 5.14 60 16:51 30.03.2022
2302 Clouds 25 1017 80 10000 5.14 60 16:30 30.03.2022
2303 Clouds 24 1017 85 10000 2.24 20 14:55 30.03.2022
2304 Clouds 23 1016 91 10000 1.79 343 13:32 30.03.2022
2305 Clouds 22 1016 90 10000 1.34 351 12:36 30.03.2022
2306 Clear 23 1015 90 10000 2.24 5 10:54 30.03.2022
2307 Clouds 23 1015 91 10000 1.79 2 09:58 30.03.2022
2308 Clouds 23 1016 90 10000 1.79 3 08:29 30.03.2022
2309 Clouds 23 1017 91 10000 1.79 343 07:29 30.03.2022
2310 Clouds 22 1018 92 10000 1.79 352 05:40 30.03.2022
2311 Clouds 22 1017 92 6000 1.34 357 03:20 30.03.2022
2312 Clouds 24 1015 86 8000 3.13 67 23:32 29.03.2022
2313 Clouds 25 1015 81 8000 3.09 30 22:18 29.03.2022
2314 Clouds 27 1015 73 4000 6.17 30 21:40 29.03.2022
2315 Clouds 28 1016 71 10000 6.17 360 20:39 29.03.2022
2316 Clouds 28 1017 72 10000 5.14 360 19:34 29.03.2022
2317 Clouds 28 1018 71 10000 5.14 360 18:54 29.03.2022
2318 Clouds 28 1019 72 10000 5.14 360 17:57 29.03.2022
2319 Clouds 27 1019 74 10000 5.14 360 17:19 29.03.2022
2320 Clouds 27 1019 75 10000 5.14 360 16:53 29.03.2022
2321 Clouds 25 1018 84 10000 3.09 360 15:44 29.03.2022
2322 Clouds 23 1018 88 10000 2.57 360 14:43 29.03.2022
2323 Clouds 23 1018 88 10000 2.57 360 14:43 29.03.2022
2324 Clouds 23 1018 88 10000 1.79 342 13:36 29.03.2022
2325 Clouds 22 1017 89 10000 1.79 343 12:39 29.03.2022
2326 Clouds 22 1016 90 10000 2.68 344 11:24 29.03.2022
2327 Clouds 22 1016 91 10000 1.79 337 10:20 29.03.2022
2328 Clouds 23 1016 89 10000 2.24 352 08:52 29.03.2022
2329 Clouds 24 1018 84 10000 2.68 358 06:53 29.03.2022
2330 Clouds 24 1017 88 10000 3.6 360 02:52 29.03.2022
2331 Clouds 25 1015 93 10000 4.12 60 23:37 28.03.2022
2332 Clouds 26 1015 83 10000 3.6 360 22:57 28.03.2022
2333 Clouds 26 1015 83 10000 3.6 360 22:33 28.03.2022
2334 Clouds 27 1015 89 10000 3.09 360 21:43 28.03.2022
2335 Clouds 26 1015 85 10000 3.09 360 20:35 28.03.2022
2336 Clouds 24 1018 94 6000 3.6 360 19:48 28.03.2022
2337 Clouds 24 1018 94 6000 3.6 360 19:30 28.03.2022
2338 Clouds 25 1018 88 10000 2.57 90 18:50 28.03.2022
2339 Clouds 25 1017 53 10000 6.27 15 17:41 28.03.2022
2340 Clouds 22 1019 100 8000 2.06 50 16:48 28.03.2022
2341 Rain 22 1018 93 8000 0.89 50 14:56 28.03.2022
2342 Clouds 22 1018 92 8000 1.79 59 14:23 28.03.2022
2343 Clouds 22 1016 93 10000 0.45 113 13:18 28.03.2022
2344 Clear 22 1015 91 10000 0.89 24 11:43 28.03.2022
2345 Clear 23 1014 91 10000 1.34 26 09:55 28.03.2022
2346 Clear 23 1014 90 10000 0.89 56 09:21 28.03.2022
2347 Clouds 23 1014 89 10000 1.34 309 08:23 28.03.2022
2348 Clouds 24 1015 84 10000 2.24 297 07:59 28.03.2022
2349 Clouds 23 1015 87 10000 0.89 184 06:30 28.03.2022
2350 Clouds 27 1012 73 10000 6.17 180 00:19 28.03.2022
2351 Clouds 28 1012 73 10000 5.14 210 22:34 27.03.2022
2352 Clouds 28 1012 72 10000 5.14 180 21:42 27.03.2022
2353 Clouds 29 1013 72 10000 3.09 180 20:58 27.03.2022
2354 Clouds 28 1013 73 10000 3.09 180 20:21 27.03.2022
2355 Clouds 29 1014 71 10000 5.14 180 19:36 27.03.2022
2356 Clouds 29 1015 67 10000 3.09 130 18:30 27.03.2022
2357 Clouds 29 1015 66 10000 1.79 164 17:55 27.03.2022
2358 Clouds 29 1015 66 10000 1.34 125 17:35 27.03.2022
2359 Clouds 26 1016 79 10000 0.89 111 15:46 27.03.2022
2360 Clouds 23 1014 83 10000 0.89 341 13:57 27.03.2022
2361 Clouds 23 1015 86 10000 1.23 333 12:58 27.03.2022
2362 Clouds 21 1014 88 10000 1.35 335 11:30 27.03.2022
2363 Clouds 24 1013 83 10000 1.27 324 09:37 27.03.2022
2364 Clouds 22 1014 80 10000 0.88 263 06:54 27.03.2022
2365 Clouds 26 1013 74 10000 0.45 168 01:55 27.03.2022
2366 Clouds 26 1012 74 10000 3.09 180 00:25 27.03.2022
2367 Clouds 29 1011 68 10000 4.12 180 22:45 26.03.2022
2368 Clouds 29 1011 65 10000 4.12 180 21:50 26.03.2022
2369 Clouds 29 1012 65 10000 4.12 180 21:26 26.03.2022
2370 Clouds 29 1012 67 10000 5.14 180 19:31 26.03.2022
2371 Clouds 29 1013 68 10000 5.14 180 18:24 26.03.2022
2372 Clouds 29 1014 68 10000 5.14 180 17:33 26.03.2022
2373 Clouds 28 1015 71 10000 4.12 150 16:30 26.03.2022
2374 Clouds 28 1015 73 10000 1.79 123 15:35 26.03.2022
2375 Clouds 24 1015 81 10000 1.34 19 13:55 26.03.2022
2376 Clouds 23 1015 83 10000 1.34 3 13:19 26.03.2022
2377 Clear 23 1013 85 10000 0.89 351 11:41 26.03.2022
2378 Clear 20 1014 90 10000 1.24 322 10:29 26.03.2022
2379 Clear 20 1014 90 10000 1.74 321 08:44 26.03.2022
2380 Clear 23 1014 84 10000 1.23 348 06:30 26.03.2022
2381 Clear 24 1015 82 10000 0.9 10 05:28 26.03.2022
2382 Clouds 26 1014 74 10000 2.57 150 00:30 26.03.2022
2383 Clouds 29 1014 63 10000 5.14 180 21:51 25.03.2022
2384 Clouds 30 1014 60 10000 6.17 150 20:46 25.03.2022
2385 Clouds 30 1014 63 10000 6.17 150 20:20 25.03.2022
2386 Clouds 28 1015 69 10000 3.13 118 18:47 25.03.2022
2387 Clouds 27 1017 72 10000 3.09 120 17:47 25.03.2022
2388 Clouds 27 1017 73 10000 3.09 120 17:27 25.03.2022
2389 Clouds 27 1018 70 10000 1.79 98 16:18 25.03.2022
2390 Clouds 26 1018 74 10000 3.09 30 14:26 25.03.2022
2391 Clouds 23 1017 84 10000 1.79 52 12:57 25.03.2022
2392 Clouds 23 1016 85 10000 1.7 2 10:26 25.03.2022
2393 Clouds 24 1015 81 10000 2.24 60 09:28 25.03.2022
2394 Clouds 23 1016 84 10000 2.39 347 08:24 25.03.2022
2395 Clouds 24 1016 83 10000 2.16 350 07:28 25.03.2022
2396 Clouds 24 1017 82 10000 1.99 359 06:24 25.03.2022
2397 Clouds 27 1016 76 10000 2.24 115 01:18 25.03.2022
2398 Clouds 28 1015 69 10000 1.79 126 22:51 24.03.2022
2399 Clouds 28 1015 66 10000 1.79 128 21:45 24.03.2022
2400 Clear 29 1016 68 10000 1.79 133 20:26 24.03.2022
2401 Clear 29 1016 66 10000 2.24 126 19:47 24.03.2022
2402 Clear 29 1018 59 10000 1.79 153 17:47 24.03.2022
2403 Clear 29 1018 64 10000 1.79 117 17:19 24.03.2022
2404 Clouds 27 1020 71 10000 3.09 30 15:45 24.03.2022
2405 Clouds 25 1019 78 10000 2.68 65 14:48 24.03.2022
2406 Clouds 25 1019 79 10000 2.24 10 14:18 24.03.2022
2407 Clouds 22 1019 91 10000 1.79 331 12:52 24.03.2022
2408 Clear 22 1018 87 10000 1.79 5 11:44 24.03.2022
2409 Clear 23 1017 84 10000 2.86 357 09:53 24.03.2022
2410 Clear 23 1017 84 10000 2.83 350 08:41 24.03.2022
2411 Clear 23 1017 84 10000 2.47 343 06:49 24.03.2022
2412 Clouds 24 1017 88 10000 0 0 02:24 24.03.2022
2413 Clouds 27 1016 72 10000 5.14 180 23:20 23.03.2022
2414 Clouds 29 1015 65 10000 5.14 180 21:27 23.03.2022
2415 Clouds 29 1016 62 10000 5.14 180 20:59 23.03.2022
2416 Clouds 29 1016 64 10000 5.14 170 19:45 23.03.2022
2417 Clouds 28 1017 66 10000 5.14 90 18:36 23.03.2022
2418 Clouds 28 1018 67 10000 5.14 90 17:36 23.03.2022
2419 Clouds 28 1019 67 10000 5.14 90 16:21 23.03.2022
2420 Clouds 26 1019 76 10000 2.68 52 14:51 23.03.2022
2421 Clouds 25 1018 78 10000 1.79 45 14:24 23.03.2022
2422 Clouds 23 1017 85 10000 1.79 6 12:45 23.03.2022
2423 Clouds 24 1016 79 10000 1.79 354 09:38 23.03.2022
2424 Clear 22 1017 80 10000 2.55 338 06:41 23.03.2022
2425 Clouds 24 1018 84 10000 0 0 04:31 23.03.2022
2426 Clouds 26 1015 75 10000 0.89 120 00:29 23.03.2022
2427 Clouds 28 1015 70 10000 5.14 180 22:33 22.03.2022
2428 Clouds 29 1014 67 10000 3.6 50 21:29 22.03.2022
2429 Clouds 29 1015 67 10000 1.79 120 20:39 22.03.2022
2430 Clouds 29 1015 67 10000 3.6 150 19:41 22.03.2022
2431 Clouds 30 1015 67 10000 3.6 150 19:18 22.03.2022
2432 Clouds 30 1015 67 10000 3.6 150 19:18 22.03.2022
2433 Clouds 28 1016 67 10000 3.09 360 18:22 22.03.2022
2434 Clouds 29 1017 63 10000 5.14 60 17:29 22.03.2022
2435 Clouds 28 1017 67 10000 2.57 80 15:59 22.03.2022
2436 Clouds 27 1018 70 10000 3.13 67 15:22 22.03.2022
2437 Clouds 25 1018 79 10000 2.68 62 14:46 22.03.2022
2438 Clouds 25 1018 80 10000 2.57 360 14:26 22.03.2022
2439 Clouds 22 1017 87 10000 1.79 15 12:55 22.03.2022
2440 Clouds 23 1016 83 10000 1.34 8 11:48 22.03.2022
2441 Clouds 23 1015 82 10000 1.34 353 10:35 22.03.2022
2442 Clouds 22 1016 85 10000 2.68 352 08:24 22.03.2022
2443 Clouds 23 1017 78 10000 2.51 1 05:21 22.03.2022
2444 Clouds 23 1017 88 10000 3.6 60 03:41 22.03.2022
2445 Clouds 27 1014 75 10000 1.79 122 23:59 21.03.2022
2446 Clouds 28 1014 67 8000 3.09 100 22:29 21.03.2022
2447 Clouds 29 1014 65 10000 4.12 180 20:47 21.03.2022
2448 Clouds 29 1014 66 10000 4.12 180 20:27 21.03.2022
2449 Clouds 29 1015 65 10000 2.24 140 19:57 21.03.2022
2450 Clouds 30 1015 64 10000 2.24 137 19:25 21.03.2022
2451 Clouds 29 1016 68 10000 4.12 140 17:53 21.03.2022
2452 Clouds 29 1017 69 10000 4.12 140 17:18 21.03.2022
2453 Clouds 28 1017 70 10000 3.09 160 16:39 21.03.2022
2454 Clouds 28 1018 71 10000 3.09 100 15:48 21.03.2022
2455 Clouds 26 1018 75 10000 2.24 103 14:56 21.03.2022
2456 Clouds 25 1017 80 10000 1.79 76 13:46 21.03.2022
2457 Clouds 23 1017 86 10000 1.34 42 12:34 21.03.2022
2458 Clouds 24 1016 83 10000 0.89 351 11:44 21.03.2022
2459 Clouds 24 1015 84 10000 1.79 12 10:34 21.03.2022
2460 Clouds 24 1015 82 10000 1.34 38 08:29 21.03.2022
2461 Clouds 25 1016 80 10000 1.79 39 06:37 21.03.2022
2462 Clouds 25 1017 87 10000 0 0 02:48 21.03.2022
2463 Clouds 27 1015 77 10000 3.6 180 23:41 20.03.2022
2464 Clouds 29 1016 69 10000 3.09 150 22:43 20.03.2022
2465 Clouds 30 1015 67 10000 3.09 180 21:51 20.03.2022
2466 Clouds 30 1015 66 10000 3.09 180 21:20 20.03.2022
2467 Clouds 30 1015 66 10000 3.6 90 20:43 20.03.2022
2468 Clouds 29 1016 69 10000 2.57 300 19:57 20.03.2022
2469 Clouds 29 1016 69 10000 2.57 300 19:26 20.03.2022
2470 Clouds 28 1018 69 10000 1.79 111 17:52 20.03.2022
2471 Clouds 29 1018 69 10000 1.34 131 17:30 20.03.2022
2472 Clouds 28 1019 72 10000 4.12 60 16:52 20.03.2022
2473 Clouds 27 1019 72 10000 1.34 35 15:27 20.03.2022
2474 Clouds 25 1019 81 10000 1.79 51 13:49 20.03.2022
2475 Clouds 22 1018 94 10000 0 0 12:22 20.03.2022
2476 Clouds 23 1017 94 10000 2.28 341 10:42 20.03.2022
2477 Clouds 23 1017 94 10000 2.58 343 08:37 20.03.2022
2478 Clouds 24 1017 84 10000 2.66 348 06:55 20.03.2022
2479 Clouds 24 1018 85 10000 0 0 03:59 20.03.2022
2480 Clouds 26 1018 74 10000 1.73 47 01:29 20.03.2022
2481 Clouds 27 1017 70 10000 1.34 91 00:36 20.03.2022
2482 Clouds 29 1016 64 10000 2.57 360 22:56 19.03.2022
2483 Clouds 30 1016 62 10000 5.14 360 21:27 19.03.2022
2484 Clouds 29 1016 61 10000 5.14 30 20:19 19.03.2022
2485 Clouds 29 1019 64 10000 3.09 30 18:44 19.03.2022
2486 Clouds 29 1019 64 10000 5.14 60 17:57 19.03.2022
2487 Clouds 29 1019 63 10000 5.14 60 17:34 19.03.2022
2488 Clouds 26 1020 72 10000 3.09 90 15:43 19.03.2022
2489 Clouds 26 1020 75 10000 5.14 360 14:21 19.03.2022
2490 Clouds 23 1019 86 10000 1.79 359 12:56 19.03.2022
2491 Clouds 22 1019 86 10000 1.79 351 12:37 19.03.2022
2492 Clear 22 1019 87 10000 2.65 357 11:47 19.03.2022
2493 Clear 24 1017 81 10000 1.79 3 09:55 19.03.2022
2494 Clouds 24 1018 79 10000 1.79 16 05:48 19.03.2022
2495 Clouds 26 1018 80 10000 1.79 94 02:37 19.03.2022
2496 Clouds 26 1016 77 10000 3.09 180 00:54 19.03.2022
2497 Clouds 27 1016 75 10000 6.17 180 23:19 18.03.2022
2498 Clouds 28 1016 74 10000 5.14 180 22:23 18.03.2022
2499 Clouds 29 1016 69 10000 5.14 180 20:48 18.03.2022
2500 Clouds 30 1017 68 10000 5.14 180 19:48 18.03.2022
2501 Clouds 30 1017 68 10000 5.14 180 19:19 18.03.2022
2502 Clouds 30 1017 68 10000 5.14 180 19:19 18.03.2022
2503 Clouds 29 1018 72 10000 4.12 90 17:27 18.03.2022
2504 Clouds 29 1019 71 10000 2.24 124 16:42 18.03.2022
2505 Clouds 25 1019 79 10000 2.68 65 14:30 18.03.2022
2506 Clouds 24 1019 84 10000 2.68 53 13:41 18.03.2022
2507 Clouds 21 1018 94 10000 0 0 12:18 18.03.2022
2508 Clouds 21 1017 91 10000 2.44 356 10:27 18.03.2022
2509 Clouds 22 1017 91 10000 2.53 347 09:20 18.03.2022
2510 Clouds 24 1017 78 10000 1.34 349 07:43 18.03.2022
2511 Clouds 25 1018 74 10000 1.79 35 05:20 18.03.2022
2512 Clouds 26 1018 84 10000 0.88 20 01:55 18.03.2022
2513 Clouds 26 1017 78 10000 0 0 00:21 18.03.2022
2514 Clouds 28 1016 67 10000 4.12 150 22:54 17.03.2022
2515 Clouds 28 1016 67 10000 4.12 150 22:20 17.03.2022
2516 Clouds 28 1016 68 10000 5.14 180 21:46 17.03.2022
2517 Clouds 29 1016 67 10000 7.2 180 20:58 17.03.2022
2518 Clouds 29 1016 66 10000 7.2 180 20:29 17.03.2022
2519 Clouds 29 1017 64 10000 7.72 160 19:39 17.03.2022
2520 Clouds 30 1017 63 10000 5.14 180 18:55 17.03.2022
2521 Clouds 29 1018 67 10000 5.14 150 17:47 17.03.2022
2522 Clouds 28 1019 71 10000 5.14 150 16:29 17.03.2022
2523 Clouds 27 1019 73 10000 5.14 90 15:43 17.03.2022
2524 Clouds 27 1019 73 10000 5.14 90 15:21 17.03.2022
2525 Clouds 24 1019 85 10000 1.34 59 13:47 17.03.2022
2526 Clouds 23 1018 87 10000 1.79 62 12:47 17.03.2022
2527 Clouds 22 1018 87 10000 2.17 346 11:40 17.03.2022
2528 Clouds 23 1017 87 10000 2.1 347 10:58 17.03.2022
2529 Clouds 23 1017 87 10000 2.15 340 09:40 17.03.2022
2530 Clouds 23 1017 86 10000 1.57 341 08:20 17.03.2022
2531 Clouds 24 1018 83 10000 2.28 327 05:53 17.03.2022
2532 Clouds 24 1019 83 10000 1.86 336 05:23 17.03.2022
2533 Clouds 26 1016 77 10000 5.14 150 00:27 17.03.2022
2534 Clouds 28 1015 71 10000 6.17 180 22:57 16.03.2022
2535 Clouds 28 1015 71 10000 6.17 180 22:36 16.03.2022
2536 Clouds 29 1015 69 10000 7.2 150 21:56 16.03.2022
2537 Clouds 28 1015 68 10000 1.79 133 20:47 16.03.2022
2538 Clouds 30 1016 63 10000 5.14 360 19:24 16.03.2022
2539 Clouds 30 1017 64 10000 4.12 350 18:43 16.03.2022
2540 Clouds 29 1018 64 10000 5.14 30 17:50 16.03.2022
2541 Clouds 29 1018 67 10000 5.14 30 17:31 16.03.2022
2542 Clouds 28 1019 68 10000 5.14 30 16:35 16.03.2022
2543 Clear 26 1019 72 10000 2.24 49 14:58 16.03.2022
2544 Clouds 24 1019 83 10000 2.24 355 13:36 16.03.2022
2545 Clouds 22 1018 87 10000 2.24 351 12:55 16.03.2022
2546 Clear 22 1017 83 10000 1.79 2 11:23 16.03.2022
2547 Clear 23 1017 83 10000 2.24 3 10:32 16.03.2022
2548 Clear 23 1017 82 10000 2.24 348 09:57 16.03.2022
2549 Clear 23 1017 81 10000 1.34 348 08:24 16.03.2022
2550 Clouds 24 1018 80 10000 3.09 360 02:46 16.03.2022
2551 Clouds 28 1016 73 10000 5.14 40 22:56 15.03.2022
2552 Clouds 29 1015 75 10000 2.24 118 22:36 15.03.2022
2553 Clouds 29 1016 68 10000 5.14 150 20:59 15.03.2022
2554 Clouds 30 1017 68 10000 5.14 160 19:39 15.03.2022
2555 Clouds 29 1018 69 10000 5.14 20 17:47 15.03.2022
2556 Clouds 29 1019 68 10000 4.12 30 16:41 15.03.2022
2557 Clouds 27 1020 74 10000 4.12 30 15:38 15.03.2022
2558 Clouds 26 1020 77 10000 5.14 360 14:54 15.03.2022
2559 Clouds 24 1020 85 10000 2.68 359 13:56 15.03.2022
2560 Clouds 23 1019 87 10000 2.68 6 13:22 15.03.2022
2561 Clear 22 1018 87 10000 1.79 2 11:33 15.03.2022
2562 Clear 22 1018 86 10000 1.79 6 10:52 15.03.2022
2563 Clear 23 1018 84 10000 1.79 359 09:24 15.03.2022
2564 Clear 23 1018 84 10000 1.79 359 08:24 15.03.2022
2565 Clear 23 1018 83 10000 2.24 3 07:36 15.03.2022
2566 Clear 23 1020 85 10000 3.38 338 05:56 15.03.2022
2567 Clouds 26 1018 80 10000 5.14 360 00:31 15.03.2022
2568 Clouds 26 1017 82 10000 3.6 350 23:29 14.03.2022
2569 Clouds 26 1017 84 10000 5.14 360 22:49 14.03.2022
2570 Clouds 25 1017 84 10000 3.6 30 21:51 14.03.2022
2571 Clouds 26 1017 74 7000 3.6 30 20:55 14.03.2022
2572 Clouds 27 1017 73 7000 3.6 30 20:24 14.03.2022
2573 Clouds 28 1018 73 10000 2.24 95 19:22 14.03.2022
2574 Clouds 27 1019 69 7000 5.14 60 17:57 14.03.2022
2575 Clouds 27 1019 67 7000 5.14 60 17:39 14.03.2022
2576 Clouds 27 1020 65 10000 4.12 60 16:28 14.03.2022
2577 Clouds 26 1020 72 10000 4.12 10 14:47 14.03.2022
2578 Clouds 24 1019 83 10000 3.09 360 13:20 14.03.2022
2579 Clear 23 1018 86 10000 1.34 14 10:59 14.03.2022
2580 Clear 23 1017 85 10000 1.79 16 09:56 14.03.2022
2581 Clear 23 1017 85 10000 1.34 25 09:24 14.03.2022
2582 Clear 23 1018 86 10000 1.79 5 08:57 14.03.2022
2583 Clear 23 1018 86 10000 1.79 22 08:24 14.03.2022
2584 Clouds 24 1019 85 10000 1.79 28 05:51 14.03.2022
2585 Clouds 23 1018 94 10000 3.09 20 02:57 14.03.2022
2586 Clouds 24 1019 87 10000 1.79 23 01:33 14.03.2022
2587 Clouds 27 1017 75 10000 0 0 23:25 13.03.2022
2588 Clouds 27 1016 76 10000 0.89 91 21:40 13.03.2022
2589 Clouds 27 1016 76 10000 1.34 78 21:19 13.03.2022
2590 Clouds 27 1016 75 10000 3.09 360 20:43 13.03.2022
2591 Clouds 27 1016 74 10000 3.09 360 20:20 13.03.2022
2592 Clouds 27 1017 79 10000 1.34 122 19:40 13.03.2022
2593 Clouds 27 1017 78 10000 0.89 132 19:20 13.03.2022
2594 Clouds 27 1018 75 6000 5.14 360 18:40 13.03.2022
2595 Clouds 27 1018 73 10000 1.34 84 17:48 13.03.2022
2596 Clouds 27 1019 76 10000 0.89 108 17:22 13.03.2022
2597 Clouds 26 1019 78 10000 1.34 118 16:43 13.03.2022
2598 Clouds 26 1020 79 10000 1.79 103 16:20 13.03.2022
2599 Clouds 26 1019 81 10000 5.14 60 15:33 13.03.2022
2600 Clouds 24 1019 90 8000 1.79 7 13:53 13.03.2022
2601 Clouds 24 1018 91 8000 1.34 16 13:26 13.03.2022
2602 Clouds 23 1018 91 10000 1.34 2 12:20 13.03.2022
2603 Clouds 24 1017 90 10000 0.45 327 11:36 13.03.2022
2604 Clouds 23 1017 91 10000 0.45 98 10:48 13.03.2022
2605 Clouds 23 1017 91 10000 0.89 90 10:25 13.03.2022
2606 Clouds 24 1016 91 10000 1.34 68 09:41 13.03.2022
2607 Clouds 24 1016 92 10000 0.89 58 08:47 13.03.2022
2608 Clouds 24 1016 92 10000 1.79 56 07:47 13.03.2022
2609 Clouds 23 1017 92 10000 2.24 76 05:48 13.03.2022
2610 Clouds 25 1017 88 10000 0.89 115 02:50 13.03.2022
2611 Clouds 26 1015 78 10000 3.09 180 00:20 13.03.2022
2612 Clouds 28 1014 71 10000 5.14 180 22:44 12.03.2022
2613 Clouds 28 1014 73 8000 1.34 131 20:58 12.03.2022
2614 Clouds 28 1015 74 8000 1.79 118 19:56 12.03.2022
2615 Clouds 28 1015 74 8000 1.79 117 19:38 12.03.2022
2616 Clouds 29 1016 68 10000 1.79 143 18:27 12.03.2022
2617 Clouds 29 1016 66 10000 4.12 30 17:34 12.03.2022
2618 Clouds 28 1018 67 10000 2.24 112 16:24 12.03.2022
2619 Clouds 27 1018 72 10000 4.12 90 15:24 12.03.2022
2620 Clouds 26 1018 77 10000 2.06 30 14:50 12.03.2022
2621 Clouds 24 1017 84 10000 1.79 11 13:47 12.03.2022
2622 Clouds 23 1016 82 10000 2.24 7 11:57 12.03.2022
2623 Clouds 23 1016 82 10000 1.34 346 11:38 12.03.2022
2624 Clouds 24 1016 77 10000 1.34 24 10:58 12.03.2022
2625 Clouds 23 1015 81 10000 1.79 17 09:46 12.03.2022
2626 Clouds 23 1015 81 10000 1.79 17 09:46 12.03.2022
2627 Clouds 23 1015 82 10000 1.34 2 08:56 12.03.2022
2628 Clouds 23 1016 82 10000 1.79 25 07:27 12.03.2022
2629 Clouds 24 1017 86 10000 0 0 03:54 12.03.2022
2630 Clouds 27 1015 73 10000 4.12 160 23:56 11.03.2022
2631 Clouds 27 1015 73 10000 4.12 160 23:56 11.03.2022
2632 Clouds 27 1015 73 10000 4.12 160 23:56 11.03.2022
2633 Clouds 27 1015 73 10000 4.12 160 23:56 11.03.2022
2634 Clouds 28 1015 73 10000 4.12 160 23:18 11.03.2022
2635 Clouds 29 1015 66 10000 5.14 180 21:41 11.03.2022
2636 Clouds 29 1015 64 10000 4.12 160 20:56 11.03.2022
2637 Clouds 29 1015 64 10000 4.12 160 20:35 11.03.2022
2638 Clouds 30 1016 62 10000 5.14 180 19:52 11.03.2022
2639 Clouds 29 1017 63 10000 5.14 180 19:22 11.03.2022
2640 Clouds 29 1018 70 10000 5.14 120 17:30 11.03.2022
2641 Clouds 28 1019 71 10000 4.12 70 16:36 11.03.2022
2642 Clouds 28 1019 75 8000 3.09 40 15:53 11.03.2022
2643 Clouds 26 1019 81 10000 3.13 67 14:19 11.03.2022
2644 Clouds 23 1017 89 10000 1.34 349 12:44 11.03.2022
2645 Clouds 21 1017 92 10000 0 0 12:21 11.03.2022
2646 Clear 23 1017 90 10000 2.17 357 11:51 11.03.2022
2647 Clear 24 1016 85 10000 2.24 359 09:40 11.03.2022
2648 Clear 24 1016 84 10000 1.34 353 08:47 11.03.2022
2649 Clear 24 1016 82 10000 0.89 350 07:53 11.03.2022
2650 Clear 24 1016 82 10000 1.34 356 07:28 11.03.2022
2651 Clouds 24 1017 83 10000 1.34 2 05:44 11.03.2022
2652 Clouds 24 1017 83 10000 2.24 38 03:41 11.03.2022
2653 Clouds 26 1015 78 10000 1.34 115 23:31 10.03.2022
2654 Clouds 26 1015 81 10000 1.34 90 22:29 10.03.2022
2655 Clouds 26 1015 81 10000 0.89 141 21:27 10.03.2022
2656 Clouds 28 1015 76 10000 5.14 360 20:49 10.03.2022
2657 Clouds 29 1015 73 10000 2.57 360 19:23 10.03.2022
2658 Clouds 29 1016 68 10000 1.79 115 18:40 10.03.2022
2659 Clouds 28 1018 73 10000 5.14 90 16:54 10.03.2022
2660 Clouds 27 1019 73 10000 3.13 40 15:41 10.03.2022
2661 Clouds 25 1018 79 10000 3.09 30 14:24 10.03.2022
2662 Clouds 22 1017 89 10000 1.34 351 12:49 10.03.2022
2663 Clouds 23 1017 88 10000 0.89 346 11:39 10.03.2022
2664 Clouds 23 1016 87 10000 1.34 6 10:19 10.03.2022
2665 Clouds 23 1016 90 10000 2.49 349 08:48 10.03.2022
2666 Clear 24 1017 83 10000 0.89 351 06:36 10.03.2022
2667 Clouds 23 1017 89 10000 1.79 1 03:42 10.03.2022
2668 Clouds 25 1016 81 10000 2.68 26 00:23 10.03.2022
2669 Clouds 28 1015 68 10000 2.57 350 22:45 09.03.2022
2670 Clouds 28 1014 66 10000 3.6 60 21:48 09.03.2022
2671 Clouds 29 1014 65 10000 3.09 90 20:59 09.03.2022
2672 Clouds 29 1015 61 10000 1.34 146 19:28 09.03.2022
2673 Clouds 28 1017 70 10000 2.57 60 17:57 09.03.2022
2674 Clouds 29 1017 63 10000 2.57 60 17:23 09.03.2022
2675 Clouds 25 1018 73 10000 5.14 60 15:42 09.03.2022
2676 Clouds 25 1018 77 10000 5.14 360 14:27 09.03.2022
2677 Clouds 25 1018 77 10000 5.14 360 14:27 09.03.2022
2678 Clouds 23 1017 86 10000 2.24 355 13:50 09.03.2022
2679 Clouds 21 1016 89 10000 1.34 342 12:27 09.03.2022
2680 Clear 23 1016 84 10000 1.34 347 11:48 09.03.2022
2681 Clear 22 1015 85 10000 1.34 350 10:59 09.03.2022
2682 Clear 23 1015 84 10000 1.34 355 09:40 09.03.2022
2683 Clear 23 1015 83 10000 2.24 356 08:45 09.03.2022
2684 Clear 23 1016 83 10000 1.34 358 06:25 09.03.2022
2685 Clouds 24 1015 89 10000 1.34 3 00:59 09.03.2022
2686 Clouds 24 1015 86 10000 1.34 2 23:48 08.03.2022
2687 Clouds 25 1014 84 8000 1.34 6 22:46 08.03.2022
2688 Clouds 26 1014 76 7000 1.34 119 21:47 08.03.2022
2689 Clouds 26 1014 76 7000 0.89 123 21:19 08.03.2022
2690 Clouds 27 1014 75 8000 4.12 170 20:21 08.03.2022
2691 Clouds 29 1015 69 10000 2.57 30 18:57 08.03.2022
2692 Clouds 29 1016 68 10000 2.57 30 18:21 08.03.2022
2693 Clouds 27 1017 71 10000 5.14 60 16:42 08.03.2022
2694 Clouds 25 1018 79 10000 5.14 20 14:55 08.03.2022
2695 Clouds 23 1017 86 10000 1.34 341 13:39 08.03.2022
2696 Clouds 21 1016 91 10000 1.34 349 12:20 08.03.2022
2697 Clear 22 1016 89 10000 1.34 350 11:42 08.03.2022
2698 Clear 22 1016 89 10000 1.34 347 10:28 08.03.2022
2699 Clear 22 1015 88 10000 1.79 2 08:55 08.03.2022
2700 Clear 22 1017 90 10000 1.79 355 05:51 08.03.2022
2701 Clouds 21 1017 92 6000 1.34 347 01:53 08.03.2022
2702 Clouds 22 1016 92 6000 1.34 37 22:41 07.03.2022
2703 Clouds 23 1016 91 6000 5.14 180 21:36 07.03.2022
2704 Clouds 25 1017 83 6000 4.12 90 20:55 07.03.2022
2705 Clouds 24 1016 85 6000 4.12 90 20:29 07.03.2022
2706 Clouds 25 1018 82 8000 6.17 30 19:48 07.03.2022
2707 Clouds 24 1017 90 8000 1.79 3 18:48 07.03.2022
2708 Clouds 24 1017 88 8000 4.12 360 18:25 07.03.2022
2709 Clouds 26 1018 77 10000 5.14 360 16:56 07.03.2022
2710 Clouds 26 1018 75 10000 5.14 360 16:37 07.03.2022
2711 Clouds 24 1018 82 10000 4.12 360 14:41 07.03.2022
2712 Clouds 21 1017 88 10000 0 0 12:34 07.03.2022
2713 Clear 22 1016 87 10000 1.79 351 10:48 07.03.2022
2714 Clear 22 1016 86 10000 2.24 4 10:25 07.03.2022
2715 Clouds 22 1017 86 10000 1.79 6 07:42 07.03.2022
2716 Clouds 22 1017 93 8000 1.34 328 00:37 07.03.2022
2717 Clouds 22 1017 93 8000 1.34 332 00:19 07.03.2022
2718 Clouds 22 1017 93 6000 2.24 342 23:18 06.03.2022
2719 Clouds 22 1017 94 6000 4.12 360 22:25 06.03.2022
2720 Clouds 24 1016 84 7000 2.57 360 20:56 06.03.2022
2721 Clouds 24 1016 86 7000 2.57 360 20:28 06.03.2022
2722 Clouds 26 1017 83 7000 7.2 360 19:31 06.03.2022
2723 Clouds 27 1017 78 10000 6.17 360 18:25 06.03.2022
2724 Clouds 28 1018 73 10000 6.17 360 17:22 06.03.2022
2725 Clouds 27 1019 73 10000 7.2 360 16:52 06.03.2022
2726 Clouds 27 1019 74 10000 7.2 360 16:20 06.03.2022
2727 Clouds 25 1019 78 10000 6.17 360 15:19 06.03.2022
2728 Clouds 25 1019 79 10000 3.09 10 14:41 06.03.2022
2729 Clouds 24 1019 83 10000 5.14 10 13:47 06.03.2022
2730 Clouds 22 1018 88 10000 1.79 7 12:36 06.03.2022
2731 Clouds 23 1017 83 7928 1.79 354 11:30 06.03.2022
2732 Clouds 23 1017 83 7148 2.24 3 10:30 06.03.2022
2733 Clouds 23 1017 86 10000 2.24 351 08:51 06.03.2022
2734 Clouds 23 1017 86 10000 2.68 358 08:27 06.03.2022
2735 Clouds 23 1018 86 10000 2.24 352 06:33 06.03.2022
2736 Clouds 22 1018 87 10000 2.24 359 01:32 06.03.2022
2737 Clouds 22 1017 92 8000 4.12 360 00:33 06.03.2022
2738 Clouds 23 1016 91 8000 2.68 21 23:46 05.03.2022
2739 Clouds 24 1016 89 8000 2.24 54 23:18 05.03.2022
2740 Clouds 24 1016 94 8000 3.09 360 22:31 05.03.2022
2741 Clouds 24 1016 94 8000 5.14 30 21:24 05.03.2022
2742 Clouds 29 1015 70 8000 3.09 20 19:56 05.03.2022
2743 Clouds 29 1016 70 10000 3.6 50 18:56 05.03.2022
2744 Clouds 29 1016 70 10000 3.6 50 18:34 05.03.2022
2745 Clouds 29 1018 69 10000 2.57 60 16:57 05.03.2022
2746 Clouds 27 1018 77 10000 3.13 57 15:43 05.03.2022
2747 Clear 27 1017 77 10000 2.68 40 14:52 05.03.2022
2748 Clear 26 1017 78 10000 2.24 38 14:34 05.03.2022
2749 Clouds 24 1017 86 10000 1.79 24 13:35 05.03.2022
2750 Clouds 23 1017 89 10000 3.05 346 11:55 05.03.2022
2751 Clouds 23 1016 89 10000 3.01 348 11:20 05.03.2022
2752 Clouds 24 1015 85 10000 1.79 357 10:23 05.03.2022
2753 Clouds 24 1015 84 10000 1.79 7 09:28 05.03.2022
2754 Clouds 24 1016 87 10000 2.97 351 07:58 05.03.2022
2755 Clear 24 1017 87 10000 2.93 348 05:47 05.03.2022
2756 Clouds 22 1017 91 10000 0 0 04:33 05.03.2022
2757 Clouds 24 1015 86 10000 2.24 38 23:39 04.03.2022
2758 Clouds 25 1015 82 7000 2.57 360 22:44 04.03.2022
2759 Clouds 25 1015 82 7000 2.57 360 22:23 04.03.2022
2760 Clouds 26 1015 75 7000 6.17 60 21:24 04.03.2022
2761 Clouds 29 1015 66 7000 5.14 30 20:28 04.03.2022
2762 Clouds 29 1015 66 10000 1.79 129 19:36 04.03.2022
2763 Clouds 30 1016 62 10000 2.57 30 18:46 04.03.2022
2764 Clouds 29 1017 65 10000 2.57 30 18:20 04.03.2022
2765 Clouds 29 1017 68 10000 1.79 154 17:28 04.03.2022
2766 Clouds 26 1018 76 10000 2.57 360 15:31 04.03.2022
2767 Clouds 25 1018 78 10000 3.13 21 14:33 04.03.2022
2768 Clouds 22 1017 87 10000 0 0 13:26 04.03.2022
2769 Clear 22 1017 88 10000 3.37 344 11:54 04.03.2022
2770 Clear 23 1016 83 10000 1.79 7 10:55 04.03.2022
2771 Clear 23 1016 87 10000 3.16 343 10:18 04.03.2022
2772 Clear 24 1015 81 10000 1.79 359 08:40 04.03.2022
2773 Clear 24 1015 81 10000 1.79 359 08:40 04.03.2022
2774 Clear 24 1016 81 10000 1.34 1 07:38 04.03.2022
2775 Clouds 24 1017 84 10000 1.79 352 04:31 04.03.2022
2776 Clouds 26 1015 79 10000 1.34 73 00:38 04.03.2022
2777 Clouds 28 1015 74 10000 5.14 90 22:39 03.03.2022
2778 Clouds 28 1014 72 10000 5.14 130 21:50 03.03.2022
2779 Clouds 29 1014 71 10000 5.14 130 21:29 03.03.2022
2780 Clouds 29 1014 68 10000 1.79 146 20:18 03.03.2022
2781 Clouds 30 1016 66 10000 5.14 20 18:55 03.03.2022
2782 Clouds 30 1016 66 10000 5.14 20 18:24 03.03.2022
2783 Clouds 30 1017 63 10000 1.79 152 17:31 03.03.2022
2784 Clouds 30 1017 63 10000 1.79 152 17:31 03.03.2022
2785 Clouds 28 1018 69 10000 3.09 30 16:25 03.03.2022
2786 Clouds 27 1018 74 10000 1.79 67 15:24 03.03.2022
2787 Clouds 25 1018 80 10000 2.57 30 14:43 03.03.2022
2788 Clouds 25 1018 80 10000 2.57 30 14:24 03.03.2022
2789 Clouds 21 1016 93 10000 0 0 12:23 03.03.2022
2790 Clouds 23 1016 90 10000 2.01 357 10:48 03.03.2022
2791 Clouds 23 1016 89 10000 1.87 359 09:45 03.03.2022
2792 Clouds 24 1016 89 10000 1.66 6 08:19 03.03.2022
2793 Clouds 24 1016 87 10000 1.75 32 06:37 03.03.2022
2794 Clouds 24 1016 87 7000 1.34 46 03:21 03.03.2022
2795 Clouds 27 1014 78 10000 3.09 180 23:39 02.03.2022
2796 Clouds 27 1014 75 10000 5.14 180 22:53 02.03.2022
2797 Clouds 29 1014 72 10000 4.12 90 21:35 02.03.2022
2798 Clouds 29 1014 70 10000 4.12 180 20:55 02.03.2022
2799 Clouds 29 1014 69 10000 4.12 180 20:24 02.03.2022
2800 Clouds 30 1014 68 10000 4.12 180 19:37 02.03.2022
2801 Clouds 29 1015 66 10000 4.12 90 18:54 02.03.2022
2802 Clouds 29 1015 67 10000 4.12 90 18:26 02.03.2022
2803 Clouds 29 1016 68 10000 3.09 160 17:36 02.03.2022
2804 Clouds 28 1017 74 10000 2.24 102 16:51 02.03.2022
2805 Clouds 25 1016 81 10000 0 0 14:59 02.03.2022
2806 Clouds 24 1016 90 10000 1.79 9 13:30 02.03.2022
2807 Clouds 23 1016 92 10000 1.34 359 12:45 02.03.2022
2808 Clouds 24 1015 85 10000 0.89 344 11:59 02.03.2022
2809 Clouds 24 1014 86 10000 1.79 75 11:25 02.03.2022
2810 Clouds 25 1014 86 10000 0.89 105 10:30 02.03.2022
2811 Clouds 25 1014 86 10000 0.89 105 10:30 02.03.2022
2812 Clouds 24 1015 87 10000 0.95 2 09:31 02.03.2022
2813 Clouds 22 1015 93 10000 1.01 340 07:59 02.03.2022
2814 Clouds 24 1015 87 10000 1.02 335 07:23 02.03.2022
2815 Clouds 25 1016 83 10000 0.45 126 03:56 02.03.2022
2816 Clouds 27 1014 79 10000 3.09 180 00:40 02.03.2022
2817 Clouds 29 1013 71 10000 5.14 180 22:53 01.03.2022
2818 Clouds 29 1013 70 10000 5.14 180 22:35 01.03.2022
2819 Clouds 29 1013 70 10000 5.14 180 21:26 01.03.2022
2820 Clouds 29 1013 70 10000 6.17 180 20:37 01.03.2022
2821 Clouds 30 1013 70 10000 6.17 180 20:19 01.03.2022
2822 Clear 29 1014 73 10000 1.79 134 18:52 01.03.2022
2823 Clear 28 1015 74 10000 1.79 135 18:21 01.03.2022
2824 Clear 28 1015 74 10000 1.79 135 18:21 01.03.2022
2825 Clouds 29 1015 71 10000 4.12 180 17:37 01.03.2022
2826 Clouds 28 1017 73 10000 1.79 139 16:36 01.03.2022
2827 Clouds 27 1017 77 10000 1.79 59 15:47 01.03.2022
2828 Clouds 25 1016 81 10000 0.89 33 14:41 01.03.2022
2829 Clouds 25 1016 83 10000 0.89 42 14:23 01.03.2022
2830 Clouds 23 1015 90 10000 0.89 9 13:26 01.03.2022
2831 Clouds 22 1015 90 10000 0.89 351 12:35 01.03.2022
2832 Clear 23 1015 90 10000 1.01 350 10:52 01.03.2022
2833 Clear 24 1014 86 10000 0.89 334 09:27 01.03.2022
2834 Clear 24 1014 85 10000 0.89 355 08:19 01.03.2022
2835 Clouds 25 1015 85 10000 1.34 69 06:28 01.03.2022
2836 Clouds 25 1015 84 10000 1.34 102 02:48 01.03.2022
2837 Clouds 27 1014 80 10000 2.24 118 00:40 01.03.2022
2838 Clouds 28 1014 75 10000 5.14 180 23:35 28.02.2022
2839 Clouds 29 1013 71 10000 5.14 180 22:28 28.02.2022
2840 Clouds 29 1013 69 10000 2.57 190 21:43 28.02.2022
2841 Clouds 30 1013 65 10000 5.66 190 20:32 28.02.2022
2842 Clouds 30 1014 66 10000 1.79 145 19:42 28.02.2022
2843 Clear 29 1015 66 10000 1.79 158 18:49 28.02.2022
2844 Clouds 29 1016 67 10000 1.79 142 17:33 28.02.2022
2845 Clouds 29 1016 66 10000 2.24 119 16:54 28.02.2022
2846 Clouds 27 1017 76 10000 1.79 105 15:58 28.02.2022
2847 Clouds 24 1016 82 10000 1.79 339 14:32 28.02.2022
2848 Clouds 22 1016 87 10000 1.79 339 13:48 28.02.2022
2849 Clouds 22 1016 88 10000 1.34 356 12:53 28.02.2022
2850 Clear 22 1015 86 10000 0.89 345 11:59 28.02.2022
2851 Clear 23 1015 86 10000 0.89 334 11:19 28.02.2022
2852 Clear 23 1015 85 10000 1.34 339 10:22 28.02.2022
2853 Clear 23 1015 88 10000 1.54 350 09:43 28.02.2022
2854 Clear 24 1015 83 10000 1.34 351 08:51 28.02.2022
2855 Clouds 24 1015 82 10000 0.89 350 07:57 28.02.2022
2856 Clouds 24 1016 81 10000 0.89 342 05:53 28.02.2022
2857 Clouds 23 1017 86 10000 0.89 332 04:30 28.02.2022
2858 Clouds 24 1015 83 10000 2.68 42 00:42 28.02.2022
2859 Clouds 28 1014 67 10000 3.09 150 22:38 27.02.2022
2860 Clouds 29 1014 61 10000 2.57 60 21:58 27.02.2022
2861 Clouds 29 1014 62 10000 2.57 60 21:36 27.02.2022
2862 Clouds 29 1014 61 10000 1.34 134 20:41 27.02.2022
2863 Clouds 29 1014 60 10000 1.34 126 20:18 27.02.2022
2864 Clouds 29 1015 61 10000 4.12 330 19:43 27.02.2022
2865 Clouds 29 1015 61 10000 4.12 330 19:18 27.02.2022
2866 Clouds 28 1017 65 10000 3.6 10 17:57 27.02.2022
2867 Clouds 28 1017 66 10000 3.6 10 17:34 27.02.2022
2868 Clouds 27 1018 66 10000 3.6 30 16:22 27.02.2022
2869 Clouds 25 1019 77 10000 3.6 30 14:29 27.02.2022
2870 Clouds 21 1018 86 10000 1.79 337 12:36 27.02.2022
2871 Clear 22 1017 85 10000 1.34 351 11:46 27.02.2022
2872 Clear 22 1017 85 10000 2.24 349 10:36 27.02.2022
2873 Clear 22 1016 85 10000 2.24 358 09:58 27.02.2022
2874 Clear 22 1016 84 10000 1.34 2 09:23 27.02.2022
2875 Clear 23 1016 83 10000 1.34 347 08:44 27.02.2022
2876 Clear 22 1018 83 10000 1.79 6 05:45 27.02.2022
2877 Clouds 22 1019 84 10000 1.79 19 03:35 27.02.2022
2878 Clouds 25 1017 78 10000 4.12 360 23:52 26.02.2022
2879 Clouds 26 1017 78 10000 3.09 360 22:42 26.02.2022
2880 Clouds 25 1016 77 10000 3.09 360 21:27 26.02.2022
2881 Clouds 26 1017 76 10000 2.24 332 20:41 26.02.2022
2882 Clouds 26 1018 77 8000 6.69 360 19:55 26.02.2022
2883 Clouds 26 1018 78 8000 6.69 360 19:33 26.02.2022
2884 Clouds 28 1018 72 8000 5.14 70 18:33 26.02.2022
2885 Clouds 28 1019 66 10000 5.14 40 17:36 26.02.2022
2886 Clouds 28 1019 67 10000 2.57 40 16:39 26.02.2022
2887 Clouds 27 1020 69 10000 5.14 30 15:37 26.02.2022
2888 Clouds 27 1020 70 10000 5.14 30 15:18 26.02.2022
2889 Clouds 25 1020 78 10000 3.6 350 14:41 26.02.2022
2890 Clouds 23 1019 84 10000 2.24 10 13:53 26.02.2022
2891 Clouds 21 1019 87 10000 1.79 355 12:53 26.02.2022
2892 Clear 22 1018 85 10000 1.34 5 11:52 26.02.2022
2893 Clear 22 1018 84 10000 1.34 1 11:25 26.02.2022
2894 Clear 22 1017 84 10000 2.24 1 09:44 26.02.2022
2895 Clouds 23 1017 82 10000 1.34 7 08:28 26.02.2022
2896 Clear 23 1018 82 10000 2.24 5 06:31 26.02.2022
2897 Clouds 25 1015 83 10000 4.12 360 23:52 25.02.2022
2898 Clouds 26 1015 70 10000 2.24 117 22:34 25.02.2022
2899 Clouds 28 1015 67 10000 4.12 20 21:32 25.02.2022
2900 Clouds 29 1015 62 10000 4.12 360 20:51 25.02.2022
2901 Clouds 29 1015 61 10000 4.12 360 20:25 25.02.2022
2902 Clouds 28 1018 66 10000 5.14 360 17:57 25.02.2022
2903 Clouds 26 1019 72 10000 5.14 360 16:55 25.02.2022
2904 Clouds 25 1019 78 10000 5.14 360 15:56 25.02.2022
2905 Clouds 24 1019 80 10000 5.14 360 15:23 25.02.2022
2906 Clouds 23 1019 82 10000 4.02 3 14:55 25.02.2022
2907 Clouds 22 1019 81 10000 3.09 30 14:27 25.02.2022
2908 Clouds 21 1018 83 10000 3.09 30 13:30 25.02.2022
2909 Clouds 20 1017 85 10000 3.09 50 12:21 25.02.2022
2910 Clouds 22 1017 75 10000 0.89 17 11:22 25.02.2022
2911 Clear 22 1016 75 10000 0.89 320 10:23 25.02.2022
2912 Clear 22 1016 74 10000 0.89 357 09:46 25.02.2022
2913 Clear 21 1016 76 10000 1.34 343 08:41 25.02.2022
2914 Clear 21 1017 78 10000 1.79 329 07:31 25.02.2022
2915 Clear 22 1018 76 10000 2.24 7 05:42 25.02.2022
2916 Clouds 23 1018 78 10000 3.09 360 02:46 25.02.2022
2917 Clouds 27 1015 69 10000 6.17 360 22:47 24.02.2022
2918 Clouds 27 1015 71 10000 5.14 10 21:51 24.02.2022
2919 Clouds 27 1014 71 10000 5.14 10 21:30 24.02.2022
2920 Clouds 26 1015 74 8000 4.12 350 20:47 24.02.2022
2921 Clouds 27 1016 67 10000 6.17 350 19:32 24.02.2022
2922 Clouds 27 1017 65 10000 7.2 360 18:21 24.02.2022
2923 Clouds 27 1017 67 10000 6.17 360 17:58 24.02.2022
2924 Clouds 27 1017 67 10000 6.17 360 17:58 24.02.2022
2925 Clouds 27 1017 64 10000 6.17 360 17:21 24.02.2022
2926 Clouds 26 1018 67 10000 6.17 360 16:28 24.02.2022
2927 Clouds 25 1018 71 10000 6.17 350 15:44 24.02.2022
2928 Clouds 24 1018 75 10000 4.12 10 14:48 24.02.2022
2929 Clouds 22 1018 84 10000 3.58 3 13:59 24.02.2022
2930 Clouds 22 1018 84 10000 3.13 6 13:38 24.02.2022
2931 Clear 22 1016 81 10000 1.79 353 11:41 24.02.2022
2932 Clear 22 1016 81 10000 1.79 359 10:34 24.02.2022
2933 Clear 22 1016 84 10000 1.34 327 08:43 24.02.2022
2934 Clouds 22 1016 82 10000 1.34 344 07:26 24.02.2022
2935 Clear 23 1017 83 10000 2.24 356 05:43 24.02.2022
2936 Clouds 25 1016 75 10000 2.68 31 00:32 24.02.2022
2937 Clouds 28 1015 67 10000 5.66 360 22:25 23.02.2022
2938 Clouds 28 1015 59 10000 4.02 18 20:48 23.02.2022
2939 Clear 29 1015 59 10000 3.13 22 20:28 23.02.2022
2940 Clouds 28 1016 64 10000 5.14 30 19:35 23.02.2022
2941 Clouds 30 1017 59 10000 5.14 30 18:27 23.02.2022
2942 Clouds 28 1019 67 10000 6.17 30 16:33 23.02.2022
2943 Clouds 24 1018 81 10000 3.6 360 14:22 23.02.2022
2944 Clear 22 1018 85 10000 1.34 355 12:36 23.02.2022
2945 Clear 22 1017 85 10000 1.34 339 11:23 23.02.2022
2946 Clear 22 1017 85 10000 1.79 4 10:23 23.02.2022
2947 Clear 22 1016 85 10000 1.79 341 08:55 23.02.2022
2948 Clear 23 1017 84 10000 2.24 4 07:55 23.02.2022
2949 Clouds 23 1019 85 10000 2.68 3 03:29 23.02.2022
2950 Clouds 26 1017 73 10000 3.6 40 00:18 23.02.2022
2951 Clouds 27 1017 65 10000 5.14 50 23:34 22.02.2022
2952 Clouds 29 1016 61 10000 5.14 60 22:28 22.02.2022
2953 Clouds 29 1016 61 10000 5.14 60 22:28 22.02.2022
2954 Clouds 28 1016 62 10000 3.13 47 21:45 22.02.2022
2955 Clouds 28 1016 65 10000 3.13 118 21:21 22.02.2022
2956 Clouds 28 1016 68 10000 5.14 80 20:43 22.02.2022
2957 Clouds 27 1016 72 10000 5.14 80 20:25 22.02.2022
2958 Clouds 27 1017 67 10000 1.34 98 19:34 22.02.2022
2959 Clouds 27 1018 69 10000 3.13 67 18:42 22.02.2022
2960 Clouds 29 1020 65 10000 5.14 30 17:35 22.02.2022
2961 Clouds 27 1019 68 10000 5.14 60 16:57 22.02.2022
2962 Clouds 27 1020 68 10000 5.14 60 16:22 22.02.2022
2963 Clouds 26 1020 71 10000 5.14 360 15:31 22.02.2022
2964 Clouds 25 1020 77 10000 5.14 360 14:33 22.02.2022
2965 Clear 22 1018 86 10000 1.79 348 11:39 22.02.2022
2966 Clear 22 1018 88 10000 3.13 346 09:48 22.02.2022
2967 Clear 23 1018 84 10000 1.79 353 07:38 22.02.2022
2968 Clear 23 1018 84 10000 2.24 355 07:19 22.02.2022
2969 Clear 23 1018 84 10000 2.24 355 07:19 22.02.2022
2970 Clouds 24 1018 83 10000 2.24 15 02:51 22.02.2022
2971 Clouds 27 1016 75 8000 0.89 106 23:42 21.02.2022
2972 Clouds 27 1016 70 10000 4.12 180 22:37 21.02.2022
2973 Clouds 28 1016 71 8000 3.09 180 21:23 21.02.2022
2974 Clouds 29 1018 66 10000 7.2 360 18:58 21.02.2022
2975 Clouds 29 1018 65 10000 7.2 360 18:39 21.02.2022
2976 Clouds 28 1020 70 10000 5.14 20 16:30 21.02.2022
2977 Clouds 25 1020 78 10000 3.09 360 14:24 21.02.2022
2978 Clouds 23 1019 84 10000 1.79 2 13:40 21.02.2022
2979 Clouds 21 1018 87 10000 1.79 343 12:46 21.02.2022
2980 Clouds 21 1018 88 10000 2.57 360 12:21 21.02.2022
2981 Clouds 21 1018 88 10000 2.57 360 12:21 21.02.2022
2982 Clouds 22 1017 84 10000 1.34 352 10:29 21.02.2022
2983 Clear 23 1017 83 10000 1.34 349 07:51 21.02.2022
2984 Clouds 25 1017 78 10000 5.14 360 00:36 21.02.2022
2985 Clouds 28 1016 66 10000 4.12 90 22:32 20.02.2022
2986 Clouds 29 1016 64 10000 5.14 360 21:44 20.02.2022
2987 Clouds 29 1016 64 10000 5.14 360 21:25 20.02.2022
2988 Clouds 29 1016 63 10000 5.14 360 20:43 20.02.2022
2989 Clouds 30 1016 52 10000 6.17 360 19:51 20.02.2022
2990 Clouds 30 1017 55 10000 4.12 360 18:56 20.02.2022
2991 Clouds 29 1017 56 10000 4.12 360 18:37 20.02.2022
2992 Clouds 29 1018 61 10000 4.12 360 17:55 20.02.2022
2993 Clouds 28 1018 64 10000 4.12 360 17:23 20.02.2022
2994 Clouds 26 1019 76 10000 4.12 360 15:27 20.02.2022
2995 Clouds 22 1018 85 10000 3.13 4 13:59 20.02.2022
2996 Clouds 21 1017 89 10000 1.79 346 12:45 20.02.2022
2997 Clouds 21 1018 91 10000 3.13 346 11:50 20.02.2022
2998 Clouds 23 1016 85 10000 1.79 18 10:21 20.02.2022
2999 Clouds 22 1017 89 10000 3.07 348 09:24 20.02.2022
3000 Clouds 23 1018 85 10000 3.12 349 06:28 20.02.2022
3001 Clouds 25 1016 83 10000 0.89 100 00:32 20.02.2022
3002 Clouds 26 1016 78 8000 1.79 75 23:32 19.02.2022
3003 Clouds 27 1015 76 10000 3.09 120 22:24 19.02.2022
3004 Clouds 28 1015 73 10000 4.12 150 21:45 19.02.2022
3005 Clouds 29 1016 68 10000 3.6 30 20:26 19.02.2022
3006 Clouds 30 1016 63 10000 1.34 123 19:34 19.02.2022
3007 Clouds 30 1017 58 10000 5.14 30 18:39 19.02.2022
3008 Clouds 29 1018 61 10000 2.68 56 17:54 19.02.2022
3009 Clouds 28 1019 68 10000 4.12 30 16:47 19.02.2022
3010 Clouds 27 1019 72 10000 5.14 100 15:20 19.02.2022
3011 Clouds 25 1019 78 10000 2.57 360 14:53 19.02.2022
3012 Clouds 23 1018 84 10000 2.24 16 13:50 19.02.2022
3013 Clouds 22 1017 90 10000 3.19 342 11:40 19.02.2022
3014 Clouds 23 1016 84 10000 1.79 358 10:45 19.02.2022
3015 Clear 22 1016 85 10000 1.79 354 08:54 19.02.2022
3016 Clear 23 1017 85 10000 1.34 356 06:45 19.02.2022
3017 Clouds 25 1016 81 10000 3.13 45 23:55 18.02.2022
3018 Clouds 24 1016 90 8000 0 0 22:24 18.02.2022
3019 Clouds 30 1016 66 10000 5.14 40 21:18 18.02.2022
3020 Clouds 30 1015 58 10000 3.6 360 19:56 18.02.2022
3021 Clouds 30 1017 58 10000 5.14 360 18:51 18.02.2022
3022 Clouds 30 1017 59 10000 5.14 360 18:25 18.02.2022
3023 Clouds 29 1018 62 10000 3.09 60 17:56 18.02.2022
3024 Clouds 27 1019 72 10000 3.6 40 15:35 18.02.2022
3025 Clouds 22 1018 86 10000 2.24 16 13:56 18.02.2022
3026 Clouds 20 1017 94 10000 0 0 13:25 18.02.2022
3027 Clear 22 1017 84 10000 1.34 348 12:40 18.02.2022
3028 Clear 22 1017 83 10000 1.34 339 11:55 18.02.2022
3029 Clear 22 1016 84 10000 1.34 354 10:24 18.02.2022
3030 Clear 23 1018 86 10000 3.12 345 06:58 18.02.2022
3031 Clear 23 1018 85 10000 2.88 342 05:41 18.02.2022
3032 Clouds 24 1018 82 8000 2.57 360 23:43 17.02.2022
3033 Clouds 26 1017 76 6000 1.34 110 21:46 17.02.2022
3034 Clouds 26 1017 76 6000 1.34 100 21:20 17.02.2022
3035 Clouds 28 1017 69 8000 5.14 180 20:39 17.02.2022
3036 Clouds 29 1018 63 10000 5.14 180 19:50 17.02.2022
3037 Clouds 29 1019 64 10000 6.17 180 18:52 17.02.2022
3038 Clouds 29 1020 64 10000 5.14 90 17:55 17.02.2022
3039 Clouds 29 1021 67 10000 5.14 90 16:43 17.02.2022
3040 Clouds 27 1022 69 10000 5.14 360 15:38 17.02.2022
3041 Clouds 24 1021 81 10000 0 0 14:28 17.02.2022
3042 Clouds 21 1019 92 10000 0 0 12:43 17.02.2022
3043 Clouds 23 1020 89 10000 3.07 343 11:27 17.02.2022
3044 Clouds 23 1019 88 10000 2.8 353 09:18 17.02.2022
3045 Clouds 22 1020 90 10000 0 0 04:20 17.02.2022
3046 Clouds 25 1019 82 6000 0 0 23:21 16.02.2022
3047 Clouds 27 1019 75 8000 3.09 360 21:44 16.02.2022
3048 Clouds 31 1020 62 10000 5.14 30 19:57 16.02.2022
3049 Clouds 30 1019 55 10000 3.36 50 18:43 16.02.2022
3050 Clouds 31 1021 59 10000 5.14 360 17:53 16.02.2022
3051 Clouds 26 1021 72 10000 4.12 360 15:40 16.02.2022
3052 Clouds 26 1021 74 10000 4.12 360 15:19 16.02.2022
3053 Clouds 22 1021 93 10000 3.12 350 13:28 16.02.2022
3054 Clouds 22 1020 91 10000 2.06 360 12:19 16.02.2022
3055 Clouds 22 1019 88 10000 3.34 339 11:26 16.02.2022
3056 Clouds 22 1019 88 10000 3.34 339 10:33 16.02.2022
3057 Clouds 22 1019 93 8004 3.63 343 07:54 16.02.2022
3058 Clouds 23 1020 86 10000 3.44 342 06:26 16.02.2022
3059 Clouds 27 1017 70 10000 5.14 360 23:45 15.02.2022
3060 Clouds 27 1017 69 10000 6.17 30 22:29 15.02.2022
3061 Clouds 27 1017 66 10000 5.14 30 21:47 15.02.2022
3062 Clouds 27 1017 66 10000 5.14 30 21:27 15.02.2022
3063 Clouds 27 1017 67 10000 6.17 360 20:56 15.02.2022
3064 Clouds 28 1018 68 8000 5.14 30 19:57 15.02.2022
3065 Clouds 28 1019 58 10000 4.12 70 18:56 15.02.2022
3066 Clouds 29 1019 53 10000 4.12 70 18:22 15.02.2022
3067 Clouds 29 1019 62 10000 5.14 30 17:50 15.02.2022
3068 Clouds 29 1020 62 10000 6.17 10 16:50 15.02.2022
3069 Clear 27 1021 72 10000 6.17 360 15:28 15.02.2022
3070 Clouds 22 1019 88 8000 2.57 20 13:27 15.02.2022
3071 Clouds 21 1017 92 10000 0 0 12:37 15.02.2022
3072 Clear 22 1018 89 10000 2.81 342 11:27 15.02.2022
3073 Clear 21 1017 93 10000 2.6 346 09:31 15.02.2022
3074 Clouds 22 1018 93 10000 2.63 343 06:58 15.02.2022
3075 Clouds 23 1017 94 10000 0 0 04:54 15.02.2022
3076 Clouds 26 1016 76 10000 3.09 70 23:33 14.02.2022
3077 Clouds 28 1015 66 10000 6.17 90 21:36 14.02.2022
3078 Clouds 28 1015 74 10000 3.58 107 20:37 14.02.2022
3079 Clouds 29 1016 67 10000 2.68 112 19:34 14.02.2022
3080 Clouds 30 1016 58 10000 5.14 30 18:42 14.02.2022
3081 Clouds 29 1018 57 10000 2.57 30 17:58 14.02.2022
3082 Clouds 29 1018 57 10000 2.57 30 17:25 14.02.2022
3083 Clouds 28 1018 66 10000 2.24 35 16:19 14.02.2022
3084 Clouds 23 1018 84 10000 1.34 329 13:54 14.02.2022
3085 Clouds 21 1018 90 10000 0 0 13:26 14.02.2022
3086 Clouds 22 1017 85 10000 0.89 4 12:33 14.02.2022
3087 Clear 22 1017 79 10000 1.79 329 11:54 14.02.2022
3088 Clear 22 1015 78 10000 1.79 333 10:37 14.02.2022
3089 Clear 22 1015 77 10000 1.34 342 08:43 14.02.2022
3090 Clear 23 1016 76 10000 0.89 336 07:30 14.02.2022
3091 Clouds 25 1016 83 10000 1.34 124 01:18 14.02.2022
3092 Clouds 29 1015 67 10000 3.09 180 22:42 13.02.2022
3093 Clouds 29 1015 64 10000 3.09 180 22:24 13.02.2022
3094 Clouds 28 1015 69 10000 5.14 180 21:32 13.02.2022
3095 Clouds 29 1015 67 10000 5.14 150 20:35 13.02.2022
3096 Clouds 28 1016 69 10000 2.57 180 19:30 13.02.2022
3097 Clouds 29 1016 68 10000 2.68 118 18:46 13.02.2022
3098 Clouds 29 1016 68 10000 2.57 50 18:26 13.02.2022
3099 Clouds 26 1019 77 10000 2.57 90 15:54 13.02.2022
3100 Clouds 26 1018 79 10000 2.68 70 15:24 13.02.2022
3101 Clouds 24 1018 86 10000 3.09 30 14:22 13.02.2022
3102 Clouds 22 1017 90 10000 0.89 2 12:50 13.02.2022
3103 Clouds 22 1016 89 10000 0.89 331 11:44 13.02.2022
3104 Clouds 22 1016 90 10000 1.34 2 10:33 13.02.2022
3105 Clouds 22 1015 90 10000 1.79 357 09:45 13.02.2022
3106 Clouds 22 1016 86 10000 1.79 341 07:48 13.02.2022
3107 Clouds 26 1016 83 10000 0 0 00:35 13.02.2022
3108 Clouds 27 1016 83 10000 4.12 360 23:42 12.02.2022
3109 Clouds 27 1015 78 10000 5.14 360 22:33 12.02.2022
3110 Clouds 27 1015 76 10000 1.79 74 21:27 12.02.2022
3111 Clouds 27 1016 75 8000 4.12 90 20:34 12.02.2022
3112 Clouds 27 1017 72 10000 6.17 360 19:30 12.02.2022
3113 Clouds 28 1017 67 10000 6.17 30 18:53 12.02.2022
3114 Clouds 28 1017 66 10000 6.17 30 18:35 12.02.2022
3115 Clouds 28 1018 66 10000 5.14 30 17:19 12.02.2022
3116 Clouds 28 1019 64 10000 5.14 30 16:26 12.02.2022
3117 Clouds 27 1019 67 10000 2.68 67 15:51 12.02.2022
3118 Clouds 27 1019 67 10000 2.68 67 15:51 12.02.2022
3119 Clouds 25 1019 75 10000 2.68 36 14:31 12.02.2022
3120 Clouds 21 1018 85 10000 0 0 13:22 12.02.2022
3121 Clouds 23 1017 84 10000 2.8 351 10:42 12.02.2022
3122 Clouds 23 1017 83 10000 2.61 357 09:49 12.02.2022
3123 Clouds 23 1017 83 10000 2.75 5 09:26 12.02.2022
3124 Clouds 22 1017 93 10000 2.75 5 08:44 12.02.2022
3125 Clouds 24 1018 84 10000 2.15 346 05:33 12.02.2022
3126 Clouds 23 1016 94 10000 0 0 04:30 12.02.2022
3127 Clouds 24 1016 94 10000 0 0 02:18 12.02.2022
3128 Clouds 27 1014 75 10000 5.14 180 22:37 11.02.2022
3129 Clouds 27 1014 76 10000 5.14 180 22:18 11.02.2022
3130 Clouds 29 1014 67 10000 5.14 180 20:41 11.02.2022
3131 Clouds 29 1015 61 10000 5.14 180 19:47 11.02.2022
3132 Clouds 30 1015 59 10000 5.14 180 19:27 11.02.2022
3133 Clouds 29 1015 64 10000 5.14 180 18:26 11.02.2022
3134 Clouds 29 1017 66 10000 5.14 120 17:26 11.02.2022
3135 Clouds 28 1017 67 10000 3.09 30 16:26 11.02.2022
3136 Clouds 24 1017 79 10000 3.09 360 14:44 11.02.2022
3137 Clouds 24 1017 80 10000 3.09 360 14:23 11.02.2022
3138 Clouds 22 1017 85 10000 1.34 6 13:59 11.02.2022
3139 Clouds 22 1016 86 10000 1.34 352 13:39 11.02.2022
3140 Clear 21 1016 87 10000 2.18 335 11:47 11.02.2022
3141 Clear 22 1015 85 10000 2.14 346 09:59 11.02.2022
3142 Clear 21 1015 91 10000 1.97 345 08:49 11.02.2022
3143 Clear 21 1015 90 10000 1.9 343 08:27 11.02.2022
3144 Clouds 22 1016 83 10000 1.97 345 07:22 11.02.2022
3145 Clouds 24 1015 94 10000 0 0 02:39 11.02.2022
3146 Clouds 24 1015 94 10000 0 0 02:39 11.02.2022
3147 Clouds 24 1015 87 10000 0 0 02:18 11.02.2022
3148 Clouds 27 1013 75 10000 5.14 150 22:53 10.02.2022
3149 Clouds 28 1013 72 10000 5.14 120 21:50 10.02.2022
3150 Clouds 28 1013 72 10000 5.14 120 21:21 10.02.2022
3151 Clouds 28 1013 70 10000 5.14 180 20:45 10.02.2022
3152 Clouds 29 1014 67 10000 5.14 240 19:26 10.02.2022
3153 Clouds 29 1015 69 10000 5.14 60 18:47 10.02.2022
3154 Clouds 28 1016 71 10000 2.57 60 17:27 10.02.2022
3155 Clouds 28 1017 71 10000 2.24 107 16:55 10.02.2022
3156 Clouds 26 1017 75 10000 1.79 113 15:51 10.02.2022
3157 Clouds 26 1017 77 10000 1.79 97 15:31 10.02.2022
3158 Clear 25 1017 77 10000 1.79 50 14:48 10.02.2022
3159 Clear 25 1017 79 10000 1.79 64 14:24 10.02.2022
3160 Clouds 22 1016 86 10000 1.34 358 13:29 10.02.2022
3161 Clouds 21 1016 88 10000 0.89 347 12:50 10.02.2022
3162 Clear 22 1015 86 10000 1.34 335 11:34 10.02.2022
3163 Clear 21 1015 89 10000 2.37 338 10:55 10.02.2022
3164 Clear 22 1015 87 10000 2.34 338 09:59 10.02.2022
3165 Clear 22 1015 86 10000 2.32 337 09:24 10.02.2022
3166 Clear 22 1016 85 10000 2.06 335 07:28 10.02.2022
3167 Clouds 21 1015 94 10000 0 0 04:55 10.02.2022
3168 Clear 24 1016 80 10000 0.69 59 01:51 10.02.2022
3169 Clouds 26 1014 83 10000 3.09 180 00:49 10.02.2022
3170 Clouds 26 1014 77 10000 3.09 180 00:28 10.02.2022
3171 Clouds 27 1014 73 10000 3.09 180 23:23 09.02.2022
3172 Clouds 27 1013 72 10000 4.12 160 22:35 09.02.2022
3173 Clouds 28 1013 68 10000 3.09 150 21:51 09.02.2022
3174 Clouds 29 1013 67 10000 3.09 150 21:29 09.02.2022
3175 Clouds 28 1013 71 10000 2.57 210 20:47 09.02.2022
3176 Clouds 28 1013 70 10000 2.57 210 20:24 09.02.2022
3177 Clouds 28 1014 70 10000 2.57 90 19:46 09.02.2022
3178 Clouds 28 1014 72 10000 2.57 90 19:27 09.02.2022
3179 Clouds 27 1016 70 10000 2.06 60 17:37 09.02.2022
3180 Clouds 27 1017 76 10000 3.09 90 16:34 09.02.2022
3181 Clouds 25 1017 77 10000 3.13 70 15:40 09.02.2022
3182 Clouds 23 1016 89 10000 0 0 14:28 09.02.2022
3183 Clouds 22 1016 89 10000 1.79 38 12:28 09.02.2022
3184 Clouds 22 1016 89 10000 1.79 38 12:28 09.02.2022
3185 Clouds 23 1014 86 10000 2.24 44 10:51 09.02.2022
3186 Clouds 23 1014 85 10000 1.79 41 10:26 09.02.2022
3187 Clouds 23 1014 89 10000 1.73 354 09:35 09.02.2022
3188 Clouds 22 1015 89 10000 1.83 1 08:59 09.02.2022
3189 Clouds 23 1015 88 10000 1.99 5 07:47 09.02.2022
3190 Clouds 24 1016 83 10000 0.89 68 05:30 09.02.2022
3191 Clouds 24 1016 83 10000 0.89 68 05:30 09.02.2022
3192 Clouds 25 1016 83 10000 3.09 30 03:50 09.02.2022
3193 Clouds 27 1015 74 10000 0 0 00:23 09.02.2022
3194 Clouds 27 1014 72 10000 0.89 119 23:30 08.02.2022
3195 Clouds 28 1014 72 10000 2.57 150 22:46 08.02.2022
3196 Clouds 28 1014 72 10000 2.57 150 22:21 08.02.2022
3197 Clouds 28 1014 71 10000 0 0 21:38 08.02.2022
3198 Clouds 28 1014 72 10000 1.79 132 21:20 08.02.2022
3199 Clouds 29 1014 67 10000 2.68 117 20:41 08.02.2022
3200 Clouds 29 1014 65 10000 0 0 19:45 08.02.2022
3201 Clouds 28 1015 68 10000 2.68 115 18:34 08.02.2022
3202 Clouds 27 1016 72 10000 2.57 150 17:36 08.02.2022
3203 Clouds 26 1017 76 10000 4.12 60 16:22 08.02.2022
3204 Clouds 25 1017 78 10000 0 0 15:29 08.02.2022
3205 Clouds 25 1017 78 10000 0 0 15:29 08.02.2022
3206 Clouds 23 1017 91 10000 2.68 54 13:59 08.02.2022
3207 Clouds 20 1016 93 10000 0 0 12:41 08.02.2022
3208 Clouds 21 1015 92 10000 2.14 343 11:28 08.02.2022
3209 Clouds 23 1014 86 10000 0.89 11 09:59 08.02.2022
3210 Clouds 22 1015 92 10000 1.98 349 08:56 08.02.2022
3211 Clouds 23 1015 88 10000 0.89 340 07:37 08.02.2022
3212 Clouds 22 1016 92 10000 1.34 296 04:40 08.02.2022
3213 Clouds 22 1016 92 10000 1.34 320 04:22 08.02.2022
3214 Clouds 22 1017 92 10000 1.34 342 03:37 08.02.2022
3215 Clouds 22 1017 92 10000 1.79 339 03:18 08.02.2022
3216 Clouds 22 1017 93 10000 1.79 342 02:59 08.02.2022
3217 Clouds 22 1016 92 10000 1.79 350 02:37 08.02.2022
3218 Clouds 22 1017 92 10000 2.68 357 02:19 08.02.2022
3219 Clouds 23 1016 89 10000 2.24 6 01:55 08.02.2022
3220 Clouds 23 1016 89 10000 1.79 353 01:37 08.02.2022
3221 Clouds 23 1016 88 10000 1.79 350 01:19 08.02.2022
3222 Clouds 23 1015 91 8000 1.34 344 00:44 08.02.2022
3223 Clouds 23 1015 93 10000 1.79 356 23:45 07.02.2022
3224 Clouds 23 1015 93 10000 2.24 13 23:18 07.02.2022
3225 Clouds 24 1015 90 10000 2.24 23 22:59 07.02.2022
3226 Clouds 24 1015 87 10000 3.58 49 22:19 07.02.2022
3227 Clouds 24 1015 91 10000 0 0 21:51 07.02.2022
3228 Clouds 26 1014 84 10000 1.34 159 21:28 07.02.2022
3229 Clouds 26 1014 81 10000 5.14 120 20:52 07.02.2022
3230 Clouds 26 1014 82 10000 5.14 120 20:34 07.02.2022
3231 Clouds 28 1015 75 10000 5.14 180 19:47 07.02.2022
3232 Clouds 28 1015 75 10000 5.14 180 19:47 07.02.2022
3233 Clouds 28 1016 77 10000 1.79 150 18:58 07.02.2022
3234 Clouds 27 1017 77 10000 5.14 40 17:39 07.02.2022
3235 Clouds 27 1017 77 10000 5.14 20 16:52 07.02.2022
3236 Clouds 26 1018 80 10000 3.13 53 15:49 07.02.2022
3237 Clouds 24 1018 80 10000 1.34 19 14:41 07.02.2022
3238 Clouds 23 1017 83 10000 1.34 351 13:27 07.02.2022
3239 Clouds 21 1017 88 10000 1.79 341 12:37 07.02.2022
3240 Clouds 22 1016 86 10000 2.24 338 11:52 07.02.2022
3241 Clouds 22 1016 87 8501 2.24 330 11:24 07.02.2022
3242 Clouds 22 1015 87 8501 1.34 346 10:43 07.02.2022
3243 Clouds 22 1015 88 9165 1.34 354 10:24 07.02.2022
3244 Clouds 22 1015 88 9165 1.79 5 09:52 07.02.2022
3245 Clouds 22 1015 88 7170 1.79 351 09:18 07.02.2022
3246 Clouds 22 1015 87 10000 1.79 2 07:58 07.02.2022
3247 Clouds 22 1016 88 10000 0.89 341 06:34 07.02.2022
3248 Clouds 23 1016 86 10000 2.24 358 05:18 07.02.2022
3249 Clouds 22 1017 88 7000 1.79 9 02:38 07.02.2022
3250 Clouds 23 1015 87 8000 1.34 6 00:24 07.02.2022
3251 Clouds 24 1015 86 10000 1.79 17 23:33 06.02.2022
3252 Clouds 23 1014 94 8000 0 0 22:45 06.02.2022
3253 Clouds 24 1014 84 7000 1.79 49 21:47 06.02.2022
3254 Clouds 23 1014 87 7000 2.24 57 21:21 06.02.2022
3255 Clouds 23 1014 87 7000 2.24 57 21:21 06.02.2022
3256 Clouds 24 1015 86 8000 2.24 64 20:48 06.02.2022
3257 Clouds 24 1015 86 8000 2.68 70 20:24 06.02.2022
3258 Clouds 27 1016 69 10000 3.09 60 19:22 06.02.2022
3259 Clouds 26 1015 72 8000 3.58 53 18:34 06.02.2022
3260 Clouds 25 1017 75 10000 4.12 360 17:39 06.02.2022
3261 Clouds 25 1018 78 10000 5.14 360 16:52 06.02.2022
3262 Clouds 25 1018 78 10000 5.14 360 16:29 06.02.2022
3263 Clouds 24 1018 83 10000 4.12 360 15:47 06.02.2022
3264 Clouds 24 1018 83 10000 4.12 360 15:47 06.02.2022
3265 Clouds 24 1018 83 10000 4.12 360 15:25 06.02.2022
3266 Clouds 23 1017 89 10000 5.14 360 14:23 06.02.2022
3267 Clouds 22 1016 93 10000 2.57 360 13:23 06.02.2022
3268 Clouds 21 1015 93 10000 0 0 12:33 06.02.2022
3269 Clouds 21 1016 92 10000 3.52 345 10:37 06.02.2022
3270 Clouds 22 1015 91 10000 3.35 347 09:48 06.02.2022
3271 Clouds 22 1015 91 10000 3.62 342 08:41 06.02.2022
3272 Clouds 22 1016 90 10000 3.53 349 07:31 06.02.2022
3273 Clouds 22 1017 87 10000 3.7 347 05:28 06.02.2022
3274 Clouds 22 1017 90 10000 0 0 02:25 06.02.2022
3275 Clouds 24 1015 83 10000 3.6 20 00:49 06.02.2022
3276 Clouds 24 1015 82 10000 3.6 20 00:22 06.02.2022
3277 Clouds 28 1014 64 10000 4.48 29 21:48 05.02.2022
3278 Clouds 28 1014 65 10000 4.12 30 20:47 05.02.2022
3279 Clouds 28 1014 65 10000 4.12 30 20:22 05.02.2022
3280 Clouds 29 1015 62 10000 6.17 360 19:42 05.02.2022
3281 Clouds 29 1016 61 10000 5.14 360 18:45 05.02.2022
3282 Clouds 28 1017 65 10000 4.12 360 17:36 05.02.2022
3283 Clouds 27 1018 69 10000 5.14 360 16:24 05.02.2022
3284 Clouds 26 1018 76 10000 4.12 360 15:31 05.02.2022
3285 Clouds 20 1017 90 10000 0 0 13:55 05.02.2022
3286 Clouds 19 1017 92 10000 0 0 12:46 05.02.2022
3287 Clear 20 1017 90 10000 3 346 11:47 05.02.2022
3288 Clear 20 1016 89 10000 2.9 348 10:44 05.02.2022
3289 Clear 21 1016 88 10000 2.78 355 09:51 05.02.2022
3290 Clear 21 1016 88 10000 2.77 359 08:47 05.02.2022
3291 Clear 21 1017 86 10000 2.86 354 07:27 05.02.2022
3292 Clear 22 1017 85 10000 3.06 347 06:55 05.02.2022
3293 Clouds 23 1018 85 10000 0 0 02:43 05.02.2022
3294 Clouds 23 1018 87 10000 2.57 360 01:18 05.02.2022
3295 Clouds 25 1016 88 10000 3.09 30 00:36 05.02.2022
3296 Clouds 25 1016 84 10000 3.09 30 23:33 04.02.2022
3297 Clouds 27 1016 69 10000 5.14 360 22:50 04.02.2022
3298 Clouds 27 1016 74 10000 5.14 30 21:36 04.02.2022
3299 Clouds 27 1016 73 10000 5.14 30 21:18 04.02.2022
3300 Clouds 28 1016 69 10000 7.2 30 20:37 04.02.2022
3301 Clouds 28 1017 70 10000 7.72 360 19:19 04.02.2022
3302 Clouds 27 1020 79 10000 6.17 10 16:44 04.02.2022
3303 Clear 26 1020 80 10000 5.89 11 15:19 04.02.2022
3304 Clouds 24 1019 87 10000 3.09 330 14:40 04.02.2022
3305 Clouds 22 1018 94 10000 0 0 12:43 04.02.2022
3306 Clear 21 1018 91 10000 4.59 346 11:45 04.02.2022
3307 Clear 21 1017 91 10000 4.66 347 10:55 04.02.2022
3308 Clear 21 1017 91 10000 4.6 343 09:56 04.02.2022
3309 Clear 21 1017 91 10000 4.04 341 07:56 04.02.2022
3310 Clouds 23 1019 88 10000 0 0 03:31 04.02.2022
3311 Clouds 23 1018 88 10000 0 0 02:34 04.02.2022
3312 Clouds 25 1016 78 10000 0 0 23:35 03.02.2022
3313 Clouds 26 1016 75 10000 2.57 90 22:48 03.02.2022
3314 Clouds 25 1016 77 10000 2.24 37 21:51 03.02.2022
3315 Clouds 26 1016 73 10000 1.79 25 21:18 03.02.2022
3316 Clouds 28 1016 61 10000 1.79 96 20:21 03.02.2022
3317 Clouds 27 1017 64 10000 1.79 42 19:36 03.02.2022
3318 Clouds 26 1018 67 10000 5.14 350 18:50 03.02.2022
3319 Clouds 26 1019 70 10000 5.14 340 17:51 03.02.2022
3320 Clouds 23 1019 80 10000 3.09 360 16:48 03.02.2022
3321 Clouds 21 1017 88 10000 0 0 14:59 03.02.2022
3322 Clouds 20 1017 88 10000 0 0 13:19 03.02.2022
3323 Clouds 21 1017 91 10000 4.26 342 11:44 03.02.2022
3324 Clouds 21 1016 89 10000 5 3 08:55 03.02.2022
3325 Clouds 22 1016 91 10000 5.5 1 07:40 03.02.2022
3326 Clouds 26 1014 89 10000 2.57 150 00:34 03.02.2022
3327 Clouds 27 1014 74 10000 1.34 146 23:45 02.02.2022
3328 Clouds 28 1014 75 10000 1.34 141 22:38 02.02.2022
3329 Clouds 28 1013 72 10000 1.79 149 21:42 02.02.2022
3330 Clouds 28 1013 71 10000 1.34 140 21:24 02.02.2022
3331 Clouds 28 1014 71 10000 1.79 138 20:19 02.02.2022
3332 Clouds 29 1014 73 10000 1.34 162 19:45 02.02.2022
3333 Clouds 29 1015 68 10000 1.79 124 18:53 02.02.2022
3334 Clouds 29 1016 68 10000 1.34 131 18:22 02.02.2022
3335 Clouds 28 1016 69 10000 2.24 116 17:20 02.02.2022
3336 Clouds 28 1017 71 10000 2.24 114 16:47 02.02.2022
3337 Clouds 24 1016 83 10000 0.89 354 14:18 02.02.2022
3338 Clouds 21 1015 90 10000 1.34 345 12:26 02.02.2022
3339 Clouds 22 1016 92 10000 2.75 348 11:40 02.02.2022
3340 Clouds 23 1014 86 10000 0.89 4 10:38 02.02.2022
3341 Clouds 23 1015 87 10000 0.89 348 07:42 02.02.2022
3342 Clouds 23 1015 87 10000 3.58 60 00:34 02.02.2022
3343 Clouds 27 1013 76 10000 1.79 89 21:59 01.02.2022
3344 Clouds 28 1013 69 10000 0.89 155 20:49 01.02.2022
3345 Clouds 28 1015 66 10000 1.79 14 18:35 01.02.2022
3346 Clouds 27 1016 70 10000 1.79 59 16:43 01.02.2022
3347 Clouds 25 1016 75 10000 1.79 23 14:56 01.02.2022
3348 Clouds 22 1015 88 10000 1.34 3 12:48 01.02.2022
3349 Clouds 23 1015 84 10000 2.24 357 11:48 01.02.2022
3350 Clouds 24 1015 83 10000 1.79 2 06:57 01.02.2022
3351 Clouds 26 1013 83 10000 3.09 350 23:53 31.01.2022
3352 Clouds 26 1013 77 10000 0.45 209 23:34 31.01.2022
3353 Clouds 26 1013 77 10000 0.45 209 23:34 31.01.2022
3354 Clouds 27 1013 74 10000 0.45 231 22:26 31.01.2022
3355 Clouds 27 1013 72 10000 1.34 215 21:33 31.01.2022
3356 Clouds 27 1013 72 10000 1.34 224 20:33 31.01.2022
3357 Clouds 28 1014 72 10000 1.34 234 19:46 31.01.2022
3358 Clouds 28 1015 72 10000 0.89 157 18:29 31.01.2022
3359 Clouds 28 1015 73 10000 0.89 140 17:46 31.01.2022
3360 Clouds 27 1016 73 10000 1.79 114 16:48 31.01.2022
3361 Clouds 27 1017 75 10000 1.34 129 15:43 31.01.2022
3362 Clear 25 1016 79 10000 0.89 121 14:24 31.01.2022
3363 Clouds 18 1014 95 10000 0 0 12:39 31.01.2022
3364 Clouds 22 1016 89 10000 1.9 3 11:59 31.01.2022
3365 Clouds 22 1015 88 10000 1.74 11 10:52 31.01.2022
3366 Clouds 22 1015 87 10000 1.74 11 10:34 31.01.2022
3367 Clouds 23 1015 86 10000 1.81 10 09:27 31.01.2022
3368 Clouds 23 1015 86 10000 1.81 10 08:52 31.01.2022
3369 Clouds 23 1015 86 10000 1.81 10 08:52 31.01.2022
3370 Clouds 23 1015 85 10000 1.87 357 08:20 31.01.2022
3371 Clouds 23 1016 91 10000 1.33 9 06:21 31.01.2022
3372 Clouds 25 1016 88 10000 0 0 03:33 31.01.2022
3373 Clouds 28 1014 74 10000 1.34 126 23:19 30.01.2022
3374 Clouds 29 1013 71 10000 1.34 147 22:29 30.01.2022
3375 Clouds 30 1013 68 10000 1.34 151 21:42 30.01.2022
3376 Clouds 30 1013 67 10000 1.79 148 21:20 30.01.2022
3377 Clouds 30 1013 65 10000 1.79 148 20:49 30.01.2022
3378 Clouds 30 1013 65 10000 1.34 149 20:29 30.01.2022
3379 Clouds 29 1014 67 10000 2.24 166 19:52 30.01.2022
3380 Clouds 30 1015 64 10000 1.79 150 18:44 30.01.2022
3381 Clouds 30 1015 63 10000 1.79 124 18:20 30.01.2022
3382 Clouds 29 1016 66 10000 1.34 56 17:28 30.01.2022
3383 Clouds 28 1017 68 10000 1.34 63 16:41 30.01.2022
3384 Clouds 28 1017 70 10000 1.34 47 16:22 30.01.2022
3385 Clouds 27 1017 75 10000 1.34 21 15:52 30.01.2022
3386 Clouds 26 1017 76 10000 1.79 32 15:32 30.01.2022
3387 Clouds 23 1017 81 10000 1.34 15 14:46 30.01.2022
3388 Clouds 21 1015 91 10000 0.45 341 12:54 30.01.2022
3389 Clouds 21 1015 91 10000 0.45 324 12:33 30.01.2022
3390 Clear 22 1014 87 10000 0.89 344 10:36 30.01.2022
3391 Clear 23 1014 84 10000 0.89 328 09:56 30.01.2022
3392 Clear 22 1014 87 10000 1.59 349 08:58 30.01.2022
3393 Clear 22 1014 87 10000 1.69 343 07:55 30.01.2022
3394 Clouds 25 1015 85 10000 0.45 185 02:29 30.01.2022
3395 Clouds 26 1014 76 10000 0.89 207 01:39 30.01.2022
3396 Clouds 27 1013 72 10000 1.34 189 23:21 29.01.2022
3397 Clouds 29 1012 65 10000 1.34 191 21:59 29.01.2022
3398 Clouds 29 1012 65 10000 0.89 178 21:26 29.01.2022
3399 Clouds 29 1012 66 10000 1.34 142 20:36 29.01.2022
3400 Clouds 29 1013 66 10000 1.79 181 19:36 29.01.2022
3401 Clouds 29 1014 65 10000 1.34 165 18:58 29.01.2022
3402 Clouds 29 1014 66 10000 1.34 154 18:26 29.01.2022
3403 Clouds 28 1015 66 10000 1.79 146 17:35 29.01.2022
3404 Clouds 28 1016 67 10000 1.34 157 16:37 29.01.2022
3405 Clouds 23 1016 85 10000 0.89 301 14:24 29.01.2022
3406 Clouds 20 1015 89 10000 0.45 343 13:45 29.01.2022
3407 Clouds 20 1015 90 10000 0.89 339 13:24 29.01.2022
3408 Clouds 20 1014 89 10000 1.34 343 12:35 29.01.2022
3409 Clear 21 1014 89 10000 1.38 324 11:27 29.01.2022
3410 Clear 22 1014 87 10000 1.28 338 09:29 29.01.2022
3411 Clear 20 1015 85 10000 0.93 329 06:55 29.01.2022
3412 Clouds 26 1013 71 10000 0.89 152 00:36 29.01.2022
3413 Clouds 27 1013 70 10000 0.89 156 23:59 28.01.2022
3414 Clouds 28 1013 65 10000 0.89 130 22:51 28.01.2022
3415 Clouds 28 1013 63 10000 1.79 142 22:22 28.01.2022
3416 Clouds 29 1013 64 10000 1.34 152 21:37 28.01.2022
3417 Clouds 30 1013 63 10000 1.79 152 20:30 28.01.2022
3418 Clouds 30 1013 65 10000 1.34 126 19:31 28.01.2022
3419 Clouds 29 1014 66 10000 2.24 125 18:43 28.01.2022
3420 Clouds 28 1016 68 10000 1.79 125 16:54 28.01.2022
3421 Clouds 26 1017 77 10000 1.34 41 15:20 28.01.2022
3422 Clouds 22 1016 86 10000 1.34 2 13:50 28.01.2022
3423 Clouds 19 1015 92 10000 0 0 12:29 28.01.2022
3424 Clear 22 1015 90 10000 1.89 347 11:24 28.01.2022
3425 Clear 23 1014 86 10000 0.89 1 09:52 28.01.2022
3426 Clear 24 1015 87 10000 0.45 300 07:44 28.01.2022
3427 Clouds 24 1016 87 10000 0.89 303 06:44 28.01.2022
3428 Clouds 25 1016 83 10000 0 0 03:56 28.01.2022
3429 Clouds 26 1016 78 10000 0 0 02:31 28.01.2022
3430 Clear 24 1016 84 10000 0.19 113 01:59 28.01.2022
3431 Clear 24 1016 84 10000 0.19 113 01:30 28.01.2022
3432 Clouds 29 1014 62 10000 5.14 180 22:48 27.01.2022
3433 Clouds 30 1014 60 10000 5.14 150 21:46 27.01.2022
3434 Clouds 30 1014 60 10000 5.14 150 21:28 27.01.2022
3435 Clear 29 1014 64 10000 4.33 143 20:24 27.01.2022
3436 Clouds 29 1016 62 10000 5.14 10 18:24 27.01.2022
3437 Clouds 29 1018 62 10000 3.6 120 17:34 27.01.2022
3438 Clouds 24 1018 79 10000 2.24 17 14:34 27.01.2022
3439 Clouds 20 1018 87 10000 0 0 13:24 27.01.2022
3440 Clouds 19 1016 91 10000 0 0 12:25 27.01.2022
3441 Clear 20 1015 86 10000 2.39 340 09:56 27.01.2022
3442 Clear 19 1015 85 10000 2.43 336 08:41 27.01.2022
3443 Clear 19 1016 83 10000 2.43 337 08:18 27.01.2022
3444 Clouds 23 1016 94 10000 0 0 03:37 27.01.2022
3445 Clouds 26 1015 72 10000 1.34 115 00:25 27.01.2022
3446 Clouds 28 1014 63 10000 0.89 123 22:37 26.01.2022
3447 Clouds 29 1014 61 10000 2.24 116 21:44 26.01.2022
3448 Clouds 30 1014 60 10000 1.79 159 20:59 26.01.2022
3449 Clouds 30 1014 60 10000 1.79 159 20:35 26.01.2022
3450 Clouds 29 1015 62 10000 2.24 134 19:52 26.01.2022
3451 Clouds 29 1016 60 10000 1.79 134 18:52 26.01.2022
3452 Clouds 29 1016 61 10000 1.79 137 18:24 26.01.2022
3453 Clouds 29 1017 62 10000 1.34 146 17:39 26.01.2022
3454 Clouds 29 1017 64 10000 1.79 118 17:19 26.01.2022
3455 Clouds 27 1018 69 10000 2.24 122 16:25 26.01.2022
3456 Clouds 26 1018 75 10000 2.24 86 15:23 26.01.2022
3457 Clouds 21 1017 91 10000 1.34 11 12:44 26.01.2022
3458 Clear 22 1016 88 10000 2.98 346 10:56 26.01.2022
3459 Clear 22 1015 88 10000 2.75 348 09:58 26.01.2022
3460 Clear 22 1015 88 10000 2.75 348 09:39 26.01.2022
3461 Clear 22 1016 86 10000 2.11 336 07:28 26.01.2022
3462 Clouds 26 1014 77 10000 0.89 131 00:26 26.01.2022
3463 Clouds 30 1014 66 10000 4.12 180 23:43 25.01.2022
3464 Clouds 29 1014 66 10000 0.89 166 22:49 25.01.2022
3465 Clouds 29 1014 63 10000 0.89 168 22:19 25.01.2022
3466 Clouds 29 1014 62 10000 0.89 153 21:34 25.01.2022
3467 Clouds 29 1014 65 10000 1.34 173 20:45 25.01.2022
3468 Clouds 29 1014 65 10000 1.79 137 19:58 25.01.2022
3469 Clouds 29 1014 65 10000 1.79 137 19:58 25.01.2022
3470 Clouds 29 1014 65 10000 1.79 150 19:32 25.01.2022
3471 Clouds 28 1016 66 10000 1.34 146 17:56 25.01.2022
3472 Clouds 28 1016 67 10000 1.79 101 17:37 25.01.2022
3473 Clouds 27 1016 70 10000 1.79 127 16:35 25.01.2022
3474 Clouds 26 1017 73 10000 1.34 113 15:39 25.01.2022
3475 Clouds 26 1017 76 10000 1.79 63 15:19 25.01.2022
3476 Clouds 24 1017 79 10000 0.45 20 14:56 25.01.2022
3477 Clouds 19 1014 93 10000 0 0 12:21 25.01.2022
3478 Clear 22 1014 89 10000 1.51 1 09:35 25.01.2022
3479 Clear 22 1014 87 10000 1.45 356 07:52 25.01.2022
3480 Clear 23 1015 86 10000 1.37 354 07:21 25.01.2022
3481 Clear 22 1016 86 10000 0.76 348 05:23 25.01.2022
3482 Clouds 26 1013 76 10000 0.89 169 00:35 25.01.2022
3483 Clouds 28 1012 74 10000 4.12 150 23:36 24.01.2022
3484 Clouds 27 1013 74 10000 1.34 175 23:18 24.01.2022
3485 Clouds 28 1012 74 10000 1.34 155 22:42 24.01.2022
3486 Clouds 28 1012 74 10000 1.34 178 22:19 24.01.2022
3487 Clear 28 1012 71 10000 1.79 135 21:40 24.01.2022
3488 Clear 28 1012 72 10000 1.79 145 21:19 24.01.2022
3489 Clouds 29 1012 71 10000 1.34 149 20:26 24.01.2022
3490 Clouds 29 1012 71 10000 1.34 149 20:26 24.01.2022
3491 Clouds 29 1013 69 10000 2.24 134 19:38 24.01.2022
3492 Clouds 29 1014 70 10000 1.79 123 18:50 24.01.2022
3493 Clouds 28 1015 69 10000 1.34 148 17:26 24.01.2022
3494 Clouds 27 1015 73 10000 1.79 114 16:59 24.01.2022
3495 Clouds 27 1016 74 10000 1.34 122 16:30 24.01.2022
3496 Clouds 25 1015 78 10000 0.89 122 15:25 24.01.2022
3497 Clouds 21 1015 86 10000 1.34 16 13:58 24.01.2022
3498 Clouds 21 1014 86 10000 0.89 316 12:34 24.01.2022
3499 Clear 22 1013 81 10000 0.45 307 11:41 24.01.2022
3500 Clear 23 1013 80 10000 0.45 355 10:19 24.01.2022
3501 Clear 23 1013 79 10000 0.89 343 09:44 24.01.2022
3502 Clear 22 1013 85 10000 1.21 324 07:45 24.01.2022
3503 Clear 26 1014 73 10000 0.45 119 01:38 24.01.2022
3504 Clouds 26 1013 75 10000 0.45 139 00:50 24.01.2022
3505 Clouds 26 1013 74 10000 1.34 123 00:29 24.01.2022
3506 Clouds 28 1013 67 10000 1.34 121 22:58 23.01.2022
3507 Clouds 29 1013 65 10000 1.79 139 21:52 23.01.2022
3508 Clouds 29 1013 65 10000 1.79 113 21:27 23.01.2022
3509 Clouds 28 1013 68 10000 1.79 125 20:55 23.01.2022
3510 Clouds 28 1013 68 10000 2.68 119 20:21 23.01.2022
3511 Clouds 28 1015 67 10000 3.58 116 18:53 23.01.2022
3512 Clouds 28 1015 68 10000 2.68 112 18:22 23.01.2022
3513 Clouds 27 1016 76 10000 2.24 119 16:55 23.01.2022
3514 Clouds 25 1017 83 10000 1.34 97 15:46 23.01.2022
3515 Clouds 22 1016 84 10000 1.34 31 14:48 23.01.2022
3516 Clouds 22 1016 85 10000 1.34 2 14:18 23.01.2022
3517 Clouds 21 1015 86 10000 0.89 319 12:44 23.01.2022
3518 Clouds 19 1015 91 10000 0 0 12:19 23.01.2022
3519 Clear 20 1015 87 10000 2.38 333 11:25 23.01.2022
3520 Clear 21 1015 87 10000 2.38 333 10:57 23.01.2022
3521 Clear 19 1015 87 10000 2.13 338 10:24 23.01.2022
3522 Clear 21 1015 85 10000 1.84 336 09:26 23.01.2022
3523 Clear 21 1016 78 10000 1.3 325 06:18 23.01.2022
3524 Clouds 21 1017 88 10000 0 0 03:20 23.01.2022
3525 Clouds 24 1015 88 10000 0 0 01:36 23.01.2022
3526 Clouds 26 1015 78 10000 0 0 00:46 23.01.2022
3527 Clouds 28 1016 69 10000 5.14 180 23:58 22.01.2022
3528 Clouds 28 1015 64 10000 0.89 152 22:48 22.01.2022
3529 Clouds 29 1015 63 10000 1.34 159 22:19 22.01.2022
3530 Clouds 30 1015 57 10000 2.68 115 20:29 22.01.2022
3531 Clouds 29 1016 60 10000 2.24 110 19:37 22.01.2022
3532 Clouds 29 1017 61 10000 1.79 113 18:37 22.01.2022
3533 Clouds 29 1018 61 10000 1.79 109 17:42 22.01.2022
3534 Clouds 29 1018 61 10000 2.68 91 17:18 22.01.2022
3535 Clouds 28 1019 66 10000 2.24 101 16:22 22.01.2022
3536 Clouds 26 1019 73 10000 1.79 104 15:44 22.01.2022
3537 Clouds 24 1019 78 10000 2.24 65 14:42 22.01.2022
3538 Clouds 21 1019 90 10000 0 0 13:28 22.01.2022
3539 Clouds 22 1018 85 10000 1.34 29 12:37 22.01.2022
3540 Clouds 22 1018 85 10000 1.34 352 12:18 22.01.2022
3541 Clear 23 1017 80 10000 1.34 2 10:39 22.01.2022
3542 Clear 23 1017 80 10000 1.34 337 10:20 22.01.2022
3543 Clear 23 1017 83 10000 1.79 348 08:55 22.01.2022
3544 Clear 23 1017 82 10000 0.89 334 08:31 22.01.2022
3545 Clear 22 1018 92 10000 2.46 342 05:20 22.01.2022
3546 Clouds 26 1018 73 10000 0 0 02:39 22.01.2022
3547 Clouds 28 1016 69 10000 2.24 127 23:50 21.01.2022
3548 Clouds 28 1016 66 10000 2.24 118 22:59 21.01.2022
3549 Clouds 29 1016 64 10000 2.68 112 21:18 21.01.2022
3550 Clouds 29 1016 66 10000 1.79 142 19:30 21.01.2022
3551 Clouds 28 1018 68 10000 2.68 119 17:50 21.01.2022
3552 Clouds 26 1019 73 10000 2.24 78 15:54 21.01.2022
3553 Clouds 25 1019 79 10000 1.79 40 14:41 21.01.2022
3554 Clouds 21 1017 94 10000 0 0 12:43 21.01.2022
3555 Clouds 23 1017 83 10000 1.34 24 11:29 21.01.2022
3556 Clear 22 1017 88 10000 2.73 346 10:27 21.01.2022
3557 Clear 23 1016 85 10000 2.42 351 08:50 21.01.2022
3558 Clear 23 1017 85 10000 2.51 349 07:48 21.01.2022
3559 Clear 25 1018 74 10000 2.55 28 01:48 21.01.2022
3560 Clouds 28 1016 70 10000 1.79 117 22:47 20.01.2022
3561 Clouds 29 1015 68 10000 2.24 117 21:48 20.01.2022
3562 Clouds 29 1015 66 10000 1.79 129 21:24 20.01.2022
3563 Clouds 30 1017 64 10000 2.24 119 19:47 20.01.2022
3564 Clouds 30 1017 64 10000 2.68 115 19:18 20.01.2022
3565 Clouds 29 1018 65 10000 2.24 121 17:37 20.01.2022
3566 Clouds 27 1019 73 10000 2.68 92 15:59 20.01.2022
3567 Clouds 26 1019 75 10000 2.24 93 15:29 20.01.2022
3568 Clouds 24 1019 83 10000 2.24 76 14:18 20.01.2022
3569 Clouds 22 1018 89 10000 3.13 61 12:44 20.01.2022
3570 Clouds 22 1018 89 10000 2.24 63 12:26 20.01.2022
3571 Clear 24 1017 85 10000 0.89 48 10:58 20.01.2022
3572 Clear 24 1017 82 10000 0.89 359 09:43 20.01.2022
3573 Clear 23 1017 87 10000 2.35 347 08:37 20.01.2022
3574 Clear 23 1019 85 10000 2.38 340 06:19 20.01.2022
3575 Clouds 27 1017 74 10000 1.34 120 23:56 19.01.2022
3576 Clouds 29 1017 69 10000 1.79 117 22:37 19.01.2022
3577 Clouds 29 1016 64 10000 1.34 150 21:26 19.01.2022
3578 Clouds 30 1017 64 10000 1.79 121 20:55 19.01.2022
3579 Clouds 30 1017 64 10000 1.79 121 20:55 19.01.2022
3580 Clouds 30 1016 64 10000 2.24 112 20:30 19.01.2022
3581 Clouds 29 1018 63 10000 2.24 140 18:49 19.01.2022
3582 Clouds 28 1019 70 10000 2.24 115 17:50 19.01.2022
3583 Clouds 28 1019 71 10000 1.34 131 17:18 19.01.2022
3584 Clouds 24 1019 80 10000 2.68 18 14:55 19.01.2022
3585 Clouds 22 1018 90 10000 1.34 358 13:20 19.01.2022
3586 Clear 23 1017 82 10000 1.34 11 11:54 19.01.2022
3587 Clear 23 1017 82 10000 1.34 359 11:22 19.01.2022
3588 Clear 22 1017 88 10000 2.83 343 09:35 19.01.2022
3589 Clear 24 1017 80 10000 1.34 22 08:20 19.01.2022
3590 Clear 24 1018 82 10000 2.51 1 05:19 19.01.2022
3591 Clouds 27 1015 75 10000 0.89 133 23:53 18.01.2022
3592 Clouds 27 1015 75 10000 0.89 133 23:53 18.01.2022
3593 Clouds 27 1015 74 10000 0.89 136 23:18 18.01.2022
3594 Clouds 29 1014 66 10000 1.34 140 21:43 18.01.2022
3595 Clouds 29 1015 66 10000 1.79 140 19:57 18.01.2022
3596 Clouds 29 1015 66 10000 1.34 130 19:38 18.01.2022
3597 Clouds 29 1015 66 10000 1.79 134 19:18 18.01.2022
3598 Clouds 28 1017 71 10000 1.34 142 17:59 18.01.2022
3599 Clouds 28 1017 72 10000 1.79 119 17:27 18.01.2022
3600 Clouds 27 1017 79 10000 2.24 116 15:56 18.01.2022
3601 Clouds 26 1017 81 10000 0.89 85 15:23 18.01.2022
3602 Clouds 22 1016 86 10000 0.89 323 13:32 18.01.2022
3603 Clouds 22 1015 88 10000 1.34 2 10:49 18.01.2022
3604 Clouds 22 1015 86 10000 1.34 328 09:39 18.01.2022
3605 Clouds 24 1015 82 10000 0.45 334 07:58 18.01.2022
3606 Clouds 24 1015 80 10000 1.34 296 07:21 18.01.2022
3607 Clouds 25 1014 83 10000 0.89 233 00:21 18.01.2022
3608 Clouds 29 1014 66 10000 1.79 233 22:30 17.01.2022
3609 Clouds 29 1013 66 10000 1.34 169 21:36 17.01.2022
3610 Clouds 29 1014 63 10000 1.34 182 20:29 17.01.2022
3611 Clouds 28 1014 71 10000 1.79 166 18:42 17.01.2022
3612 Clear 28 1016 73 10000 1.34 136 17:55 17.01.2022
3613 Clouds 27 1016 76 10000 1.34 128 16:53 17.01.2022
3614 Clouds 26 1017 80 10000 0.45 208 15:24 17.01.2022
3615 Clear 25 1017 81 10000 1.34 34 14:57 17.01.2022
3616 Clouds 22 1017 89 10000 1.34 328 13:30 17.01.2022
3617 Clouds 22 1016 90 10000 0.89 342 12:57 17.01.2022
3618 Clouds 23 1016 87 10000 0.89 337 11:50 17.01.2022
3619 Clouds 23 1015 87 10000 0.45 309 10:38 17.01.2022
3620 Clouds 23 1015 87 10000 0.89 6 09:35 17.01.2022
3621 Clouds 23 1016 89 10000 1.21 332 07:47 17.01.2022
3622 Clear 23 1017 89 10000 1.1 340 07:19 17.01.2022
3623 Clouds 26 1016 76 10000 0.45 130 00:57 17.01.2022
3624 Clouds 27 1014 75 10000 0.89 160 22:31 16.01.2022
3625 Clouds 29 1014 68 10000 0.89 154 20:38 16.01.2022
3626 Clouds 28 1016 71 10000 1.79 127 18:53 16.01.2022
3627 Clouds 28 1016 71 10000 1.79 160 18:18 16.01.2022
3628 Clouds 28 1017 68 10000 2.24 105 17:25 16.01.2022
3629 Clouds 28 1017 70 10000 1.79 71 16:45 16.01.2022
3630 Clouds 24 1018 80 10000 1.34 29 14:50 16.01.2022
3631 Clouds 24 1018 81 10000 0.89 25 14:27 16.01.2022
3632 Clouds 22 1017 87 10000 1.34 12 12:49 16.01.2022
3633 Clouds 23 1016 86 10000 0.89 337 11:43 16.01.2022
3634 Clouds 23 1016 85 10000 0.89 344 10:55 16.01.2022
3635 Clouds 23 1016 85 10000 0.89 357 10:26 16.01.2022
3636 Clouds 23 1016 85 10000 0.45 332 09:52 16.01.2022
3637 Clouds 23 1016 84 10000 0.45 336 09:22 16.01.2022
3638 Clouds 24 1016 84 10000 0.45 336 08:37 16.01.2022
3639 Clouds 25 1017 82 10000 0 0 02:36 16.01.2022
3640 Clouds 29 1016 58 10000 3.09 150 23:49 15.01.2022
3641 Clouds 29 1015 64 10000 0.89 165 21:46 15.01.2022
3642 Clouds 29 1015 63 10000 1.34 171 21:19 15.01.2022
3643 Clouds 29 1015 64 10000 1.79 159 20:40 15.01.2022
3644 Clouds 29 1015 66 10000 1.34 136 19:29 15.01.2022
3645 Clouds 29 1017 66 10000 1.34 169 18:44 15.01.2022
3646 Clouds 27 1018 72 10000 1.34 20 17:25 15.01.2022
3647 Clouds 26 1018 74 10000 1.79 26 15:50 15.01.2022
3648 Clouds 22 1017 87 10000 1.34 5 13:52 15.01.2022
3649 Clear 23 1016 90 10000 1.34 29 11:46 15.01.2022
3650 Clear 23 1015 89 10000 1.34 18 10:25 15.01.2022
3651 Clouds 23 1015 91 10000 0.89 296 07:48 15.01.2022
3652 Clouds 26 1013 76 10000 2.68 215 23:50 14.01.2022
3653 Clouds 28 1012 69 10000 2.68 205 21:41 14.01.2022
3654 Clouds 29 1012 67 10000 2.24 196 20:37 14.01.2022
3655 Clouds 29 1012 65 10000 2.68 198 19:58 14.01.2022
3656 Clear 28 1013 71 10000 3.13 192 18:48 14.01.2022
3657 Clouds 28 1014 69 10000 2.24 211 17:57 14.01.2022
3658 Clouds 28 1014 72 10000 3.13 187 16:48 14.01.2022
3659 Clouds 27 1015 77 10000 2.68 224 15:33 14.01.2022
3660 Clear 26 1014 76 10000 1.34 221 14:30 14.01.2022
3661 Clouds 23 1013 85 10000 1.79 232 13:34 14.01.2022
3662 Clouds 19 1013 94 10000 0 0 12:24 14.01.2022
3663 Clear 24 1012 81 10000 1.79 232 10:47 14.01.2022
3664 Clear 25 1011 80 10000 2.24 229 08:54 14.01.2022
3665 Clear 25 1012 81 10000 2.53 235 07:56 14.01.2022
3666 Clouds 24 1013 80 10000 1.79 228 03:50 14.01.2022
3667 Clouds 26 1013 74 10000 2.68 223 00:50 14.01.2022
3668 Clouds 27 1012 67 10000 2.68 175 22:35 13.01.2022
3669 Clouds 28 1012 62 10000 1.79 206 21:30 13.01.2022
3670 Clouds 29 1012 62 10000 1.79 189 20:54 13.01.2022
3671 Clouds 29 1013 61 10000 2.24 177 19:32 13.01.2022
3672 Clouds 29 1013 66 10000 1.79 171 18:51 13.01.2022
3673 Clouds 28 1015 68 10000 1.79 177 17:23 13.01.2022
3674 Clouds 27 1016 68 10000 1.34 164 16:18 13.01.2022
3675 Clouds 25 1016 76 10000 1.34 143 15:31 13.01.2022
3676 Clouds 21 1016 90 10000 0 0 13:42 13.01.2022
3677 Clear 21 1016 90 10000 0.89 320 12:20 13.01.2022
3678 Clear 21 1015 89 10000 1.25 325 09:38 13.01.2022
3679 Clear 22 1014 87 10000 0.97 344 08:54 13.01.2022
3680 Clear 22 1015 86 10000 1.21 342 08:22 13.01.2022
3681 Clear 20 1015 91 10000 1.24 345 07:21 13.01.2022
3682 Clouds 20 1016 91 10000 1.06 325 05:56 13.01.2022
3683 Clouds 20 1016 91 10000 1.56 332 05:18 13.01.2022
3684 Clouds 23 1016 80 10000 1.79 33 01:46 13.01.2022
3685 Clouds 25 1015 74 10000 1.79 65 23:54 12.01.2022
3686 Clouds 26 1014 74 10000 1.79 66 23:34 12.01.2022
3687 Clouds 27 1014 70 10000 0.89 117 22:49 12.01.2022
3688 Clouds 29 1013 63 10000 1.34 139 21:54 12.01.2022
3689 Clouds 29 1013 62 10000 1.79 159 21:21 12.01.2022
3690 Clouds 29 1014 62 10000 1.34 150 20:53 12.01.2022
3691 Clouds 29 1014 61 10000 1.34 156 19:24 12.01.2022
3692 Clouds 28 1015 65 10000 1.79 149 18:28 12.01.2022
3693 Clouds 27 1016 69 10000 1.79 83 16:59 12.01.2022
3694 Clouds 26 1017 74 10000 2.24 48 15:53 12.01.2022
3695 Clouds 23 1017 82 10000 1.79 2 14:46 12.01.2022
3696 Clouds 21 1016 88 10000 0.89 357 12:58 12.01.2022
3697 Clouds 21 1016 88 10000 0.89 357 12:58 12.01.2022
3698 Clear 22 1015 86 10000 1.79 339 09:59 12.01.2022
3699 Clear 22 1016 84 10000 1.34 342 08:33 12.01.2022
3700 Clear 22 1017 88 10000 2.85 347 07:33 12.01.2022
3701 Clouds 22 1018 87 10000 2.43 346 05:30 12.01.2022
3702 Clouds 27 1017 74 10000 3.09 90 23:29 11.01.2022
3703 Clouds 26 1016 77 10000 2.57 90 22:41 11.01.2022
3704 Clouds 28 1016 69 10000 2.57 90 22:20 11.01.2022
3705 Clouds 30 1016 60 10000 0 0 20:40 11.01.2022
3706 Clouds 30 1016 58 10000 0 0 19:41 11.01.2022
3707 Clouds 30 1018 54 10000 4.12 60 18:22 11.01.2022
3708 Clouds 28 1019 68 10000 2.57 50 16:59 11.01.2022
3709 Clouds 28 1019 69 10000 2.57 50 16:35 11.01.2022
3710 Clouds 27 1019 65 10000 0 0 14:57 11.01.2022
3711 Clouds 27 1019 65 10000 0 0 14:39 11.01.2022
3712 Clouds 19 1018 91 10000 0 0 13:53 11.01.2022
3713 Clouds 19 1018 92 10000 0 0 13:31 11.01.2022
3714 Clouds 20 1017 93 10000 0 0 12:37 11.01.2022
3715 Clouds 21 1016 89 10000 2.42 339 10:45 11.01.2022
3716 Clouds 22 1017 88 10000 2.47 340 08:27 11.01.2022
3717 Clouds 23 1018 88 10000 0 0 04:30 11.01.2022
3718 Clouds 23 1018 88 10000 0 0 04:30 11.01.2022
3719 Clouds 26 1016 80 10000 0 0 00:28 11.01.2022
3720 Clouds 27 1016 78 10000 0 0 23:40 10.01.2022
3721 Clouds 28 1015 69 10000 5.14 150 22:43 10.01.2022
3722 Clouds 28 1015 69 10000 5.14 150 22:18 10.01.2022
3723 Clouds 30 1015 58 10000 5.14 60 21:42 10.01.2022
3724 Clouds 30 1015 57 10000 5.14 60 21:18 10.01.2022
3725 Clouds 30 1016 58 10000 5.14 360 20:55 10.01.2022
3726 Clouds 30 1016 56 10000 5.14 360 20:23 10.01.2022
3727 Clouds 29 1017 61 10000 5.14 20 19:39 10.01.2022
3728 Clouds 29 1017 61 10000 5.14 20 19:19 10.01.2022
3729 Clouds 29 1018 60 10000 4.12 360 18:47 10.01.2022
3730 Clouds 28 1021 71 10000 5.14 360 16:51 10.01.2022
3731 Clouds 28 1021 72 10000 5.14 360 16:33 10.01.2022
3732 Clouds 23 1019 84 10000 0 0 14:50 10.01.2022
3733 Clouds 21 1018 88 10000 0 0 13:35 10.01.2022
3734 Clouds 21 1018 91 10000 3.06 337 11:57 10.01.2022
3735 Clouds 21 1017 91 10000 3.07 340 10:50 10.01.2022
3736 Clouds 21 1017 90 10000 3.26 339 09:40 10.01.2022
3737 Clouds 23 1019 87 10000 3.47 348 05:52 10.01.2022
3738 Clouds 24 1020 88 10000 0 0 02:38 10.01.2022
3739 Clouds 24 1020 76 10000 4.02 9 01:21 10.01.2022
3740 Clouds 26 1019 78 10000 3.6 20 00:21 10.01.2022
3741 Clouds 28 1018 65 10000 5.14 360 22:47 09.01.2022
3742 Clouds 28 1018 64 10000 5.14 360 22:21 09.01.2022
3743 Clouds 29 1018 60 10000 5.66 30 21:41 09.01.2022
3744 Clouds 29 1018 56 10000 5.66 30 21:22 09.01.2022
3745 Clouds 29 1018 56 10000 6.17 20 20:47 09.01.2022
3746 Clouds 29 1018 56 10000 6.17 20 20:28 09.01.2022
3747 Clouds 29 1019 55 10000 5.14 20 19:41 09.01.2022
3748 Clouds 29 1019 56 10000 5.14 20 19:21 09.01.2022
3749 Clouds 28 1020 63 10000 5.14 120 18:41 09.01.2022
3750 Clouds 28 1020 64 10000 5.14 120 18:23 09.01.2022
3751 Clouds 27 1021 71 10000 6.17 360 17:30 09.01.2022
3752 Clouds 26 1022 72 10000 5.14 360 16:50 09.01.2022
3753 Clouds 26 1022 78 10000 5.14 360 15:51 09.01.2022
3754 Clouds 26 1022 79 10000 5.14 360 15:32 09.01.2022
3755 Clouds 24 1022 84 10000 4.12 350 14:39 09.01.2022
3756 Clouds 21 1021 88 10000 0 0 13:49 09.01.2022
3757 Clouds 20 1021 93 10000 0 0 12:19 09.01.2022
3758 Clouds 21 1021 91 10000 3.67 342 11:38 09.01.2022
3759 Clouds 21 1020 91 10000 3.5 349 09:55 09.01.2022
3760 Clouds 22 1020 91 10000 3.51 348 09:24 09.01.2022
3761 Clouds 22 1020 91 10000 3.55 346 08:18 09.01.2022
3762 Clear 26 1022 72 10000 3.67 360 01:31 09.01.2022
3763 Clouds 26 1019 78 10000 3.09 30 00:53 09.01.2022
3764 Clouds 27 1018 78 10000 4.12 30 23:37 08.01.2022
3765 Clouds 28 1018 67 10000 5.14 360 22:56 08.01.2022
3766 Clouds 29 1018 66 10000 5.14 360 21:32 08.01.2022
3767 Clouds 29 1019 67 10000 4.12 30 20:44 08.01.2022
3768 Clouds 29 1019 67 10000 4.12 30 20:23 08.01.2022
3769 Clouds 29 1019 66 10000 5.14 30 19:22 08.01.2022
3770 Clouds 29 1021 65 10000 4.12 360 17:43 08.01.2022
3771 Clouds 27 1021 67 10000 5.14 60 16:57 08.01.2022
3772 Clouds 26 1021 76 10000 0 0 15:35 08.01.2022
3773 Clouds 24 1020 83 10000 3.09 30 14:33 08.01.2022
3774 Clouds 22 1019 89 10000 0 0 12:35 08.01.2022
3775 Clear 23 1018 89 10000 2.96 350 10:43 08.01.2022
3776 Clear 23 1018 90 10000 2.93 348 10:23 08.01.2022
3777 Clear 23 1018 90 10000 2.93 348 10:23 08.01.2022
3778 Clear 23 1018 89 10000 2.93 348 09:34 08.01.2022
3779 Clear 23 1019 89 10000 2.12 334 06:22 08.01.2022
3780 Clear 24 1019 84 10000 2.09 11 01:46 08.01.2022
3781 Clouds 26 1017 83 8000 2.57 90 23:36 07.01.2022
3782 Clouds 29 1016 63 10000 5.14 360 21:49 07.01.2022
3783 Clouds 31 1016 51 10000 5.14 360 20:35 07.01.2022
3784 Clouds 31 1016 51 10000 5.14 360 20:35 07.01.2022
3785 Clouds 31 1016 50 10000 5.14 360 19:27 07.01.2022
3786 Clouds 31 1016 55 10000 2.57 360 18:49 07.01.2022
3787 Clouds 30 1016 55 10000 2.57 360 18:24 07.01.2022
3788 Clouds 29 1016 61 10000 4.63 360 17:24 07.01.2022
3789 Clouds 24 1019 87 10000 0 0 14:56 07.01.2022
3790 Clouds 21 1018 92 10000 0 0 13:52 07.01.2022
3791 Clouds 21 1015 91 10000 0 0 12:51 07.01.2022
3792 Clouds 22 1017 89 10000 2.5 359 11:28 07.01.2022
3793 Clouds 24 1016 94 10000 0 0 04:54 07.01.2022
3794 Clouds 25 1016 83 10000 0 0 02:53 07.01.2022
3795 Clouds 26 1017 89 10000 1.72 11 01:49 07.01.2022
3796 Clouds 25 1016 81 10000 0.87 37 01:26 07.01.2022
3797 Clouds 27 1014 78 10000 0 0 00:31 07.01.2022
3798 Clouds 29 1013 67 10000 5.14 180 22:33 06.01.2022
3799 Clouds 30 1014 64 10000 0 0 20:51 06.01.2022
3800 Clouds 30 1014 64 10000 0 0 20:18 06.01.2022
3801 Clouds 30 1015 60 10000 0 0 19:38 06.01.2022
3802 Clouds 30 1016 61 10000 5.14 90 17:51 06.01.2022
3803 Clouds 29 1016 62 10000 5.14 90 17:27 06.01.2022
3804 Clouds 28 1016 66 10000 0 0 16:38 06.01.2022
3805 Clouds 26 1016 77 10000 5.14 30 15:44 06.01.2022
3806 Clouds 26 1016 78 10000 5.14 30 15:22 06.01.2022
3807 Clouds 24 1016 85 10000 0 0 14:20 06.01.2022
3808 Clouds 22 1016 94 10000 0 0 13:39 06.01.2022
3809 Clouds 22 1016 96 10000 0 0 12:28 06.01.2022
3810 Clear 22 1016 90 10000 2.48 342 11:31 06.01.2022
3811 Clear 22 1015 90 10000 2.48 342 10:59 06.01.2022
3812 Clear 23 1015 88 10000 1.84 355 06:54 06.01.2022
3813 Clouds 26 1014 81 10000 3.09 30 00:34 06.01.2022
3814 Clouds 27 1014 77 10000 1.72 138 23:33 05.01.2022
3815 Clouds 28 1013 75 10000 2.57 120 22:48 05.01.2022
3816 Clouds 28 1013 74 10000 2.57 120 22:26 05.01.2022
3817 Clouds 29 1013 71 10000 3.6 150 21:43 05.01.2022
3818 Clouds 29 1013 67 10000 0 0 20:44 05.01.2022
3819 Clouds 29 1014 65 10000 0 0 19:42 05.01.2022
3820 Clouds 29 1015 63 10000 2.57 300 18:22 05.01.2022
3821 Clouds 29 1017 66 10000 3.6 50 16:57 05.01.2022
3822 Clouds 28 1017 69 10000 3.6 50 16:19 05.01.2022
3823 Clouds 25 1017 78 10000 2.57 10 15:19 05.01.2022
3824 Clouds 19 1016 95 10000 0 0 13:35 05.01.2022
3825 Clear 21 1016 91 10000 2.54 346 12:30 05.01.2022
3826 Clear 22 1015 87 10000 2.52 346 08:46 05.01.2022
3827 Clouds 23 1016 86 10000 2.15 340 06:46 05.01.2022
3828 Clouds 26 1018 76 10000 1.79 7 01:49 05.01.2022
3829 Clouds 27 1015 76 10000 4.12 160 23:44 04.01.2022
3830 Clouds 27 1015 76 10000 4.12 160 23:25 04.01.2022
3831 Clouds 28 1015 69 10000 0 0 21:50 04.01.2022
3832 Clouds 29 1016 65 10000 3.09 360 20:45 04.01.2022
3833 Clouds 28 1018 70 10000 5.14 360 18:41 04.01.2022
3834 Clouds 28 1019 68 10000 4.12 360 17:33 04.01.2022
3835 Clouds 25 1019 73 10000 2.88 67 16:38 04.01.2022
3836 Clouds 24 1019 78 10000 0 0 15:25 04.01.2022
3837 Clouds 21 1018 85 10000 0 0 14:38 04.01.2022
3838 Clouds 20 1017 90 10000 0 0 13:56 04.01.2022
3839 Clouds 20 1017 91 10000 0 0 12:24 04.01.2022
3840 Clear 22 1017 87 10000 1.95 355 10:24 04.01.2022
3841 Clear 23 1017 85 10000 1.96 352 08:57 04.01.2022
3842 Clouds 23 1018 84 10000 1.88 345 06:28 04.01.2022
3843 Clouds 26 1017 78 10000 0 0 00:43 04.01.2022
3844 Clouds 28 1017 69 10000 5.14 160 23:56 03.01.2022
3845 Clouds 29 1016 69 10000 6.17 180 22:22 03.01.2022
3846 Clouds 29 1017 68 10000 2.06 160 21:39 03.01.2022
3847 Clouds 30 1018 65 10000 3.09 30 20:41 03.01.2022
3848 Clouds 29 1019 67 10000 4.12 360 19:38 03.01.2022
3849 Clouds 29 1020 65 10000 0 0 18:31 03.01.2022
3850 Clouds 28 1021 69 10000 0 0 17:21 03.01.2022
3851 Clouds 27 1020 70 10000 0 0 16:53 03.01.2022
3852 Clouds 22 1021 80 10000 0 0 14:32 03.01.2022
3853 Clouds 19 1020 90 10000 0 0 12:53 03.01.2022
3854 Clear 21 1019 83 10000 2.61 330 11:50 03.01.2022
3855 Clear 22 1019 81 10000 2.54 329 10:52 03.01.2022
3856 Clear 20 1019 80 10000 2.46 333 09:28 03.01.2022
3857 Clear 22 1019 81 10000 2.4 337 07:54 03.01.2022
3858 Clouds 24 1021 79 10000 0 0 03:22 03.01.2022
3859 Clouds 27 1018 61 10000 3.97 117 23:24 02.01.2022
3860 Clouds 29 1017 57 10000 5.14 150 22:56 02.01.2022
3861 Clouds 29 1017 54 10000 0 0 21:58 02.01.2022
3862 Clouds 29 1018 56 10000 0 0 20:52 02.01.2022
3863 Clouds 29 1018 56 10000 0 0 20:30 02.01.2022
3864 Clouds 29 1018 53 10000 3.09 90 19:31 02.01.2022
3865 Clouds 29 1019 57 10000 2.57 60 18:56 02.01.2022
3866 Clouds 28 1020 60 10000 2.57 30 17:58 02.01.2022
3867 Clouds 28 1020 60 10000 2.57 30 17:39 02.01.2022
3868 Clouds 27 1020 62 10000 2.57 30 17:21 02.01.2022
3869 Clouds 26 1020 64 10000 5.14 90 16:28 02.01.2022
3870 Clouds 22 1020 79 10000 0 0 14:44 02.01.2022
3871 Clouds 20 1019 88 10000 0 0 13:37 02.01.2022
3872 Clouds 20 1018 89 10000 0 0 12:32 02.01.2022
3873 Clouds 21 1019 84 10000 2.41 348 11:49 02.01.2022
3874 Clouds 21 1019 84 10000 2.47 7 10:54 02.01.2022
3875 Clouds 21 1018 85 10000 2.69 17 09:57 02.01.2022
3876 Clouds 22 1018 81 10000 2.56 349 07:34 02.01.2022
3877 Clouds 24 1018 83 10000 0 0 02:56 02.01.2022
3878 Clouds 27 1015 68 10000 3.09 30 23:42 01.01.2022
3879 Clouds 27 1015 68 10000 3.09 30 23:24 01.01.2022
3880 Clouds 29 1015 58 10000 3.09 30 22:25 01.01.2022
3881 Clouds 30 1016 55 10000 5.14 30 21:46 01.01.2022
3882 Clouds 30 1016 55 10000 5.14 30 21:28 01.01.2022
3883 Clouds 30 1017 53 10000 2.06 30 20:25 01.01.2022
3884 Clouds 31 1018 44 10000 3.09 30 19:34 01.01.2022
3885 Clouds 30 1019 49 10000 2.57 30 18:51 01.01.2022
3886 Clouds 29 1020 56 10000 0 0 17:38 01.01.2022
3887 Clouds 28 1020 60 10000 3.09 60 16:34 01.01.2022
3888 Clouds 28 1020 60 10000 3.09 60 16:34 01.01.2022
3889 Clouds 27 1019 68 10000 4.12 360 15:33 01.01.2022
3890 Clouds 24 1018 78 10000 3.09 360 14:25 01.01.2022
3891 Clouds 21 1015 85 10000 0 0 13:36 01.01.2022
3892 Clouds 21 1014 87 10000 3.09 360 12:18 01.01.2022
3893 Clouds 21 1018 86 10000 3.31 353 11:25 01.01.2022
3894 Clouds 21 1018 86 10000 3.31 353 10:52 01.01.2022
3895 Clouds 21 1018 86 10000 3.38 353 09:47 01.01.2022
3896 Clouds 22 1018 85 10000 3.16 349 08:27 01.01.2022
3897 Clouds 22 1018 85 10000 3.16 349 07:56 01.01.2022
3898 Clouds 22 1018 84 10000 3.16 349 07:37 01.01.2022
3899 Clouds 22 1018 84 10000 3.16 349 07:37 01.01.2022
3900 Clear 22 1018 83 10000 3.08 347 06:43 01.01.2022
3901 Clouds 23 1016 83 10000 0 0 04:39 01.01.2022
3902 Clouds 23 1016 85 10000 3.09 360 03:48 01.01.2022
3903 Clouds 28 1016 64 10000 4.12 30 23:53 31.12.2021
3904 Clouds 30 1014 54 10000 5.14 60 21:56 31.12.2021
3905 Clouds 30 1014 54 10000 5.14 60 21:32 31.12.2021
3906 Clouds 30 1015 52 10000 5.14 300 19:43 31.12.2021
3907 Clouds 29 1016 58 10000 2.57 30 18:47 31.12.2021
3908 Clouds 29 1018 61 10000 5.14 30 17:49 31.12.2021
3909 Clouds 29 1018 61 10000 5.14 30 17:24 31.12.2021
3910 Clouds 28 1017 65 10000 5.14 30 16:51 31.12.2021
3911 Clouds 28 1017 67 10000 5.14 30 16:18 31.12.2021
3912 Clouds 27 1019 73 10000 4.26 49 15:42 31.12.2021
3913 Clouds 26 1019 75 10000 3.47 35 15:20 31.12.2021
3914 Clouds 25 1016 78 10000 0 0 14:37 31.12.2021
3915 Clouds 22 1016 86 10000 0 0 13:45 31.12.2021
3916 Clouds 21 1016 88 10000 2.57 360 12:50 31.12.2021
3917 Clouds 21 1016 88 10000 2.57 360 12:19 31.12.2021
3918 Clouds 21 1017 87 10000 2.33 5 11:41 31.12.2021
3919 Clouds 22 1017 87 10000 2.45 353 10:48 31.12.2021
3920 Clouds 22 1016 87 10000 2.61 354 10:25 31.12.2021
3921 Clouds 22 1016 86 10000 2.61 354 09:34 31.12.2021
3922 Clouds 22 1016 85 10000 2.76 351 08:50 31.12.2021
3923 Clear 22 1017 85 10000 2.79 350 07:53 31.12.2021
3924 Clouds 24 1017 78 10000 3.09 10 02:36 31.12.2021
3925 Clouds 28 1016 62 10000 5.14 30 23:18 30.12.2021
3926 Clouds 29 1016 57 10000 5.14 30 22:27 30.12.2021
3927 Clouds 29 1015 59 10000 1.34 121 21:39 30.12.2021
3928 Clouds 30 1015 58 10000 1.34 138 20:59 30.12.2021
3929 Clouds 29 1015 58 10000 1.79 89 20:38 30.12.2021
3930 Clouds 30 1016 57 10000 1.79 114 19:53 30.12.2021
3931 Clouds 30 1016 54 10000 3.13 62 19:28 30.12.2021
3932 Clouds 29 1017 58 10000 1.79 43 18:26 30.12.2021
3933 Clouds 28 1019 64 10000 2.24 42 16:50 30.12.2021
3934 Clouds 27 1019 70 10000 2.68 36 15:53 30.12.2021
3935 Clouds 27 1019 70 10000 2.68 36 15:53 30.12.2021
3936 Clouds 25 1020 78 10000 2.24 27 14:54 30.12.2021
3937 Clouds 25 1019 79 10000 2.24 45 14:35 30.12.2021
3938 Clouds 22 1019 89 10000 1.79 353 13:24 30.12.2021
3939 Clouds 23 1018 84 10000 1.34 347 11:45 30.12.2021
3940 Clouds 23 1017 84 10000 1.79 1 10:28 30.12.2021
3941 Clouds 24 1017 83 10000 1.34 357 09:44 30.12.2021
3942 Clear 24 1018 81 10000 1.34 346 06:56 30.12.2021
3943 Clouds 24 1019 80 10000 1.79 13 04:56 30.12.2021
3944 Clouds 23 1019 83 10000 2.57 20 03:40 30.12.2021
3945 Clouds 26 1018 73 10000 0 0 02:27 30.12.2021
3946 Clouds 28 1017 65 10000 2.57 30 23:37 29.12.2021
3947 Clouds 29 1016 63 10000 3.13 45 22:35 29.12.2021
3948 Clouds 30 1016 58 10000 1.34 123 21:55 29.12.2021
3949 Clouds 30 1015 56 10000 2.24 48 20:57 29.12.2021
3950 Clouds 30 1015 56 10000 2.68 68 20:29 29.12.2021
3951 Clouds 30 1016 56 10000 2.68 27 19:31 29.12.2021
3952 Clouds 30 1017 60 10000 2.68 45 18:36 29.12.2021
3953 Clouds 29 1018 63 10000 2.68 61 17:42 29.12.2021
3954 Clouds 29 1018 64 10000 2.24 57 17:23 29.12.2021
3955 Clouds 27 1019 70 10000 2.24 53 16:21 29.12.2021
3956 Clouds 26 1020 76 10000 3.13 40 15:21 29.12.2021
3957 Clouds 22 1019 85 10000 1.34 11 12:57 29.12.2021
3958 Clouds 22 1018 85 10000 1.34 359 12:33 29.12.2021
3959 Clouds 24 1017 84 10000 0.89 357 11:23 29.12.2021
3960 Clouds 24 1017 84 10000 1.34 4 09:30 29.12.2021
3961 Clear 23 1017 87 10000 2.8 348 07:30 29.12.2021
3962 Clear 23 1018 86 10000 2.73 342 06:32 29.12.2021
3963 Clear 23 1018 86 10000 2.59 339 05:55 29.12.2021
3964 Clouds 24 1018 83 10000 0 0 04:57 29.12.2021
3965 Clouds 28 1016 74 10000 0 0 00:43 29.12.2021
3966 Clouds 28 1016 75 10000 0.89 125 23:58 28.12.2021
3967 Clouds 29 1015 70 10000 1.34 125 22:56 28.12.2021
3968 Clouds 29 1015 69 10000 1.34 123 22:25 28.12.2021
3969 Clouds 29 1015 69 10000 1.34 123 22:25 28.12.2021
3970 Clouds 29 1015 68 10000 0.89 124 21:54 28.12.2021
3971 Clouds 29 1015 68 10000 1.34 136 21:34 28.12.2021
3972 Clouds 29 1015 68 10000 2.24 137 19:53 28.12.2021
3973 Clouds 29 1015 68 10000 1.34 168 18:54 28.12.2021
3974 Clouds 29 1015 67 10000 1.34 134 18:25 28.12.2021
3975 Clear 28 1016 67 10000 2.24 69 17:29 28.12.2021
3976 Clouds 27 1017 70 10000 1.79 48 15:53 28.12.2021
3977 Clouds 26 1017 71 10000 1.34 44 15:29 28.12.2021
3978 Clouds 24 1018 77 10000 1.79 4 14:55 28.12.2021
3979 Clouds 24 1017 78 10000 1.79 4 14:22 28.12.2021
3980 Clouds 23 1017 81 10000 0.89 349 13:58 28.12.2021
3981 Clouds 23 1017 83 10000 1.34 342 13:37 28.12.2021
3982 Clouds 21 1017 90 10000 0.89 342 12:55 28.12.2021
3983 Clouds 20 1016 96 10000 0 0 12:19 28.12.2021
3984 Clear 23 1015 84 10000 1.79 345 10:19 28.12.2021
3985 Clear 23 1015 86 10000 2.81 347 07:33 28.12.2021
3986 Clouds 23 1016 94 10000 0 0 03:34 28.12.2021
3987 Clouds 28 1012 74 10000 5.14 30 23:39 27.12.2021
3988 Clouds 29 1014 67 10000 4.02 43 22:20 27.12.2021
3989 Clouds 29 1013 64 10000 3.13 28 21:30 27.12.2021
3990 Clouds 30 1013 61 10000 3.13 18 20:32 27.12.2021
3991 Clouds 30 1014 63 10000 3.58 50 19:47 27.12.2021
3992 Clouds 29 1015 66 10000 3.13 26 18:57 27.12.2021
3993 Clouds 28 1016 68 10000 3.13 13 17:51 27.12.2021
3994 Clouds 28 1016 69 10000 3.13 30 17:28 27.12.2021
3995 Clouds 28 1016 69 10000 3.13 30 17:28 27.12.2021
3996 Clouds 26 1017 78 10000 2.68 20 15:54 27.12.2021
3997 Clouds 25 1017 81 10000 2.68 354 14:57 27.12.2021
3998 Clouds 24 1017 82 10000 2.68 1 14:21 27.12.2021
3999 Clouds 22 1016 90 10000 1.79 1 12:52 27.12.2021
4000 Clear 22 1016 91 10000 2.96 338 10:40 27.12.2021
4001 Clear 22 1015 91 10000 3.2 340 10:22 27.12.2021
4002 Clear 23 1015 90 10000 3.01 341 08:43 27.12.2021
4003 Clear 23 1016 89 10000 3.04 343 07:34 27.12.2021
4004 Clouds 24 1015 94 10000 0 0 02:29 27.12.2021
4005 Clouds 27 1015 74 10000 0 0 00:57 27.12.2021
4006 Clouds 27 1014 78 10000 1.79 107 23:43 26.12.2021
4007 Clouds 27 1014 77 10000 1.34 109 23:18 26.12.2021
4008 Clouds 29 1014 67 10000 1.34 109 21:33 26.12.2021
4009 Clouds 30 1015 66 10000 1.34 156 19:55 26.12.2021
4010 Clouds 30 1015 64 10000 1.34 152 18:39 26.12.2021
4011 Clouds 30 1015 63 10000 1.34 139 18:19 26.12.2021
4012 Clouds 27 1018 76 10000 2.24 46 15:35 26.12.2021
4013 Clouds 23 1017 87 10000 1.34 349 13:43 26.12.2021
4014 Clouds 22 1016 92 10000 0 0 13:21 26.12.2021
4015 Clouds 22 1016 90 10000 1.34 3 12:35 26.12.2021
4016 Clouds 22 1016 92 10000 2.61 348 11:18 26.12.2021
4017 Clouds 23 1016 91 10000 2.78 350 09:30 26.12.2021
4018 Clouds 23 1016 89 10000 2.71 347 08:45 26.12.2021
4019 Clouds 24 1015 86 10000 1.79 359 08:23 26.12.2021
4020 Clouds 26 1016 81 10000 1.79 14 01:50 26.12.2021
4021 Clouds 26 1014 83 10000 0 0 00:39 26.12.2021
4022 Clouds 27 1014 82 10000 0.45 26 23:35 25.12.2021
4023 Clouds 27 1013 78 10000 1.34 314 22:29 25.12.2021
4024 Clouds 30 1013 69 10000 2.24 52 21:30 25.12.2021
4025 Clouds 29 1014 68 10000 3.13 70 20:18 25.12.2021
4026 Clouds 29 1013 69 10000 1.79 28 19:18 25.12.2021
4027 Clouds 29 1015 73 10000 2.68 9 18:29 25.12.2021
4028 Clouds 29 1016 71 10000 2.24 42 16:49 25.12.2021
4029 Clouds 27 1016 78 10000 2.68 12 15:30 25.12.2021
4030 Clouds 25 1016 84 10000 1.79 16 14:22 25.12.2021
4031 Clouds 23 1016 90 10000 3.09 349 12:21 25.12.2021
4032 Clouds 23 1015 90 10000 3.31 348 10:38 25.12.2021
4033 Clouds 23 1015 91 10000 2.95 360 09:48 25.12.2021
4034 Clouds 24 1015 85 10000 1.79 4 07:27 25.12.2021
4035 Clouds 24 1016 87 10000 1.34 343 01:40 25.12.2021
4036 Clouds 25 1015 88 6000 0.89 90 00:21 25.12.2021
4037 Clouds 28 1013 76 10000 1.79 122 21:57 24.12.2021
4038 Clouds 30 1014 67 10000 2.57 20 19:27 24.12.2021
4039 Clouds 30 1015 69 10000 0 0 18:55 24.12.2021
4040 Clouds 28 1016 70 10000 3.09 30 16:44 24.12.2021
4041 Clouds 26 1016 79 10000 2.57 30 15:50 24.12.2021
4042 Clouds 26 1016 79 10000 2.57 30 15:50 24.12.2021
4043 Clouds 26 1016 79 10000 2.57 30 15:20 24.12.2021
4044 Clouds 24 1016 86 10000 0 0 14:34 24.12.2021
4045 Clouds 22 1015 95 10000 0 0 13:54 24.12.2021
4046 Clouds 21 1015 96 10000 0 0 13:32 24.12.2021
4047 Clouds 21 1014 90 10000 0 0 12:40 24.12.2021
4048 Clouds 23 1015 91 10000 2.24 353 11:43 24.12.2021
4049 Clouds 23 1015 91 10000 2.54 349 11:24 24.12.2021
4050 Clouds 23 1015 93 10000 2.54 349 10:35 24.12.2021
4051 Clouds 23 1014 93 10000 2.45 350 08:48 24.12.2021
4052 Clouds 23 1014 93 10000 2.1 348 07:58 24.12.2021
4053 Clear 24 1014 92 10000 2.45 351 06:59 24.12.2021
4054 Clouds 25 1014 89 10000 1.09 189 00:47 24.12.2021
4055 Clouds 25 1012 85 10000 2.57 180 23:50 23.12.2021
4056 Clouds 26 1012 82 10000 5.14 180 22:53 23.12.2021
4057 Clouds 26 1012 82 10000 5.14 180 22:24 23.12.2021
4058 Clouds 25 1013 83 10000 5.14 180 21:41 23.12.2021
4059 Clouds 25 1012 88 10000 4.25 159 20:31 23.12.2021
4060 Clouds 26 1014 78 8000 4.12 140 19:30 23.12.2021
4061 Clouds 26 1014 78 8000 4.12 140 19:30 23.12.2021
4062 Clouds 26 1015 83 8000 4.12 180 18:18 23.12.2021
4063 Clouds 28 1014 66 10000 3.85 154 17:45 23.12.2021
4064 Clouds 25 1016 88 8000 0 0 16:27 23.12.2021
4065 Clouds 26 1016 83 10000 0 0 15:40 23.12.2021
4066 Clouds 26 1016 83 10000 0 0 15:22 23.12.2021
4067 Clouds 24 1016 87 10000 0 0 14:40 23.12.2021
4068 Clouds 23 1016 93 10000 1.31 337 13:31 23.12.2021
4069 Clouds 23 1014 90 10000 1.49 309 11:49 23.12.2021
4070 Clouds 23 1014 90 10000 1.52 310 09:53 23.12.2021
4071 Clouds 23 1014 89 10000 1.52 310 09:34 23.12.2021
4072 Clear 24 1013 88 10000 1.36 312 08:38 23.12.2021
4073 Clouds 22 1015 88 10000 1.21 260 05:39 23.12.2021
4074 Clouds 24 1015 83 10000 1.67 204 01:31 23.12.2021
4075 Clouds 29 1013 70 10000 3.09 180 22:53 22.12.2021
4076 Clouds 29 1013 69 10000 3.09 180 22:19 22.12.2021
4077 Clouds 29 1013 68 10000 3.6 180 21:36 22.12.2021
4078 Clouds 29 1013 68 10000 3.6 180 21:18 22.12.2021
4079 Clouds 29 1013 65 10000 3.6 170 20:40 22.12.2021
4080 Clouds 29 1013 65 10000 2.57 180 19:54 22.12.2021
4081 Clouds 29 1014 68 10000 3.6 180 18:55 22.12.2021
4082 Clouds 28 1015 68 10000 2.57 90 17:38 22.12.2021
4083 Clouds 28 1016 71 10000 1.99 130 16:22 22.12.2021
4084 Clouds 22 1016 83 10000 1.29 348 14:28 22.12.2021
4085 Clouds 19 1014 88 10000 0 0 12:53 22.12.2021
4086 Clear 22 1014 88 10000 1.21 334 11:42 22.12.2021
4087 Clear 22 1013 87 10000 0.93 344 09:52 22.12.2021
4088 Clear 23 1013 85 10000 1.34 357 07:57 22.12.2021
4089 Clouds 24 1014 81 10000 1.23 17 05:54 22.12.2021
4090 Clouds 24 1014 81 10000 1.23 17 05:36 22.12.2021
4091 Clouds 24 1014 79 10000 1.05 56 05:18 22.12.2021
4092 Clouds 23 1015 90 10000 0 0 04:37 22.12.2021
4093 Clouds 24 1014 86 10000 0 0 03:49 22.12.2021
4094 Clouds 23 1014 94 10000 0 0 03:31 22.12.2021
4095 Clouds 26 1012 77 10000 0.89 137 23:48 21.12.2021
4096 Clouds 27 1011 77 10000 1.34 124 22:41 21.12.2021
4097 Clouds 28 1011 75 10000 1.34 131 21:56 21.12.2021
4098 Clouds 28 1011 75 10000 1.34 116 21:32 21.12.2021
4099 Clouds 29 1012 69 10000 1.34 149 20:24 21.12.2021
4100 Clouds 29 1012 71 10000 0.89 118 19:55 21.12.2021
4101 Clouds 29 1012 71 10000 1.34 136 19:33 21.12.2021
4102 Clouds 29 1013 71 10000 2.68 110 18:23 21.12.2021
4103 Clouds 28 1013 73 10000 1.79 69 17:58 21.12.2021
4104 Clouds 28 1014 74 10000 2.68 66 17:29 21.12.2021
4105 Clouds 26 1015 77 10000 2.24 63 15:34 21.12.2021
4106 Clouds 25 1015 82 10000 1.79 9 14:20 21.12.2021
4107 Clouds 23 1014 87 10000 1.34 6 13:41 21.12.2021
4108 Clouds 22 1014 89 10000 0.89 343 12:25 21.12.2021
4109 Clear 23 1013 85 10000 1.34 1 10:38 21.12.2021
4110 Clear 23 1013 88 10000 2.81 341 09:50 21.12.2021
4111 Clear 23 1013 88 10000 2.75 338 08:55 21.12.2021
4112 Clear 23 1014 88 10000 2.62 338 07:43 21.12.2021
4113 Clear 24 1013 85 10000 0.89 354 07:20 21.12.2021
4114 Clouds 24 1015 94 10000 0 0 03:24 21.12.2021
4115 Clear 26 1014 84 10000 2.05 33 01:20 21.12.2021
4116 Clouds 27 1013 76 10000 1.34 124 23:54 20.12.2021
4117 Clouds 29 1012 69 10000 0.89 123 22:35 20.12.2021
4118 Clouds 29 1012 67 10000 1.34 139 21:51 20.12.2021
4119 Clouds 29 1012 66 10000 1.34 112 21:24 20.12.2021
4120 Clouds 29 1013 66 10000 0.89 111 20:51 20.12.2021
4121 Clouds 29 1013 67 10000 1.79 136 20:19 20.12.2021
4122 Clouds 30 1013 65 10000 1.79 149 19:36 20.12.2021
4123 Clouds 30 1013 65 10000 1.34 138 19:18 20.12.2021
4124 Clouds 30 1014 67 10000 1.34 162 18:30 20.12.2021
4125 Clear 29 1015 69 10000 1.34 144 17:49 20.12.2021
4126 Clouds 29 1016 68 10000 1.34 90 16:45 20.12.2021
4127 Clouds 28 1016 71 10000 1.79 66 15:55 20.12.2021
4128 Clouds 27 1016 73 10000 1.79 61 15:31 20.12.2021
4129 Clouds 22 1014 92 10000 0 0 13:31 20.12.2021
4130 Clouds 23 1014 88 10000 0.89 345 11:47 20.12.2021
4131 Clouds 24 1014 86 10000 0.45 341 10:35 20.12.2021
4132 Clouds 24 1014 87 10000 0.45 1 09:38 20.12.2021
4133 Clouds 24 1014 88 10000 1.34 327 08:44 20.12.2021
4134 Clouds 24 1014 86 10000 1.34 3 08:00 20.12.2021
4135 Clouds 24 1014 88 10000 1.34 313 07:31 20.12.2021
4136 Clouds 24 1015 87 10000 0.89 345 06:32 20.12.2021
4137 Clouds 24 1015 87 10000 0.89 345 06:32 20.12.2021
4138 Clouds 24 1015 94 7000 0 0 00:19 20.12.2021
4139 Clouds 29 1014 70 10000 0 0 22:56 19.12.2021
4140 Clouds 29 1014 64 10000 0.89 124 21:58 19.12.2021
4141 Clouds 29 1014 64 10000 0.89 122 21:32 19.12.2021
4142 Clouds 29 1015 66 10000 0.89 122 20:35 19.12.2021
4143 Clouds 29 1014 64 10000 1.79 2 19:53 19.12.2021
4144 Clouds 29 1014 63 10000 2.24 18 19:32 19.12.2021
4145 Clouds 29 1016 66 10000 2.24 18 18:30 19.12.2021
4146 Clouds 28 1017 67 10000 2.24 34 17:53 19.12.2021
4147 Clouds 28 1017 68 10000 3.13 46 17:27 19.12.2021
4148 Clouds 27 1018 72 10000 3.13 37 16:27 19.12.2021
4149 Clouds 27 1018 72 10000 3.13 37 16:27 19.12.2021
4150 Clouds 26 1018 73 10000 3.58 21 15:50 19.12.2021
4151 Clouds 26 1018 74 10000 3.13 12 15:23 19.12.2021
4152 Clouds 24 1018 77 10000 3.13 28 14:44 19.12.2021
4153 Clouds 21 1017 88 10000 0 0 13:26 19.12.2021
4154 Clouds 22 1017 88 10000 1.34 5 12:47 19.12.2021
4155 Clouds 21 1017 92 10000 0 0 12:28 19.12.2021
4156 Clouds 21 1018 90 10000 3.1 335 11:30 19.12.2021
4157 Clouds 22 1016 85 10000 1.34 359 10:30 19.12.2021
4158 Clouds 22 1016 85 10000 1.34 5 09:53 19.12.2021
4159 Clouds 22 1017 88 10000 3.26 351 08:45 19.12.2021
4160 Clouds 23 1018 88 10000 2.24 352 04:45 19.12.2021
4161 Clouds 24 1017 86 10000 2.24 22 01:34 19.12.2021
4162 Clouds 24 1017 89 10000 2.24 357 00:53 19.12.2021
4163 Clouds 25 1016 88 10000 2.24 17 22:42 18.12.2021
4164 Clouds 25 1016 86 10000 1.79 354 22:20 18.12.2021
4165 Clouds 25 1016 86 10000 1.79 354 22:20 18.12.2021
4166 Clouds 26 1016 80 10000 3.13 6 21:41 18.12.2021
4167 Clouds 26 1016 83 10000 2.68 356 21:22 18.12.2021
4168 Clouds 27 1016 81 10000 2.24 76 20:20 18.12.2021
4169 Clouds 28 1016 73 10000 3.13 65 19:25 18.12.2021
4170 Clouds 27 1017 77 10000 2.24 67 18:22 18.12.2021
4171 Clouds 26 1018 78 10000 3.13 52 17:48 18.12.2021
4172 Clouds 27 1019 79 10000 3.13 45 16:26 18.12.2021
4173 Clouds 26 1019 82 10000 2.24 33 15:28 18.12.2021
4174 Clouds 25 1019 84 10000 2.68 22 14:51 18.12.2021
4175 Clouds 23 1019 88 10000 3.09 30 13:28 18.12.2021
4176 Clouds 21 1018 96 10000 3.01 333 11:23 18.12.2021
4177 Clouds 21 1018 96 10000 3.18 340 09:40 18.12.2021
4178 Clouds 21 1018 96 10000 2.83 348 08:47 18.12.2021
4179 Clouds 21 1017 96 10000 2.85 344 08:24 18.12.2021
4180 Clouds 23 1018 94 10000 4.12 20 03:58 18.12.2021
4181 Clouds 25 1016 83 10000 0 0 00:30 18.12.2021
4182 Clouds 25 1015 83 10000 0 0 23:46 17.12.2021
4183 Clouds 27 1015 76 9000 2.68 102 21:58 17.12.2021
4184 Clouds 27 1015 77 9000 1.34 111 21:19 17.12.2021
4185 Clouds 29 1015 66 10000 1.79 80 20:40 17.12.2021
4186 Clouds 29 1015 64 10000 1.34 116 19:24 17.12.2021
4187 Clouds 29 1017 64 10000 2.24 114 18:38 17.12.2021
4188 Clouds 30 1019 59 10000 4.12 20 17:33 17.12.2021
4189 Clouds 29 1018 65 10000 2.24 49 16:49 17.12.2021
4190 Clouds 29 1019 65 10000 4.12 360 16:22 17.12.2021
4191 Clouds 27 1019 77 10000 4.12 360 15:25 17.12.2021
4192 Clouds 25 1019 80 10000 2.24 22 14:40 17.12.2021
4193 Clouds 23 1018 88 10000 0 0 13:21 17.12.2021
4194 Clouds 22 1018 88 10000 2.97 342 11:50 17.12.2021
4195 Clouds 22 1017 95 10000 2.8 340 10:37 17.12.2021
4196 Clouds 23 1017 87 10000 2.68 345 09:33 17.12.2021
4197 Clouds 23 1017 87 10000 2.8 345 08:30 17.12.2021
4198 Clear 23 1018 86 10000 3.14 345 06:22 17.12.2021
4199 Clouds 24 1017 94 10000 3.09 30 02:54 17.12.2021
4200 Clouds 27 1014 78 10000 0 0 23:40 16.12.2021
4201 Clouds 27 1015 73 10000 3.13 70 22:24 16.12.2021
4202 Clouds 27 1015 73 10000 3.13 70 22:24 16.12.2021
4203 Clouds 27 1015 73 10000 3.13 70 22:24 16.12.2021
4204 Clouds 27 1015 73 10000 3.13 70 22:24 16.12.2021
4205 Clouds 27 1015 73 10000 3.13 70 22:23 16.12.2021
4206 Clouds 27 1015 73 10000 3.13 70 22:23 16.12.2021
4207 Clouds 28 1014 70 10000 2.24 85 21:44 16.12.2021
4208 Clouds 28 1014 71 10000 2.68 101 20:55 16.12.2021
4209 Clouds 28 1014 74 10000 2.68 112 20:27 16.12.2021
4210 Clouds 29 1014 67 8000 1.79 116 19:33 16.12.2021
4211 Clouds 29 1015 72 10000 0.89 148 18:37 16.12.2021
4212 Clouds 28 1016 68 10000 2.24 41 17:48 16.12.2021
4213 Clouds 28 1017 71 10000 2.24 16 16:44 16.12.2021
4214 Clouds 28 1017 72 10000 2.24 54 16:18 16.12.2021
4215 Clouds 26 1017 79 10000 2.68 12 14:23 16.12.2021
4216 Clouds 21 1017 95 10000 3.43 349 12:30 16.12.2021
4217 Clouds 20 1016 96 10000 3.45 346 11:19 16.12.2021
4218 Clouds 20 1016 96 10000 3.45 346 10:44 16.12.2021
4219 Clouds 22 1016 96 10000 3.37 343 09:50 16.12.2021
4220 Clouds 22 1017 96 10000 3.06 340 07:18 16.12.2021
4221 Clouds 22 1017 96 10000 3.1 343 06:18 16.12.2021
4222 Clouds 27 1015 78 10000 3.09 30 23:59 15.12.2021
4223 Clouds 27 1015 78 10000 3.09 30 23:20 15.12.2021
4224 Clouds 28 1014 69 10000 3.13 62 22:21 15.12.2021
4225 Clouds 28 1014 69 10000 3.13 62 22:21 15.12.2021
4226 Rain 28 1014 69 10000 1.34 51 21:45 15.12.2021
4227 Rain 28 1014 71 10000 0.45 21 21:24 15.12.2021
4228 Clouds 30 1014 63 10000 2.68 66 19:54 15.12.2021
4229 Clouds 30 1014 63 10000 2.24 11 19:19 15.12.2021
4230 Clouds 28 1015 70 10000 2.68 24 18:24 15.12.2021
4231 Clouds 29 1017 67 10000 3.13 34 17:46 15.12.2021
4232 Clouds 29 1017 67 10000 3.13 10 17:21 15.12.2021
4233 Clouds 27 1018 72 10000 2.24 43 15:49 15.12.2021
4234 Clouds 27 1018 73 10000 2.68 36 15:31 15.12.2021
4235 Clouds 26 1018 74 10000 2.68 38 14:59 15.12.2021
4236 Clouds 24 1018 84 10000 1.34 351 13:45 15.12.2021
4237 Clear 21 1017 94 10000 3.62 342 11:52 15.12.2021
4238 Clear 21 1016 95 10000 3.54 344 10:22 15.12.2021
4239 Clear 22 1017 95 10000 3.09 349 08:26 15.12.2021
4240 Clouds 23 1017 95 10000 3.36 352 05:53 15.12.2021
4241 Clouds 25 1016 83 10000 0 0 00:37 15.12.2021
4242 Clouds 27 1015 78 10000 2.57 360 23:27 14.12.2021
4243 Clouds 28 1015 69 10000 3.09 30 22:44 14.12.2021
4244 Clouds 27 1015 76 10000 0.89 209 21:43 14.12.2021
4245 Clouds 27 1015 76 10000 0.89 209 21:43 14.12.2021
4246 Clouds 27 1015 77 8000 3.13 18 20:22 14.12.2021
4247 Clouds 28 1015 70 10000 2.24 62 19:34 14.12.2021
4248 Clouds 29 1016 72 10000 1.79 25 18:38 14.12.2021
4249 Clouds 29 1017 69 10000 2.68 40 17:55 14.12.2021
4250 Clouds 29 1018 69 10000 2.68 40 16:44 14.12.2021
4251 Clouds 29 1018 69 10000 3.13 41 16:21 14.12.2021
4252 Clouds 26 1019 79 10000 2.68 13 14:32 14.12.2021
4253 Clear 24 1018 86 10000 2.68 9 12:50 14.12.2021
4254 Clear 22 1017 93 10000 3.79 344 11:25 14.12.2021
4255 Clear 22 1017 93 10000 3.79 344 10:59 14.12.2021
4256 Clear 22 1017 93 10000 3.71 344 09:54 14.12.2021
4257 Clear 22 1017 94 10000 3.72 343 08:49 14.12.2021
4258 Clear 22 1017 94 10000 3.83 343 08:21 14.12.2021
4259 Clear 24 1017 82 10000 1.79 3 07:23 14.12.2021
4260 Clouds 26 1016 78 10000 3.09 360 23:51 13.12.2021
4261 Clouds 25 1014 82 10000 1.79 3 22:26 13.12.2021
4262 Clouds 26 1014 76 7000 1.34 13 21:39 13.12.2021
4263 Clouds 26 1014 79 10000 4.92 17 20:51 13.12.2021
4264 Clouds 26 1014 79 10000 4.92 17 20:51 13.12.2021
4265 Clouds 28 1014 74 10000 0.89 323 20:21 13.12.2021
4266 Clouds 27 1015 80 10000 1.34 28 19:49 13.12.2021
4267 Clouds 29 1017 67 10000 2.24 29 17:27 13.12.2021
4268 Clouds 29 1018 69 10000 2.24 53 16:32 13.12.2021
4269 Clouds 28 1018 72 10000 2.68 33 15:43 13.12.2021
4270 Clouds 26 1018 78 10000 3.13 15 14:30 13.12.2021
4271 Clouds 25 1017 83 10000 3.13 13 13:37 13.12.2021
4272 Clear 24 1017 83 10000 2.24 3 12:39 13.12.2021
4273 Clear 24 1016 83 10000 2.24 9 11:50 13.12.2021
4274 Clear 24 1016 83 10000 2.24 8 11:29 13.12.2021
4275 Clear 24 1015 83 10000 2.68 357 10:21 13.12.2021
4276 Clear 24 1015 83 10000 2.24 357 08:43 13.12.2021
4277 Clear 25 1016 82 10000 1.79 351 06:54 13.12.2021
4278 Clear 25 1017 83 10000 2.68 359 04:52 13.12.2021
4279 Clouds 27 1015 74 10000 2.68 35 23:55 12.12.2021
4280 Clouds 30 1014 63 10000 2.68 35 21:58 12.12.2021
4281 Clouds 30 1014 64 10000 1.34 94 20:50 12.12.2021
4282 Clouds 30 1014 60 10000 2.68 27 19:35 12.12.2021
4283 Clouds 30 1016 65 10000 2.68 350 17:58 12.12.2021
4284 Clouds 29 1017 70 10000 3.13 22 16:29 12.12.2021
4285 Clouds 28 1017 72 10000 2.24 36 15:55 12.12.2021
4286 Clouds 28 1017 73 10000 3.13 31 15:28 12.12.2021
4287 Clouds 26 1017 78 10000 2.68 16 14:46 12.12.2021
4288 Clouds 25 1017 85 10000 1.34 351 13:56 12.12.2021
4289 Clouds 24 1016 84 10000 1.79 351 12:48 12.12.2021
4290 Clouds 22 1016 93 10000 3.47 341 11:45 12.12.2021
4291 Clouds 22 1016 93 10000 3.44 341 11:27 12.12.2021
4292 Clouds 22 1016 93 10000 3.44 341 10:43 12.12.2021
4293 Clouds 22 1015 93 10000 3.38 338 09:58 12.12.2021
4294 Clouds 22 1015 93 10000 3.52 341 08:44 12.12.2021
4295 Clear 24 1015 80 10000 2.24 358 06:55 12.12.2021
4296 Clear 25 1016 79 10000 1.79 10 05:28 12.12.2021
4297 Clear 25 1016 81 10000 1.79 356 04:18 12.12.2021
4298 Clouds 26 1014 78 10000 0 0 00:45 12.12.2021
4299 Clouds 28 1014 76 10000 3.13 38 22:42 11.12.2021
4300 Clouds 28 1013 75 10000 3.13 46 22:20 11.12.2021
4301 Clouds 29 1013 69 10000 3.58 49 21:25 11.12.2021
4302 Clouds 29 1013 65 10000 3.13 49 19:50 11.12.2021
4303 Clouds 30 1014 65 10000 2.68 49 19:20 11.12.2021
4304 Clouds 30 1013 66 10000 3.13 6 18:39 11.12.2021
4305 Clouds 30 1015 66 10000 3.58 50 17:41 11.12.2021
4306 Clouds 28 1016 72 10000 3.58 53 15:57 11.12.2021
4307 Clouds 28 1016 74 10000 3.13 46 15:37 11.12.2021
4308 Clouds 26 1017 79 10000 3.13 18 14:21 11.12.2021
4309 Clear 22 1016 95 10000 3.44 339 12:20 11.12.2021
4310 Clear 22 1016 95 10000 3.34 342 10:43 11.12.2021
4311 Clear 22 1015 94 10000 3.49 345 09:38 11.12.2021
4312 Clear 24 1016 83 10000 3.69 343 03:26 11.12.2021
4313 Clouds 25 1015 94 10000 0 0 00:45 11.12.2021
4314 Clear 27 1015 73 10000 4.43 5 23:40 10.12.2021
4315 Clouds 29 1013 65 10000 3.13 34 22:33 10.12.2021
4316 Clear 29 1013 61 10000 3.58 57 21:40 10.12.2021
4317 Clouds 30 1014 62 10000 2.68 66 20:22 10.12.2021
4318 Clouds 30 1015 65 10000 3.58 33 19:18 10.12.2021
4319 Clouds 29 1017 69 10000 2.24 348 17:31 10.12.2021
4320 Clouds 28 1017 71 10000 2.68 52 16:34 10.12.2021
4321 Clouds 27 1017 73 10000 3.13 6 15:43 10.12.2021
4322 Clouds 27 1017 74 10000 3.13 11 15:23 10.12.2021
4323 Clouds 24 1017 85 10000 1.79 355 13:53 10.12.2021
4324 Clouds 24 1017 86 10000 2.24 6 13:31 10.12.2021
4325 Clear 24 1016 83 10000 1.79 11 12:55 10.12.2021
4326 Clear 24 1016 84 10000 2.68 359 11:36 10.12.2021
4327 Clear 24 1015 83 10000 1.79 354 10:55 10.12.2021
4328 Clear 24 1015 82 10000 2.68 3 09:36 10.12.2021
4329 Clear 24 1015 81 10000 1.34 350 07:25 10.12.2021
4330 Clear 24 1017 83 10000 3.36 346 04:32 10.12.2021
4331 Clear 24 1018 83 10000 3.33 351 02:29 10.12.2021
4332 Clouds 28 1015 71 10000 3.6 360 23:40 09.12.2021
4333 Clouds 29 1015 63 10000 3.13 42 22:41 09.12.2021
4334 Clouds 29 1015 63 10000 2.68 44 22:21 09.12.2021
4335 Clouds 30 1014 60 10000 2.68 59 21:38 09.12.2021
4336 Clouds 30 1014 60 10000 2.68 56 20:34 09.12.2021
4337 Clouds 30 1015 63 10000 2.68 49 19:22 09.12.2021
4338 Clouds 29 1016 67 10000 1.79 19 18:59 09.12.2021
4339 Clouds 29 1016 67 10000 2.68 41 17:58 09.12.2021
4340 Clouds 29 1017 69 10000 2.24 46 17:29 09.12.2021
4341 Clouds 28 1017 70 10000 1.79 47 16:57 09.12.2021
4342 Clouds 27 1017 71 10000 1.79 13 16:20 09.12.2021
4343 Clouds 25 1019 78 10000 2.24 349 14:58 09.12.2021
4344 Clouds 22 1018 86 10000 3.13 32 13:52 09.12.2021
4345 Clear 24 1017 80 10000 1.79 334 12:47 09.12.2021
4346 Clear 23 1016 81 10000 1.34 355 11:25 09.12.2021
4347 Clear 23 1016 81 10000 1.79 341 10:19 09.12.2021
4348 Clear 21 1017 79 10000 2.93 340 06:51 09.12.2021
4349 Clear 23 1018 79 10000 2.46 343 03:49 09.12.2021
4350 Clouds 27 1015 78 10000 0 0 23:50 08.12.2021
4351 Clouds 27 1015 73 10000 0.89 129 23:31 08.12.2021
4352 Clouds 28 1015 70 10000 0.89 134 22:53 08.12.2021
4353 Clouds 29 1015 68 10000 1.34 114 21:50 08.12.2021
4354 Clouds 29 1015 70 10000 1.79 113 21:31 08.12.2021
4355 Clouds 30 1014 63 10000 1.34 157 20:30 08.12.2021
4356 Clouds 30 1015 62 10000 1.79 140 19:48 08.12.2021
4357 Clouds 29 1016 67 10000 1.79 111 18:54 08.12.2021
4358 Clouds 30 1016 66 10000 1.34 121 18:21 08.12.2021
4359 Clouds 28 1018 69 10000 1.79 103 16:44 08.12.2021
4360 Clouds 28 1018 69 10000 1.79 103 16:44 08.12.2021
4361 Clouds 27 1018 75 10000 1.79 41 15:40 08.12.2021
4362 Clouds 27 1018 75 10000 2.24 61 15:21 08.12.2021
4363 Clouds 23 1017 88 10000 0.89 354 13:21 08.12.2021
4364 Clear 23 1016 85 10000 1.34 1 10:42 08.12.2021
4365 Clear 24 1015 85 10000 1.79 353 09:32 08.12.2021
4366 Clear 24 1016 85 10000 1.79 357 07:37 08.12.2021
4367 Clouds 24 1017 85 10000 0.89 329 04:58 08.12.2021
4368 Clouds 25 1016 86 6000 1.34 1 23:56 07.12.2021
4369 Clouds 26 1015 83 8000 0.89 305 22:48 07.12.2021
4370 Clouds 28 1015 68 10000 1.79 115 21:24 07.12.2021
4371 Clouds 29 1015 69 10000 2.24 102 20:25 07.12.2021
4372 Clouds 30 1018 66 10000 3.09 20 18:57 07.12.2021
4373 Clouds 29 1018 68 10000 3.09 20 18:19 07.12.2021
4374 Clouds 29 1017 68 10000 1.79 73 17:20 07.12.2021
4375 Clouds 29 1018 71 10000 2.24 114 16:37 07.12.2021
4376 Clouds 28 1018 74 10000 2.24 39 15:37 07.12.2021
4377 Clouds 26 1019 79 10000 1.79 1 14:37 07.12.2021
4378 Clouds 24 1018 86 10000 1.79 353 13:19 07.12.2021
4379 Clouds 24 1017 84 10000 1.34 10 12:21 07.12.2021
4380 Clear 25 1017 82 10000 1.34 359 10:45 07.12.2021
4381 Clear 25 1016 82 10000 0.89 357 09:19 07.12.2021
4382 Clear 25 1017 81 10000 1.34 6 06:39 07.12.2021
4383 Clear 25 1017 81 10000 1.34 343 05:45 07.12.2021
4384 Clouds 26 1016 81 10000 0 0 00:54 07.12.2021
4385 Clouds 28 1016 72 10000 1.79 95 23:18 06.12.2021
4386 Clouds 29 1016 71 10000 2.24 114 22:39 06.12.2021
4387 Clouds 30 1016 65 10000 1.79 121 21:58 06.12.2021
4388 Clouds 30 1015 64 10000 1.79 129 21:20 06.12.2021
4389 Clouds 31 1016 65 10000 1.79 139 20:30 06.12.2021
4390 Clouds 31 1017 66 10000 1.79 125 19:24 06.12.2021
4391 Clouds 30 1018 63 10000 1.79 96 18:29 06.12.2021
4392 Clouds 30 1019 64 10000 1.79 90 17:52 06.12.2021
4393 Clouds 29 1019 68 10000 1.79 78 16:56 06.12.2021
4394 Clouds 27 1020 74 10000 3.13 54 15:45 06.12.2021
4395 Clouds 24 1019 84 10000 1.79 14 13:47 06.12.2021
4396 Clouds 24 1018 86 10000 0.89 355 12:40 06.12.2021
4397 Clouds 22 1019 94 10000 2.57 343 11:54 06.12.2021
4398 Clouds 24 1017 85 10000 0.89 355 09:35 06.12.2021
4399 Clouds 23 1018 92 10000 2.59 343 06:43 06.12.2021
4400 Clouds 25 1016 83 10000 1.34 345 23:52 05.12.2021
4401 Clouds 29 1015 70 8000 1.79 121 21:52 05.12.2021
4402 Clouds 30 1015 68 8000 1.79 116 21:24 05.12.2021
4403 Clouds 29 1015 72 10000 1.79 122 20:19 05.12.2021
4404 Clouds 29 1016 72 8000 2.24 117 19:36 05.12.2021
4405 Clouds 29 1016 73 8000 1.79 118 19:18 05.12.2021
4406 Clouds 31 1016 67 10000 1.79 109 18:20 05.12.2021
4407 Clouds 30 1018 71 10000 1.34 75 17:49 05.12.2021
4408 Clouds 29 1018 72 10000 2.24 110 16:50 05.12.2021
4409 Clouds 29 1018 73 10000 2.24 61 16:27 05.12.2021
4410 Clouds 28 1019 76 10000 2.24 73 15:49 05.12.2021
4411 Clouds 26 1019 81 10000 2.24 42 14:43 05.12.2021
4412 Clouds 26 1019 82 10000 1.79 3 14:25 05.12.2021
4413 Clouds 24 1017 86 10000 1.79 357 13:22 05.12.2021
4414 Clear 24 1017 88 10000 0.89 358 12:40 05.12.2021
4415 Clear 24 1017 85 10000 1.34 1 12:18 05.12.2021
4416 Clear 24 1016 86 10000 1.34 348 11:30 05.12.2021
4417 Clear 24 1016 86 10000 1.34 5 10:18 05.12.2021
4418 Clear 24 1016 85 10000 0.89 347 08:29 05.12.2021
4419 Clouds 24 1017 87 10000 1.34 10 03:39 05.12.2021
4420 Clouds 24 1015 91 10000 0.89 313 23:45 04.12.2021
4421 Clouds 25 1014 87 7000 2.24 13 22:18 04.12.2021
4422 Clouds 27 1013 57 10000 3.88 88 21:18 04.12.2021
4423 Clouds 29 1014 69 8000 0.89 87 20:27 04.12.2021
4424 Clouds 29 1014 70 10000 1.79 114 19:32 04.12.2021
4425 Clouds 31 1015 62 10000 2.24 70 18:21 04.12.2021
4426 Clouds 31 1016 63 10000 2.68 72 17:40 04.12.2021
4427 Clouds 30 1017 67 10000 2.24 55 16:52 04.12.2021
4428 Clouds 29 1017 69 10000 2.68 43 16:31 04.12.2021
4429 Clouds 28 1017 73 10000 2.24 49 15:57 04.12.2021
4430 Clouds 24 1015 83 10000 0.89 358 11:54 04.12.2021
4431 Clouds 24 1015 83 10000 1.34 7 11:32 04.12.2021
4432 Clouds 24 1015 83 10000 1.34 7 10:56 04.12.2021
4433 Clouds 25 1014 84 10000 0.89 1 08:49 04.12.2021
4434 Clouds 25 1015 84 10000 1.34 10 06:42 04.12.2021
4435 Clouds 26 1016 83 10000 1.34 354 04:42 04.12.2021
4436 Clouds 27 1014 83 10000 1.79 49 00:47 04.12.2021
4437 Clouds 26 1013 85 10000 0.45 113 23:27 03.12.2021
4438 Clouds 26 1013 87 10000 1.79 121 22:48 03.12.2021
4439 Clouds 30 1012 69 8000 1.34 90 21:42 03.12.2021
4440 Clouds 29 1012 70 10000 1.34 136 20:55 03.12.2021
4441 Clouds 30 1012 69 10000 1.34 125 20:26 03.12.2021
4442 Clouds 30 1013 70 10000 1.79 131 18:44 03.12.2021
4443 Clouds 30 1014 71 10000 1.79 121 18:20 03.12.2021
4444 Clouds 29 1015 71 10000 2.24 118 16:43 03.12.2021
4445 Clouds 25 1015 84 10000 1.34 339 13:27 03.12.2021
4446 Clouds 24 1015 84 10000 1.34 343 12:20 03.12.2021
4447 Clouds 24 1014 81 10000 0.89 339 10:56 03.12.2021
4448 Clouds 24 1014 85 10000 1.34 346 08:29 03.12.2021
4449 Clouds 24 1014 84 10000 0.89 337 07:43 03.12.2021
4450 Clouds 25 1015 83 10000 1.34 337 05:42 03.12.2021
4451 Clouds 27 1015 79 10000 0.89 22 00:48 03.12.2021
4452 Clouds 27 1014 78 10000 0.89 15 23:47 02.12.2021
4453 Clouds 28 1014 77 10000 0 0 22:38 02.12.2021
4454 Clouds 29 1014 72 10000 0.45 319 21:41 02.12.2021
4455 Clouds 29 1014 73 10000 0.45 100 20:44 02.12.2021
4456 Clouds 28 1014 73 10000 0.89 72 20:22 02.12.2021
4457 Clouds 31 1016 58 10000 2.06 120 18:36 02.12.2021
4458 Clouds 28 1017 74 10000 1.79 45 16:33 02.12.2021
4459 Clouds 27 1018 77 10000 1.34 51 15:37 02.12.2021
4460 Clouds 25 1018 81 10000 1.79 8 14:51 02.12.2021
4461 Clouds 24 1018 88 10000 1.34 327 13:26 02.12.2021
4462 Clouds 25 1016 83 10000 1.79 3 12:23 02.12.2021
4463 Clouds 24 1015 84 10000 2.24 8 10:42 02.12.2021
4464 Clouds 26 1015 79 10000 1.79 10 09:25 02.12.2021
4465 Clouds 26 1016 79 10000 1.79 356 06:46 02.12.2021
4466 Clouds 27 1016 75 10000 2.24 18 00:59 02.12.2021
4467 Clouds 29 1016 70 10000 1.34 355 23:34 01.12.2021
4468 Clouds 30 1015 68 10000 1.79 114 22:25 01.12.2021
4469 Clouds 30 1015 67 10000 1.79 119 21:43 01.12.2021
4470 Clouds 31 1015 64 10000 1.79 120 20:18 01.12.2021
4471 Clouds 31 1015 64 10000 0.89 138 19:37 01.12.2021
4472 Clouds 30 1017 64 10000 2.24 60 17:50 01.12.2021
4473 Clouds 29 1018 67 10000 2.24 69 16:59 01.12.2021
4474 Clouds 28 1018 72 10000 2.24 52 15:37 01.12.2021
4475 Clouds 26 1018 79 10000 1.79 20 14:30 01.12.2021
4476 Clouds 24 1018 86 10000 1.79 346 13:36 01.12.2021
4477 Clouds 24 1016 83 10000 1.34 1 10:44 01.12.2021
4478 Clouds 25 1016 82 10000 1.79 355 09:59 01.12.2021
4479 Clouds 25 1015 82 10000 1.34 4 08:51 01.12.2021
4480 Clouds 25 1016 82 10000 1.79 6 07:56 01.12.2021
4481 Clouds 25 1016 82 10000 1.34 354 07:19 01.12.2021
4482 Clouds 24 1017 86 10000 1.34 355 03:53 01.12.2021
4483 Clouds 24 1017 86 10000 1.34 329 03:19 01.12.2021
4484 Clouds 24 1015 91 8000 0.89 166 23:59 30.11.2021
4485 Clouds 24 1015 94 8000 6.17 90 23:28 30.11.2021
4486 Clouds 25 1014 94 8000 6.17 90 22:29 30.11.2021
4487 Clouds 30 1013 66 10000 1.34 157 20:46 30.11.2021
4488 Clouds 30 1013 67 10000 0.89 135 20:24 30.11.2021
4489 Clouds 31 1014 61 10000 1.34 54 19:39 30.11.2021
4490 Clouds 31 1015 65 10000 0.89 150 18:52 30.11.2021
4491 Clouds 29 1015 69 10000 0.89 332 17:23 30.11.2021
4492 Clouds 28 1017 75 10000 1.79 52 15:57 30.11.2021
4493 Clouds 26 1017 80 10000 1.79 7 14:33 30.11.2021
4494 Clouds 24 1016 87 10000 1.79 12 13:41 30.11.2021
4495 Clouds 25 1015 82 10000 0.89 353 12:54 30.11.2021
4496 Clouds 22 1015 87 10000 2.72 352 11:55 30.11.2021
4497 Clouds 22 1015 86 10000 2.73 349 11:25 30.11.2021
4498 Clouds 25 1014 83 10000 0.89 353 10:36 30.11.2021
4499 Clouds 25 1013 84 10000 1.34 6 08:56 30.11.2021
4500 Clouds 25 1013 83 10000 1.34 337 08:32 30.11.2021
4501 Clouds 23 1014 81 10000 2.05 346 07:50 30.11.2021
4502 Clouds 23 1014 81 10000 1.99 338 06:36 30.11.2021
4503 Clouds 25 1014 84 10000 0.76 306 01:47 30.11.2021
4504 Clouds 25 1014 84 10000 0.86 255 01:27 30.11.2021
4505 Clouds 28 1011 74 10000 0 0 23:32 29.11.2021
4506 Clouds 29 1012 67 10000 0.89 141 22:59 29.11.2021
4507 Clouds 30 1012 66 10000 0.45 172 22:37 29.11.2021
4508 Clouds 30 1012 64 10000 1.34 128 21:52 29.11.2021
4509 Clouds 31 1011 63 10000 0.89 160 21:20 29.11.2021
4510 Clouds 31 1012 61 10000 1.34 171 20:45 29.11.2021
4511 Clouds 31 1012 63 10000 1.34 147 19:58 29.11.2021
4512 Clouds 31 1012 63 10000 1.34 168 19:38 29.11.2021
4513 Clouds 31 1013 62 10000 1.34 126 18:56 29.11.2021
4514 Clouds 31 1012 48 10000 3.12 138 18:37 29.11.2021
4515 Clear 30 1014 51 10000 2.24 108 17:21 29.11.2021
4516 Clear 30 1014 51 10000 2.24 108 16:40 29.11.2021
4517 Clear 29 1015 56 10000 1.84 77 16:22 29.11.2021
4518 Clear 27 1015 64 10000 1.92 46 14:45 29.11.2021
4519 Clear 25 1015 72 10000 1.8 9 13:52 29.11.2021
4520 Clouds 23 1015 83 10000 1.63 345 12:56 29.11.2021
4521 Clouds 21 1014 91 10000 1.88 337 11:51 29.11.2021
4522 Clear 21 1013 90 10000 1.98 337 10:59 29.11.2021
4523 Clear 23 1013 90 10000 2.07 341 09:56 29.11.2021
4524 Clear 24 1013 88 10000 1.95 348 06:43 29.11.2021
4525 Clear 25 1014 86 10000 1.97 347 04:53 29.11.2021
4526 Clouds 28 1013 78 10000 0 0 00:44 29.11.2021
4527 Clouds 30 1012 66 10000 2.57 150 23:47 28.11.2021
4528 Clouds 30 1012 66 10000 2.57 150 23:28 28.11.2021
4529 Clouds 32 1012 51 10000 2.57 60 21:53 28.11.2021
4530 Clouds 32 1012 51 10000 2.57 60 21:27 28.11.2021
4531 Clouds 32 1012 51 10000 5.14 30 20:35 28.11.2021
4532 Clouds 33 1013 49 10000 2.57 360 19:28 28.11.2021
4533 Clouds 31 1014 58 10000 3.09 20 18:38 28.11.2021
4534 Clouds 30 1015 62 10000 3.09 20 17:56 28.11.2021
4535 Clouds 30 1015 62 10000 3.09 20 17:32 28.11.2021
4536 Clouds 30 1016 62 10000 0 0 16:44 28.11.2021
4537 Clouds 30 1016 62 10000 0 0 16:22 28.11.2021
4538 Clouds 27 1016 74 10000 4.12 10 15:33 28.11.2021
4539 Clouds 25 1016 83 10000 0 0 14:48 28.11.2021
4540 Clouds 20 1015 100 10000 0 0 13:49 28.11.2021
4541 Clouds 20 1015 82 10000 2.44 350 12:52 28.11.2021
4542 Clouds 21 1015 89 10000 2.54 345 11:18 28.11.2021
4543 Clear 21 1014 89 10000 2.76 349 10:22 28.11.2021
4544 Clear 21 1014 89 10000 2.76 349 09:38 28.11.2021
4545 Clear 22 1014 87 10000 2.75 348 07:59 28.11.2021
4546 Clouds 27 1013 78 10000 0 0 00:20 28.11.2021
4547 Clouds 29 1012 65 10000 4.12 60 21:40 27.11.2021
4548 Clouds 31 1014 58 10000 5.14 20 19:49 27.11.2021
4549 Clouds 30 1015 66 10000 0 0 17:57 27.11.2021
4550 Clouds 27 1016 78 10000 2.57 40 15:59 27.11.2021
4551 Clouds 25 1015 83 10000 0 0 14:26 27.11.2021
4552 Clouds 21 1015 82 10000 1.46 355 12:57 27.11.2021
4553 Clouds 22 1014 88 10000 1.76 341 10:52 27.11.2021
4554 Clouds 21 1013 87 10000 1.47 329 09:53 27.11.2021
4555 Clouds 21 1013 87 10000 1.46 335 08:44 27.11.2021
4556 Clouds 22 1014 84 10000 1.97 346 06:34 27.11.2021
4557 Clouds 24 1014 83 10000 2.29 357 01:58 27.11.2021
4558 Clouds 26 1013 83 10000 2.31 8 23:39 26.11.2021
4559 Clouds 29 1012 74 10000 4.12 30 22:25 26.11.2021
4560 Clouds 31 1012 66 10000 3.09 50 21:38 26.11.2021
4561 Clouds 31 1012 66 10000 3.09 50 21:18 26.11.2021
4562 Clouds 30 1012 66 10000 6.17 60 20:30 26.11.2021
4563 Clouds 30 1013 66 10000 4.12 40 19:54 26.11.2021
4564 Clouds 28 1015 69 10000 4.12 30 18:43 26.11.2021
4565 Clouds 28 1015 69 10000 2.57 30 17:24 26.11.2021
4566 Clouds 28 1015 69 10000 2.57 30 17:24 26.11.2021
4567 Clouds 27 1015 69 10000 3.09 30 16:29 26.11.2021
4568 Clouds 23 1014 84 10000 1.34 350 13:37 26.11.2021
4569 Clouds 23 1014 87 10000 1.34 350 12:55 26.11.2021
4570 Clouds 23 1013 86 10000 1.79 3 10:42 26.11.2021
4571 Clear 23 1013 83 10000 1.34 343 09:29 26.11.2021
4572 Clear 24 1013 82 10000 1.34 354 08:47 26.11.2021
4573 Clear 24 1013 81 10000 1.79 7 08:19 26.11.2021
4574 Clear 24 1014 81 10000 1.79 358 06:29 26.11.2021
4575 Clear 24 1015 83 10000 2.24 5 04:52 26.11.2021
4576 Clear 24 1015 82 10000 2.24 2 03:28 26.11.2021
4577 Clouds 24 1013 83 10000 2.24 353 23:28 25.11.2021
4578 Clouds 26 1012 75 10000 3.58 5 21:51 25.11.2021
4579 Clouds 30 1012 65 10000 2.24 346 20:40 25.11.2021
4580 Clouds 30 1013 67 10000 3.58 14 18:50 25.11.2021
4581 Clear 29 1014 66 10000 3.13 339 18:00 25.11.2021
4582 Clear 29 1014 68 10000 2.68 9 17:26 25.11.2021
4583 Clouds 29 1015 68 10000 3.13 1 16:38 25.11.2021
4584 Clouds 28 1015 73 10000 2.24 352 15:58 25.11.2021
4585 Clouds 26 1015 77 10000 2.24 355 14:21 25.11.2021
4586 Clear 24 1015 83 10000 1.34 354 12:48 25.11.2021
4587 Clouds 24 1014 82 10000 1.79 346 11:55 25.11.2021
4588 Clouds 23 1013 93 10000 3.29 349 10:25 25.11.2021
4589 Clouds 24 1015 94 10000 3.69 344 06:24 25.11.2021
4590 Clouds 24 1016 93 10000 3.62 350 02:53 25.11.2021
4591 Clouds 29 1013 70 10000 3.09 10 23:39 24.11.2021
4592 Clouds 30 1012 62 10000 2.57 30 22:28 24.11.2021
4593 Clouds 31 1012 58 10000 3.09 30 21:45 24.11.2021
4594 Clouds 32 1012 56 10000 4.12 60 20:58 24.11.2021
4595 Clouds 32 1012 56 10000 4.12 60 20:26 24.11.2021
4596 Clouds 32 1014 57 10000 3.09 60 18:37 24.11.2021
4597 Clouds 32 1014 58 10000 3.09 60 18:18 24.11.2021
4598 Clouds 29 1016 75 10000 4.12 360 16:20 24.11.2021
4599 Clouds 26 1015 83 10000 0 0 14:56 24.11.2021
4600 Clouds 25 1015 84 10000 0 0 14:20 24.11.2021
4601 Clouds 24 1015 87 10000 2.32 352 12:50 24.11.2021
4602 Clouds 24 1014 94 10000 2.15 349 11:22 24.11.2021
4603 Clouds 24 1014 94 10000 2.15 349 10:50 24.11.2021
4604 Clouds 24 1013 94 10000 2.1 349 10:27 24.11.2021
4605 Clouds 24 1013 93 10000 2.05 351 07:59 24.11.2021
4606 Clouds 24 1013 93 10000 1.89 338 06:59 24.11.2021
4607 Clouds 23 1014 95 10000 2.09 341 03:59 24.11.2021
4608 Clouds 25 1013 91 10000 1.23 271 01:30 24.11.2021
4609 Clouds 29 1011 75 10000 3.09 160 22:59 23.11.2021
4610 Clouds 29 1011 75 10000 3.09 160 22:34 23.11.2021
4611 Clouds 30 1011 68 10000 3.09 180 21:45 23.11.2021
4612 Clouds 30 1011 68 10000 3.09 180 21:45 23.11.2021
4613 Clouds 31 1012 62 10000 5.14 160 20:21 23.11.2021
4614 Clouds 31 1012 62 10000 5.14 160 19:20 23.11.2021
4615 Clouds 31 1013 68 10000 5.14 160 18:29 23.11.2021
4616 Clouds 30 1014 69 10000 3.09 90 17:23 23.11.2021
4617 Clouds 29 1014 72 10000 0 0 16:35 23.11.2021
4618 Clouds 28 1013 74 10000 0 0 15:23 23.11.2021
4619 Clouds 25 1013 83 10000 0 0 14:32 23.11.2021
4620 Clouds 22 1012 90 10000 0.9 300 11:57 23.11.2021
4621 Clouds 22 1011 89 10000 1 293 10:24 23.11.2021
4622 Clouds 22 1011 89 10000 0.73 272 09:23 23.11.2021
4623 Clouds 23 1012 88 10000 0.95 234 07:28 23.11.2021
4624 Clouds 23 1013 88 10000 0.39 251 03:58 23.11.2021
4625 Clouds 23 1013 87 10000 0.4 231 03:25 23.11.2021
4626 Clouds 28 1011 75 10000 3.09 160 23:23 22.11.2021
4627 Clouds 30 1010 68 10000 4.12 170 22:53 22.11.2021
4628 Clouds 30 1010 67 10000 4.12 170 22:29 22.11.2021
4629 Clouds 30 1010 66 10000 5.14 150 21:44 22.11.2021
4630 Clouds 31 1011 63 10000 5.14 190 20:56 22.11.2021
4631 Clouds 31 1012 62 10000 5.14 180 19:58 22.11.2021
4632 Clouds 31 1012 61 10000 5.14 180 19:19 22.11.2021
4633 Clouds 31 1013 65 10000 0 0 18:40 22.11.2021
4634 Clouds 31 1013 64 10000 3.09 150 17:45 22.11.2021
4635 Clouds 30 1014 67 10000 0 0 16:26 22.11.2021
4636 Clouds 27 1014 79 10000 0 0 14:26 22.11.2021
4637 Clouds 24 1014 88 10000 1.92 350 12:43 22.11.2021
4638 Clouds 22 1013 90 10000 2.17 350 10:43 22.11.2021
4639 Clouds 23 1012 90 10000 2.26 349 09:48 22.11.2021
4640 Clouds 22 1012 89 10000 2.35 345 08:41 22.11.2021
4641 Clouds 23 1013 87 10000 2.66 342 06:43 22.11.2021
4642 Clouds 29 1012 74 10000 1.79 110 23:35 21.11.2021
4643 Clouds 30 1012 68 10000 1.79 110 22:51 21.11.2021
4644 Clouds 30 1011 68 10000 1.79 115 22:18 21.11.2021
4645 Clouds 31 1011 65 10000 1.34 131 20:42 21.11.2021
4646 Clouds 31 1011 61 10000 0.89 151 19:59 21.11.2021
4647 Clouds 30 1012 60 10000 0.89 147 18:25 21.11.2021
4648 Clouds 30 1014 61 10000 1.34 36 17:39 21.11.2021
4649 Clouds 29 1014 63 10000 2.24 42 16:42 21.11.2021
4650 Clouds 27 1015 77 10000 1.79 18 14:46 21.11.2021
4651 Clouds 25 1015 83 10000 1.34 350 13:47 21.11.2021
4652 Clouds 25 1014 84 10000 0.89 358 12:37 21.11.2021
4653 Clouds 22 1014 91 10000 2.25 346 11:54 21.11.2021
4654 Clouds 25 1014 82 10000 0.89 1 11:35 21.11.2021
4655 Clouds 22 1013 91 10000 2.19 341 10:19 21.11.2021
4656 Clouds 26 1013 80 10000 0.89 341 08:45 21.11.2021
4657 Clear 26 1013 80 10000 0.89 332 08:25 21.11.2021
4658 Clear 26 1013 80 10000 0.89 333 07:48 21.11.2021
4659 Clouds 26 1014 78 10000 0.89 341 05:55 21.11.2021
4660 Clouds 22 1014 92 10000 2.24 348 05:26 21.11.2021
4661 Clouds 23 1015 92 10000 2.21 359 03:19 21.11.2021
4662 Clouds 24 1015 92 10000 2.21 359 02:52 21.11.2021
4663 Clouds 26 1014 83 10000 0 0 00:59 21.11.2021
4664 Clouds 28 1012 75 10000 0.89 124 23:56 20.11.2021
4665 Clouds 30 1012 67 10000 1.34 113 21:46 20.11.2021
4666 Clouds 30 1012 67 10000 0.89 123 21:27 20.11.2021
4667 Clouds 31 1013 66 10000 1.34 153 18:46 20.11.2021
4668 Clouds 31 1013 65 10000 1.79 111 18:26 20.11.2021
4669 Clouds 30 1014 68 10000 1.34 142 17:57 20.11.2021
4670 Clouds 30 1015 67 10000 2.24 102 16:57 20.11.2021
4671 Clouds 27 1015 77 10000 1.34 45 14:47 20.11.2021
4672 Clouds 27 1015 77 10000 0.89 26 14:25 20.11.2021
4673 Clouds 24 1014 80 10000 1.34 9 12:23 20.11.2021
4674 Clouds 24 1013 79 10000 0.89 318 10:52 20.11.2021
4675 Clouds 24 1013 80 10000 0.89 341 09:39 20.11.2021
4676 Clouds 21 1013 89 10000 2.69 336 07:37 20.11.2021
4677 Clouds 22 1015 87 10000 2.4 348 05:28 20.11.2021
4678 Clouds 23 1015 87 10000 2.4 348 04:50 20.11.2021
4679 Clouds 24 1015 79 10000 2.31 13 01:58 20.11.2021
4680 Clouds 27 1014 78 10000 0 0 00:40 20.11.2021
4681 Clouds 28 1013 70 10000 1.79 122 23:41 19.11.2021
4682 Clouds 30 1013 69 10000 1.34 122 22:21 19.11.2021
4683 Clouds 31 1013 64 10000 1.79 138 20:58 19.11.2021
4684 Clouds 31 1013 64 10000 1.79 133 20:36 19.11.2021
4685 Clouds 31 1013 63 10000 1.79 175 19:55 19.11.2021
4686 Clouds 31 1014 57 10000 1.79 70 18:54 19.11.2021
4687 Clouds 31 1014 57 10000 2.68 62 18:23 19.11.2021
4688 Clouds 30 1015 62 10000 1.79 65 17:36 19.11.2021
4689 Clouds 29 1016 71 10000 2.68 58 15:58 19.11.2021
4690 Clouds 26 1016 82 10000 2.24 356 13:55 19.11.2021
4691 Clouds 25 1014 79 10000 1.34 1 10:28 19.11.2021
4692 Clouds 25 1013 79 10000 0.89 355 09:38 19.11.2021
4693 Clouds 26 1014 78 10000 1.34 2 08:24 19.11.2021
4694 Clouds 24 1016 91 10000 3.35 345 04:53 19.11.2021
4695 Clouds 26 1016 90 10000 3.2 345 02:35 19.11.2021
4696 Clouds 29 1014 65 10000 2.68 52 23:51 18.11.2021
4697 Clouds 31 1013 56 10000 2.24 14 21:56 18.11.2021
4698 Clouds 32 1013 56 10000 1.34 44 20:49 18.11.2021
4699 Clouds 32 1013 58 10000 1.79 70 20:31 18.11.2021
4700 Clouds 31 1013 59 10000 1.79 108 19:52 18.11.2021
4701 Clouds 32 1013 55 10000 1.79 82 19:33 18.11.2021
4702 Clouds 32 1014 55 10000 1.79 56 18:33 18.11.2021
4703 Clouds 31 1015 59 10000 2.68 53 17:51 18.11.2021
4704 Clouds 30 1017 62 10000 3.13 62 16:44 18.11.2021
4705 Clouds 29 1017 67 10000 2.68 47 15:49 18.11.2021
4706 Clear 27 1016 74 10000 1.34 9 13:40 18.11.2021
4707 Clouds 23 1017 86 10000 3.04 347 12:34 18.11.2021
4708 Clouds 22 1017 93 10000 3.33 343 11:43 18.11.2021
4709 Clear 22 1016 93 10000 3.37 342 11:24 18.11.2021
4710 Clear 25 1015 80 10000 1.79 349 09:59 18.11.2021
4711 Clear 26 1015 79 10000 1.34 342 07:35 18.11.2021
4712 Clouds 26 1016 76 10000 2.24 353 05:57 18.11.2021
4713 Clouds 26 1016 76 10000 2.24 359 05:38 18.11.2021
4714 Clouds 27 1017 73 10000 4.26 2 01:24 18.11.2021
4715 Clouds 28 1014 70 10000 2.68 38 23:19 17.11.2021
4716 Clouds 30 1013 66 10000 5.14 360 22:34 17.11.2021
4717 Clouds 31 1014 58 10000 2.68 49 21:54 17.11.2021
4718 Clouds 31 1014 57 10000 3.58 53 21:34 17.11.2021
4719 Clouds 32 1015 53 10000 3.13 44 19:22 17.11.2021
4720 Clouds 31 1016 62 10000 3.13 46 17:31 17.11.2021
4721 Clouds 28 1017 76 10000 2.24 8 14:53 17.11.2021
4722 Clouds 25 1017 84 10000 1.79 356 12:51 17.11.2021
4723 Clouds 22 1017 92 10000 3.01 341 12:25 17.11.2021
4724 Clouds 22 1016 93 10000 2.97 341 10:50 17.11.2021
4725 Clouds 26 1015 81 10000 1.34 19 09:27 17.11.2021
4726 Clouds 23 1016 94 10000 2.46 3 07:46 17.11.2021
4727 Clouds 22 1016 93 10000 2.11 349 06:20 17.11.2021
4728 Clouds 26 1016 80 10000 1.34 7 02:43 17.11.2021
4729 Clouds 28 1013 78 10000 0 0 23:27 16.11.2021
4730 Clouds 30 1013 73 10000 1.79 105 21:51 16.11.2021
4731 Clouds 31 1013 67 10000 1.79 124 20:19 16.11.2021
4732 Clouds 31 1013 64 10000 1.79 117 19:23 16.11.2021
4733 Clouds 31 1014 65 10000 1.79 127 18:38 16.11.2021
4734 Clouds 30 1015 67 10000 0.89 124 17:44 16.11.2021
4735 Clouds 30 1016 66 10000 2.24 89 16:59 16.11.2021
4736 Clouds 30 1017 64 10000 1.79 76 16:19 16.11.2021
4737 Clouds 28 1017 70 10000 1.79 54 15:41 16.11.2021
4738 Clear 25 1016 80 10000 1.34 339 12:43 16.11.2021
4739 Clear 23 1015 91 10000 3.09 343 10:21 16.11.2021
4740 Clear 24 1015 91 10000 3.09 343 09:38 16.11.2021
4741 Clear 24 1015 92 10000 2.85 344 07:34 16.11.2021
4742 Clear 24 1016 90 10000 1.76 341 05:27 16.11.2021
4743 Clouds 28 1014 73 10000 1.34 120 23:24 15.11.2021
4744 Clouds 29 1014 68 10000 1.34 121 22:40 15.11.2021
4745 Clouds 30 1014 68 10000 1.34 142 21:55 15.11.2021
4746 Clouds 30 1013 68 10000 1.34 133 21:30 15.11.2021
4747 Clouds 31 1014 64 10000 1.79 118 20:29 15.11.2021
4748 Clouds 31 1015 63 10000 2.24 108 18:53 15.11.2021
4749 Clouds 31 1017 65 10000 1.34 126 16:59 15.11.2021
4750 Clouds 30 1017 68 10000 2.68 66 15:48 15.11.2021
4751 Clouds 29 1017 70 10000 2.24 55 15:30 15.11.2021
4752 Clouds 26 1017 83 10000 1.79 8 13:53 15.11.2021
4753 Clouds 26 1016 82 10000 1.34 350 12:18 15.11.2021
4754 Clouds 24 1014 94 10000 3.17 336 09:30 15.11.2021
4755 Clouds 22 1014 94 10000 3.07 339 08:37 15.11.2021
4756 Clouds 24 1015 94 10000 2.67 338 06:21 15.11.2021
4757 Clouds 26 1014 83 10000 0 0 00:34 15.11.2021
4758 Clouds 29 1013 75 8000 1.34 118 22:41 14.11.2021
4759 Clouds 30 1012 68 10000 1.79 123 21:18 14.11.2021
4760 Clouds 31 1013 65 10000 1.79 114 19:18 14.11.2021
4761 Clouds 31 1014 65 10000 1.79 123 18:54 14.11.2021
4762 Clouds 31 1014 64 10000 1.79 117 18:36 14.11.2021
4763 Clouds 31 1014 63 10000 1.79 128 18:18 14.11.2021
4764 Clouds 30 1015 67 10000 1.79 137 17:57 14.11.2021
4765 Clouds 30 1015 69 10000 1.79 113 17:39 14.11.2021
4766 Clouds 30 1015 69 10000 1.79 153 17:21 14.11.2021
4767 Clouds 30 1016 69 10000 1.79 118 16:52 14.11.2021
4768 Clouds 30 1016 70 10000 2.24 111 16:22 14.11.2021
4769 Clouds 29 1016 74 10000 1.79 85 15:52 14.11.2021
4770 Clouds 29 1016 75 10000 1.34 69 15:19 14.11.2021
4771 Clouds 27 1016 80 10000 2.24 70 14:34 14.11.2021
4772 Clouds 25 1016 85 10000 1.34 43 13:59 14.11.2021
4773 Clouds 25 1016 85 10000 1.34 326 13:40 14.11.2021
4774 Clouds 26 1015 84 10000 0.89 350 12:45 14.11.2021
4775 Clouds 26 1015 82 10000 1.34 329 12:20 14.11.2021
4776 Clouds 26 1014 83 10000 0.89 333 10:52 14.11.2021
4777 Clouds 26 1014 82 10000 0.89 334 10:27 14.11.2021
4778 Clouds 26 1014 82 10000 0.89 338 08:58 14.11.2021
4779 Clouds 26 1014 82 10000 0.89 341 08:23 14.11.2021
4780 Clouds 26 1015 84 10000 1.34 35 02:20 14.11.2021
4781 Clouds 30 1013 71 10000 1.34 127 22:28 13.11.2021
4782 Clouds 31 1012 66 10000 0.89 158 21:58 13.11.2021
4783 Clouds 31 1012 66 10000 1.34 140 21:27 13.11.2021
4784 Clouds 31 1012 65 10000 1.34 130 20:24 13.11.2021
4785 Clouds 31 1014 63 10000 0.89 143 18:48 13.11.2021
4786 Clouds 31 1014 65 10000 1.79 152 18:26 13.11.2021
4787 Clouds 30 1015 66 10000 1.79 131 17:23 13.11.2021
4788 Clouds 28 1016 73 10000 1.34 59 15:42 13.11.2021
4789 Clouds 26 1016 81 10000 1.79 336 14:36 13.11.2021
4790 Clouds 24 1016 85 10000 1.34 338 13:46 13.11.2021
4791 Clouds 25 1016 83 10000 1.34 320 12:38 13.11.2021
4792 Clouds 24 1015 82 10000 0.89 348 11:39 13.11.2021
4793 Clouds 25 1014 82 10000 0.89 32 10:45 13.11.2021
4794 Clouds 25 1014 82 10000 0.89 335 10:23 13.11.2021
4795 Clouds 25 1014 82 10000 1.34 349 09:39 13.11.2021
4796 Clouds 25 1014 82 10000 0.89 341 08:59 13.11.2021
4797 Clouds 25 1014 82 10000 1.34 334 08:34 13.11.2021
4798 Clouds 26 1015 83 10000 0.89 341 06:27 13.11.2021
4799 Clouds 26 1016 83 10000 1.34 26 04:32 13.11.2021
4800 Clouds 27 1016 90 10000 2.31 9 01:55 13.11.2021
4801 Clouds 28 1013 76 10000 1.34 113 23:23 12.11.2021
4802 Clouds 30 1013 67 10000 2.24 122 21:50 12.11.2021
4803 Clouds 30 1014 71 10000 1.79 118 20:19 12.11.2021
4804 Clouds 31 1014 65 10000 1.34 118 19:30 12.11.2021
4805 Clouds 30 1015 74 10000 1.34 131 18:52 12.11.2021
4806 Clouds 30 1018 69 10000 1.79 53 16:40 12.11.2021
4807 Clouds 29 1018 73 10000 1.79 43 15:34 12.11.2021
4808 Clouds 25 1017 87 10000 0 0 13:21 12.11.2021
4809 Clouds 25 1016 84 10000 1.34 338 10:58 12.11.2021
4810 Clouds 26 1015 81 10000 1.34 348 09:45 12.11.2021
4811 Clouds 25 1015 82 10000 0.89 338 08:39 12.11.2021
4812 Clouds 27 1016 81 10000 1.34 23 03:27 12.11.2021
4813 Clouds 27 1014 83 10000 0 0 23:42 11.11.2021
4814 Clouds 29 1014 74 10000 4.12 180 22:39 11.11.2021
4815 Clouds 30 1013 68 7000 1.34 121 21:29 11.11.2021
4816 Clouds 30 1013 66 10000 1.79 124 20:48 11.11.2021
4817 Clouds 31 1014 66 10000 1.34 134 19:24 11.11.2021
4818 Clouds 30 1015 68 10000 1.79 137 17:58 11.11.2021
4819 Clouds 30 1015 67 10000 1.79 146 17:36 11.11.2021
4820 Clouds 28 1017 72 10000 1.79 71 15:19 11.11.2021
4821 Clouds 27 1017 77 10000 1.79 9 14:30 11.11.2021
4822 Clouds 25 1016 85 10000 1.34 3 13:40 11.11.2021
4823 Clouds 25 1016 85 10000 0.89 352 12:52 11.11.2021
4824 Clear 24 1015 85 10000 0.89 346 11:30 11.11.2021
4825 Clear 25 1014 84 10000 0.89 359 09:49 11.11.2021
4826 Clear 25 1014 83 10000 0.89 352 08:19 11.11.2021
4827 Clouds 26 1015 81 10000 1.34 5 05:55 11.11.2021
4828 Clouds 25 1014 90 8000 1.79 72 00:34 11.11.2021
4829 Clouds 28 1013 78 10000 1.34 6 22:32 10.11.2021
4830 Clouds 28 1013 77 10000 1.79 341 21:33 10.11.2021
4831 Clouds 28 1013 77 7000 1.79 331 20:47 10.11.2021
4832 Clouds 29 1013 74 10000 2.24 42 19:47 10.11.2021
4833 Clouds 29 1013 71 10000 0.89 35 19:28 10.11.2021
4834 Clouds 30 1015 68 10000 2.24 69 16:38 10.11.2021
4835 Clouds 28 1016 76 10000 1.34 41 15:44 10.11.2021
4836 Clouds 25 1015 84 10000 1.79 339 13:52 10.11.2021
4837 Clouds 24 1015 85 10000 1.34 345 13:26 10.11.2021
4838 Clouds 25 1014 79 10000 0.89 349 11:36 10.11.2021
4839 Clear 24 1014 91 10000 2.58 341 08:51 10.11.2021
4840 Clear 24 1014 91 10000 2.58 341 08:33 10.11.2021
4841 Clouds 24 1014 91 10000 2.52 342 06:41 10.11.2021
4842 Clouds 24 1015 90 10000 2.59 349 05:52 10.11.2021
4843 Clouds 25 1015 78 10000 2.03 7 01:24 10.11.2021
4844 Clouds 30 1012 64 10000 0.89 120 21:55 09.11.2021
4845 Clouds 31 1012 65 10000 1.34 148 20:32 09.11.2021
4846 Clouds 31 1012 65 10000 1.34 148 20:32 09.11.2021
4847 Clouds 31 1013 61 10000 1.34 141 19:26 09.11.2021
4848 Clouds 31 1013 58 10000 2.24 67 18:38 09.11.2021
4849 Clouds 29 1016 66 10000 1.34 12 16:26 09.11.2021
4850 Clouds 26 1016 79 10000 1.34 16 14:52 09.11.2021
4851 Clear 24 1015 83 10000 0.89 351 12:53 09.11.2021
4852 Clear 24 1014 83 10000 0.89 6 11:59 09.11.2021
4853 Clear 24 1014 82 10000 0.45 13 10:46 09.11.2021
4854 Clear 25 1014 81 10000 0.89 345 09:40 09.11.2021
4855 Clear 24 1013 83 10000 0.89 343 08:27 09.11.2021
4856 Clear 25 1014 83 10000 1.34 334 05:57 09.11.2021
4857 Clouds 27 1014 78 10000 0.45 253 02:28 09.11.2021
4858 Clouds 27 1014 77 10000 0.45 253 01:48 09.11.2021
4859 Clouds 26 1013 79 10000 0.89 208 00:18 09.11.2021
4860 Clouds 29 1013 70 10000 0.89 214 22:59 08.11.2021
4861 Clouds 29 1013 68 10000 1.34 179 22:28 08.11.2021
4862 Clouds 31 1013 63 10000 1.34 147 20:56 08.11.2021
4863 Clouds 31 1013 64 10000 1.79 154 19:53 08.11.2021
4864 Clouds 31 1014 67 10000 1.34 126 18:57 08.11.2021
4865 Clouds 30 1015 71 10000 1.34 132 17:22 08.11.2021
4866 Clouds 29 1016 74 10000 1.34 133 15:27 08.11.2021
4867 Clouds 27 1016 79 10000 0.45 304 14:43 08.11.2021
4868 Clouds 26 1015 85 10000 0.45 5 13:55 08.11.2021
4869 Clouds 25 1014 87 10000 0.45 311 12:35 08.11.2021
4870 Clouds 24 1014 86 10000 1.34 333 11:24 08.11.2021
4871 Clouds 23 1014 93 10000 1.3 346 09:59 08.11.2021
4872 Clouds 26 1013 80 10000 0.89 344 08:55 08.11.2021
4873 Clouds 26 1014 78 10000 0.89 12 07:36 08.11.2021
4874 Clouds 27 1014 78 10000 0.89 295 04:55 08.11.2021
4875 Clouds 24 1015 83 10000 0.32 17 03:30 08.11.2021
4876 Clouds 27 1013 83 10000 0 0 23:47 07.11.2021
4877 Clouds 29 1013 73 10000 1.34 153 22:20 07.11.2021
4878 Clouds 30 1013 69 10000 1.79 169 21:20 07.11.2021
4879 Clouds 31 1013 64 10000 1.79 132 19:54 07.11.2021
4880 Clouds 31 1014 64 10000 1.34 131 18:24 07.11.2021
4881 Clouds 31 1014 67 10000 1.34 166 17:35 07.11.2021
4882 Clouds 30 1015 71 10000 1.79 120 15:54 07.11.2021
4883 Clouds 28 1015 78 10000 0.45 346 14:34 07.11.2021
4884 Clouds 25 1015 84 10000 0.89 354 13:54 07.11.2021
4885 Clouds 26 1014 86 10000 0.89 350 11:44 07.11.2021
4886 Clouds 26 1013 79 10000 0.89 352 09:57 07.11.2021
4887 Clouds 26 1013 81 10000 0.45 359 08:45 07.11.2021
4888 Clouds 24 1015 87 10000 0.62 232 02:43 07.11.2021
4889 Clouds 29 1013 78 10000 0.89 126 23:40 06.11.2021
4890 Clouds 30 1012 72 10000 0.89 142 22:50 06.11.2021
4891 Clouds 31 1012 66 10000 0.89 160 21:34 06.11.2021
4892 Clouds 31 1012 64 10000 0.89 140 20:52 06.11.2021
4893 Clouds 31 1013 66 10000 2.24 136 18:56 06.11.2021
4894 Clouds 30 1015 71 10000 1.34 118 16:47 06.11.2021
4895 Clouds 30 1015 71 10000 1.34 118 16:47 06.11.2021
4896 Clouds 30 1015 71 10000 1.34 118 16:47 06.11.2021
4897 Clouds 28 1016 74 10000 1.34 71 15:21 06.11.2021
4898 Clouds 25 1015 87 10000 0.89 1 13:38 06.11.2021
4899 Clouds 25 1015 88 10000 0.89 341 12:28 06.11.2021
4900 Clouds 24 1014 88 10000 0.45 343 09:33 06.11.2021
4901 Clouds 25 1014 89 10000 1.6 331 07:55 06.11.2021
4902 Clear 24 1015 87 10000 1.28 4 02:40 06.11.2021
4903 Clouds 28 1013 76 10000 0.45 128 23:38 05.11.2021
4904 Clouds 29 1013 73 10000 0.89 124 22:39 05.11.2021
4905 Clouds 30 1013 70 10000 0.89 131 21:50 05.11.2021
4906 Clouds 31 1013 67 10000 1.34 152 20:20 05.11.2021
4907 Clouds 31 1013 67 10000 1.79 153 19:48 05.11.2021
4908 Clouds 30 1014 69 10000 1.34 100 18:40 05.11.2021
4909 Clouds 30 1015 73 10000 1.79 133 17:28 05.11.2021
4910 Clouds 28 1016 78 10000 1.34 88 15:43 05.11.2021
4911 Clouds 25 1015 86 10000 1.34 354 13:38 05.11.2021
4912 Clouds 25 1013 84 10000 1.34 336 11:27 05.11.2021
4913 Clouds 25 1012 85 10000 0.89 1 08:40 05.11.2021
4914 Clouds 25 1013 85 10000 1.34 357 07:39 05.11.2021
4915 Clouds 26 1014 83 10000 0.89 344 05:32 05.11.2021
4916 Clouds 26 1014 84 10000 0.89 344 02:26 05.11.2021
4917 Clouds 25 1013 84 10000 1.34 340 00:51 05.11.2021
4918 Clouds 26 1013 82 10000 1.79 335 23:23 04.11.2021
4919 Clouds 25 1013 89 8000 1.79 338 22:19 04.11.2021
4920 Clouds 25 1012 85 8000 1.79 26 21:35 04.11.2021
4921 Clouds 25 1012 87 7000 1.34 15 20:41 04.11.2021
4922 Clouds 25 1012 87 7000 2.24 43 20:21 04.11.2021
4923 Clouds 28 1013 78 10000 2.68 32 19:44 04.11.2021
4924 Clouds 31 1013 65 10000 1.34 134 18:44 04.11.2021
4925 Clouds 31 1014 67 10000 2.24 122 17:48 04.11.2021
4926 Clouds 31 1015 69 10000 1.34 89 16:47 04.11.2021
4927 Clouds 27 1015 81 10000 1.79 353 14:38 04.11.2021
4928 Clouds 24 1015 90 10000 2.17 352 12:32 04.11.2021
4929 Clouds 24 1013 92 10000 2.4 344 09:31 04.11.2021
4930 Clouds 26 1013 84 10000 0.89 349 08:30 04.11.2021
4931 Clouds 26 1013 84 10000 0.89 337 07:34 04.11.2021
4932 Clouds 25 1013 87 10000 1.79 346 23:59 03.11.2021
4933 Clouds 26 1013 86 7000 1.79 23 22:50 03.11.2021
4934 Clouds 27 1012 76 10000 1.79 32 21:48 03.11.2021
4935 Clouds 28 1012 74 10000 1.79 48 21:25 03.11.2021
4936 Clouds 28 1012 77 10000 0.89 83 20:34 03.11.2021
4937 Clouds 26 1014 80 8000 0 0 19:47 03.11.2021
4938 Clouds 27 1014 78 8000 1.79 270 18:55 03.11.2021
4939 Clouds 28 1014 72 8000 1.34 172 18:19 03.11.2021
4940 Clouds 29 1014 72 7000 2.24 123 17:34 03.11.2021
4941 Clouds 29 1015 71 10000 2.24 77 16:18 03.11.2021
4942 Clouds 29 1016 74 10000 2.24 64 15:42 03.11.2021
4943 Clouds 25 1015 85 10000 1.79 339 13:49 03.11.2021
4944 Clear 25 1013 82 10000 0.89 358 11:39 03.11.2021
4945 Clear 23 1014 91 10000 2.7 341 10:53 03.11.2021
4946 Clear 23 1013 91 10000 2.58 339 10:18 03.11.2021
4947 Clear 23 1013 91 10000 2.7 337 09:29 03.11.2021
4948 Clear 23 1013 91 10000 2.86 335 08:22 03.11.2021
4949 Clear 23 1013 91 10000 2.86 335 07:38 03.11.2021
4950 Clear 23 1015 92 10000 2.26 337 04:24 03.11.2021
4951 Clear 25 1015 92 10000 2.21 347 01:45 03.11.2021
4952 Clouds 27 1012 78 10000 1.34 59 23:33 02.11.2021
4953 Clouds 29 1012 74 9141 1.34 69 22:29 02.11.2021
4954 Clouds 31 1012 64 10000 0.89 164 20:54 02.11.2021
4955 Clouds 32 1012 63 10000 1.34 159 20:23 02.11.2021
4956 Clouds 32 1013 63 10000 1.34 153 19:46 02.11.2021
4957 Clouds 32 1013 57 10000 1.79 58 18:43 02.11.2021
4958 Clouds 31 1014 59 10000 2.24 42 17:57 02.11.2021
4959 Clouds 31 1014 59 10000 1.34 87 17:31 02.11.2021
4960 Clouds 30 1015 68 10000 1.34 59 16:27 02.11.2021
4961 Clouds 28 1016 77 10000 2.68 59 14:58 02.11.2021
4962 Clouds 26 1016 85 10000 1.34 357 13:50 02.11.2021
4963 Clouds 24 1015 89 10000 0 0 13:26 02.11.2021
4964 Clouds 25 1015 87 10000 1.34 340 12:28 02.11.2021
4965 Clouds 25 1014 85 10000 0.89 348 11:28 02.11.2021
4966 Clouds 25 1014 85 10000 1.34 337 10:50 02.11.2021
4967 Clouds 25 1014 85 10000 1.34 332 10:23 02.11.2021
4968 Clouds 26 1014 83 10000 0.89 349 08:25 02.11.2021
4969 Clouds 23 1015 93 10000 2.18 351 06:32 02.11.2021
4970 Clouds 26 1017 83 10000 2.21 358 03:32 02.11.2021
4971 Clouds 25 1014 89 8000 0 0 00:55 02.11.2021
4972 Clouds 29 1013 74 6000 1.79 124 22:25 01.11.2021
4973 Clouds 32 1013 65 10000 1.34 160 20:47 01.11.2021
4974 Clouds 32 1013 64 10000 1.79 161 20:27 01.11.2021
4975 Clouds 32 1014 64 10000 1.34 144 19:43 01.11.2021
4976 Clouds 31 1015 64 10000 1.79 139 18:54 01.11.2021
4977 Clouds 31 1015 68 10000 1.79 171 17:56 01.11.2021
4978 Clear 31 1016 67 10000 1.79 158 16:58 01.11.2021
4979 Clear 31 1016 68 10000 1.34 66 16:32 01.11.2021
4980 Clouds 30 1017 68 10000 1.34 53 15:39 01.11.2021
4981 Clear 29 1017 67 10000 2.24 49 15:19 01.11.2021
4982 Clouds 28 1017 75 10000 1.79 71 14:38 01.11.2021
4983 Clouds 28 1017 76 10000 1.34 42 14:19 01.11.2021
4984 Clear 26 1015 81 10000 1.34 340 12:41 01.11.2021
4985 Clear 26 1015 81 10000 0.89 314 11:39 01.11.2021
4986 Clear 26 1014 81 10000 0.89 335 10:20 01.11.2021
4987 Clear 23 1014 88 10000 1.69 3 08:20 01.11.2021
4988 Clear 23 1014 88 10000 1.69 3 07:46 01.11.2021
4989 Clear 23 1016 82 10000 1.34 335 03:55 01.11.2021
4990 Clear 24 1016 80 10000 0.49 323 01:44 01.11.2021
4991 Clouds 29 1013 71 10000 0.45 119 23:30 31.10.2021
4992 Clouds 32 1013 60 10000 1.34 131 20:58 31.10.2021
4993 Clouds 32 1013 63 10000 1.34 133 19:49 31.10.2021
4994 Clouds 31 1014 67 10000 1.34 147 18:43 31.10.2021
4995 Clouds 31 1014 68 10000 1.34 151 17:59 31.10.2021
4996 Clouds 30 1015 70 10000 1.34 107 16:28 31.10.2021
4997 Clouds 26 1015 81 10000 1.34 50 14:41 31.10.2021
4998 Clear 27 1014 79 10000 0.45 305 12:55 31.10.2021
4999 Clear 25 1013 83 10000 0.45 350 11:42 31.10.2021
5000 Clear 25 1013 83 10000 0.45 350 11:42 31.10.2021
5001 Clear 25 1013 82 10000 0.89 338 10:48 31.10.2021
5002 Clear 26 1012 80 10000 0.45 339 09:26 31.10.2021
5003 Clear 26 1012 82 10000 0.45 353 08:44 31.10.2021
5004 Clear 28 1014 76 10000 0.45 173 02:26 31.10.2021
5005 Clouds 29 1011 73 10000 1.34 182 23:54 30.10.2021
5006 Clouds 31 1011 64 10000 1.34 172 21:50 30.10.2021
5007 Clouds 31 1011 65 10000 1.79 166 21:26 30.10.2021
5008 Clouds 29 1012 73 10000 1.34 88 19:40 30.10.2021
5009 Clouds 29 1013 73 10000 1.34 252 17:49 30.10.2021
5010 Clouds 26 1014 80 10000 1.34 24 15:41 30.10.2021
5011 Clouds 25 1013 85 10000 0.89 344 13:59 30.10.2021
5012 Clouds 25 1013 85 10000 0.89 356 13:38 30.10.2021
5013 Clouds 24 1013 87 10000 0.89 340 13:20 30.10.2021
5014 Clouds 24 1012 85 10000 0.89 343 11:49 30.10.2021
5015 Clouds 24 1012 85 10000 0.89 341 10:44 30.10.2021
5016 Clear 23 1013 87 10000 1.34 340 08:57 30.10.2021
5017 Clear 26 1013 83 10000 0.89 344 07:56 30.10.2021
5018 Clear 22 1014 82 10000 1.08 321 05:46 30.10.2021
5019 Clear 25 1014 78 10000 1.02 216 02:59 30.10.2021
5020 Clouds 29 1012 72 10000 0.89 156 23:21 29.10.2021
5021 Clouds 30 1012 67 10000 1.34 165 22:34 29.10.2021
5022 Clouds 29 1012 67 10000 1.34 146 20:59 29.10.2021
5023 Clouds 29 1012 69 10000 1.79 145 20:32 29.10.2021
5024 Clouds 28 1013 74 10000 0.89 194 19:18 29.10.2021
5025 Clouds 29 1014 76 10000 0.89 154 17:28 29.10.2021
5026 Clouds 27 1014 79 10000 0.45 204 15:26 29.10.2021
5027 Clouds 25 1013 86 10000 1.34 88 12:30 29.10.2021
5028 Clouds 26 1013 86 10000 0.45 2 10:46 29.10.2021
5029 Clouds 27 1013 80 10000 1.23 149 09:27 29.10.2021
5030 Clouds 28 1013 83 10000 0 0 00:55 29.10.2021
5031 Clouds 29 1013 71 10000 1.34 167 23:47 28.10.2021
5032 Clouds 31 1013 65 10000 1.34 163 22:21 28.10.2021
5033 Clouds 31 1013 66 10000 1.79 167 20:57 28.10.2021
5034 Clouds 31 1014 68 10000 1.34 182 19:52 28.10.2021
5035 Clouds 31 1014 68 10000 1.34 182 19:52 28.10.2021
5036 Clouds 31 1014 69 10000 1.79 168 18:36 28.10.2021
5037 Clouds 30 1015 72 10000 0.89 163 17:27 28.10.2021
5038 Clouds 28 1016 84 10000 0.45 148 16:37 28.10.2021
5039 Clouds 25 1015 88 10000 0.89 289 14:40 28.10.2021
5040 Clouds 25 1014 87 10000 0.45 252 13:32 28.10.2021
5041 Clouds 26 1014 85 10000 0.45 9 12:49 28.10.2021
5042 Clouds 26 1014 83 10000 0.45 305 11:37 28.10.2021
5043 Clouds 27 1013 81 10000 0.45 178 10:23 28.10.2021
5044 Clouds 23 1013 85 10000 1.32 247 09:36 28.10.2021
5045 Clouds 27 1014 84 10000 1.46 236 08:36 28.10.2021
5046 Clouds 25 1014 84 10000 1.52 236 07:41 28.10.2021
5047 Clouds 29 1014 76 10000 0.89 158 01:37 28.10.2021
5048 Clouds 30 1013 70 10000 1.34 146 22:47 27.10.2021
5049 Clouds 30 1013 70 10000 1.34 179 21:52 27.10.2021
5050 Clouds 30 1013 68 10000 1.79 150 21:18 27.10.2021
5051 Clouds 30 1013 72 10000 0.89 190 20:40 27.10.2021
5052 Clouds 30 1014 70 10000 0.89 147 19:45 27.10.2021
5053 Clouds 30 1014 71 10000 0.89 150 18:55 27.10.2021
5054 Clouds 29 1015 73 10000 1.34 209 17:39 27.10.2021
5055 Clouds 29 1015 76 10000 0.89 173 16:25 27.10.2021
5056 Clouds 27 1015 80 10000 0.89 20 15:24 27.10.2021
5057 Clouds 25 1014 85 10000 0.89 341 14:20 27.10.2021
5058 Clouds 23 1013 89 10000 0.74 300 11:18 27.10.2021
5059 Clouds 23 1013 89 10000 0.74 300 10:36 27.10.2021
5060 Clouds 27 1013 80 10000 0.45 354 09:21 27.10.2021
5061 Clouds 27 1013 79 10000 0.89 301 07:39 27.10.2021
5062 Clouds 24 1014 85 10000 1.03 225 05:38 27.10.2021
5063 Clouds 30 1013 74 10000 0 0 01:21 27.10.2021
5064 Clouds 30 1013 70 10000 0 0 00:54 27.10.2021
5065 Clouds 31 1013 62 10000 5.14 180 23:52 26.10.2021
5066 Clouds 31 1013 65 10000 1.34 152 22:44 26.10.2021
5067 Clouds 31 1013 65 10000 1.34 155 22:21 26.10.2021
5068 Clouds 31 1014 65 10000 1.79 154 21:32 26.10.2021
5069 Clouds 31 1015 70 10000 1.34 136 19:48 26.10.2021
5070 Clouds 31 1015 69 10000 1.34 147 18:54 26.10.2021
5071 Clouds 31 1016 70 10000 1.79 116 17:58 26.10.2021
5072 Clouds 27 1017 83 10000 0.45 291 15:49 26.10.2021
5073 Clouds 25 1015 86 10000 0.89 315 12:55 26.10.2021
5074 Clouds 26 1014 86 10000 0.45 5 10:54 26.10.2021
5075 Clouds 26 1015 87 10000 0.45 329 08:24 26.10.2021
5076 Clouds 26 1015 87 10000 0.45 337 07:22 26.10.2021
5077 Rain 26 1014 86 8000 0.89 344 00:19 26.10.2021
5078 Thunderstorm 26 1014 90 7000 1.34 297 23:36 25.10.2021
5079 Clouds 28 1014 81 8000 1.34 15 22:29 25.10.2021
5080 Clouds 29 1014 79 7000 1.79 112 21:42 25.10.2021
5081 Clouds 30 1015 73 10000 2.24 106 20:28 25.10.2021
5082 Clouds 31 1015 68 10000 1.34 120 19:43 25.10.2021
5083 Clouds 31 1015 66 10000 1.34 151 19:22 25.10.2021
5084 Clouds 31 1016 64 10000 1.79 115 18:38 25.10.2021
5085 Clouds 30 1017 69 10000 1.79 43 17:26 25.10.2021
5086 Clouds 26 1017 85 10000 1.34 8 14:48 25.10.2021
5087 Clouds 26 1016 82 10000 0.89 25 12:31 25.10.2021
5088 Clouds 26 1016 79 10000 0.89 346 10:47 25.10.2021
5089 Clouds 26 1016 78 10000 0.89 334 08:58 25.10.2021
5090 Clouds 26 1017 79 10000 1.34 336 06:28 25.10.2021
5091 Clouds 26 1017 79 10000 1.34 336 06:28 25.10.2021
5092 Clouds 26 1017 79 10000 1.34 336 06:28 25.10.2021
5093 Clouds 24 1018 88 10000 2.2 356 04:35 25.10.2021
5094 Clouds 30 1015 66 10000 3.6 160 00:51 25.10.2021
5095 Clouds 29 1015 69 10000 0.89 116 00:33 25.10.2021
5096 Clouds 32 1015 58 10000 2.06 160 23:33 24.10.2021
5097 Clouds 31 1015 63 10000 1.34 176 22:38 24.10.2021
5098 Clouds 31 1015 62 10000 1.34 165 22:19 24.10.2021
5099 Clouds 31 1015 61 10000 1.34 162 20:57 24.10.2021
5100 Clouds 31 1015 61 10000 1.34 138 20:32 24.10.2021
5101 Clouds 31 1016 62 10000 1.34 126 19:36 24.10.2021
5102 Clouds 30 1017 66 10000 2.24 116 18:29 24.10.2021
5103 Clouds 30 1017 70 10000 2.24 118 17:43 24.10.2021
5104 Clouds 27 1018 78 10000 1.34 47 15:56 24.10.2021
5105 Clouds 26 1017 81 10000 0.89 67 14:41 24.10.2021
5106 Clouds 26 1016 78 10000 0.89 22 12:58 24.10.2021
5107 Clouds 24 1015 89 10000 1.97 344 11:44 24.10.2021
5108 Clouds 24 1015 90 10000 2.15 334 10:56 24.10.2021
5109 Clouds 26 1014 79 10000 1.34 7 10:00 24.10.2021
5110 Clouds 26 1015 81 10000 0.45 326 07:47 24.10.2021
5111 Clouds 27 1014 85 10000 1.57 109 01:21 24.10.2021
5112 Clouds 30 1013 70 10000 4.12 180 23:47 23.10.2021
5113 Clouds 30 1013 68 10000 2.24 114 22:18 23.10.2021
5114 Clouds 30 1014 67 10000 3.13 120 20:36 23.10.2021
5115 Clouds 31 1015 65 10000 3.13 119 18:59 23.10.2021
5116 Clouds 31 1015 68 10000 3.13 113 18:29 23.10.2021
5117 Clouds 30 1016 66 10000 2.68 99 17:43 23.10.2021
5118 Clouds 30 1016 68 10000 2.68 91 16:23 23.10.2021
5119 Clouds 26 1016 81 10000 1.79 59 14:27 23.10.2021
5120 Clouds 26 1016 89 10000 1.57 352 03:34 23.10.2021
5121 Clouds 28 1014 78 10000 5.14 160 00:19 23.10.2021
5122 Clouds 30 1014 69 10000 1.79 122 22:53 22.10.2021
5123 Clouds 31 1014 67 10000 1.79 117 19:53 22.10.2021
5124 Clouds 31 1015 68 10000 1.34 108 18:44 22.10.2021
5125 Clouds 30 1016 70 10000 1.79 92 17:43 22.10.2021
5126 Clouds 27 1016 82 10000 1.34 52 15:25 22.10.2021
5127 Clouds 26 1016 88 7990 0.89 6 13:48 22.10.2021
5128 Clouds 25 1015 88 1455 0.89 338 11:18 22.10.2021
5129 Clouds 25 1014 88 1455 0.89 319 10:38 22.10.2021
5130 Clouds 25 1014 88 2466 0.89 326 09:56 22.10.2021
5131 Clouds 26 1015 88 9261 0.89 42 08:36 22.10.2021
5132 Clouds 27 1016 85 10000 0.89 54 07:22 22.10.2021
5133 Clouds 28 1016 82 10000 0.89 12 02:57 22.10.2021
5134 Clouds 28 1014 78 10000 1.34 132 23:54 21.10.2021
5135 Clouds 29 1014 78 10000 0.45 146 23:29 21.10.2021
5136 Clouds 31 1013 70 10000 3.13 118 21:50 21.10.2021
5137 Clouds 31 1014 71 10000 2.24 118 20:28 21.10.2021
5138 Clouds 31 1015 70 10000 1.79 111 19:58 21.10.2021
5139 Clouds 31 1015 69 10000 1.34 133 19:28 21.10.2021
5140 Clouds 31 1016 70 10000 1.79 91 18:45 21.10.2021
5141 Clouds 31 1017 60 10000 1.34 109 17:54 21.10.2021
5142 Clouds 30 1017 61 10000 1.34 123 17:32 21.10.2021
5143 Clouds 30 1017 61 10000 1.34 123 17:32 21.10.2021
5144 Clouds 28 1017 80 10000 1.34 67 15:34 21.10.2021
5145 Clouds 27 1016 86 10000 1.34 5 14:57 21.10.2021
5146 Clouds 26 1016 86 10000 1.34 32 14:37 21.10.2021
5147 Clouds 26 1015 86 10000 0.89 336 12:51 21.10.2021
5148 Clouds 25 1014 87 10000 0.89 339 09:58 21.10.2021
5149 Clouds 25 1014 86 10000 0.89 331 08:21 21.10.2021
5150 Clouds 25 1015 84 10000 0.89 340 07:23 21.10.2021
5151 Clouds 25 1016 91 10000 1.79 353 03:24 21.10.2021
5152 Clouds 29 1014 78 8000 0.89 63 23:25 20.10.2021
5153 Clouds 30 1013 75 8000 0.89 134 21:51 20.10.2021
5154 Clouds 30 1013 76 8000 1.79 68 21:28 20.10.2021
5155 Clouds 31 1014 70 10000 0.89 61 20:46 20.10.2021
5156 Clouds 31 1014 68 10000 1.79 67 20:26 20.10.2021
5157 Clouds 30 1014 74 10000 0.89 94 19:32 20.10.2021
5158 Clouds 31 1015 67 10000 0.89 97 18:49 20.10.2021
5159 Clouds 31 1016 70 10000 1.34 53 17:40 20.10.2021
5160 Clouds 29 1017 80 10000 1.34 1 15:26 20.10.2021
5161 Clouds 26 1014 84 10000 1.34 342 10:23 20.10.2021
5162 Clouds 27 1015 83 10000 1.34 351 07:43 20.10.2021
5163 Clouds 26 1015 97 6718 2.2 334 02:41 20.10.2021
5164 Clouds 29 1013 79 10000 0 0 00:34 20.10.2021
5165 Clouds 29 1013 76 10000 0.45 94 23:32 19.10.2021
5166 Clouds 29 1012 77 10000 0.45 79 21:40 19.10.2021
5167 Clouds 32 1012 66 10000 1.34 143 20:36 19.10.2021
5168 Clouds 32 1012 66 10000 1.79 135 20:18 19.10.2021
5169 Clouds 31 1013 68 10000 1.79 125 19:37 19.10.2021
5170 Clouds 31 1014 72 10000 1.79 120 18:45 19.10.2021
5171 Clouds 31 1015 70 10000 0.89 72 17:52 19.10.2021
5172 Clouds 29 1015 77 10000 1.34 51 15:30 19.10.2021
5173 Clouds 26 1015 86 10000 1.34 358 14:44 19.10.2021
5174 Clouds 27 1014 86 10000 1.79 2 13:56 19.10.2021
5175 Clouds 26 1013 85 10000 0.89 342 12:24 19.10.2021
5176 Clouds 26 1013 86 10000 1.34 342 11:30 19.10.2021
5177 Clouds 27 1013 84 10000 0.89 339 09:55 19.10.2021
5178 Clouds 27 1012 83 10000 0.89 328 08:57 19.10.2021
5179 Clouds 26 1013 81 10000 1.34 352 02:38 19.10.2021
5180 Thunderstorm 27 1012 85 4000 1.79 61 00:20 19.10.2021
5181 Clouds 29 1011 75 8000 5.14 160 23:41 18.10.2021
5182 Clouds 31 1011 71 10000 1.34 161 22:57 18.10.2021
5183 Clouds 31 1011 69 10000 1.34 161 22:30 18.10.2021
5184 Clouds 32 1011 64 10000 1.79 139 20:53 18.10.2021
5185 Clouds 32 1011 65 10000 1.79 141 20:30 18.10.2021
5186 Clouds 32 1012 66 10000 1.79 149 19:41 18.10.2021
5187 Clouds 32 1012 65 10000 1.34 153 19:20 18.10.2021
5188 Clouds 30 1014 71 10000 1.34 321 16:59 18.10.2021
5189 Clouds 26 1013 84 10000 1.79 353 14:57 18.10.2021
5190 Clouds 26 1012 83 10000 1.34 331 12:28 18.10.2021
5191 Clouds 26 1012 80 10000 0.89 333 10:25 18.10.2021
5192 Clouds 26 1012 80 10000 0.89 330 09:25 18.10.2021
5193 Clouds 29 1012 78 10000 0.45 184 01:23 18.10.2021
5194 Clouds 30 1012 75 10000 0.89 184 23:20 17.10.2021
5195 Clouds 32 1011 69 10000 1.34 165 21:45 17.10.2021
5196 Clouds 32 1011 69 10000 1.79 147 20:58 17.10.2021
5197 Clouds 32 1012 68 10000 1.34 133 20:26 17.10.2021
5198 Clouds 32 1012 67 10000 1.34 146 19:38 17.10.2021
5199 Clouds 31 1013 74 10000 1.79 142 18:44 17.10.2021
5200 Clouds 30 1014 75 10000 1.34 120 16:57 17.10.2021
5201 Clouds 26 1014 86 10000 0.89 70 14:42 17.10.2021
5202 Clouds 26 1014 87 10000 0.45 346 14:23 17.10.2021
5203 Clouds 26 1013 86 10000 0.89 347 13:34 17.10.2021
5204 Clouds 26 1012 86 10000 0.89 330 11:54 17.10.2021
5205 Clouds 26 1012 86 10000 0.89 330 11:54 17.10.2021
5206 Clouds 27 1012 84 10000 0.45 321 10:20 17.10.2021
5207 Clouds 25 1012 93 10000 1.41 336 09:22 17.10.2021
5208 Clouds 27 1013 82 10000 0.45 348 06:56 17.10.2021
5209 Clouds 29 1011 77 10000 0.45 197 00:50 17.10.2021
5210 Clouds 30 1011 74 10000 1.34 174 23:43 16.10.2021
5211 Clouds 31 1010 71 10000 1.79 154 21:29 16.10.2021
5212 Clouds 32 1011 66 10000 1.34 171 20:30 16.10.2021
5213 Clouds 32 1011 66 10000 0.89 158 19:43 16.10.2021
5214 Clouds 32 1012 65 10000 1.34 160 19:21 16.10.2021
5215 Clouds 32 1012 67 10000 1.34 148 18:47 16.10.2021
5216 Clouds 32 1012 67 10000 1.34 125 18:29 16.10.2021
5217 Clouds 31 1013 68 10000 1.34 145 17:53 16.10.2021
5218 Clouds 31 1012 69 10000 0.89 139 17:21 16.10.2021
5219 Clouds 27 1012 84 10000 0.89 10 13:59 16.10.2021
5220 Clouds 26 1011 88 10000 1.34 345 11:26 16.10.2021
5221 Clouds 27 1010 88 10000 0.89 4 09:48 16.10.2021
5222 Clouds 27 1012 90 10000 0.45 98 06:50 16.10.2021
5223 Clouds 27 1010 84 10000 0.45 159 01:24 16.10.2021
5224 Clouds 27 1010 84 10000 0.45 159 01:24 16.10.2021
5225 Clouds 30 1009 74 10000 0 0 23:40 15.10.2021
5226 Clouds 30 1009 71 10000 1.34 199 22:22 15.10.2021
5227 Clouds 29 1009 76 6000 1.79 179 21:51 15.10.2021
5228 Clouds 29 1009 74 6000 1.34 204 21:21 15.10.2021
5229 Clouds 32 1009 63 8000 2.24 185 20:45 15.10.2021
5230 Clouds 32 1010 64 10000 1.34 164 19:23 15.10.2021
5231 Clouds 32 1011 66 10000 2.24 111 18:38 15.10.2021
5232 Clouds 30 1012 70 10000 1.34 4 16:27 15.10.2021
5233 Clouds 28 1011 78 10000 1.34 324 15:22 15.10.2021
5234 Clouds 25 1011 94 10000 2.19 340 12:31 15.10.2021
5235 Clouds 25 1010 94 10000 1.43 9 11:20 15.10.2021
5236 Clouds 25 1010 94 10000 1.43 9 10:42 15.10.2021
5237 Clouds 26 1009 92 10000 1.93 331 08:57 15.10.2021
5238 Clouds 28 1010 83 10000 1.34 250 05:31 15.10.2021
5239 Clouds 29 1009 77 10000 1.79 224 00:38 15.10.2021
5240 Clouds 30 1008 69 10000 1.34 185 23:45 14.10.2021
5241 Clouds 31 1008 69 10000 0.89 181 22:49 14.10.2021
5242 Clouds 32 1008 64 10000 1.34 188 21:43 14.10.2021
5243 Clouds 32 1009 61 10000 0.89 143 20:23 14.10.2021
5244 Clouds 31 1010 68 10000 1.34 148 19:52 14.10.2021
5245 Clouds 31 1011 70 10000 0.89 122 18:50 14.10.2021
5246 Clouds 28 1012 79 10000 0.45 349 17:25 14.10.2021
5247 Clouds 26 1012 86 8000 0.45 334 16:46 14.10.2021
5248 Clouds 26 1012 84 10000 0.45 316 15:22 14.10.2021
5249 Clouds 25 1011 87 10000 0.45 307 14:40 14.10.2021
5250 Clouds 26 1011 83 10000 0.45 345 13:35 14.10.2021
5251 Clouds 26 1009 85 10000 1.34 328 11:40 14.10.2021
5252 Clouds 26 1009 85 10000 0.45 337 09:50 14.10.2021
5253 Clouds 26 1010 85 10000 0.89 333 06:46 14.10.2021
5254 Clouds 27 1011 81 10000 1.79 306 00:52 14.10.2021
5255 Clouds 30 1010 76 8000 0.45 188 22:47 13.10.2021
5256 Clouds 31 1009 75 10000 1.34 172 21:37 13.10.2021
5257 Clouds 30 1010 77 10000 1.79 187 20:46 13.10.2021
5258 Clouds 31 1010 70 10000 1.79 154 19:46 13.10.2021
5259 Clouds 31 1011 73 10000 1.34 190 18:49 13.10.2021
5260 Clouds 31 1011 73 10000 1.34 190 18:49 13.10.2021
5261 Clouds 30 1012 74 10000 1.34 246 17:35 13.10.2021
5262 Clouds 26 1012 89 10000 0.89 282 15:21 13.10.2021
5263 Clouds 25 1012 90 10000 0.45 1 14:43 13.10.2021
5264 Clouds 26 1011 88 10000 0.45 314 12:48 13.10.2021
5265 Clouds 26 1010 88 10000 0.35 237 11:51 13.10.2021
5266 Clouds 26 1010 88 10000 0.74 306 10:21 13.10.2021
5267 Clouds 26 1011 88 10000 0.45 302 07:54 13.10.2021
5268 Clouds 26 1012 89 10000 0.89 330 04:50 13.10.2021
5269 Clouds 26 1012 90 10000 0.45 304 02:22 13.10.2021
5270 Clouds 26 1011 88 7000 0.89 270 23:38 12.10.2021
5271 Clouds 28 1011 83 8000 0.45 29 22:53 12.10.2021
5272 Clouds 28 1011 83 8000 0.89 269 22:34 12.10.2021
5273 Clouds 28 1011 83 7000 0.89 193 20:55 12.10.2021
5274 Clouds 28 1011 83 7000 0.89 230 20:31 12.10.2021
5275 Thunderstorm 29 1012 79 8000 0.45 107 19:45 12.10.2021
5276 Clouds 28 1013 81 10000 0.89 160 18:26 12.10.2021
5277 Clouds 28 1014 82 10000 0.89 117 17:29 12.10.2021
5278 Clouds 27 1014 85 10000 0 0 16:24 12.10.2021
5279 Clouds 26 1013 90 8000 0.89 318 15:35 12.10.2021
5280 Clouds 26 1013 90 10000 1.34 35 13:46 12.10.2021
5281 Clouds 26 1012 90 10000 0.45 25 13:18 12.10.2021
5282 Clouds 26 1011 89 10000 0.45 103 11:30 12.10.2021
5283 Clouds 25 1012 92 10000 0.89 131 09:41 12.10.2021
5284 Clouds 25 1012 93 10000 1.34 117 08:31 12.10.2021
5285 Clouds 24 1013 93 10000 0.45 210 06:46 12.10.2021
5286 Clouds 27 1014 88 10000 0.89 74 04:49 12.10.2021
5287 Clouds 27 1013 88 10000 0.45 31 04:28 12.10.2021
5288 Clouds 27 1011 83 10000 1.34 96 23:56 11.10.2021
5289 Clouds 27 1011 83 10000 2.24 118 23:36 11.10.2021
5290 Clouds 28 1010 81 7000 2.24 90 22:51 11.10.2021
5291 Clouds 27 1011 87 4000 1.79 93 21:27 11.10.2021
5292 Clouds 28 1011 82 10000 2.24 102 20:28 11.10.2021
5293 Clouds 29 1011 79 10000 2.68 68 19:35 11.10.2021
5294 Clouds 28 1012 84 10000 1.79 155 18:23 11.10.2021
5295 Clouds 28 1012 84 10000 1.79 155 18:23 11.10.2021
5296 Clouds 28 1013 84 7000 1.79 51 16:40 11.10.2021
5297 Clouds 27 1013 86 7000 2.24 29 16:20 11.10.2021
5298 Clouds 26 1013 88 10000 2.68 51 15:44 11.10.2021
5299 Clouds 26 1013 86 10000 1.79 16 14:53 11.10.2021
5300 Clouds 27 1012 85 10000 1.79 353 14:19 11.10.2021
5301 Clouds 27 1012 81 10000 1.79 334 13:35 11.10.2021
5302 Clear 24 1011 89 10000 2.93 340 11:18 11.10.2021
5303 Clear 24 1011 89 10000 2.88 340 09:46 11.10.2021
5304 Clear 27 1012 81 10000 0.89 34 07:57 11.10.2021
5305 Clear 27 1013 83 10000 2.8 31 01:44 11.10.2021
5306 Clouds 28 1011 79 10000 1.79 77 00:57 11.10.2021
5307 Clouds 27 1011 81 10000 3.09 90 00:37 11.10.2021
5308 Clouds 31 1010 65 10000 1.79 112 22:35 10.10.2021
5309 Clouds 32 1011 63 10000 0.89 150 21:49 10.10.2021
5310 Clouds 32 1011 61 10000 1.79 158 20:57 10.10.2021
5311 Clouds 33 1011 60 10000 1.34 143 20:38 10.10.2021
5312 Clouds 33 1011 60 10000 1.34 161 20:19 10.10.2021
5313 Clouds 32 1012 63 10000 0.89 126 19:40 10.10.2021
5314 Clouds 32 1013 64 10000 1.79 115 18:55 10.10.2021
5315 Clouds 31 1013 63 10000 1.79 149 18:19 10.10.2021
5316 Mist 28 1014 77 5000 2.24 53 15:48 10.10.2021
5317 Mist 26 1014 85 5000 1.34 348 14:45 10.10.2021
5318 Mist 26 1014 85 5000 1.34 348 14:45 10.10.2021
5319 Clear 26 1013 85 10000 0.89 340 13:39 10.10.2021
5320 Clear 26 1013 83 10000 0.89 14 12:43 10.10.2021
5321 Clear 23 1013 90 10000 2.07 334 11:30 10.10.2021
5322 Clear 26 1012 82 10000 0.89 9 10:25 10.10.2021
5323 Clear 23 1013 89 10000 1.54 348 08:55 10.10.2021
5324 Clear 24 1013 90 10000 1.34 340 07:57 10.10.2021
5325 Clear 28 1013 78 10000 0.45 129 04:31 10.10.2021
5326 Clouds 28 1012 74 10000 0.45 160 01:43 10.10.2021
5327 Clouds 29 1011 70 10000 0.45 157 00:41 10.10.2021
5328 Clouds 29 1011 70 10000 0.45 157 00:41 10.10.2021
5329 Clouds 30 1011 67 10000 1.34 151 23:23 09.10.2021
5330 Clouds 32 1011 65 10000 1.34 154 21:53 09.10.2021
5331 Clouds 32 1011 65 10000 1.79 168 21:29 09.10.2021
5332 Clouds 31 1012 64 10000 1.34 129 19:50 09.10.2021
5333 Clouds 31 1012 64 10000 1.79 120 19:31 09.10.2021
5334 Clouds 31 1014 68 10000 1.79 105 18:34 09.10.2021
5335 Clouds 31 1013 69 10000 2.24 121 17:51 09.10.2021
5336 Clouds 30 1014 71 10000 1.34 82 16:19 09.10.2021
5337 Clear 27 1013 84 10000 0.89 349 13:48 09.10.2021
5338 Clear 26 1013 89 10000 1.68 345 13:25 09.10.2021
5339 Clear 26 1012 86 10000 0.45 323 11:58 09.10.2021
5340 Clear 24 1012 95 10000 1.66 343 10:43 09.10.2021
5341 Clear 24 1012 94 10000 1.49 352 09:54 09.10.2021
5342 Clear 24 1013 94 10000 1.51 357 08:33 09.10.2021
5343 Clear 25 1013 94 10000 1.26 4 07:49 09.10.2021
5344 Clear 26 1014 93 10000 1.34 2 05:55 09.10.2021
5345 Clear 26 1014 89 10000 1.09 10 04:18 09.10.2021
5346 Clear 26 1013 90 10000 0.61 7 02:43 09.10.2021
5347 Clouds 32 1012 66 10000 5.14 180 23:55 08.10.2021
5348 Clouds 31 1012 72 10000 0.89 149 23:31 08.10.2021
5349 Clouds 32 1011 67 10000 1.34 131 22:25 08.10.2021
5350 Clouds 32 1011 68 10000 2.24 113 21:35 08.10.2021
5351 Clouds 32 1013 69 7000 1.79 121 19:39 08.10.2021
5352 Clouds 32 1014 69 10000 2.24 110 17:36 08.10.2021
5353 Clouds 30 1014 70 10000 1.79 113 16:53 08.10.2021
5354 Clouds 30 1014 73 10000 1.79 68 16:24 08.10.2021
5355 Clouds 25 1012 94 10000 0 0 14:18 08.10.2021
5356 Clouds 26 1014 88 10000 2.52 349 13:36 08.10.2021
5357 Clouds 24 1012 94 10000 2.39 340 11:40 08.10.2021
5358 Clouds 25 1012 95 10000 2.48 344 10:41 08.10.2021
5359 Clouds 25 1012 94 10000 2.52 346 09:44 08.10.2021
5360 Clouds 29 1012 71 10000 2.24 54 00:34 08.10.2021
5361 Clouds 31 1011 66 10000 2.68 47 23:21 07.10.2021
5362 Clouds 33 1011 61 10000 2.68 48 21:46 07.10.2021
5363 Clouds 33 1011 60 10000 2.24 8 21:26 07.10.2021
5364 Clouds 33 1012 60 10000 1.79 29 20:22 07.10.2021
5365 Clouds 32 1013 63 10000 1.34 40 19:29 07.10.2021
5366 Clouds 32 1014 64 10000 1.34 11 18:24 07.10.2021
5367 Clouds 31 1015 67 10000 2.24 44 17:24 07.10.2021
5368 Clouds 29 1016 77 10000 1.79 15 15:50 07.10.2021
5369 Clouds 26 1015 84 10000 1.34 349 13:52 07.10.2021
5370 Clouds 26 1015 86 10000 1.34 350 13:34 07.10.2021
5371 Clouds 26 1015 85 10000 0.89 330 12:40 07.10.2021
5372 Clouds 26 1014 85 10000 1.34 3 10:52 07.10.2021
5373 Clouds 26 1014 85 10000 1.34 3 10:52 07.10.2021
5374 Clouds 26 1013 86 10000 0.89 340 10:19 07.10.2021
5375 Clouds 26 1013 85 10000 1.34 340 09:32 07.10.2021
5376 Clouds 26 1013 85 10000 1.34 349 08:41 07.10.2021
5377 Clouds 26 1014 85 10000 1.79 349 07:42 07.10.2021
5378 Clouds 26 1014 85 10000 1.34 350 06:59 07.10.2021
5379 Clouds 26 1014 88 10000 1.34 358 02:26 07.10.2021
5380 Clouds 27 1013 86 8000 1.79 359 23:55 06.10.2021
5381 Clouds 27 1012 89 8000 0.89 310 22:50 06.10.2021
5382 Clouds 27 1013 88 6000 1.79 338 21:53 06.10.2021
5383 Clouds 27 1014 83 7000 2.24 105 20:35 06.10.2021
5384 Clouds 29 1014 76 10000 2.24 56 19:48 06.10.2021
5385 Clouds 31 1015 68 10000 2.24 122 18:39 06.10.2021
5386 Clouds 30 1016 73 10000 2.24 75 16:55 06.10.2021
5387 Clouds 29 1016 76 10000 1.79 35 15:26 06.10.2021
5388 Clouds 26 1016 85 10000 1.34 342 13:55 06.10.2021
5389 Clouds 25 1015 85 10000 1.34 343 12:59 06.10.2021
5390 Clouds 25 1015 85 10000 1.34 336 12:40 06.10.2021
5391 Clouds 26 1015 85 10000 0.89 339 12:21 06.10.2021
5392 Clouds 25 1015 85 6383 1.34 337 09:59 06.10.2021
5393 Clouds 25 1014 86 6383 1.34 343 09:39 06.10.2021
5394 Clouds 25 1015 86 10000 0.89 19 08:42 06.10.2021
5395 Clouds 25 1015 87 10000 1.79 57 07:20 06.10.2021
5396 Clouds 27 1016 82 10000 1.34 31 05:26 06.10.2021
5397 Clouds 29 1013 71 10000 1.79 112 00:26 06.10.2021
5398 Clouds 30 1012 66 10000 0 0 23:57 05.10.2021
5399 Clouds 30 1012 66 10000 0 0 23:38 05.10.2021
5400 Clouds 30 1013 68 10000 2.68 108 23:19 05.10.2021
5401 Clouds 31 1012 66 10000 3.13 115 22:27 05.10.2021
5402 Clouds 31 1013 65 10000 2.68 120 21:44 05.10.2021
5403 Clouds 31 1013 68 10000 3.13 116 20:41 05.10.2021
5404 Clouds 31 1013 68 10000 3.13 119 20:22 05.10.2021
5405 Clouds 31 1014 71 8000 3.58 115 19:33 05.10.2021
5406 Clouds 31 1014 57 10000 3.58 118 18:49 05.10.2021
5407 Clouds 30 1016 75 10000 1.79 90 16:36 05.10.2021
5408 Clouds 26 1016 85 10000 2.81 28 14:30 05.10.2021
5409 Clouds 26 1014 82 10000 0.89 33 13:33 05.10.2021
5410 Clouds 26 1014 84 10000 0.89 356 12:36 05.10.2021
5411 Clouds 26 1013 85 10000 0.89 24 11:59 05.10.2021
5412 Clouds 26 1013 85 10000 0.89 21 10:39 05.10.2021
5413 Clouds 26 1013 84 10000 0.89 350 08:44 05.10.2021
5414 Clouds 26 1015 84 10000 0.89 341 03:55 05.10.2021
5415 Clouds 26 1012 87 10000 0.89 15 23:53 04.10.2021
5416 Clouds 26 1012 89 7000 1.34 356 21:58 04.10.2021
5417 Clouds 26 1013 83 7864 0 0 18:55 04.10.2021
5418 Clouds 24 1014 91 7000 0.89 41 17:59 04.10.2021
5419 Clouds 25 1015 82 10000 1.79 101 16:22 04.10.2021
5420 Clouds 24 1014 86 10000 1.34 345 15:31 04.10.2021
5421 Clouds 23 1013 93 10000 1.34 305 14:42 04.10.2021
5422 Clouds 23 1013 89 10000 0.89 4 13:48 04.10.2021
5423 Clouds 23 1013 88 10000 0.89 351 13:23 04.10.2021
5424 Clouds 24 1012 86 10000 1.79 57 11:35 04.10.2021
5425 Clouds 23 1012 88 10000 1.34 21 10:48 04.10.2021
5426 Clouds 23 1012 90 10000 1.34 321 09:48 04.10.2021
5427 Clouds 24 1013 87 10000 0.89 291 08:32 04.10.2021
5428 Clouds 23 1013 89 10000 0.89 329 06:51 04.10.2021
5429 Clouds 28 1012 91 10000 2.52 326 23:43 03.10.2021
5430 Clouds 26 1011 83 10000 5.14 200 22:33 03.10.2021
5431 Clouds 26 1011 83 10000 5.14 200 22:33 03.10.2021
5432 Clouds 27 1012 80 10000 1.79 234 21:36 03.10.2021
5433 Clouds 30 1012 88 6883 2.57 206 20:50 03.10.2021
5434 Clouds 28 1013 72 10000 1.79 117 19:54 03.10.2021
5435 Clouds 28 1014 72 10000 1.79 88 18:31 03.10.2021
5436 Clouds 26 1015 74 10000 1.34 72 17:40 03.10.2021
5437 Clouds 24 1014 71 10000 0.6 190 15:45 03.10.2021
5438 Clouds 22 1015 92 10000 1.79 292 14:39 03.10.2021
5439 Clouds 23 1015 90 10000 1.79 66 13:40 03.10.2021
5440 Clouds 23 1015 91 10000 0.45 164 13:20 03.10.2021
5441 Clouds 26 1013 80 10000 0.89 300 11:49 03.10.2021
5442 Clouds 26 1012 80 10000 0.89 342 10:33 03.10.2021
5443 Clouds 27 1013 77 10000 0.89 24 07:39 03.10.2021
5444 Clouds 28 1013 75 10000 1.34 105 00:26 03.10.2021
5445 Clouds 29 1013 74 10000 1.34 113 22:19 02.10.2021
5446 Clouds 30 1013 68 10000 2.24 111 20:35 02.10.2021
5447 Clouds 31 1015 66 10000 1.79 115 18:58 02.10.2021
5448 Clouds 31 1015 66 10000 2.24 117 18:28 02.10.2021
5449 Clouds 31 1015 67 10000 1.34 99 17:38 02.10.2021
5450 Clouds 30 1016 71 10000 1.79 114 16:40 02.10.2021
5451 Clouds 26 1015 82 10000 1.79 355 14:35 02.10.2021
5452 Clear 29 1014 73 10000 1.79 63 15:38 30.09.2021
5453 Clouds 25 1013 89 10000 0 0 14:29 30.09.2021
5454 Clouds 23 1012 91 10000 2.39 344 12:20 30.09.2021
5455 Clouds 26 1012 80 10000 0.89 346 11:25 30.09.2021
5456 Clouds 22 1012 88 10000 2.38 333 10:26 30.09.2021
5457 Clouds 24 1012 88 10000 2.39 338 08:32 30.09.2021
5458 Clouds 24 1012 88 10000 2.17 330 07:48 30.09.2021
5459 Clouds 24 1013 88 10000 2.32 328 05:25 30.09.2021
5460 Clouds 28 1012 75 10000 0.45 118 02:33 30.09.2021
5461 Thunderstorm 29 1011 76 10000 0.89 149 00:33 30.09.2021
5462 Clouds 30 1011 70 10000 0.89 190 22:42 29.09.2021
5463 Clouds 31 1011 67 10000 1.34 167 21:52 29.09.2021
5464 Clouds 32 1011 64 10000 1.34 140 20:38 29.09.2021
5465 Clouds 32 1012 64 10000 1.79 156 20:19 29.09.2021
5466 Clouds 32 1012 63 10000 1.79 158 19:22 29.09.2021
5467 Clouds 32 1013 65 10000 1.34 132 18:18 29.09.2021
5468 Clouds 30 1014 71 10000 1.34 114 16:55 29.09.2021
5469 Clouds 30 1014 73 10000 1.79 127 16:25 29.09.2021
5470 Thunderstorm 27 1013 82 10000 0.89 41 14:42 29.09.2021
5471 Thunderstorm 26 1013 83 10000 0.89 355 14:20 29.09.2021
5472 Clouds 27 1013 82 10000 0.89 5 13:32 29.09.2021
5473 Clouds 26 1013 82 10000 1.34 330 12:38 29.09.2021
5474 Clouds 24 1012 94 10000 1.24 348 11:18 29.09.2021
5475 Clouds 24 1011 95 10000 1.4 337 10:25 29.09.2021
5476 Clouds 24 1011 95 10000 1.4 337 09:39 29.09.2021
5477 Clouds 24 1012 95 10000 1.39 344 07:48 29.09.2021
5478 Clouds 25 1013 91 10000 1.19 14 05:52 29.09.2021
5479 Clouds 32 1011 65 10000 1.34 173 23:47 28.09.2021
5480 Clouds 32 1011 65 10000 2.24 145 22:25 28.09.2021
5481 Clouds 33 1011 63 10000 1.79 159 21:45 28.09.2021
5482 Clouds 33 1011 59 10000 1.79 156 20:44 28.09.2021
5483 Clouds 33 1013 64 10000 1.79 140 19:47 28.09.2021
5484 Clouds 33 1013 63 10000 1.79 169 18:53 28.09.2021
5485 Clouds 33 1013 60 10000 1.79 117 18:27 28.09.2021
5486 Clouds 31 1014 66 10000 1.34 133 16:42 28.09.2021
5487 Clouds 27 1013 83 10000 0.89 329 14:52 28.09.2021
5488 Clouds 24 1013 91 10000 1.12 12 13:22 28.09.2021
5489 Clouds 27 1013 80 10000 0.89 12 12:22 28.09.2021
5490 Clouds 27 1012 80 10000 0.89 340 11:47 28.09.2021
5491 Clouds 27 1012 80 10000 0.89 349 11:23 28.09.2021
5492 Clouds 26 1012 80 10000 0.89 346 10:21 28.09.2021
5493 Clouds 26 1012 80 10000 0.89 346 10:21 28.09.2021
5494 Clouds 26 1012 81 10000 1.34 339 09:22 28.09.2021
5495 Clouds 27 1012 80 10000 0.89 328 08:39 28.09.2021
5496 Clouds 27 1013 78 10000 0.89 55 07:49 28.09.2021
5497 Clouds 27 1014 79 10000 0.45 357 05:41 28.09.2021
5498 Clouds 29 1012 76 10000 0.89 133 01:26 28.09.2021
5499 Clouds 30 1011 73 10000 0.89 158 00:26 28.09.2021
5500 Clouds 31 1011 69 10000 0.89 168 23:42 27.09.2021
5501 Clouds 31 1011 69 10000 1.34 162 23:23 27.09.2021
5502 Clouds 32 1011 65 10000 1.34 162 22:19 27.09.2021
5503 Clouds 33 1012 59 10000 1.34 159 20:45 27.09.2021
5504 Clouds 32 1013 62 10000 1.34 134 19:57 27.09.2021
5505 Clouds 32 1013 61 10000 1.34 127 19:29 27.09.2021
5506 Clouds 31 1013 65 10000 1.79 115 18:52 27.09.2021
5507 Clouds 31 1014 66 10000 1.34 127 17:33 27.09.2021
5508 Clouds 30 1015 71 10000 1.79 112 16:51 27.09.2021
5509 Clouds 29 1015 74 10000 1.34 125 15:45 27.09.2021
5510 Clouds 27 1014 78 10000 0 0 15:27 27.09.2021
5511 Clouds 24 1015 89 10000 1.67 352 13:34 27.09.2021
5512 Clouds 25 1014 95 10000 1.87 344 11:59 27.09.2021
5513 Clouds 25 1014 95 10000 2.02 348 10:38 27.09.2021
5514 Clouds 25 1014 95 10000 2.28 346 09:28 27.09.2021
5515 Clouds 28 1015 82 10000 0.89 79 06:30 27.09.2021
5516 Clouds 26 1015 85 10000 1.04 25 03:25 27.09.2021
5517 Clouds 32 1012 65 10000 2.24 184 22:39 26.09.2021
5518 Clouds 32 1012 62 10000 1.79 165 21:53 26.09.2021
5519 Clouds 32 1012 63 10000 1.79 148 21:26 26.09.2021
5520 Clouds 33 1013 64 10000 1.79 138 20:23 26.09.2021
5521 Clouds 32 1014 61 10000 1.34 164 19:52 26.09.2021
5522 Clouds 32 1014 68 10000 1.34 142 18:48 26.09.2021
5523 Clear 31 1015 70 10000 1.79 161 17:57 26.09.2021
5524 Clear 32 1015 67 10000 1.34 167 17:36 26.09.2021
5525 Clear 31 1015 66 10000 1.79 113 17:18 26.09.2021
5526 Clouds 31 1015 69 10000 1.34 122 16:21 26.09.2021
5527 Clouds 29 1015 76 10000 1.79 115 15:22 26.09.2021
5528 Clouds 27 1015 86 10000 1.28 3 13:57 26.09.2021
5529 Clouds 24 1015 86 10000 1.31 345 13:29 26.09.2021
5530 Clouds 27 1014 84 10000 0.89 15 12:25 26.09.2021
5531 Clouds 27 1014 83 10000 0.45 340 11:42 26.09.2021
5532 Clouds 27 1013 82 10000 0.45 39 10:37 26.09.2021
5533 Clouds 27 1014 81 10000 0.45 342 09:21 26.09.2021
5534 Clouds 25 1014 84 10000 1.39 336 07:56 26.09.2021
5535 Clouds 29 1013 74 10000 1.34 189 00:28 26.09.2021
5536 Clouds 31 1012 68 10000 1.79 182 23:33 25.09.2021
5537 Clouds 32 1012 66 10000 1.79 178 22:38 25.09.2021
5538 Clouds 32 1012 65 10000 1.79 153 21:56 25.09.2021
5539 Clouds 32 1012 67 10000 1.79 175 21:33 25.09.2021
5540 Clouds 32 1013 68 10000 2.24 149 20:51 25.09.2021
5541 Clouds 32 1013 67 10000 1.34 138 19:32 25.09.2021
5542 Clouds 31 1014 68 10000 1.79 172 18:26 25.09.2021
5543 Clouds 30 1015 73 10000 0.89 151 16:28 25.09.2021
5544 Clouds 28 1015 84 10000 0.89 336 13:58 25.09.2021
5545 Clouds 27 1014 84 10000 0.89 23 13:33 25.09.2021
5546 Clouds 27 1014 87 10000 0.45 13 12:28 25.09.2021
5547 Clouds 27 1013 88 10000 0.89 337 10:36 25.09.2021
5548 Clouds 26 1013 87 10000 0.89 297 09:45 25.09.2021
5549 Clouds 26 1013 88 10000 0.89 200 08:29 25.09.2021
5550 Clouds 25 1015 95 10000 1.64 327 07:20 25.09.2021
5551 Clouds 30 1012 79 10000 0.89 166 00:49 25.09.2021
5552 Clouds 33 1012 66 10000 1.79 178 21:54 24.09.2021
5553 Clouds 32 1012 67 10000 1.79 182 20:49 24.09.2021
5554 Clouds 32 1012 70 10000 2.68 186 19:58 24.09.2021
5555 Clouds 32 1013 69 10000 1.34 156 18:35 24.09.2021
5556 Clouds 32 1014 68 10000 1.34 175 17:55 24.09.2021
5557 Clouds 32 1014 68 10000 1.79 192 17:37 24.09.2021
5558 Clouds 32 1014 68 10000 1.34 167 17:18 24.09.2021
5559 Clouds 27 1013 84 10000 0.45 25 14:34 24.09.2021
5560 Clouds 27 1013 82 10000 0.89 357 13:18 24.09.2021
5561 Clouds 27 1012 84 10000 0.45 322 12:40 24.09.2021
5562 Clouds 27 1012 84 10000 0.89 336 12:22 24.09.2021
5563 Clouds 24 1012 90 10000 1.03 341 10:27 24.09.2021
5564 Clouds 27 1012 81 10000 0.89 3 08:55 24.09.2021
5565 Clouds 24 1012 89 10000 1.27 293 07:38 24.09.2021
5566 Clouds 26 1013 88 10000 1.36 291 06:47 24.09.2021
5567 Clouds 28 1012 79 10000 1.34 229 04:58 24.09.2021
5568 Clouds 29 1010 78 10000 1.34 213 00:35 24.09.2021
5569 Clouds 30 1010 74 8000 2.24 182 22:30 23.09.2021
5570 Clouds 32 1010 66 8000 1.79 183 21:56 23.09.2021
5571 Clouds 30 1010 72 10000 1.79 178 20:34 23.09.2021
5572 Clouds 32 1011 66 8000 2.24 181 19:46 23.09.2021
5573 Clouds 31 1013 71 10000 1.34 171 17:47 23.09.2021
5574 Clouds 29 1012 76 10000 0.45 118 15:32 23.09.2021
5575 Clouds 27 1011 86 10000 0.89 351 14:59 23.09.2021
5576 Clouds 27 1010 84 10000 1.34 336 13:46 23.09.2021
5577 Clouds 27 1010 85 10000 0.45 345 13:20 23.09.2021
5578 Clouds 27 1010 86 10000 0.45 138 12:52 23.09.2021
5579 Clouds 24 1011 92 10000 0.77 301 12:22 23.09.2021
5580 Clouds 24 1011 92 10000 0.77 301 12:22 23.09.2021
5581 Clouds 27 1010 83 10000 0.45 139 11:32 23.09.2021
5582 Clouds 27 1010 82 10000 0.76 279 10:25 23.09.2021
5583 Clouds 27 1010 81 10000 0.45 316 09:52 23.09.2021
5584 Clouds 27 1011 79 10000 0.45 289 08:21 23.09.2021
5585 Clouds 28 1011 82 10000 0.89 267 03:50 23.09.2021
5586 Clouds 30 1008 70 10000 1.79 225 23:24 22.09.2021
5587 Clouds 31 1009 68 10000 1.79 191 22:29 22.09.2021
5588 Clouds 32 1008 65 10000 1.34 181 21:53 22.09.2021
5589 Clouds 32 1008 66 10000 2.24 162 21:33 22.09.2021
5590 Clouds 32 1010 65 10000 1.79 157 20:39 22.09.2021
5591 Clouds 32 1010 66 10000 1.34 149 19:29 22.09.2021
5592 Clouds 31 1011 69 10000 1.79 164 18:37 22.09.2021
5593 Clouds 32 1012 64 10000 1.34 14 17:43 22.09.2021
5594 Clouds 31 1012 69 10000 1.79 33 16:37 22.09.2021
5595 Clouds 27 1012 85 10000 1.34 347 14:55 22.09.2021
5596 Clouds 28 1012 80 10000 0.89 347 13:48 22.09.2021
5597 Clouds 27 1011 82 10000 0.89 5 11:41 22.09.2021
5598 Clouds 27 1011 84 10000 0.45 311 10:37 22.09.2021
5599 Clouds 27 1011 84 10000 0.89 336 08:57 22.09.2021
5600 Clouds 27 1012 85 10000 0.89 348 07:50 22.09.2021
5601 Clouds 27 1012 85 10000 1.34 349 06:57 22.09.2021
5602 Clouds 27 1013 85 10000 1.79 358 05:51 22.09.2021
5603 Clouds 27 1013 85 10000 0.89 10 05:31 22.09.2021
5604 Clouds 28 1012 85 10000 1.34 355 03:43 22.09.2021
5605 Clouds 28 1010 83 10000 0.45 43 00:20 22.09.2021
5606 Clouds 30 1011 76 10000 1.34 107 22:49 21.09.2021
5607 Clouds 31 1011 70 10000 3.13 83 21:31 21.09.2021
5608 Clouds 32 1011 68 10000 2.68 26 19:42 21.09.2021
5609 Clouds 32 1012 67 10000 1.79 24 19:20 21.09.2021
5610 Clouds 31 1013 71 10000 2.68 31 16:59 21.09.2021
5611 Clouds 31 1013 71 10000 2.68 36 16:29 21.09.2021
5612 Clouds 29 1013 79 10000 2.24 350 15:35 21.09.2021
5613 Clouds 27 1013 86 10000 2.68 9 14:56 21.09.2021
5614 Clouds 27 1012 81 10000 2.24 2 13:40 21.09.2021
5615 Clouds 27 1012 82 10000 1.79 343 13:19 21.09.2021
5616 Clouds 23 1012 89 10000 3.43 347 11:21 21.09.2021
5617 Clouds 25 1012 89 10000 3.33 344 09:55 21.09.2021
5618 Clouds 24 1012 90 10000 3.71 346 07:59 21.09.2021
5619 Clear 25 1013 90 10000 3.22 344 06:38 21.09.2021
5620 Clouds 27 1011 85 10000 3.49 3 23:58 20.09.2021
5621 Clouds 32 1010 62 10000 6.17 360 22:18 20.09.2021
5622 Clouds 31 1010 62 10000 6.17 360 21:36 20.09.2021
5623 Clouds 29 1011 74 10000 5.14 360 20:29 20.09.2021
5624 Clouds 29 1012 74 10000 5.14 60 19:28 20.09.2021
5625 Clouds 31 1013 65 10000 2.24 31 17:40 20.09.2021
5626 Clouds 30 1014 67 10000 2.68 8 16:33 20.09.2021
5627 Clouds 29 1013 74 10000 1.34 339 15:49 20.09.2021
5628 Clouds 29 1013 75 10000 2.24 359 15:22 20.09.2021
5629 Clouds 27 1013 78 10000 1.34 1 13:43 20.09.2021
5630 Clouds 26 1013 81 10000 0.89 348 12:35 20.09.2021
5631 Clouds 26 1012 81 10000 1.34 357 11:23 20.09.2021
5632 Clouds 24 1012 93 10000 2.97 344 09:57 20.09.2021
5633 Clouds 26 1012 83 10000 1.34 345 09:36 20.09.2021
5634 Clouds 24 1012 93 10000 2.97 339 08:58 20.09.2021
5635 Clear 26 1013 82 10000 1.34 357 06:51 20.09.2021
5636 Clouds 29 1011 79 10000 0.45 116 23:45 19.09.2021
5637 Clouds 24 1010 53 10000 5.24 93 22:21 19.09.2021
5638 Clouds 33 1012 62 10000 5.14 30 21:39 19.09.2021
5639 Clouds 33 1012 61 10000 1.34 9 20:34 19.09.2021
5640 Clouds 32 1013 63 10000 2.24 56 19:18 19.09.2021
5641 Clouds 31 1014 65 10000 1.79 18 18:26 19.09.2021
5642 Clouds 30 1014 67 10000 1.79 35 17:22 19.09.2021
5643 Clouds 28 1015 75 10000 2.68 27 15:52 19.09.2021
5644 Clouds 27 1014 80 10000 2.24 10 14:50 19.09.2021
5645 Clouds 26 1014 80 10000 1.79 358 14:29 19.09.2021
5646 Clouds 26 1014 82 10000 1.34 348 13:19 19.09.2021
5647 Clouds 26 1013 82 10000 1.34 347 12:45 19.09.2021
5648 Clouds 26 1013 83 10000 2.24 352 11:27 19.09.2021
5649 Clouds 26 1012 82 10000 2.24 1 10:21 19.09.2021
5650 Clear 24 1012 91 10000 3.07 340 09:28 19.09.2021
5651 Rain 25 1014 91 10000 3.04 346 07:29 19.09.2021
5652 Clear 25 1015 85 10000 3 357 04:21 19.09.2021
5653 Clouds 31 1013 68 10000 1.34 112 23:34 18.09.2021
5654 Clouds 32 1012 65 10000 1.79 118 21:58 18.09.2021
5655 Clouds 32 1012 65 10000 1.79 118 21:58 18.09.2021
5656 Clouds 32 1013 66 10000 1.34 186 20:48 18.09.2021
5657 Clouds 32 1013 64 10000 1.34 109 20:26 18.09.2021
5658 Clouds 32 1014 61 10000 1.79 54 19:38 18.09.2021
5659 Clouds 32 1014 61 10000 1.79 51 19:20 18.09.2021
5660 Clouds 32 1015 63 10000 1.79 73 18:31 18.09.2021
5661 Clouds 31 1016 65 10000 2.68 67 17:23 18.09.2021
5662 Clouds 30 1016 72 10000 1.79 45 15:46 18.09.2021
5663 Clouds 27 1015 80 10000 1.34 344 13:46 18.09.2021
5664 Clouds 24 1015 94 10000 2.7 338 13:25 18.09.2021
5665 Clouds 26 1015 82 10000 1.34 9 12:24 18.09.2021
5666 Clouds 26 1015 81 10000 0.89 357 11:36 18.09.2021
5667 Clouds 24 1014 95 10000 2.79 344 10:31 18.09.2021
5668 Clouds 24 1014 95 10000 2.67 347 09:25 18.09.2021
5669 Clouds 25 1015 95 10000 2.61 349 08:29 18.09.2021
5670 Clouds 28 1015 79 10000 2.24 13 00:55 18.09.2021
5671 Clouds 27 1015 85 10000 0.45 136 23:56 17.09.2021
5672 Clouds 27 1015 90 10000 0.89 116 23:32 17.09.2021
5673 Clouds 29 1015 80 10000 3.13 103 22:25 17.09.2021
5674 Clouds 32 1015 67 10000 1.79 113 21:45 17.09.2021
5675 Clouds 33 1016 61 10000 2.24 33 19:53 17.09.2021
5676 Clouds 32 1017 64 10000 2.24 64 18:43 17.09.2021
5677 Clouds 31 1018 69 10000 2.24 39 16:47 17.09.2021
5678 Clouds 29 1018 77 10000 1.34 17 15:25 17.09.2021
5679 Clouds 26 1017 84 10000 1.34 342 11:53 17.09.2021
5680 Clouds 26 1016 83 10000 1.34 5 10:24 17.09.2021
5681 Clouds 27 1017 81 10000 0.89 355 07:49 17.09.2021
5682 Clouds 28 1018 78 10000 0.89 358 06:27 17.09.2021
5683 Clouds 28 1016 77 10000 1.34 7 00:33 17.09.2021
5684 Clouds 30 1016 71 8000 1.79 114 22:42 16.09.2021
5685 Clouds 30 1016 70 8000 2.24 112 22:24 16.09.2021
5686 Clouds 32 1016 66 10000 1.34 116 21:36 16.09.2021
5687 Clouds 32 1016 67 10000 2.24 151 20:30 16.09.2021
5688 Clouds 31 1017 73 10000 1.34 144 18:52 16.09.2021
5689 Clouds 31 1017 74 10000 2.24 165 18:18 16.09.2021
5690 Clouds 30 1018 76 10000 2.24 117 16:47 16.09.2021
5691 Clouds 26 1017 90 10000 1.79 69 14:49 16.09.2021
5692 Clouds 27 1016 85 10000 0.89 1 13:34 16.09.2021
5693 Clouds 26 1015 86 10000 1.34 355 12:45 16.09.2021
5694 Clear 26 1015 85 10000 0.89 14 11:50 16.09.2021
5695 Clear 26 1015 85 10000 0.89 13 10:56 16.09.2021
5696 Clear 26 1015 84 10000 0.89 338 10:22 16.09.2021
5697 Clear 27 1015 83 10000 0.45 24 09:20 16.09.2021
5698 Clouds 26 1016 83 10000 0.89 354 07:52 16.09.2021
5699 Clouds 26 1016 85 10000 0.89 359 06:57 16.09.2021
5700 Clouds 26 1016 86 10000 1.79 336 06:38 16.09.2021
5701 Clouds 27 1015 82 10000 1.34 20 03:22 16.09.2021
5702 Clouds 27 1014 87 6000 0.45 59 00:53 16.09.2021
5703 Clouds 28 1014 85 7000 0.89 15 23:26 15.09.2021
5704 Clouds 31 1013 72 10000 2.68 118 22:28 15.09.2021
5705 Clouds 32 1013 73 10000 2.68 110 21:31 15.09.2021
5706 Clouds 32 1013 71 10000 1.79 136 20:42 15.09.2021
5707 Clouds 32 1014 73 10000 1.34 118 19:33 15.09.2021
5708 Clouds 31 1015 71 10000 1.34 161 18:41 15.09.2021
5709 Clouds 31 1016 75 10000 1.79 135 17:39 15.09.2021
5710 Clouds 30 1015 74 10000 0.89 133 16:29 15.09.2021
5711 Clouds 26 1014 88 10000 0.89 297 14:59 15.09.2021
5712 Clouds 25 1014 89 10000 1.34 347 14:40 15.09.2021
5713 Clouds 27 1014 79 10000 0.89 5 13:45 15.09.2021
5714 Clouds 26 1014 80 10000 0.89 24 13:26 15.09.2021
5715 Clouds 26 1013 82 10000 0.89 346 12:29 15.09.2021
5716 Clouds 26 1013 80 10000 0.89 337 11:50 15.09.2021
5717 Clouds 26 1013 78 10000 0.45 339 10:57 15.09.2021
5718 Clouds 27 1013 75 10000 0.89 307 09:59 15.09.2021
5719 Clouds 23 1013 91 10000 0.72 325 08:46 15.09.2021
5720 Clouds 27 1014 77 10000 1.34 344 06:28 15.09.2021
5721 Clouds 30 1011 66 10000 3.09 160 00:41 15.09.2021
5722 Clouds 31 1012 68 10000 1.79 141 22:22 14.09.2021
5723 Clouds 32 1012 65 10000 1.79 160 21:19 14.09.2021
5724 Clouds 31 1013 67 10000 2.24 154 19:58 14.09.2021
5725 Clouds 31 1014 69 10000 1.79 170 18:40 14.09.2021
5726 Clouds 30 1015 66 10000 1.34 158 17:29 14.09.2021
5727 Clouds 28 1015 75 10000 1.34 70 15:59 14.09.2021
5728 Clouds 26 1015 83 10000 1.34 334 14:32 14.09.2021
5729 Clouds 25 1015 83 10000 2.15 347 13:33 14.09.2021
5730 Clouds 24 1014 93 10000 2.1 338 10:57 14.09.2021
5731 Clear 24 1013 93 10000 1.86 343 09:52 14.09.2021
5732 Clear 24 1014 93 10000 1.59 347 09:18 14.09.2021
5733 Clear 27 1014 80 10000 1.34 351 07:28 14.09.2021
5734 Clouds 30 1014 70 10000 1.79 51 00:56 14.09.2021
5735 Clouds 31 1013 66 10000 1.34 112 22:58 13.09.2021
5736 Clouds 31 1013 64 10000 1.79 107 22:26 13.09.2021
5737 Clouds 33 1014 62 10000 1.79 143 21:54 13.09.2021
5738 Clouds 33 1015 61 10000 1.79 167 20:58 13.09.2021
5739 Clouds 33 1015 63 10000 1.34 149 19:34 13.09.2021
5740 Clouds 32 1016 63 10000 1.79 114 18:43 13.09.2021
5741 Clouds 30 1017 71 10000 1.79 29 16:58 13.09.2021
5742 Clouds 28 1017 78 10000 2.24 359 15:50 13.09.2021
5743 Clouds 26 1016 81 10000 1.79 355 13:36 13.09.2021
5744 Clouds 26 1015 83 10000 1.34 6 11:21 13.09.2021
5745 Clouds 26 1015 80 10000 0.89 352 09:54 13.09.2021
5746 Clouds 26 1016 79 10000 1.34 359 07:30 13.09.2021
5747 Clouds 27 1017 74 10000 1.34 344 23:50 12.09.2021
5748 Clouds 26 1016 77 8000 1.34 355 22:26 12.09.2021
5749 Clouds 24 1016 86 8000 2.68 334 21:43 12.09.2021
5750 Clouds 23 1017 94 7000 5.14 40 20:40 12.09.2021
5751 Clouds 25 1018 80 10000 2.68 29 19:54 12.09.2021
5752 Clouds 25 1018 80 10000 2.68 29 19:54 12.09.2021
5753 Clouds 26 1018 85 10000 2.24 44 19:28 12.09.2021
5754 Clouds 31 1017 65 10000 1.79 94 18:31 12.09.2021
5755 Clouds 30 1018 74 10000 4.12 360 16:33 12.09.2021
5756 Clouds 28 1017 78 10000 2.24 3 14:59 12.09.2021
5757 Clouds 24 1018 89 10000 2.68 350 13:51 12.09.2021
5758 Clouds 23 1017 95 10000 2.59 344 11:47 12.09.2021
5759 Clouds 23 1016 95 10000 2.7 336 09:41 12.09.2021
5760 Clear 24 1017 95 10000 2.67 341 08:38 12.09.2021
5761 Clear 28 1018 88 10000 2.89 8 02:56 12.09.2021
5762 Clouds 31 1015 65 10000 2.24 40 23:52 11.09.2021
5763 Clouds 31 1015 59 10000 1.79 34 22:25 11.09.2021
5764 Thunderstorm 31 1015 64 10000 1.79 352 21:36 11.09.2021
5765 Clouds 33 1015 62 10000 3.09 30 19:32 11.09.2021
5766 Clouds 32 1017 65 10000 1.34 121 17:52 11.09.2021
5767 Clouds 30 1018 71 10000 2.24 56 15:52 11.09.2021
5768 Clear 28 1017 80 10000 1.79 348 13:52 11.09.2021
5769 Clear 23 1017 90 10000 2.45 342 13:18 11.09.2021
5770 Clear 24 1016 91 10000 2.11 344 11:20 11.09.2021
5771 Clear 24 1015 91 10000 2.06 339 09:40 11.09.2021
5772 Clear 25 1016 92 10000 1.85 346 07:45 11.09.2021
5773 Clouds 25 1016 91 10000 1.82 350 06:52 11.09.2021
5774 Clouds 31 1014 68 10000 0.89 152 23:38 10.09.2021
5775 Clouds 32 1014 65 10000 1.79 131 22:25 10.09.2021
5776 Clouds 32 1013 62 10000 1.79 148 21:54 10.09.2021
5777 Clouds 33 1014 63 10000 1.79 147 20:24 10.09.2021
5778 Clouds 31 1016 64 10000 2.24 102 18:27 10.09.2021
5779 Clouds 31 1016 68 10000 1.79 119 16:54 10.09.2021
5780 Clouds 27 1016 79 10000 1.34 45 14:49 10.09.2021
5781 Clouds 24 1016 96 10000 1.63 350 12:22 10.09.2021
5782 Clouds 24 1015 96 10000 1.81 339 08:48 10.09.2021
5783 Clouds 25 1015 95 10000 1.81 347 07:50 10.09.2021
5784 Clouds 29 1014 75 10000 0.45 110 02:27 10.09.2021
5785 Clouds 32 1013 67 10000 2.24 166 22:31 09.09.2021
5786 Clouds 32 1013 66 10000 1.79 156 21:45 09.09.2021
5787 Clouds 33 1013 64 10000 2.24 162 20:46 09.09.2021
5788 Clouds 32 1014 64 10000 1.79 119 19:54 09.09.2021
5789 Clouds 32 1016 64 10000 1.79 170 18:31 09.09.2021
5790 Clouds 30 1016 72 10000 1.34 125 16:40 09.09.2021
5791 Clouds 29 1015 75 10000 1.34 75 15:36 09.09.2021
5792 Clear 23 1015 93 10000 1.47 352 12:53 09.09.2021
5793 Clear 24 1014 95 10000 1.5 355 11:45 09.09.2021
5794 Clouds 24 1014 94 10000 1.3 341 09:50 09.09.2021
5795 Clear 24 1014 93 10000 1.02 340 08:47 09.09.2021
5796 Clear 25 1015 89 10000 0.95 8 06:26 09.09.2021
5797 Clear 28 1014 86 10000 1.07 165 02:19 09.09.2021
5798 Clouds 32 1013 67 10000 2.24 165 22:40 08.09.2021
5799 Clouds 32 1013 66 10000 2.24 173 21:23 08.09.2021
5800 Clouds 33 1014 63 10000 1.79 151 19:56 08.09.2021
5801 Clouds 32 1015 66 10000 1.79 126 18:58 08.09.2021
5802 Clouds 32 1015 65 10000 1.79 150 18:29 08.09.2021
5803 Clouds 32 1016 66 10000 1.34 153 17:55 08.09.2021
5804 Clouds 30 1016 71 10000 1.34 60 16:28 08.09.2021
5805 Clouds 27 1015 82 10000 1.34 353 14:23 08.09.2021
5806 Clear 27 1014 82 10000 1.34 18 12:43 08.09.2021
5807 Clear 27 1014 82 10000 0.89 331 12:25 08.09.2021
5808 Clear 27 1014 82 10000 1.34 341 11:29 08.09.2021
5809 Clear 23 1014 92 10000 1.72 346 10:33 08.09.2021
5810 Clear 24 1014 92 10000 1.77 337 09:59 08.09.2021
5811 Clear 24 1014 91 10000 2.26 335 07:55 08.09.2021
5812 Clear 24 1014 91 10000 2.26 335 07:32 08.09.2021
5813 Clear 27 1016 84 10000 2.14 17 03:41 08.09.2021
5814 Clouds 33 1012 62 10000 1.34 166 22:38 07.09.2021
5815 Clouds 33 1013 61 10000 1.79 156 21:46 07.09.2021
5816 Clouds 32 1014 69 10000 1.79 149 19:47 07.09.2021
5817 Clouds 32 1015 65 10000 1.79 121 18:40 07.09.2021
5818 Clouds 32 1015 66 10000 1.79 105 17:47 07.09.2021
5819 Clouds 30 1015 74 10000 1.79 52 15:59 07.09.2021
5820 Clouds 29 1015 76 10000 1.79 34 15:35 07.09.2021
5821 Clouds 27 1014 83 10000 1.34 337 14:38 07.09.2021
5822 Clear 26 1014 83 10000 1.34 1 12:38 07.09.2021
5823 Clear 26 1014 83 10000 1.34 353 11:33 07.09.2021
5824 Clear 26 1014 84 10000 1.34 358 10:40 07.09.2021
5825 Clouds 27 1014 83 10000 1.34 343 08:23 07.09.2021
5826 Clear 27 1015 82 10000 1.34 350 06:44 07.09.2021
5827 Clouds 28 1015 79 10000 1.34 19 04:47 07.09.2021
5828 Clouds 29 1013 74 10000 0.89 27 02:28 07.09.2021
5829 Clouds 29 1012 77 10000 0.89 107 00:23 07.09.2021
5830 Clouds 29 1012 73 7000 0.89 108 23:31 06.09.2021
5831 Clouds 31 1012 68 10000 0.45 342 22:53 06.09.2021
5832 Clouds 34 1012 62 10000 6.17 180 22:28 06.09.2021
5833 Clouds 33 1013 62 10000 1.34 151 20:37 06.09.2021
5834 Clouds 33 1014 62 10000 2.24 95 19:22 06.09.2021
5835 Clouds 33 1014 62 10000 2.24 95 19:22 06.09.2021
5836 Clouds 33 1015 63 10000 2.68 57 18:37 06.09.2021
5837 Clear 32 1015 66 10000 1.79 56 18:18 06.09.2021
5838 Clear 31 1016 68 10000 2.24 23 17:24 06.09.2021
5839 Clouds 29 1014 76 10000 2.24 41 15:37 06.09.2021
5840 Clouds 27 1015 81 10000 2.24 355 13:46 06.09.2021
5841 Clouds 27 1015 83 10000 1.34 4 12:45 06.09.2021
5842 Clear 27 1014 81 10000 1.79 353 10:40 06.09.2021
5843 Clear 24 1015 89 10000 2.02 340 07:54 06.09.2021
5844 Clear 25 1016 84 10000 1.79 10 04:43 06.09.2021
5845 Clouds 31 1013 66 10000 1.34 125 23:26 05.09.2021
5846 Clouds 32 1013 64 10000 1.34 118 22:34 05.09.2021
5847 Clouds 32 1013 64 10000 1.79 137 21:57 05.09.2021
5848 Clouds 32 1013 63 10000 1.79 135 21:21 05.09.2021
5849 Clouds 32 1014 67 10000 1.34 125 19:48 05.09.2021
5850 Clouds 31 1015 70 10000 1.34 147 18:32 05.09.2021
5851 Clouds 30 1016 70 10000 1.79 129 17:22 05.09.2021
5852 Clouds 28 1015 80 10000 1.79 10 15:24 05.09.2021
5853 Clouds 27 1014 82 10000 1.34 359 13:40 05.09.2021
5854 Clouds 24 1014 91 10000 1.8 348 11:45 05.09.2021
5855 Clouds 24 1014 89 10000 1.58 347 10:46 05.09.2021
5856 Clouds 28 1014 81 10000 0.89 343 09:42 05.09.2021
5857 Clouds 25 1014 86 10000 1.49 328 08:35 05.09.2021
5858 Clouds 26 1015 87 10000 1.18 326 06:33 05.09.2021
5859 Clouds 30 1013 73 10000 0.89 164 00:42 05.09.2021
5860 Clouds 31 1013 70 10000 0.89 157 23:59 04.09.2021
5861 Clouds 31 1012 69 10000 0.89 146 23:25 04.09.2021
5862 Clouds 31 1012 68 10000 1.79 144 22:35 04.09.2021
5863 Clouds 32 1012 69 10000 1.79 155 21:18 04.09.2021
5864 Clouds 32 1013 70 10000 1.79 130 19:33 04.09.2021
5865 Clouds 31 1015 72 10000 1.79 102 17:25 04.09.2021
5866 Clouds 29 1015 77 10000 2.24 90 15:41 04.09.2021
5867 Clouds 24 1014 85 10000 1.9 335 11:54 04.09.2021
5868 Clouds 27 1013 83 10000 1.34 342 10:55 04.09.2021
5869 Clouds 25 1014 86 10000 1.62 338 08:18 04.09.2021
5870 Clouds 30 1013 74 10000 0.89 127 00:50 04.09.2021
5871 Clouds 30 1013 73 10000 0.89 155 00:19 04.09.2021
5872 Clouds 31 1013 70 10000 1.79 109 23:21 03.09.2021
5873 Clouds 31 1013 74 10000 2.24 160 21:43 03.09.2021
5874 Clouds 32 1014 66 10000 1.34 194 20:58 03.09.2021
5875 Clouds 32 1014 66 10000 1.79 141 20:30 03.09.2021
5876 Clouds 32 1014 68 10000 1.79 134 19:38 03.09.2021
5877 Clouds 31 1015 72 10000 1.79 132 18:27 03.09.2021
5878 Clouds 31 1015 73 10000 2.24 106 17:21 03.09.2021
5879 Clouds 29 1016 76 10000 0.89 49 15:42 03.09.2021
5880 Clouds 24 1016 94 10000 0 0 14:40 03.09.2021
5881 Clouds 23 1015 93 10000 1.52 347 11:21 03.09.2021
5882 Clouds 24 1015 94 10000 1.45 347 09:55 03.09.2021
5883 Clouds 24 1015 92 10000 1.24 345 08:18 03.09.2021
5884 Clouds 25 1015 92 10000 1.34 339 06:50 03.09.2021
5885 Clouds 30 1013 70 10000 0.89 149 23:56 02.09.2021
5886 Clouds 31 1013 71 10000 1.79 148 22:21 02.09.2021
5887 Clouds 32 1014 65 10000 2.24 150 20:51 02.09.2021
5888 Clouds 31 1015 73 10000 1.79 142 18:49 02.09.2021
5889 Clouds 30 1016 72 10000 1.34 123 16:39 02.09.2021
5890 Clouds 28 1016 81 10000 1.34 64 15:31 02.09.2021
5891 Clouds 26 1015 78 10000 1.34 334 13:33 02.09.2021
5892 Clouds 23 1015 89 10000 1.56 332 11:44 02.09.2021
5893 Clouds 23 1015 88 10000 1.32 325 11:18 02.09.2021
5894 Clouds 24 1014 86 10000 0.9 287 08:57 02.09.2021
5895 Clouds 24 1015 85 10000 0.65 254 07:28 02.09.2021
5896 Clouds 24 1015 84 10000 0.54 245 05:32 02.09.2021
5897 Clear 28 1013 75 10000 1.34 186 02:37 02.09.2021
5898 Clouds 28 1013 78 10000 4.12 160 01:49 02.09.2021
5899 Clouds 30 1013 68 10000 2.24 183 23:41 01.09.2021
5900 Clouds 31 1013 66 10000 3.13 175 22:44 01.09.2021
5901 Clouds 32 1013 65 10000 2.68 185 21:58 01.09.2021
5902 Clouds 32 1013 65 10000 1.79 164 21:29 01.09.2021
5903 Clouds 31 1014 67 10000 2.24 179 19:33 01.09.2021
5904 Clouds 31 1015 68 10000 1.34 146 17:52 01.09.2021
5905 Clouds 30 1015 72 10000 1.34 132 16:58 01.09.2021
5906 Clouds 29 1015 73 10000 1.34 143 16:35 01.09.2021
5907 Clouds 24 1015 87 10000 1.13 354 13:59 01.09.2021
5908 Clouds 26 1013 85 10000 0.89 335 11:47 01.09.2021
5909 Clouds 26 1013 78 10000 0.89 318 09:49 01.09.2021
5910 Clouds 26 1013 81 10000 0.89 311 08:19 01.09.2021
5911 Clouds 23 1014 90 10000 1.3 278 06:42 01.09.2021
5912 Clouds 29 1011 76 10000 1.34 217 23:30 31.08.2021
5913 Clouds 32 1011 69 10000 2.24 186 21:57 31.08.2021
5914 Clouds 32 1013 71 10000 2.24 195 19:49 31.08.2021
5915 Clouds 32 1013 72 10000 1.79 157 18:59 31.08.2021
5916 Clouds 31 1014 72 10000 1.34 177 17:40 31.08.2021
5917 Clouds 31 1014 72 10000 0.89 161 17:21 31.08.2021
5918 Clouds 30 1013 75 10000 0.89 182 16:28 31.08.2021
5919 Clouds 28 1013 77 10000 0.45 265 15:25 31.08.2021
5920 Clouds 22 1013 91 10000 1.38 344 11:46 31.08.2021
5921 Clouds 22 1012 91 10000 1.42 345 11:18 31.08.2021
5922 Clouds 23 1012 91 10000 1.42 345 10:42 31.08.2021
5923 Clouds 23 1012 91 10000 1.33 351 09:41 31.08.2021
5924 Clouds 24 1012 88 10000 1.6 8 07:39 31.08.2021
5925 Clouds 26 1013 87 10000 1.61 359 05:56 31.08.2021
5926 Clouds 31 1011 68 10000 1.34 129 23:36 30.08.2021
5927 Clouds 32 1011 68 10000 1.34 151 22:30 30.08.2021
5928 Clouds 32 1011 65 10000 1.34 125 21:35 30.08.2021
5929 Clouds 33 1012 63 10000 0.89 140 20:40 30.08.2021
5930 Clouds 33 1013 59 10000 1.79 55 19:32 30.08.2021
5931 Clouds 32 1013 61 10000 1.79 42 18:58 30.08.2021
5932 Clouds 31 1014 65 10000 2.68 68 17:49 30.08.2021
5933 Clouds 30 1014 71 10000 3.58 52 16:26 30.08.2021
5934 Clouds 29 1014 77 10000 2.24 25 15:40 30.08.2021
5935 Clouds 27 1014 80 10000 1.34 353 13:55 30.08.2021
5936 Clouds 24 1014 93 10000 2.05 354 12:54 30.08.2021
5937 Clouds 25 1014 94 10000 2.28 355 10:42 30.08.2021
5938 Clear 28 1015 85 10000 1.08 13 03:24 30.08.2021
5939 Clouds 33 1014 62 10000 1.34 129 21:33 29.08.2021
5940 Clouds 34 1014 59 10000 2.24 69 20:45 29.08.2021
5941 Clouds 33 1015 60 10000 2.24 35 19:26 29.08.2021
5942 Clouds 32 1017 66 10000 2.24 27 17:58 29.08.2021
5943 Clouds 29 1017 76 10000 1.79 11 15:50 29.08.2021
5944 Clouds 27 1017 85 10000 1.79 354 14:25 29.08.2021
5945 Clouds 27 1018 83 10000 1.79 5 13:47 29.08.2021
5946 Clouds 25 1017 93 10000 2.61 355 12:41 29.08.2021
5947 Clouds 25 1017 94 10000 2.52 351 11:53 29.08.2021
5948 Clouds 25 1016 94 10000 2.74 350 11:28 29.08.2021
5949 Clouds 25 1016 94 10000 2.74 350 10:46 29.08.2021
5950 Clouds 25 1016 94 10000 2.6 350 10:27 29.08.2021
5951 Clouds 25 1016 94 10000 2.5 344 09:21 29.08.2021
5952 Clouds 32 1013 74 10000 4.12 60 00:40 29.08.2021
5953 Clouds 34 1015 69 10000 1.34 124 21:58 28.08.2021
5954 Clouds 33 1015 68 10000 1.34 141 20:30 28.08.2021
5955 Clouds 32 1016 69 10000 1.79 158 18:51 28.08.2021
5956 Clouds 32 1016 68 10000 1.79 110 18:21 28.08.2021
5957 Clouds 32 1017 70 10000 1.79 99 17:27 28.08.2021
5958 Clouds 29 1016 79 10000 1.79 76 15:57 28.08.2021
5959 Clouds 27 1016 86 10000 1.79 48 14:42 28.08.2021
5960 Clear 28 1017 82 10000 0.89 44 13:46 28.08.2021
5961 Clear 27 1016 82 10000 0.89 8 12:44 28.08.2021
5962 Clear 24 1016 91 10000 1.61 355 11:55 28.08.2021
5963 Clear 25 1016 90 10000 1.93 348 10:42 28.08.2021
5964 Clear 27 1016 81 10000 1.34 351 08:41 28.08.2021
5965 Clouds 25 1016 88 10000 2.49 330 07:24 28.08.2021
5966 Clouds 31 1013 66 10000 2.24 114 22:42 27.08.2021
5967 Clouds 31 1013 65 10000 1.79 115 21:19 27.08.2021
5968 Clouds 32 1014 64 10000 1.34 144 20:30 27.08.2021
5969 Clouds 31 1015 70 10000 1.34 124 18:58 27.08.2021
5970 Clouds 31 1015 69 10000 1.79 148 18:37 27.08.2021
5971 Clouds 30 1016 70 10000 1.79 123 17:18 27.08.2021
5972 Clouds 28 1015 76 10000 1.79 69 15:46 27.08.2021
5973 Clouds 27 1015 79 10000 1.79 34 14:43 27.08.2021
5974 Clouds 26 1014 82 10000 1.79 338 12:33 27.08.2021
5975 Clouds 23 1014 94 10000 1.79 336 11:25 27.08.2021
5976 Clouds 23 1014 94 10000 1.79 336 10:43 27.08.2021
5977 Clouds 23 1014 94 10000 1.24 8 09:31 27.08.2021
5978 Clouds 23 1014 93 10000 1.1 5 08:44 27.08.2021
5979 Clouds 24 1014 92 10000 1.17 24 06:37 27.08.2021
5980 Clouds 27 1015 88 10000 0.58 344 03:48 27.08.2021
5981 Clouds 31 1013 66 10000 5.14 180 00:33 27.08.2021
5982 Clouds 32 1013 65 10000 1.34 162 22:41 26.08.2021
5983 Clouds 32 1012 64 10000 1.79 149 22:18 26.08.2021
5984 Clouds 31 1013 66 10000 1.79 142 20:35 26.08.2021
5985 Clouds 31 1014 72 10000 2.68 109 18:50 26.08.2021
5986 Clouds 30 1015 74 10000 2.68 117 17:44 26.08.2021
5987 Clouds 29 1015 77 10000 1.79 72 16:33 26.08.2021
5988 Clouds 28 1015 79 10000 2.24 68 15:54 26.08.2021
5989 Clouds 27 1014 81 10000 0.89 327 13:44 26.08.2021
5990 Clouds 26 1013 83 10000 0.89 337 12:50 26.08.2021
5991 Clouds 26 1013 83 10000 0.89 1 12:24 26.08.2021
5992 Clouds 24 1013 92 10000 2.26 348 09:43 26.08.2021
5993 Clouds 24 1013 91 10000 2.02 357 08:34 26.08.2021
5994 Clouds 27 1013 87 10000 0.41 54 02:32 26.08.2021
5995 Clouds 31 1011 66 10000 1.79 129 22:48 25.08.2021
5996 Clouds 31 1012 67 10000 1.34 138 22:29 25.08.2021
5997 Clouds 32 1012 64 10000 2.24 124 21:25 25.08.2021
5998 Clouds 31 1012 67 10000 2.68 102 20:44 25.08.2021
5999 Clouds 31 1012 67 10000 2.24 94 20:25 25.08.2021
6000 Clouds 31 1013 66 10000 2.68 118 18:32 25.08.2021
6001 Clouds 31 1014 68 10000 2.24 108 17:19 25.08.2021
6002 Clouds 29 1013 75 10000 2.24 61 15:42 25.08.2021
6003 Clouds 28 1013 83 10000 1.34 50 14:47 25.08.2021
6004 Clouds 27 1012 81 10000 1.79 13 13:59 25.08.2021
6005 Clouds 27 1011 82 10000 1.34 15 12:53 25.08.2021
6006 Clouds 27 1011 81 10000 1.34 20 11:25 25.08.2021
6007 Clouds 25 1012 87 10000 2.29 340 10:26 25.08.2021
6008 Clouds 25 1012 87 10000 2.29 340 09:42 25.08.2021
6009 Clouds 25 1012 86 10000 2.28 338 08:39 25.08.2021
6010 Clouds 25 1012 89 10000 2.16 338 07:32 25.08.2021
6011 Clouds 29 1010 76 10000 1.79 68 01:26 25.08.2021
6012 Clouds 30 1010 74 10000 4.12 30 23:40 24.08.2021
6013 Clouds 33 1011 62 8000 5.14 360 21:41 24.08.2021
6014 Clouds 34 1012 59 10000 5.14 360 20:23 24.08.2021
6015 Clouds 33 1013 62 10000 5.14 360 19:44 24.08.2021
6016 Clouds 32 1014 66 10000 5.14 360 17:56 24.08.2021
6017 Clouds 32 1014 66 10000 5.14 360 17:22 24.08.2021
6018 Clouds 30 1013 74 10000 5.14 360 16:24 24.08.2021
6019 Clouds 24 1013 79 10000 3.83 343 13:55 24.08.2021
6020 Clouds 25 1013 82 10000 3.63 338 12:45 24.08.2021
6021 Clouds 25 1012 82 10000 3.62 343 11:24 24.08.2021
6022 Clouds 25 1012 82 10000 3.62 343 10:47 24.08.2021
6023 Clouds 25 1012 83 10000 3.54 343 09:55 24.08.2021
6024 Clouds 26 1013 80 10000 3.39 358 07:42 24.08.2021
6025 Clouds 26 1014 77 10000 4.23 347 05:57 24.08.2021
6026 Clear 28 1014 77 10000 1.79 10 03:47 24.08.2021
6027 Clouds 31 1012 65 10000 3.13 41 23:54 23.08.2021
6028 Clouds 32 1011 63 10000 4.02 49 22:50 23.08.2021
6029 Clouds 33 1012 63 10000 2.68 40 21:36 23.08.2021
6030 Clouds 33 1013 61 10000 3.58 53 20:23 23.08.2021
6031 Clouds 32 1014 65 10000 3.58 67 18:28 23.08.2021
6032 Clouds 30 1015 73 10000 2.68 59 16:25 23.08.2021
6033 Clouds 27 1014 81 10000 1.79 10 13:57 23.08.2021
6034 Clouds 26 1013 84 10000 1.34 2 12:33 23.08.2021
6035 Clouds 26 1013 85 10000 1.79 357 10:52 23.08.2021
6036 Clouds 27 1013 84 10000 1.79 9 10:26 23.08.2021
6037 Clouds 27 1014 85 10000 2.24 359 08:58 23.08.2021
6038 Clouds 27 1014 84 10000 1.34 359 07:43 23.08.2021
6039 Clouds 27 1015 84 10000 1.79 355 06:42 23.08.2021
6040 Clouds 27 1015 82 10000 1.34 7 04:22 23.08.2021
6041 Clouds 25 1013 88 10000 1.34 335 00:46 23.08.2021
6042 Clouds 25 1013 89 8000 0.89 303 22:42 22.08.2021
6043 Clouds 29 1014 89 6000 5.14 160 21:30 22.08.2021
6044 Clouds 30 1014 73 8000 1.34 66 20:19 22.08.2021
6045 Clouds 32 1014 67 10000 3.13 63 18:33 22.08.2021
6046 Clouds 31 1015 72 10000 2.24 56 16:22 22.08.2021
6047 Clouds 28 1015 83 10000 1.79 4 14:54 22.08.2021
6048 Clouds 28 1014 82 10000 1.34 12 13:50 22.08.2021
6049 Clouds 27 1014 83 10000 1.34 11 13:19 22.08.2021
6050 Clouds 27 1014 84 10000 1.34 7 12:48 22.08.2021
6051 Clouds 27 1014 84 10000 1.34 2 11:45 22.08.2021
6052 Clouds 27 1013 83 10000 1.79 18 11:20 22.08.2021
6053 Clouds 28 1013 82 10000 1.34 2 08:44 22.08.2021
6054 Clouds 28 1014 82 10000 1.34 7 07:53 22.08.2021
6055 Clouds 27 1015 94 10000 2.41 7 04:32 22.08.2021
6056 Clouds 30 1012 76 8000 1.34 124 22:37 21.08.2021
6057 Clouds 31 1012 65 10000 1.34 128 21:40 21.08.2021
6058 Clouds 30 1014 69 10000 3.58 107 18:55 21.08.2021
6059 Clouds 30 1014 68 10000 3.13 116 18:37 21.08.2021
6060 Clouds 30 1015 74 10000 2.24 92 16:58 21.08.2021
6061 Clouds 30 1015 75 10000 1.79 91 16:32 21.08.2021
6062 Clouds 28 1015 78 10000 1.79 54 15:39 21.08.2021
6063 Clouds 28 1014 79 10000 1.34 36 15:21 21.08.2021
6064 Clouds 27 1013 84 10000 1.34 5 13:36 21.08.2021
6065 Clouds 26 1013 85 10000 0.89 31 12:39 21.08.2021
6066 Clouds 26 1012 86 10000 0.89 10 10:54 21.08.2021
6067 Clouds 26 1013 88 10000 1.34 349 07:53 21.08.2021
6068 Thunderstorm 26 1012 88 10000 1.79 4 00:44 21.08.2021
6069 Thunderstorm 27 1012 87 10000 0.45 119 22:28 20.08.2021
6070 Thunderstorm 29 1013 81 10000 2.24 359 19:31 20.08.2021
6071 Clouds 29 1014 75 10000 1.79 59 16:57 20.08.2021
6072 Clouds 27 1013 81 10000 1.79 357 14:34 20.08.2021
6073 Clouds 26 1012 82 10000 1.34 339 11:55 20.08.2021
6074 Clouds 26 1012 82 10000 1.34 348 11:27 20.08.2021
6075 Clouds 24 1013 94 10000 3.29 338 09:46 20.08.2021
6076 Clouds 26 1013 82 10000 2.24 355 08:57 20.08.2021
6077 Clouds 26 1013 82 10000 1.79 353 08:36 20.08.2021
6078 Clouds 27 1015 80 10000 1.34 6 04:38 20.08.2021
6079 Clouds 25 1016 89 10000 2.84 16 04:19 20.08.2021
6080 Clouds 31 1013 68 10000 1.79 96 23:26 19.08.2021
6081 Clouds 31 1013 67 10000 2.24 114 22:37 19.08.2021
6082 Clouds 32 1014 66 10000 1.79 113 21:33 19.08.2021
6083 Clouds 31 1015 68 10000 1.34 132 19:55 19.08.2021
6084 Clouds 31 1017 68 10000 1.79 76 17:29 19.08.2021
6085 Clouds 30 1017 73 10000 1.79 65 16:34 19.08.2021
6086 Clouds 26 1017 87 10000 1.34 347 14:25 19.08.2021
6087 Clouds 26 1016 83 10000 0.89 348 12:40 19.08.2021
6088 Clouds 24 1016 94 10000 2.65 347 12:18 19.08.2021
6089 Clouds 26 1015 84 10000 0.89 357 10:42 19.08.2021
6090 Clouds 26 1015 85 10000 1.34 5 09:48 19.08.2021
6091 Clouds 26 1016 85 10000 0.89 345 09:24 19.08.2021
6092 Clouds 26 1016 84 10000 1.34 354 07:46 19.08.2021
6093 Clouds 27 1017 80 10000 1.34 16 02:53 19.08.2021
6094 Clouds 27 1015 86 10000 0.89 1 01:58 19.08.2021
6095 Clouds 28 1016 71 10000 0.89 48 23:20 18.08.2021
6096 Clouds 31 1016 72 7000 2.24 122 21:43 18.08.2021
6097 Clouds 32 1016 71 7000 1.79 112 20:35 18.08.2021
6098 Clouds 31 1017 71 10000 1.79 112 19:59 18.08.2021
6099 Clouds 31 1018 74 10000 1.79 156 18:57 18.08.2021
6100 Clouds 31 1018 70 10000 1.34 162 18:32 18.08.2021
6101 Clouds 30 1018 72 10000 2.68 68 16:33 18.08.2021
6102 Clouds 29 1018 76 10000 1.34 31 15:39 18.08.2021
6103 Clouds 29 1017 77 10000 1.79 28 15:20 18.08.2021
6104 Clouds 26 1017 84 10000 1.79 355 12:44 18.08.2021
6105 Clouds 26 1017 84 10000 1.34 343 12:25 18.08.2021
6106 Clouds 24 1017 91 10000 2.83 347 11:22 18.08.2021
6107 Clouds 25 1016 90 10000 2.26 344 07:49 18.08.2021
6108 Clouds 30 1016 70 10000 3.6 150 00:45 18.08.2021
6109 Clouds 31 1015 67 10000 1.34 141 22:31 17.08.2021
6110 Clouds 32 1015 65 10000 1.79 121 21:29 17.08.2021
6111 Clouds 32 1015 66 10000 1.79 123 20:45 17.08.2021
6112 Clouds 31 1016 70 10000 2.68 121 19:19 17.08.2021
6113 Clouds 30 1017 76 10000 2.68 109 17:33 17.08.2021
6114 Clouds 29 1017 79 10000 2.24 80 16:40 17.08.2021
6115 Clouds 28 1016 82 10000 2.68 85 15:38 17.08.2021
6116 Clouds 26 1016 92 10000 1.79 62 14:29 17.08.2021
6117 Clouds 25 1015 90 10000 0.89 353 12:23 17.08.2021
6118 Clouds 24 1014 90 10000 0.89 331 09:22 17.08.2021
6119 Clouds 24 1014 91 10000 0.89 354 07:54 17.08.2021
6120 Clouds 24 1015 92 10000 1.34 340 05:48 17.08.2021
6121 Clouds 26 1014 91 3256 1.79 123 23:18 16.08.2021
6122 Clouds 26 1013 86 8000 2.24 121 22:46 16.08.2021
6123 Clouds 26 1014 87 8000 2.24 121 22:27 16.08.2021
6124 Clouds 27 1013 83 8000 5.14 90 21:35 16.08.2021
6125 Clouds 26 1014 94 4855 6.17 90 20:49 16.08.2021
6126 Clouds 26 1014 89 8000 3.13 103 19:24 16.08.2021
6127 Clouds 26 1014 89 8000 5.14 90 18:24 16.08.2021
6128 Clouds 26 1015 94 1962 5.14 90 17:51 16.08.2021
6129 Clouds 25 1014 90 2141 2.68 84 15:49 16.08.2021
6130 Clouds 24 1014 96 2410 1.79 77 14:50 16.08.2021
6131 Clouds 23 1013 93 4000 1.34 74 13:38 16.08.2021
6132 Clouds 23 1012 94 3902 1.79 158 12:55 16.08.2021
6133 Clouds 25 1011 90 9841 2.24 54 10:38 16.08.2021
6134 Clouds 25 1011 89 10000 2.24 42 08:49 16.08.2021
6135 Clouds 26 1012 85 10000 1.34 9 07:34 16.08.2021
6136 Clouds 26 1012 87 10000 1.79 6 06:44 16.08.2021
6137 Clouds 26 1013 90 10000 4.31 8 02:22 16.08.2021
6138 Clouds 28 1011 82 8000 2.24 345 22:49 15.08.2021
6139 Clouds 32 1012 68 10000 2.68 51 20:41 15.08.2021
6140 Clouds 32 1013 68 10000 2.24 4 18:47 15.08.2021
6141 Clouds 32 1014 68 10000 2.24 6 17:56 15.08.2021
6142 Clouds 32 1014 68 10000 2.68 29 17:33 15.08.2021
6143 Clouds 31 1015 71 10000 2.24 21 16:24 15.08.2021
6144 Clouds 27 1015 87 10000 1.79 1 14:47 15.08.2021
6145 Clouds 28 1014 82 10000 1.34 358 13:55 15.08.2021
6146 Clouds 27 1014 86 10000 0.89 352 11:22 15.08.2021
6147 Clouds 25 1014 95 10000 2.44 348 08:59 15.08.2021
6148 Clouds 28 1015 82 10000 1.34 16 01:56 15.08.2021
6149 Clouds 29 1014 78 8000 1.79 47 00:37 15.08.2021
6150 Clouds 32 1014 68 10000 1.79 156 21:59 14.08.2021
6151 Clouds 33 1013 64 10000 1.79 175 20:58 14.08.2021
6152 Clouds 32 1015 66 10000 1.34 144 19:44 14.08.2021
6153 Clouds 32 1015 65 10000 1.34 87 18:40 14.08.2021
6154 Clouds 30 1016 72 10000 1.79 29 16:59 14.08.2021
6155 Clouds 28 1016 77 10000 2.24 9 15:47 14.08.2021
6156 Clouds 24 1015 94 10000 0 0 14:25 14.08.2021
6157 Clouds 26 1015 84 10000 1.34 340 12:19 14.08.2021
6158 Clouds 26 1015 84 10000 1.34 350 10:45 14.08.2021
6159 Clouds 26 1015 83 10000 1.34 344 07:40 14.08.2021
6160 Clouds 29 1014 80 10000 0.89 94 23:53 13.08.2021
6161 Clouds 31 1014 69 10000 1.34 146 22:26 13.08.2021
6162 Clouds 31 1015 71 10000 0.89 135 20:31 13.08.2021
6163 Clouds 32 1016 67 10000 1.79 56 18:47 13.08.2021
6164 Clouds 31 1017 71 10000 2.68 59 17:43 13.08.2021
6165 Clouds 29 1016 75 10000 2.24 62 16:24 13.08.2021
6166 Clouds 25 1015 89 10000 0.45 345 12:51 13.08.2021
6167 Clouds 25 1015 87 10000 0.45 344 11:20 13.08.2021
6168 Clouds 26 1015 85 10000 0.45 330 09:40 13.08.2021
6169 Clouds 26 1015 86 10000 0.89 322 08:36 13.08.2021
6170 Clouds 26 1016 87 10000 0.45 357 07:18 13.08.2021
6171 Clouds 26 1017 87 10000 0.89 344 04:59 13.08.2021
6172 Clouds 25 1014 89 8000 1.79 20 22:56 12.08.2021
6173 Clouds 25 1016 91 7000 1.34 44 21:20 12.08.2021
6174 Clouds 24 1017 91 10000 0.89 52 20:21 12.08.2021
6175 Clouds 24 1018 91 10000 0.45 270 19:27 12.08.2021
6176 Clouds 25 1018 92 8000 1.34 289 17:26 12.08.2021
6177 Clouds 23 1018 96 8000 0.89 347 16:28 12.08.2021
6178 Clouds 23 1017 96 10000 1.34 338 14:31 12.08.2021
6179 Clouds 23 1016 93 10000 0.45 84 12:23 12.08.2021
6180 Clouds 23 1014 93 10000 2.68 45 09:59 12.08.2021
6181 Clouds 24 1015 93 10000 2.24 285 07:54 12.08.2021
6182 Clouds 24 1014 94 6000 0.45 122 01:29 12.08.2021
6183 Clouds 23 1012 90 5000 4.47 136 22:51 11.08.2021
6184 Clouds 28 1013 78 4283 2.7 112 19:36 11.08.2021
6185 Clouds 27 1013 83 10000 6.17 360 18:28 11.08.2021
6186 Clouds 27 1013 82 10000 2.68 359 15:38 11.08.2021
6187 Clouds 26 1013 83 10000 2.68 352 15:20 11.08.2021
6188 Clouds 25 1013 87 7000 2.24 10 14:20 11.08.2021
6189 Clouds 25 1013 87 10000 2.24 357 12:30 11.08.2021
6190 Clouds 25 1012 90 10000 2.24 345 11:46 11.08.2021
6191 Clouds 25 1012 89 10000 1.79 344 11:22 11.08.2021
6192 Clouds 25 1013 88 10000 2.24 348 09:45 11.08.2021
6193 Clouds 27 1013 79 10000 2.24 353 07:50 11.08.2021
6194 Clouds 30 1013 70 10000 3.13 47 23:34 10.08.2021
6195 Clouds 30 1013 68 10000 2.68 50 22:29 10.08.2021
6196 Clouds 31 1014 70 10000 2.68 358 20:58 10.08.2021
6197 Clouds 31 1015 70 10000 3.13 41 19:51 10.08.2021
6198 Clouds 31 1017 70 10000 5.14 360 18:31 10.08.2021
6199 Clouds 29 1017 73 10000 2.68 42 16:28 10.08.2021
6200 Clouds 26 1017 82 10000 2.68 358 14:52 10.08.2021
6201 Clouds 25 1017 84 10000 1.34 345 12:22 10.08.2021
6202 Clouds 26 1016 85 10000 0.89 351 09:51 10.08.2021
6203 Clouds 26 1017 84 10000 1.79 356 06:48 10.08.2021
6204 Clouds 27 1017 83 10000 1.79 354 04:58 10.08.2021
6205 Clouds 29 1015 76 10000 1.34 106 23:41 09.08.2021
6206 Clouds 28 1016 78 10000 1.34 113 21:55 09.08.2021
6207 Clouds 28 1016 78 10000 1.34 115 21:34 09.08.2021
6208 Clouds 29 1017 76 7000 1.79 119 19:36 09.08.2021
6209 Clouds 29 1017 75 10000 1.34 90 17:22 09.08.2021
6210 Clouds 27 1017 85 8000 1.34 12 15:35 09.08.2021
6211 Clouds 25 1016 87 10000 1.79 345 13:46 09.08.2021
6212 Clouds 26 1017 86 5178 0.89 316 13:26 09.08.2021
6213 Clouds 26 1015 86 4318 1.79 9 10:44 09.08.2021
6214 Clouds 25 1016 96 3969 2.65 344 08:26 09.08.2021
6215 Clouds 24 1013 100 10000 3.09 360 23:26 08.08.2021
6216 Clouds 33 1014 62 10000 3.09 60 21:26 08.08.2021
6217 Clouds 32 1015 65 10000 2.68 44 19:29 08.08.2021
6218 Clouds 29 1016 72 10000 2.68 44 16:54 08.08.2021
6219 Clouds 28 1016 76 10000 2.24 13 15:33 08.08.2021
6220 Clear 26 1016 84 10000 1.34 352 13:23 08.08.2021
6221 Clear 26 1015 85 10000 1.79 3 11:25 08.08.2021
6222 Clear 26 1017 84 10000 1.34 359 06:45 08.08.2021
6223 Clear 27 1017 82 10000 1.79 357 05:37 08.08.2021
6224 Clouds 24 1016 94 7000 1.34 299 00:31 08.08.2021
6225 Clouds 26 1016 89 5000 3.09 150 22:19 07.08.2021
6226 Clouds 30 1016 70 10000 5.14 360 21:41 07.08.2021
6227 Clouds 29 1015 52 10000 3.01 83 20:35 07.08.2021
6228 Clouds 31 1017 65 10000 2.24 21 17:37 07.08.2021
6229 Clouds 30 1017 70 10000 1.79 38 16:42 07.08.2021
6230 Clouds 27 1017 82 10000 2.24 10 14:27 07.08.2021
6231 Clear 27 1017 81 10000 0.89 1 13:30 07.08.2021
6232 Clear 23 1017 95 10000 2.11 349 10:22 07.08.2021
6233 Clouds 24 1018 92 10000 2.5 2 05:40 07.08.2021
6234 Clouds 29 1016 76 8000 1.34 87 23:55 06.08.2021
6235 Clouds 30 1016 73 10000 2.24 109 21:23 06.08.2021
6236 Clouds 32 1017 67 10000 1.79 104 20:27 06.08.2021
6237 Clouds 32 1017 66 10000 1.79 138 19:55 06.08.2021
6238 Clouds 31 1018 65 10000 0.89 78 18:29 06.08.2021
6239 Clouds 27 1019 85 10000 1.79 25 13:56 06.08.2021
6240 Clear 26 1017 84 10000 1.79 349 10:31 06.08.2021
6241 Clear 26 1018 83 10000 0.89 344 09:26 06.08.2021
6242 Clouds 27 1017 86 7000 1.34 4 01:46 06.08.2021
6243 Clouds 30 1016 75 8000 0.89 145 23:27 05.08.2021
6244 Clouds 31 1017 70 10000 1.34 143 21:31 05.08.2021
6245 Clouds 29 1019 78 8000 0.89 124 19:56 05.08.2021
6246 Clouds 29 1019 76 10000 0.89 103 18:37 05.08.2021
6247 Clouds 29 1019 75 10000 1.79 106 15:47 05.08.2021
6248 Clouds 27 1018 83 10000 1.34 7 13:53 05.08.2021
6249 Clouds 26 1018 84 10000 0.89 343 10:50 05.08.2021
6250 Clouds 27 1018 83 10000 0.89 353 08:20 05.08.2021
6251 Clouds 27 1018 87 10000 0.1 290 03:37 05.08.2021
6252 Clouds 31 1016 72 10000 1.79 162 22:41 04.08.2021
6253 Clouds 32 1016 68 10000 1.79 128 21:26 04.08.2021
6254 Clouds 32 1016 65 10000 1.79 154 20:23 04.08.2021
6255 Clouds 30 1018 71 10000 1.34 142 17:23 04.08.2021
6256 Clouds 27 1016 83 10000 1.79 56 14:47 04.08.2021
6257 Clouds 26 1016 84 10000 1.34 356 12:23 04.08.2021
6258 Clouds 24 1016 94 10000 1.25 342 08:53 04.08.2021
6259 Clouds 31 1015 68 10000 1.79 130 21:46 03.08.2021
6260 Clouds 30 1015 69 8000 1.34 142 20:29 03.08.2021
6261 Clouds 30 1016 72 8000 1.79 156 18:47 03.08.2021
6262 Clouds 30 1017 73 10000 1.34 146 17:30 03.08.2021
6263 Clouds 27 1017 81 10000 1.34 359 13:58 03.08.2021
6264 Clouds 24 1016 93 10000 1.97 350 10:58 03.08.2021
6265 Clouds 24 1016 93 10000 1.97 350 10:38 03.08.2021
6266 Clouds 30 1015 73 10000 2.24 114 22:58 02.08.2021
6267 Clouds 30 1018 72 10000 1.79 79 16:45 02.08.2021
6268 Clouds 29 1018 73 10000 2.68 70 15:35 02.08.2021
6269 Clouds 26 1018 81 10000 0.89 5 12:40 02.08.2021
6270 Clouds 26 1017 81 10000 0.89 340 11:57 02.08.2021
6271 Clouds 24 1017 94 10000 2.23 339 10:26 02.08.2021
6272 Clouds 24 1018 94 10000 2.06 354 07:45 02.08.2021
6273 Clouds 32 1017 67 10000 2.24 116 19:33 01.08.2021
6274 Clouds 31 1018 72 10000 2.24 112 17:45 01.08.2021
6275 Clouds 24 1018 93 10000 2.13 0 11:39 01.08.2021
6276 Clouds 24 1017 92 10000 2.19 346 10:55 01.08.2021
6277 Clouds 27 1018 86 10000 1.34 19 03:49 01.08.2021
6278 Clouds 27 1016 90 10000 1.79 41 23:43 31.07.2021
6279 Thunderstorm 28 1016 85 10000 1.79 333 22:33 31.07.2021
6280 Clouds 30 1018 71 10000 1.34 89 18:20 31.07.2021
6281 Clouds 30 1018 73 10000 2.24 90 16:37 31.07.2021
6282 Clouds 25 1018 86 10000 2.54 354 13:31 31.07.2021
6283 Clear 27 1017 83 10000 1.34 359 10:28 31.07.2021
6284 Clear 28 1018 76 10000 2.12 22 02:48 31.07.2021
6285 Clouds 31 1016 71 10000 1.79 129 20:54 30.07.2021
6286 Clouds 31 1017 72 10000 1.79 133 20:22 30.07.2021
6287 Clouds 26 1018 87 10000 0.89 10 14:18 30.07.2021
6288 Clouds 28 1016 80 8000 1.79 113 18:52 29.07.2021
6289 Clouds 24 1016 94 10000 1.63 333 07:25 29.07.2021
6290 Clouds 25 1016 86 10000 1.34 344 04:49 29.07.2021
6291 Thunderstorm 29 1014 73 10000 0.89 119 22:21 28.07.2021
6292 Clouds 30 1016 68 10000 1.34 133 17:47 28.07.2021
6293 Clouds 30 1016 71 10000 2.24 63 16:54 28.07.2021
6294 Clouds 24 1015 91 10000 2.9 347 09:29 28.07.2021
6295 Clouds 30 1014 69 10000 1.79 81 23:44 27.07.2021
6296 Clouds 31 1015 69 10000 1.79 155 21:29 27.07.2021
6297 Clouds 27 1017 85 10000 1.34 29 14:53 27.07.2021
6298 Clouds 27 1016 83 10000 1.34 25 11:52 27.07.2021
6299 Clouds 27 1016 81 10000 0.89 354 10:20 27.07.2021
6300 Clouds 29 1016 82 7000 1.79 113 20:43 26.07.2021
6301 Clouds 28 1016 85 10000 1.34 14 15:32 26.07.2021
6302 Clouds 25 1015 90 10000 0.85 174 07:49 26.07.2021
6303 Clouds 32 1014 68 10000 1.79 199 20:57 25.07.2021
6304 Clouds 30 1014 75 10000 1.34 148 18:45 25.07.2021
6305 Clouds 28 1014 80 10000 0.89 61 16:20 25.07.2021
6306 Clouds 26 1012 84 10000 0.89 296 10:57 25.07.2021
6307 Clouds 27 1013 81 10000 0.45 307 08:20 25.07.2021
6308 Clouds 27 1013 85 10000 0.45 348 01:43 25.07.2021
6309 Clouds 27 1013 86 8000 0.45 298 20:19 24.07.2021
6310 Clouds 29 1014 76 10000 1.79 29 15:49 24.07.2021
6311 Clouds 28 1016 82 10000 1.79 9 04:20 24.07.2021
6312 Clouds 29 1018 78 10000 1.79 27 14:45 23.07.2021
6313 Clouds 24 1019 93 10000 2.44 338 12:42 23.07.2021
6314 Clouds 26 1018 83 10000 1.34 334 07:25 23.07.2021
6315 Clouds 31 1018 68 10000 1.79 154 20:33 22.07.2021
6316 Clouds 26 1019 83 10000 2.24 358 11:29 22.07.2021
6317 Clouds 26 1018 82 10000 1.79 345 09:23 22.07.2021
6318 Clouds 24 1019 94 10000 2.92 347 07:38 22.07.2021
6319 Clouds 32 1017 62 10000 1.34 107 21:46 21.07.2021
6320 Clouds 32 1017 62 10000 2.24 125 21:28 21.07.2021
6321 Clouds 27 1019 84 10000 2.24 9 14:54 21.07.2021
6322 Clouds 24 1018 89 10000 2.04 344 09:49 21.07.2021
6323 Clear 27 1017 83 10000 0.89 348 08:21 21.07.2021
6324 Clouds 30 1016 72 10000 1.34 122 23:47 20.07.2021
6325 Clouds 31 1018 70 10000 3.13 107 17:43 20.07.2021
6326 Clouds 30 1018 75 10000 2.68 121 16:25 20.07.2021
6327 Clouds 28 1017 82 10000 2.24 75 15:26 20.07.2021
6328 Clouds 27 1016 81 10000 0.45 6 10:22 20.07.2021
6329 Clouds 27 1018 85 10000 2.05 352 04:48 20.07.2021
6330 Clouds 31 1016 69 10000 3.13 111 22:25 19.07.2021
6331 Clouds 31 1016 69 10000 3.13 111 22:25 19.07.2021
6332 Clouds 26 1017 86 10000 0.89 3 12:54 19.07.2021
6333 Clouds 26 1016 87 10000 0.89 343 10:29 19.07.2021
6334 Clouds 28 1017 78 10000 0.45 140 19:42 18.07.2021
6335 Clouds 27 1018 84 10000 1.34 355 14:21 18.07.2021
6336 Clouds 26 1016 84 10000 1.34 356 10:18 18.07.2021
6337 Clouds 30 1016 72 10000 2.24 110 22:25 17.07.2021
6338 Clouds 30 1016 72 8000 1.79 111 21:53 17.07.2021
6339 Clouds 30 1016 72 8000 1.79 111 21:53 17.07.2021
6340 Clouds 30 1016 72 8000 2.24 99 21:34 17.07.2021
6341 Clouds 26 1017 83 10000 2.24 65 12:28 17.07.2021
6342 Clouds 26 1016 84 10000 1.34 352 08:55 17.07.2021
6343 Clouds 26 1018 88 10000 1.34 23 04:46 17.07.2021
6344 Clouds 26 1017 86 10000 1.34 26 14:22 16.07.2021
6345 Clouds 25 1016 83 10000 1.34 346 07:33 16.07.2021
6346 Clear 25 1017 86 10000 1.79 347 02:18 16.07.2021
6347 Clouds 25 1017 82 10000 1.34 344 13:53 15.07.2021
6348 Clouds 24 1017 83 10000 1.34 13 12:25 15.07.2021
6349 Clouds 25 1017 85 10000 0.89 339 07:30 15.07.2021
6350 Clouds 25 1018 88 8000 3.09 30 19:39 14.07.2021
6351 Clouds 27 1019 79 10000 2.57 30 15:56 14.07.2021
6352 Clouds 24 1018 90 10000 2.67 354 09:52 14.07.2021
6353 Clouds 31 1016 70 10000 3.09 30 23:19 13.07.2021
6354 Clouds 31 1018 66 10000 3.09 110 19:57 13.07.2021
6355 Clouds 31 1018 66 10000 3.09 110 19:28 13.07.2021
6356 Clouds 30 1019 69 10000 3.09 60 18:49 13.07.2021
6357 Clouds 30 1019 70 10000 3.09 60 18:31 13.07.2021
6358 Clouds 30 1019 70 10000 5.14 360 17:56 13.07.2021
6359 Clouds 25 1019 90 10000 2.61 351 13:21 13.07.2021
6360 Clouds 24 1018 90 10000 2.87 6 08:50 13.07.2021
6361 Clouds 26 1018 84 10000 0 0 20:24 12.07.2021
6362 Clouds 28 1018 83 10000 0 0 16:46 12.07.2021
6363 Clouds 24 1018 95 10000 2.41 340 12:21 12.07.2021
6364 Clouds 24 1018 95 10000 2.41 340 12:21 12.07.2021
6365 Clouds 24 1018 95 10000 2.41 340 12:21 12.07.2021
6366 Clouds 24 1018 95 10000 2.41 340 12:21 12.07.2021
6367 Clouds 26 1018 85 10000 0 0 23:20 11.07.2021
6368 Clouds 30 1017 66 8000 5.14 10 19:54 11.07.2021
6369 Clear 24 1017 90 10000 3.27 343 11:26 11.07.2021
6370 Clouds 28 1015 85 7000 5.14 60 22:58 10.07.2021
6371 Clouds 26 1017 82 10000 2.24 5 12:37 10.07.2021
6372 Clouds 26 1017 87 10000 3.27 345 07:49 10.07.2021
6373 Clouds 31 1016 66 10000 3.09 20 01:23 10.07.2021
6374 Clouds 32 1018 63 10000 3.58 52 18:20 09.07.2021
6375 Clouds 27 1019 81 10000 2.68 17 14:48 09.07.2021
6376 Clouds 26 1018 93 10000 2.82 2 08:37 09.07.2021
6377 Clouds 30 1016 74 10000 1.34 114 23:51 08.07.2021
6378 Clouds 31 1016 67 10000 1.79 116 22:35 08.07.2021
6379 Clouds 31 1018 68 10000 1.79 122 18:56 08.07.2021
6380 Clouds 31 1018 67 10000 1.79 107 17:42 08.07.2021
6381 Clouds 27 1017 84 10000 1.34 5 13:31 08.07.2021
6382 Clouds 27 1017 83 10000 1.34 26 12:41 08.07.2021
6383 Clouds 27 1017 83 10000 1.34 28 11:32 08.07.2021
6384 Clouds 27 1017 83 10000 1.34 18 09:51 08.07.2021
6385 Clouds 27 1017 80 10000 0.89 347 04:42 08.07.2021
6386 Thunderstorm 26 1015 79 10000 2.24 292 00:34 08.07.2021
6387 Clouds 28 1015 81 7000 1.34 121 22:21 07.07.2021
6388 Clouds 30 1015 71 10000 1.34 125 21:48 07.07.2021
6389 Clouds 30 1015 71 10000 1.79 126 21:27 07.07.2021
6390 Clouds 31 1016 67 8000 2.24 111 20:42 07.07.2021
6391 Clouds 31 1016 67 10000 2.68 116 19:55 07.07.2021
6392 Clouds 31 1016 69 10000 2.24 118 19:27 07.07.2021
6393 Clouds 30 1018 71 10000 1.79 44 16:49 07.07.2021
6394 Clouds 28 1018 76 10000 1.79 44 15:26 07.07.2021
6395 Clouds 26 1017 82 10000 1.34 25 12:24 07.07.2021
6396 Clouds 25 1018 86 10000 2.52 336 07:45 07.07.2021
6397 Clouds 26 1019 92 10000 1.96 327 05:57 07.07.2021
6398 Clouds 27 1019 91 10000 1.59 333 04:39 07.07.2021
6399 Clouds 31 1018 67 10000 2.24 131 20:57 06.07.2021
6400 Clouds 32 1018 66 10000 8.23 170 19:18 06.07.2021
6401 Clouds 31 1019 65 10000 5.14 110 18:45 06.07.2021
6402 Clouds 32 1019 65 10000 5.14 110 18:22 06.07.2021
6403 Clouds 25 1019 86 10000 1.06 340 13:37 06.07.2021
6404 Clouds 24 1018 92 10000 1.49 333 10:28 06.07.2021
6405 Clouds 24 1018 92 10000 1.49 333 09:39 06.07.2021
6406 Clouds 25 1018 92 10000 1.56 327 08:32 06.07.2021
6407 Rain 27 1019 89 10000 0.65 45 04:50 06.07.2021
6408 Clouds 30 1014 66 10000 5.14 180 23:58 05.07.2021
6409 Clouds 32 1017 64 10000 5.14 180 21:59 05.07.2021
6410 Clouds 31 1018 71 10000 2.57 160 17:22 05.07.2021
6411 Clouds 25 1017 91 10000 0 0 14:29 05.07.2021
6412 Clouds 27 1018 83 10000 1.19 320 06:21 05.07.2021
6413 Clouds 25 1018 89 10000 1.19 320 05:42 05.07.2021
6414 Clouds 27 1018 87 10000 0.81 190 02:48 05.07.2021
6415 Clouds 31 1017 75 10000 4.39 149 21:52 04.07.2021
6416 Clouds 32 1019 66 10000 5.14 160 18:51 04.07.2021
6417 Clouds 28 1018 84 10000 4.12 120 15:38 04.07.2021
6418 Clouds 24 1017 94 10000 1.79 146 11:43 04.07.2021
6419 Clouds 28 1016 92 10000 2.87 119 08:38 04.07.2021
6420 Clouds 28 1014 85 10000 5.26 132 23:31 03.07.2021
6421 Clouds 28 1014 83 10000 5.14 170 22:19 03.07.2021
6422 Clouds 27 1016 82 8000 4.02 63 14:19 03.07.2021
6423 Clouds 26 1016 93 7239 3.74 12 12:37 03.07.2021
6424 Clouds 26 1015 95 10000 3.71 348 09:28 03.07.2021
6425 Clouds 26 1015 89 10000 3.09 10 08:46 03.07.2021
6426 Clouds 29 1015 73 10000 0.89 145 01:34 03.07.2021
6427 Clouds 26 1016 82 10000 1.34 16 12:51 02.07.2021
6428 Clouds 26 1017 82 10000 1.79 56 07:40 02.07.2021
6429 Clouds 25 1018 84 10000 1.34 337 04:38 02.07.2021
6430 Clouds 29 1015 77 10000 2.24 108 22:32 01.07.2021
6431 Clouds 28 1015 81 10000 2.68 106 21:40 01.07.2021
6432 Clouds 27 1016 86 8000 0.89 66 20:38 01.07.2021
6433 Clouds 27 1016 89 4000 0.89 76 19:21 01.07.2021
6434 Clouds 29 1016 75 10000 0.89 58 18:48 01.07.2021
6435 Clouds 31 1016 68 10000 1.79 25 17:48 01.07.2021
6436 Clouds 30 1016 72 10000 2.68 41 16:49 01.07.2021
6437 Clouds 28 1017 77 10000 2.24 346 15:24 01.07.2021
6438 Clouds 27 1016 83 10000 3.09 360 14:23 01.07.2021
6439 Clouds 24 1015 93 10000 2.58 346 10:55 01.07.2021
6440 Clouds 27 1017 82 10000 2.91 347 05:32 01.07.2021
6441 Clouds 31 1014 68 10000 1.34 163 23:19 30.06.2021
6442 Clouds 32 1014 65 10000 1.34 125 21:59 30.06.2021
6443 Clouds 32 1015 66 10000 1.79 157 21:21 30.06.2021
6444 Clouds 32 1015 66 10000 1.34 136 20:26 30.06.2021
6445 Clouds 30 1017 70 10000 2.24 127 17:21 30.06.2021
6446 Clouds 26 1016 86 10000 1.79 48 14:25 30.06.2021
6447 Clouds 26 1016 86 10000 1.79 48 14:25 30.06.2021
6448 Clouds 26 1017 84 10000 0.89 5 12:59 30.06.2021
6449 Clouds 26 1017 82 10000 0.89 31 07:30 30.06.2021
6450 Clouds 31 1016 68 10000 1.79 160 21:28 29.06.2021
6451 Clouds 30 1019 70 10000 2.24 117 18:36 29.06.2021
6452 Clouds 30 1019 71 10000 2.68 112 17:30 29.06.2021
6453 Clouds 29 1019 76 10000 1.79 103 15:52 29.06.2021
6454 Clouds 26 1018 85 10000 1.34 61 14:58 29.06.2021
6455 Clouds 26 1018 84 10000 0.89 4 13:30 29.06.2021
6456 Clouds 26 1018 84 10000 0.89 344 12:19 29.06.2021
6457 Clouds 27 1016 80 7000 1.34 40 00:41 29.06.2021
6458 Clouds 30 1016 71 10000 2.24 118 21:47 28.06.2021
6459 Clouds 30 1017 69 10000 2.24 124 19:40 28.06.2021
6460 Clouds 30 1018 68 10000 2.24 93 17:21 28.06.2021
6461 Clouds 28 1018 77 10000 1.34 91 15:22 28.06.2021
6462 Clouds 26 1017 85 10000 0.89 2 12:58 28.06.2021
6463 Clouds 26 1017 85 10000 0.27 169 05:50 28.06.2021
6464 Clouds 30 1014 72 10000 1.79 135 23:44 27.06.2021
6465 Clouds 30 1014 70 10000 1.79 119 21:24 27.06.2021
6466 Clouds 31 1015 70 10000 1.79 120 19:40 27.06.2021
6467 Clouds 28 1015 80 10000 3.09 30 15:58 27.06.2021
6468 Clouds 24 1015 89 10000 0.65 19 13:21 27.06.2021
6469 Clouds 25 1015 86 10000 0.93 17 06:41 27.06.2021
6470 Clouds 30 1013 67 10000 2.24 88 22:46 26.06.2021
6471 Clouds 31 1014 64 10000 1.34 143 20:59 26.06.2021
6472 Clouds 31 1013 63 10000 1.79 164 20:40 26.06.2021
6473 Clouds 31 1014 70 10000 1.34 131 18:21 26.06.2021
6474 Clouds 26 1014 86 10000 1.34 357 14:58 26.06.2021
6475 Clouds 24 1014 87 10000 0.89 347 12:28 26.06.2021
6476 Clouds 24 1015 88 10000 0.89 344 07:53 26.06.2021
6477 Clouds 24 1014 93 6000 1.34 4 01:24 26.06.2021
6478 Clouds 25 1014 100 4000 0 0 20:39 25.06.2021
6479 Clouds 31 1014 69 10000 1.34 155 19:31 25.06.2021
6480 Clouds 30 1015 67 10000 1.34 117 17:48 25.06.2021
6481 Clouds 29 1016 74 10000 2.68 76 16:49 25.06.2021
6482 Clouds 27 1016 83 10000 1.79 24 14:47 25.06.2021
6483 Clouds 24 1015 86 10000 0.89 355 10:52 25.06.2021
6484 Clouds 24 1015 87 10000 1.34 350 08:22 25.06.2021
6485 Clouds 25 1016 86 10000 0.89 356 07:20 25.06.2021
6486 Clouds 26 1016 85 10000 1.79 351 03:46 25.06.2021
6487 Clouds 27 1014 79 10000 1.79 3 21:49 24.06.2021
6488 Clouds 27 1015 79 8000 1.79 351 20:59 24.06.2021
6489 Clouds 27 1016 80 8000 1.79 48 20:39 24.06.2021
6490 Clouds 30 1016 70 10000 1.34 139 18:43 24.06.2021
6491 Clouds 28 1016 79 10000 1.34 6 15:29 24.06.2021
6492 Clouds 26 1016 82 10000 2.24 5 14:55 24.06.2021
6493 Clouds 26 1016 83 10000 2.68 3 14:25 24.06.2021
6494 Clouds 25 1015 84 10000 1.34 356 10:57 24.06.2021
6495 Clouds 24 1015 83 10000 1.34 357 09:27 24.06.2021
6496 Clouds 25 1015 84 10000 1.79 346 08:22 24.06.2021
6497 Clouds 27 1017 76 10000 1.79 44 02:32 24.06.2021
6498 Clouds 31 1016 66 8000 5.14 90 22:36 23.06.2021
6499 Clouds 30 1017 67 10000 4.02 68 21:43 23.06.2021
6500 Clouds 31 1016 66 10000 1.79 119 20:21 23.06.2021
6501 Clouds 30 1018 71 10000 1.34 87 18:33 23.06.2021
6502 Clouds 29 1018 75 10000 2.24 68 17:21 23.06.2021
6503 Clouds 26 1018 87 10000 1.79 12 14:58 23.06.2021
6504 Clouds 25 1017 87 10000 0.89 338 12:51 23.06.2021
6505 Clouds 26 1017 85 10000 0.89 4 11:53 23.06.2021
6506 Clouds 25 1017 86 10000 0.89 357 09:55 23.06.2021
6507 Clouds 25 1017 87 10000 0.89 9 08:42 23.06.2021
6508 Clouds 25 1017 87 10000 1.34 7 07:50 23.06.2021
6509 Clouds 26 1018 85 10000 1.34 41 06:43 23.06.2021
6510 Clouds 26 1018 86 10000 1.34 14 02:29 23.06.2021
6511 Clouds 26 1018 86 10000 1.34 14 02:29 23.06.2021
6512 Clouds 25 1017 91 10000 0.89 46 00:22 23.06.2021
6513 Clouds 26 1016 86 10000 1.79 1 23:47 22.06.2021
6514 Clouds 26 1016 87 8000 1.79 2 22:44 22.06.2021
6515 Clouds 26 1016 87 8000 1.79 2 22:44 22.06.2021
6516 Clouds 26 1017 90 8000 0.45 62 21:47 22.06.2021
6517 Clouds 29 1018 74 10000 4.12 360 20:55 22.06.2021
6518 Clouds 30 1018 71 10000 1.79 54 19:23 22.06.2021
6519 Clouds 29 1018 75 10000 1.34 357 18:53 22.06.2021
6520 Clouds 29 1019 75 10000 1.79 16 18:19 22.06.2021
6521 Clouds 29 1019 76 10000 1.34 41 17:21 22.06.2021
6522 Clouds 27 1019 81 10000 1.34 16 15:48 22.06.2021
6523 Clouds 26 1018 88 10000 1.34 350 14:32 22.06.2021
6524 Clouds 26 1018 83 10000 1.79 6 13:43 22.06.2021
6525 Clouds 26 1017 85 10000 1.79 2 12:31 22.06.2021
6526 Clouds 26 1016 85 10000 1.34 1 10:57 22.06.2021
6527 Clouds 26 1017 86 10000 1.34 357 08:56 22.06.2021
6528 Clouds 25 1018 84 10000 0.89 298 03:29 22.06.2021
6529 Clouds 26 1018 86 10000 1.79 14 00:37 22.06.2021
6530 Clouds 28 1017 81 10000 3.13 61 22:52 21.06.2021
6531 Clouds 29 1017 89 7000 0 0 21:38 21.06.2021
6532 Clouds 29 1017 80 10000 1.79 101 20:52 21.06.2021
6533 Clouds 30 1018 76 7000 1.34 113 19:56 21.06.2021
6534 Clouds 29 1018 78 7000 0.89 167 19:29 21.06.2021
6535 Clouds 29 1019 80 10000 1.79 72 18:20 21.06.2021
6536 Clouds 29 1019 77 10000 2.68 63 16:53 21.06.2021
6537 Clouds 29 1019 77 10000 1.34 40 16:27 21.06.2021
6538 Clouds 27 1019 84 10000 1.34 40 15:56 21.06.2021
6539 Clouds 27 1019 85 10000 1.79 36 15:19 21.06.2021
6540 Clouds 27 1018 85 10000 1.79 43 13:40 21.06.2021
6541 Clouds 27 1018 84 10000 1.79 43 12:55 21.06.2021
6542 Clouds 27 1017 84 10000 1.34 45 12:31 21.06.2021
6543 Clouds 27 1017 83 10000 0.89 21 10:42 21.06.2021
6544 Clouds 27 1017 83 10000 1.34 349 10:18 21.06.2021
6545 Clouds 26 1017 85 10000 0.89 4 08:30 21.06.2021
6546 Clouds 26 1018 85 10000 1.34 354 07:55 21.06.2021
6547 Clouds 27 1017 78 10000 1.79 2 01:20 21.06.2021
6548 Clouds 29 1017 72 10000 1.34 97 23:48 20.06.2021
6549 Clouds 29 1017 72 10000 0.89 263 23:28 20.06.2021
6550 Clouds 30 1017 74 10000 3.13 114 22:47 20.06.2021
6551 Clouds 30 1016 74 7000 2.24 125 21:37 20.06.2021
6552 Clouds 32 1017 67 8000 2.24 127 20:22 20.06.2021
6553 Clouds 32 1018 66 10000 2.24 113 19:35 20.06.2021
6554 Clouds 31 1018 69 10000 1.34 155 18:44 20.06.2021
6555 Clouds 31 1019 71 10000 1.34 113 17:35 20.06.2021
6556 Clouds 30 1019 72 10000 1.34 78 16:39 20.06.2021
6557 Clouds 29 1019 79 10000 1.79 49 15:36 20.06.2021
6558 Clouds 27 1019 83 10000 1.79 37 14:55 20.06.2021
6559 Clouds 27 1018 89 10000 2.85 25 14:36 20.06.2021
6560 Clouds 26 1019 87 10000 2.56 346 13:19 20.06.2021
6561 Clouds 26 1017 83 10000 1.79 344 11:48 20.06.2021
6562 Clouds 26 1017 83 10000 1.34 342 10:55 20.06.2021
6563 Clouds 26 1017 82 10000 1.79 347 09:48 20.06.2021
6564 Clouds 25 1018 94 10000 2.06 20 08:36 20.06.2021
6565 Clouds 30 1017 71 10000 1.34 106 00:38 20.06.2021
6566 Clouds 30 1017 67 10000 3.13 110 23:26 19.06.2021
6567 Clouds 31 1017 68 10000 1.79 119 22:29 19.06.2021
6568 Clouds 32 1017 63 10000 1.79 115 21:44 19.06.2021
6569 Clouds 32 1018 66 10000 1.79 114 19:22 19.06.2021
6570 Clouds 31 1018 65 10000 1.79 130 18:47 19.06.2021
6571 Clouds 30 1018 73 10000 1.79 114 17:51 19.06.2021
6572 Clouds 30 1019 71 10000 2.24 106 17:19 19.06.2021
6573 Clouds 28 1019 78 10000 2.24 91 15:49 19.06.2021
6574 Clouds 25 1019 93 8000 1.79 13 14:19 19.06.2021
6575 Clouds 26 1018 86 10000 0.89 353 12:45 19.06.2021
6576 Clouds 26 1017 87 10000 1.34 5 11:22 19.06.2021
6577 Clouds 26 1017 86 10000 0.89 18 10:37 19.06.2021
6578 Clouds 26 1017 86 10000 1.34 355 10:18 19.06.2021
6579 Clouds 25 1017 94 10000 2.06 40 08:36 19.06.2021
6580 Clouds 26 1017 86 10000 0.89 41 07:41 19.06.2021
6581 Clouds 27 1019 85 10000 1.66 356 05:42 19.06.2021
6582 Clouds 29 1016 74 10000 2.24 119 00:25 19.06.2021
6583 Clouds 29 1016 75 10000 2.24 116 23:58 18.06.2021
6584 Clouds 29 1016 75 10000 2.24 116 23:58 18.06.2021
6585 Clouds 30 1016 75 10000 1.79 129 22:58 18.06.2021
6586 Clouds 29 1016 75 10000 3.13 117 22:36 18.06.2021
6587 Clouds 29 1016 76 10000 2.24 121 21:52 18.06.2021
6588 Clouds 30 1016 77 10000 1.34 126 21:27 18.06.2021
6589 Clouds 30 1017 76 10000 2.24 121 20:35 18.06.2021
6590 Clouds 28 1018 84 10000 3.13 116 18:57 18.06.2021
6591 Clouds 28 1018 84 10000 2.24 110 18:18 18.06.2021
6592 Clouds 27 1018 89 8000 1.34 88 16:48 18.06.2021
6593 Clouds 25 1018 94 8000 0.89 337 15:53 18.06.2021
6594 Clouds 25 1018 92 10000 1.34 358 14:51 18.06.2021
6595 Clouds 24 1017 93 10000 1.79 245 13:56 18.06.2021
6596 Clouds 25 1016 93 10000 0.89 89 13:23 18.06.2021
6597 Clouds 24 1016 92 10000 1.34 354 12:43 18.06.2021
6598 Clouds 25 1016 91 10000 1.79 202 11:48 18.06.2021
6599 Clouds 26 1016 88 4500 0.89 6 11:19 18.06.2021
6600 Clouds 26 1015 87 4500 1.34 10 10:42 18.06.2021
6601 Clouds 26 1015 89 10000 0.89 6 10:19 18.06.2021
6602 Clouds 26 1015 89 10000 1.34 8 09:23 18.06.2021
6603 Clouds 26 1016 92 10000 1.81 358 08:35 18.06.2021
6604 Clouds 26 1016 86 10000 1.25 348 07:41 18.06.2021
6605 Clouds 27 1017 84 10000 1.55 352 06:30 18.06.2021
6606 Clouds 27 1017 84 10000 1.55 352 06:30 18.06.2021
6607 Clouds 29 1013 79 10000 0.89 147 00:38 18.06.2021
6608 Clouds 31 1013 72 10000 0.89 122 23:32 17.06.2021
6609 Clouds 30 1014 75 7000 1.79 140 22:41 17.06.2021
6610 Clouds 30 1014 75 7000 1.79 140 22:22 17.06.2021
6611 Clouds 31 1014 73 7000 1.34 126 21:25 17.06.2021
6612 Clouds 32 1014 72 7000 1.79 149 20:45 17.06.2021
6613 Clouds 32 1015 72 7000 2.24 115 20:19 17.06.2021
6614 Clouds 31 1015 71 7000 2.24 116 19:44 17.06.2021
6615 Clouds 31 1016 70 10000 3.13 116 18:00 17.06.2021
6616 Clouds 32 1016 68 10000 1.34 141 17:40 17.06.2021
6617 Clouds 31 1016 71 10000 1.34 150 17:18 17.06.2021
6618 Clouds 30 1016 73 10000 1.79 131 16:24 17.06.2021
6619 Clouds 28 1016 82 10000 1.79 74 14:53 17.06.2021
6620 Clouds 28 1017 82 10000 0.89 28 13:56 17.06.2021
6621 Clouds 27 1016 83 10000 1.34 11 12:34 17.06.2021
6622 Clouds 24 1016 91 10000 2.36 345 11:52 17.06.2021
6623 Clouds 25 1016 91 10000 2 347 10:46 17.06.2021
6624 Clouds 25 1015 90 10000 1.79 346 10:24 17.06.2021